<?xml version="1.0" encoding="UTF-8" standalone="no" ?>
<gpx xmlns="http://www.topografix.com/GPX/1/1" xmlns:xsi="http://www.w3.org/2001/XMLSchema-instance" xsi:schemaLocation="http://www.topografix.com/GPX/1/1 http://www.topografix.com/GPX/1/1/gpx.xsd" version="1.1" creator="VisuGPX - https://www.visugpx.com">
  <metadata>
    <name>charnier   Gde lance de domène   Col du Loup</name>
    <desc><![CDATA[07/05/2013: charnier   Gde lance de domène   Col du Loup]]></desc>
  </metadata>
  <trk>
    <name><![CDATA[07/05/2013 Gde Lance De Domene ++]]></name>
    <desc><![CDATA[]]></desc>
    <trkseg>
      <trkpt lat="45.18918" lon="5.91267">
        <ele>1307</ele>
        <time>2013-05-07T04:06:58.000Z</time>
      </trkpt>
      <trkpt lat="45.18964" lon="5.91251">
        <ele>1291</ele>
        <time>2013-05-07T04:07:18.000Z</time>
      </trkpt>
      <trkpt lat="45.18893" lon="5.91035">
        <ele>1319</ele>
        <time>2013-05-07T04:09:18.000Z</time>
      </trkpt>
      <trkpt lat="45.1891" lon="5.91056">
        <ele>1320</ele>
        <time>2013-05-07T04:09:28.000Z</time>
      </trkpt>
      <trkpt lat="45.18852" lon="5.91152">
        <ele>1345</ele>
        <time>2013-05-07T04:09:38.000Z</time>
      </trkpt>
      <trkpt lat="45.188" lon="5.91257">
        <ele>1356</ele>
        <time>2013-05-07T04:09:48.000Z</time>
      </trkpt>
      <trkpt lat="45.18704" lon="5.91431">
        <ele>1326</ele>
        <time>2013-05-07T04:09:58.000Z</time>
      </trkpt>
      <trkpt lat="45.18695" lon="5.9146">
        <ele>1324</ele>
        <time>2013-05-07T04:10:18.000Z</time>
      </trkpt>
      <trkpt lat="45.18686" lon="5.91468">
        <ele>1324</ele>
        <time>2013-05-07T04:10:28.000Z</time>
      </trkpt>
      <trkpt lat="45.18692" lon="5.91477">
        <ele>1322</ele>
        <time>2013-05-07T04:10:38.000Z</time>
      </trkpt>
      <trkpt lat="45.18689" lon="5.9149">
        <ele>1322</ele>
        <time>2013-05-07T04:10:48.000Z</time>
      </trkpt>
      <trkpt lat="45.18692" lon="5.91491">
        <ele>1321</ele>
        <time>2013-05-07T04:10:58.000Z</time>
      </trkpt>
      <trkpt lat="45.18692" lon="5.91516">
        <ele>1307</ele>
        <time>2013-05-07T04:11:08.000Z</time>
      </trkpt>
      <trkpt lat="45.18695" lon="5.91517">
        <ele>1305</ele>
        <time>2013-05-07T04:11:28.000Z</time>
      </trkpt>
      <trkpt lat="45.18697" lon="5.91514">
        <ele>1305</ele>
        <time>2013-05-07T04:11:38.000Z</time>
      </trkpt>
      <trkpt lat="45.1867" lon="5.91516">
        <ele>1314</ele>
        <time>2013-05-07T04:11:58.000Z</time>
      </trkpt>
      <trkpt lat="45.18679" lon="5.91527">
        <ele>1308</ele>
        <time>2013-05-07T04:12:08.000Z</time>
      </trkpt>
      <trkpt lat="45.18641" lon="5.9162">
        <ele>1316</ele>
        <time>2013-05-07T04:12:28.000Z</time>
      </trkpt>
      <trkpt lat="45.18635" lon="5.91642">
        <ele>1314</ele>
        <time>2013-05-07T04:12:58.000Z</time>
      </trkpt>
      <trkpt lat="45.18605" lon="5.91633">
        <ele>1323</ele>
        <time>2013-05-07T04:13:08.000Z</time>
      </trkpt>
      <trkpt lat="45.18579" lon="5.91635">
        <ele>1349</ele>
        <time>2013-05-07T04:13:18.000Z</time>
      </trkpt>
      <trkpt lat="45.18556" lon="5.91639">
        <ele>1353</ele>
        <time>2013-05-07T04:13:28.000Z</time>
      </trkpt>
      <trkpt lat="45.18553" lon="5.91632">
        <ele>1354</ele>
        <time>2013-05-07T04:13:38.000Z</time>
      </trkpt>
      <trkpt lat="45.18546" lon="5.91631">
        <ele>1356</ele>
        <time>2013-05-07T04:13:48.000Z</time>
      </trkpt>
      <trkpt lat="45.18508" lon="5.91622">
        <ele>1364</ele>
        <time>2013-05-07T04:14:28.000Z</time>
      </trkpt>
      <trkpt lat="45.18504" lon="5.91618">
        <ele>1365</ele>
        <time>2013-05-07T04:14:48.000Z</time>
      </trkpt>
      <trkpt lat="45.18472" lon="5.91625">
        <ele>1397</ele>
        <time>2013-05-07T04:15:18.000Z</time>
      </trkpt>
      <trkpt lat="45.18471" lon="5.91654">
        <ele>1394</ele>
        <time>2013-05-07T04:15:28.000Z</time>
      </trkpt>
      <trkpt lat="45.18458" lon="5.9168">
        <ele>1387</ele>
        <time>2013-05-07T04:15:58.000Z</time>
      </trkpt>
      <trkpt lat="45.18492" lon="5.91664">
        <ele>1379</ele>
        <time>2013-05-07T04:16:28.000Z</time>
      </trkpt>
      <trkpt lat="45.18429" lon="5.91661">
        <ele>1411</ele>
        <time>2013-05-07T04:16:58.000Z</time>
      </trkpt>
      <trkpt lat="45.18403" lon="5.91635">
        <ele>1445</ele>
        <time>2013-05-07T04:17:08.000Z</time>
      </trkpt>
      <trkpt lat="45.1834" lon="5.91554">
        <ele>1472</ele>
        <time>2013-05-07T04:17:48.000Z</time>
      </trkpt>
      <trkpt lat="45.18376" lon="5.91648">
        <ele>1453</ele>
        <time>2013-05-07T04:17:58.000Z</time>
      </trkpt>
      <trkpt lat="45.18368" lon="5.91654">
        <ele>1456</ele>
        <time>2013-05-07T04:18:08.000Z</time>
      </trkpt>
      <trkpt lat="45.1836" lon="5.9162">
        <ele>1460</ele>
        <time>2013-05-07T04:18:38.000Z</time>
      </trkpt>
      <trkpt lat="45.18336" lon="5.91539">
        <ele>1471</ele>
        <time>2013-05-07T04:18:48.000Z</time>
      </trkpt>
      <trkpt lat="45.18303" lon="5.91545">
        <ele>1490</ele>
        <time>2013-05-07T04:18:58.000Z</time>
      </trkpt>
      <trkpt lat="45.18295" lon="5.91563">
        <ele>1491</ele>
        <time>2013-05-07T04:19:18.000Z</time>
      </trkpt>
      <trkpt lat="45.18283" lon="5.91562">
        <ele>1492</ele>
        <time>2013-05-07T04:19:28.000Z</time>
      </trkpt>
      <trkpt lat="45.18285" lon="5.91605">
        <ele>1488</ele>
        <time>2013-05-07T04:19:38.000Z</time>
      </trkpt>
      <trkpt lat="45.18283" lon="5.91622">
        <ele>1487</ele>
        <time>2013-05-07T04:19:48.000Z</time>
      </trkpt>
      <trkpt lat="45.1828" lon="5.9163">
        <ele>1487</ele>
        <time>2013-05-07T04:19:58.000Z</time>
      </trkpt>
      <trkpt lat="45.18277" lon="5.91647">
        <ele>1485</ele>
        <time>2013-05-07T04:20:08.000Z</time>
      </trkpt>
      <trkpt lat="45.18273" lon="5.91648">
        <ele>1485</ele>
        <time>2013-05-07T04:20:18.000Z</time>
      </trkpt>
      <trkpt lat="45.18258" lon="5.9164">
        <ele>1486</ele>
        <time>2013-05-07T04:20:28.000Z</time>
      </trkpt>
      <trkpt lat="45.18257" lon="5.91638">
        <ele>1486</ele>
        <time>2013-05-07T04:20:38.000Z</time>
      </trkpt>
      <trkpt lat="45.18249" lon="5.91637">
        <ele>1488</ele>
        <time>2013-05-07T04:20:48.000Z</time>
      </trkpt>
      <trkpt lat="45.18244" lon="5.91639">
        <ele>1488</ele>
        <time>2013-05-07T04:20:58.000Z</time>
      </trkpt>
      <trkpt lat="45.18238" lon="5.91646">
        <ele>1487</ele>
        <time>2013-05-07T04:21:08.000Z</time>
      </trkpt>
      <trkpt lat="45.18233" lon="5.9165">
        <ele>1487</ele>
        <time>2013-05-07T04:21:18.000Z</time>
      </trkpt>
      <trkpt lat="45.18227" lon="5.91657">
        <ele>1486</ele>
        <time>2013-05-07T04:21:28.000Z</time>
      </trkpt>
      <trkpt lat="45.18224" lon="5.91658">
        <ele>1486</ele>
        <time>2013-05-07T04:21:38.000Z</time>
      </trkpt>
      <trkpt lat="45.18215" lon="5.91648">
        <ele>1487</ele>
        <time>2013-05-07T04:21:48.000Z</time>
      </trkpt>
      <trkpt lat="45.18207" lon="5.91654">
        <ele>1486</ele>
        <time>2013-05-07T04:21:58.000Z</time>
      </trkpt>
      <trkpt lat="45.182" lon="5.91657">
        <ele>1486</ele>
        <time>2013-05-07T04:22:08.000Z</time>
      </trkpt>
      <trkpt lat="45.18193" lon="5.91668">
        <ele>1468</ele>
        <time>2013-05-07T04:22:18.000Z</time>
      </trkpt>
      <trkpt lat="45.18182" lon="5.91669">
        <ele>1470</ele>
        <time>2013-05-07T04:22:28.000Z</time>
      </trkpt>
      <trkpt lat="45.18173" lon="5.91661">
        <ele>1479</ele>
        <time>2013-05-07T04:22:38.000Z</time>
      </trkpt>
      <trkpt lat="45.18164" lon="5.9166">
        <ele>1480</ele>
        <time>2013-05-07T04:22:48.000Z</time>
      </trkpt>
      <trkpt lat="45.18157" lon="5.91655">
        <ele>1484</ele>
        <time>2013-05-07T04:22:58.000Z</time>
      </trkpt>
      <trkpt lat="45.18152" lon="5.91656">
        <ele>1485</ele>
        <time>2013-05-07T04:23:08.000Z</time>
      </trkpt>
      <trkpt lat="45.18142" lon="5.91656">
        <ele>1488</ele>
        <time>2013-05-07T04:23:18.000Z</time>
      </trkpt>
      <trkpt lat="45.18138" lon="5.91658">
        <ele>1489</ele>
        <time>2013-05-07T04:23:28.000Z</time>
      </trkpt>
      <trkpt lat="45.18132" lon="5.91664">
        <ele>1489</ele>
        <time>2013-05-07T04:23:38.000Z</time>
      </trkpt>
      <trkpt lat="45.18127" lon="5.91665">
        <ele>1490</ele>
        <time>2013-05-07T04:23:48.000Z</time>
      </trkpt>
      <trkpt lat="45.18123" lon="5.91674">
        <ele>1471</ele>
        <time>2013-05-07T04:23:58.000Z</time>
      </trkpt>
      <trkpt lat="45.18122" lon="5.91682">
        <ele>1470</ele>
        <time>2013-05-07T04:24:08.000Z</time>
      </trkpt>
      <trkpt lat="45.18113" lon="5.91694">
        <ele>1469</ele>
        <time>2013-05-07T04:24:18.000Z</time>
      </trkpt>
      <trkpt lat="45.1811" lon="5.91708">
        <ele>1466</ele>
        <time>2013-05-07T04:24:28.000Z</time>
      </trkpt>
      <trkpt lat="45.18108" lon="5.91721">
        <ele>1463</ele>
        <time>2013-05-07T04:24:38.000Z</time>
      </trkpt>
      <trkpt lat="45.18108" lon="5.91736">
        <ele>1460</ele>
        <time>2013-05-07T04:24:48.000Z</time>
      </trkpt>
      <trkpt lat="45.18111" lon="5.9174">
        <ele>1460</ele>
        <time>2013-05-07T04:24:58.000Z</time>
      </trkpt>
      <trkpt lat="45.18112" lon="5.9174">
        <ele>1460</ele>
        <time>2013-05-07T04:25:08.000Z</time>
      </trkpt>
      <trkpt lat="45.18109" lon="5.91745">
        <ele>1459</ele>
        <time>2013-05-07T04:25:18.000Z</time>
      </trkpt>
      <trkpt lat="45.18106" lon="5.91752">
        <ele>1439</ele>
        <time>2013-05-07T04:25:28.000Z</time>
      </trkpt>
      <trkpt lat="45.181" lon="5.91754">
        <ele>1441</ele>
        <time>2013-05-07T04:25:38.000Z</time>
      </trkpt>
      <trkpt lat="45.18092" lon="5.91757">
        <ele>1444</ele>
        <time>2013-05-07T04:25:48.000Z</time>
      </trkpt>
      <trkpt lat="45.18084" lon="5.91755">
        <ele>1448</ele>
        <time>2013-05-07T04:25:58.000Z</time>
      </trkpt>
      <trkpt lat="45.1807" lon="5.91752">
        <ele>1456</ele>
        <time>2013-05-07T04:26:08.000Z</time>
      </trkpt>
      <trkpt lat="45.18061" lon="5.91753">
        <ele>1458</ele>
        <time>2013-05-07T04:26:18.000Z</time>
      </trkpt>
      <trkpt lat="45.1805" lon="5.91755">
        <ele>1461</ele>
        <time>2013-05-07T04:26:28.000Z</time>
      </trkpt>
      <trkpt lat="45.18041" lon="5.91757">
        <ele>1464</ele>
        <time>2013-05-07T04:26:38.000Z</time>
      </trkpt>
      <trkpt lat="45.18032" lon="5.91757">
        <ele>1468</ele>
        <time>2013-05-07T04:26:48.000Z</time>
      </trkpt>
      <trkpt lat="45.18015" lon="5.91754">
        <ele>1478</ele>
        <time>2013-05-07T04:26:58.000Z</time>
      </trkpt>
      <trkpt lat="45.18007" lon="5.91757">
        <ele>1482</ele>
        <time>2013-05-07T04:27:08.000Z</time>
      </trkpt>
      <trkpt lat="45.17998" lon="5.91754">
        <ele>1498</ele>
        <time>2013-05-07T04:27:18.000Z</time>
      </trkpt>
      <trkpt lat="45.17986" lon="5.91752">
        <ele>1505</ele>
        <time>2013-05-07T04:27:28.000Z</time>
      </trkpt>
      <trkpt lat="45.17976" lon="5.91748">
        <ele>1518</ele>
        <time>2013-05-07T04:27:38.000Z</time>
      </trkpt>
      <trkpt lat="45.17967" lon="5.91749">
        <ele>1525</ele>
        <time>2013-05-07T04:27:48.000Z</time>
      </trkpt>
      <trkpt lat="45.1796" lon="5.91746">
        <ele>1529</ele>
        <time>2013-05-07T04:27:58.000Z</time>
      </trkpt>
      <trkpt lat="45.17951" lon="5.91746">
        <ele>1534</ele>
        <time>2013-05-07T04:28:08.000Z</time>
      </trkpt>
      <trkpt lat="45.17945" lon="5.91747">
        <ele>1537</ele>
        <time>2013-05-07T04:28:18.000Z</time>
      </trkpt>
      <trkpt lat="45.17938" lon="5.91746">
        <ele>1541</ele>
        <time>2013-05-07T04:28:28.000Z</time>
      </trkpt>
      <trkpt lat="45.17931" lon="5.91745">
        <ele>1545</ele>
        <time>2013-05-07T04:28:38.000Z</time>
      </trkpt>
      <trkpt lat="45.17926" lon="5.91745">
        <ele>1549</ele>
        <time>2013-05-07T04:28:48.000Z</time>
      </trkpt>
      <trkpt lat="45.1792" lon="5.91747">
        <ele>1555</ele>
        <time>2013-05-07T04:28:58.000Z</time>
      </trkpt>
      <trkpt lat="45.17914" lon="5.91749">
        <ele>1561</ele>
        <time>2013-05-07T04:29:08.000Z</time>
      </trkpt>
      <trkpt lat="45.17908" lon="5.91746">
        <ele>1564</ele>
        <time>2013-05-07T04:29:18.000Z</time>
      </trkpt>
      <trkpt lat="45.17906" lon="5.91745">
        <ele>1565</ele>
        <time>2013-05-07T04:29:28.000Z</time>
      </trkpt>
      <trkpt lat="45.17903" lon="5.91743">
        <ele>1566</ele>
        <time>2013-05-07T04:29:38.000Z</time>
      </trkpt>
      <trkpt lat="45.17902" lon="5.91744">
        <ele>1566</ele>
        <time>2013-05-07T04:29:48.000Z</time>
      </trkpt>
      <trkpt lat="45.17889" lon="5.91746">
        <ele>1571</ele>
        <time>2013-05-07T04:29:58.000Z</time>
      </trkpt>
      <trkpt lat="45.1788" lon="5.91746">
        <ele>1574</ele>
        <time>2013-05-07T04:30:08.000Z</time>
      </trkpt>
      <trkpt lat="45.1787" lon="5.91742">
        <ele>1577</ele>
        <time>2013-05-07T04:30:18.000Z</time>
      </trkpt>
      <trkpt lat="45.17865" lon="5.91743">
        <ele>1579</ele>
        <time>2013-05-07T04:30:28.000Z</time>
      </trkpt>
      <trkpt lat="45.1786" lon="5.91747">
        <ele>1583</ele>
        <time>2013-05-07T04:30:38.000Z</time>
      </trkpt>
      <trkpt lat="45.17853" lon="5.91746">
        <ele>1586</ele>
        <time>2013-05-07T04:30:48.000Z</time>
      </trkpt>
      <trkpt lat="45.17839" lon="5.91745">
        <ele>1595</ele>
        <time>2013-05-07T04:30:58.000Z</time>
      </trkpt>
      <trkpt lat="45.17833" lon="5.91745">
        <ele>1602</ele>
        <time>2013-05-07T04:31:08.000Z</time>
      </trkpt>
      <trkpt lat="45.17832" lon="5.91756">
        <ele>1607</ele>
        <time>2013-05-07T04:31:18.000Z</time>
      </trkpt>
      <trkpt lat="45.17828" lon="5.91753">
        <ele>1607</ele>
        <time>2013-05-07T04:31:28.000Z</time>
      </trkpt>
      <trkpt lat="45.17823" lon="5.91751">
        <ele>1609</ele>
        <time>2013-05-07T04:31:38.000Z</time>
      </trkpt>
      <trkpt lat="45.17808" lon="5.91745">
        <ele>1597</ele>
        <time>2013-05-07T04:31:48.000Z</time>
      </trkpt>
      <trkpt lat="45.17803" lon="5.91748">
        <ele>1597</ele>
        <time>2013-05-07T04:31:58.000Z</time>
      </trkpt>
      <trkpt lat="45.17794" lon="5.91754">
        <ele>1616</ele>
        <time>2013-05-07T04:32:08.000Z</time>
      </trkpt>
      <trkpt lat="45.17783" lon="5.91751">
        <ele>1616</ele>
        <time>2013-05-07T04:32:18.000Z</time>
      </trkpt>
      <trkpt lat="45.17773" lon="5.91747">
        <ele>1601</ele>
        <time>2013-05-07T04:32:28.000Z</time>
      </trkpt>
      <trkpt lat="45.17761" lon="5.91746">
        <ele>1605</ele>
        <time>2013-05-07T04:32:38.000Z</time>
      </trkpt>
      <trkpt lat="45.17755" lon="5.91746">
        <ele>1609</ele>
        <time>2013-05-07T04:32:48.000Z</time>
      </trkpt>
      <trkpt lat="45.17744" lon="5.91746">
        <ele>1609</ele>
        <time>2013-05-07T04:32:58.000Z</time>
      </trkpt>
      <trkpt lat="45.17737" lon="5.91746">
        <ele>1607</ele>
        <time>2013-05-07T04:33:08.000Z</time>
      </trkpt>
      <trkpt lat="45.17731" lon="5.9175">
        <ele>1606</ele>
        <time>2013-05-07T04:33:18.000Z</time>
      </trkpt>
      <trkpt lat="45.1773" lon="5.91758">
        <ele>1625</ele>
        <time>2013-05-07T04:33:28.000Z</time>
      </trkpt>
      <trkpt lat="45.17722" lon="5.91761">
        <ele>1627</ele>
        <time>2013-05-07T04:33:38.000Z</time>
      </trkpt>
      <trkpt lat="45.17717" lon="5.9176">
        <ele>1628</ele>
        <time>2013-05-07T04:33:48.000Z</time>
      </trkpt>
      <trkpt lat="45.17708" lon="5.91759">
        <ele>1628</ele>
        <time>2013-05-07T04:33:58.000Z</time>
      </trkpt>
      <trkpt lat="45.17702" lon="5.91765">
        <ele>1629</ele>
        <time>2013-05-07T04:34:08.000Z</time>
      </trkpt>
      <trkpt lat="45.17704" lon="5.91782">
        <ele>1632</ele>
        <time>2013-05-07T04:34:18.000Z</time>
      </trkpt>
      <trkpt lat="45.17696" lon="5.91781">
        <ele>1632</ele>
        <time>2013-05-07T04:34:28.000Z</time>
      </trkpt>
      <trkpt lat="45.17688" lon="5.91776">
        <ele>1631</ele>
        <time>2013-05-07T04:34:38.000Z</time>
      </trkpt>
      <trkpt lat="45.17694" lon="5.91779">
        <ele>1632</ele>
        <time>2013-05-07T04:34:48.000Z</time>
      </trkpt>
      <trkpt lat="45.17733" lon="5.91778">
        <ele>1629</ele>
        <time>2013-05-07T04:34:58.000Z</time>
      </trkpt>
      <trkpt lat="45.1774" lon="5.91775">
        <ele>1628</ele>
        <time>2013-05-07T04:35:08.000Z</time>
      </trkpt>
      <trkpt lat="45.17742" lon="5.91768">
        <ele>1625</ele>
        <time>2013-05-07T04:35:18.000Z</time>
      </trkpt>
      <trkpt lat="45.17749" lon="5.91758">
        <ele>1619</ele>
        <time>2013-05-07T04:35:28.000Z</time>
      </trkpt>
      <trkpt lat="45.17754" lon="5.91754">
        <ele>1615</ele>
        <time>2013-05-07T04:35:38.000Z</time>
      </trkpt>
      <trkpt lat="45.17756" lon="5.91762">
        <ele>1617</ele>
        <time>2013-05-07T04:35:48.000Z</time>
      </trkpt>
      <trkpt lat="45.1775" lon="5.91791">
        <ele>1624</ele>
        <time>2013-05-07T04:35:58.000Z</time>
      </trkpt>
      <trkpt lat="45.17764" lon="5.91795">
        <ele>1624</ele>
        <time>2013-05-07T04:36:08.000Z</time>
      </trkpt>
      <trkpt lat="45.1777" lon="5.918">
        <ele>1624</ele>
        <time>2013-05-07T04:36:18.000Z</time>
      </trkpt>
      <trkpt lat="45.17774" lon="5.91801">
        <ele>1624</ele>
        <time>2013-05-07T04:36:28.000Z</time>
      </trkpt>
      <trkpt lat="45.17762" lon="5.91809">
        <ele>1628</ele>
        <time>2013-05-07T04:36:38.000Z</time>
      </trkpt>
      <trkpt lat="45.17752" lon="5.91813">
        <ele>1631</ele>
        <time>2013-05-07T04:36:48.000Z</time>
      </trkpt>
      <trkpt lat="45.17738" lon="5.91813">
        <ele>1639</ele>
        <time>2013-05-07T04:36:58.000Z</time>
      </trkpt>
      <trkpt lat="45.1773" lon="5.91815">
        <ele>1639</ele>
        <time>2013-05-07T04:37:08.000Z</time>
      </trkpt>
      <trkpt lat="45.17731" lon="5.91813">
        <ele>1638</ele>
        <time>2013-05-07T04:37:18.000Z</time>
      </trkpt>
      <trkpt lat="45.17736" lon="5.91807">
        <ele>1637</ele>
        <time>2013-05-07T04:37:28.000Z</time>
      </trkpt>
      <trkpt lat="45.1776" lon="5.91784">
        <ele>1621</ele>
        <time>2013-05-07T04:37:38.000Z</time>
      </trkpt>
      <trkpt lat="45.17771" lon="5.91774">
        <ele>1619</ele>
        <time>2013-05-07T04:37:48.000Z</time>
      </trkpt>
      <trkpt lat="45.17809" lon="5.91758">
        <ele>1613</ele>
        <time>2013-05-07T04:37:58.000Z</time>
      </trkpt>
      <trkpt lat="45.1781" lon="5.91754">
        <ele>1613</ele>
        <time>2013-05-07T04:38:08.000Z</time>
      </trkpt>
      <trkpt lat="45.17802" lon="5.91746">
        <ele>1597</ele>
        <time>2013-05-07T04:38:18.000Z</time>
      </trkpt>
      <trkpt lat="45.17795" lon="5.91743">
        <ele>1597</ele>
        <time>2013-05-07T04:38:28.000Z</time>
      </trkpt>
      <trkpt lat="45.17782" lon="5.91736">
        <ele>1598</ele>
        <time>2013-05-07T04:38:38.000Z</time>
      </trkpt>
      <trkpt lat="45.1778" lon="5.91737">
        <ele>1598</ele>
        <time>2013-05-07T04:38:48.000Z</time>
      </trkpt>
      <trkpt lat="45.17774" lon="5.91735">
        <ele>1599</ele>
        <time>2013-05-07T04:38:58.000Z</time>
      </trkpt>
      <trkpt lat="45.17769" lon="5.91737">
        <ele>1600</ele>
        <time>2013-05-07T04:39:08.000Z</time>
      </trkpt>
      <trkpt lat="45.17765" lon="5.91741">
        <ele>1603</ele>
        <time>2013-05-07T04:39:18.000Z</time>
      </trkpt>
      <trkpt lat="45.17762" lon="5.91744">
        <ele>1605</ele>
        <time>2013-05-07T04:39:28.000Z</time>
      </trkpt>
      <trkpt lat="45.17758" lon="5.91748">
        <ele>1608</ele>
        <time>2013-05-07T04:39:38.000Z</time>
      </trkpt>
      <trkpt lat="45.17761" lon="5.91753">
        <ele>1616</ele>
        <time>2013-05-07T04:40:18.000Z</time>
      </trkpt>
      <trkpt lat="45.17764" lon="5.91756">
        <ele>1617</ele>
        <time>2013-05-07T04:40:28.000Z</time>
      </trkpt>
      <trkpt lat="45.17765" lon="5.91762">
        <ele>1617</ele>
        <time>2013-05-07T04:40:38.000Z</time>
      </trkpt>
      <trkpt lat="45.17769" lon="5.91761">
        <ele>1617</ele>
        <time>2013-05-07T04:40:48.000Z</time>
      </trkpt>
      <trkpt lat="45.17775" lon="5.91763">
        <ele>1618</ele>
        <time>2013-05-07T04:40:58.000Z</time>
      </trkpt>
      <trkpt lat="45.17782" lon="5.91763">
        <ele>1617</ele>
        <time>2013-05-07T04:41:08.000Z</time>
      </trkpt>
      <trkpt lat="45.17792" lon="5.91771">
        <ele>1617</ele>
        <time>2013-05-07T04:41:18.000Z</time>
      </trkpt>
      <trkpt lat="45.17795" lon="5.91776">
        <ele>1617</ele>
        <time>2013-05-07T04:41:28.000Z</time>
      </trkpt>
      <trkpt lat="45.17802" lon="5.91776">
        <ele>1617</ele>
        <time>2013-05-07T04:41:38.000Z</time>
      </trkpt>
      <trkpt lat="45.17806" lon="5.91782">
        <ele>1617</ele>
        <time>2013-05-07T04:41:48.000Z</time>
      </trkpt>
      <trkpt lat="45.17807" lon="5.91787">
        <ele>1617</ele>
        <time>2013-05-07T04:41:58.000Z</time>
      </trkpt>
      <trkpt lat="45.17807" lon="5.91788">
        <ele>1617</ele>
        <time>2013-05-07T04:42:08.000Z</time>
      </trkpt>
      <trkpt lat="45.1781" lon="5.91793">
        <ele>1618</ele>
        <time>2013-05-07T04:42:18.000Z</time>
      </trkpt>
      <trkpt lat="45.17807" lon="5.9179">
        <ele>1618</ele>
        <time>2013-05-07T04:42:48.000Z</time>
      </trkpt>
      <trkpt lat="45.17799" lon="5.91793">
        <ele>1619</ele>
        <time>2013-05-07T04:42:58.000Z</time>
      </trkpt>
      <trkpt lat="45.17796" lon="5.91788">
        <ele>1619</ele>
        <time>2013-05-07T04:43:08.000Z</time>
      </trkpt>
      <trkpt lat="45.17793" lon="5.91792">
        <ele>1620</ele>
        <time>2013-05-07T04:43:18.000Z</time>
      </trkpt>
      <trkpt lat="45.17793" lon="5.91797">
        <ele>1620</ele>
        <time>2013-05-07T04:43:28.000Z</time>
      </trkpt>
      <trkpt lat="45.17789" lon="5.91795">
        <ele>1621</ele>
        <time>2013-05-07T04:43:48.000Z</time>
      </trkpt>
      <trkpt lat="45.17786" lon="5.91798">
        <ele>1621</ele>
        <time>2013-05-07T04:43:58.000Z</time>
      </trkpt>
      <trkpt lat="45.17782" lon="5.91796">
        <ele>1622</ele>
        <time>2013-05-07T04:44:08.000Z</time>
      </trkpt>
      <trkpt lat="45.1778" lon="5.918">
        <ele>1623</ele>
        <time>2013-05-07T04:44:18.000Z</time>
      </trkpt>
      <trkpt lat="45.17771" lon="5.91801">
        <ele>1624</ele>
        <time>2013-05-07T04:44:28.000Z</time>
      </trkpt>
      <trkpt lat="45.17769" lon="5.91805">
        <ele>1626</ele>
        <time>2013-05-07T04:44:48.000Z</time>
      </trkpt>
      <trkpt lat="45.17774" lon="5.9181">
        <ele>1626</ele>
        <time>2013-05-07T04:44:58.000Z</time>
      </trkpt>
      <trkpt lat="45.17779" lon="5.91816">
        <ele>1626</ele>
        <time>2013-05-07T04:45:08.000Z</time>
      </trkpt>
      <trkpt lat="45.17785" lon="5.91821">
        <ele>1625</ele>
        <time>2013-05-07T04:45:18.000Z</time>
      </trkpt>
      <trkpt lat="45.17789" lon="5.91828">
        <ele>1624</ele>
        <time>2013-05-07T04:45:28.000Z</time>
      </trkpt>
      <trkpt lat="45.17785" lon="5.91828">
        <ele>1626</ele>
        <time>2013-05-07T04:45:48.000Z</time>
      </trkpt>
      <trkpt lat="45.17776" lon="5.91824">
        <ele>1628</ele>
        <time>2013-05-07T04:45:58.000Z</time>
      </trkpt>
      <trkpt lat="45.17772" lon="5.91823">
        <ele>1630</ele>
        <time>2013-05-07T04:46:08.000Z</time>
      </trkpt>
      <trkpt lat="45.1777" lon="5.91821">
        <ele>1630</ele>
        <time>2013-05-07T04:46:18.000Z</time>
      </trkpt>
      <trkpt lat="45.17765" lon="5.91826">
        <ele>1633</ele>
        <time>2013-05-07T04:46:28.000Z</time>
      </trkpt>
      <trkpt lat="45.17758" lon="5.91829">
        <ele>1639</ele>
        <time>2013-05-07T04:46:38.000Z</time>
      </trkpt>
      <trkpt lat="45.17758" lon="5.91835">
        <ele>1642</ele>
        <time>2013-05-07T04:46:58.000Z</time>
      </trkpt>
      <trkpt lat="45.17761" lon="5.9184">
        <ele>1640</ele>
        <time>2013-05-07T04:47:08.000Z</time>
      </trkpt>
      <trkpt lat="45.17767" lon="5.91847">
        <ele>1637</ele>
        <time>2013-05-07T04:47:18.000Z</time>
      </trkpt>
      <trkpt lat="45.17764" lon="5.91844">
        <ele>1638</ele>
        <time>2013-05-07T04:47:38.000Z</time>
      </trkpt>
      <trkpt lat="45.17754" lon="5.91836">
        <ele>1644</ele>
        <time>2013-05-07T04:47:48.000Z</time>
      </trkpt>
      <trkpt lat="45.17747" lon="5.91839">
        <ele>1650</ele>
        <time>2013-05-07T04:47:58.000Z</time>
      </trkpt>
      <trkpt lat="45.1774" lon="5.91844">
        <ele>1653</ele>
        <time>2013-05-07T04:48:08.000Z</time>
      </trkpt>
      <trkpt lat="45.17734" lon="5.91851">
        <ele>1655</ele>
        <time>2013-05-07T04:48:18.000Z</time>
      </trkpt>
      <trkpt lat="45.17729" lon="5.91855">
        <ele>1656</ele>
        <time>2013-05-07T04:48:28.000Z</time>
      </trkpt>
      <trkpt lat="45.17725" lon="5.91861">
        <ele>1657</ele>
        <time>2013-05-07T04:48:38.000Z</time>
      </trkpt>
      <trkpt lat="45.17719" lon="5.9186">
        <ele>1658</ele>
        <time>2013-05-07T04:48:48.000Z</time>
      </trkpt>
      <trkpt lat="45.1772" lon="5.91868">
        <ele>1658</ele>
        <time>2013-05-07T04:48:58.000Z</time>
      </trkpt>
      <trkpt lat="45.17724" lon="5.91869">
        <ele>1658</ele>
        <time>2013-05-07T04:49:08.000Z</time>
      </trkpt>
      <trkpt lat="45.17728" lon="5.91871">
        <ele>1658</ele>
        <time>2013-05-07T04:49:18.000Z</time>
      </trkpt>
      <trkpt lat="45.17733" lon="5.91877">
        <ele>1658</ele>
        <time>2013-05-07T04:49:28.000Z</time>
      </trkpt>
      <trkpt lat="45.17731" lon="5.91886">
        <ele>1659</ele>
        <time>2013-05-07T04:49:38.000Z</time>
      </trkpt>
      <trkpt lat="45.17728" lon="5.91887">
        <ele>1659</ele>
        <time>2013-05-07T04:49:48.000Z</time>
      </trkpt>
      <trkpt lat="45.17726" lon="5.91889">
        <ele>1659</ele>
        <time>2013-05-07T04:49:58.000Z</time>
      </trkpt>
      <trkpt lat="45.17722" lon="5.91892">
        <ele>1660</ele>
        <time>2013-05-07T04:50:08.000Z</time>
      </trkpt>
      <trkpt lat="45.17716" lon="5.91896">
        <ele>1661</ele>
        <time>2013-05-07T04:50:18.000Z</time>
      </trkpt>
      <trkpt lat="45.17712" lon="5.91897">
        <ele>1662</ele>
        <time>2013-05-07T04:50:28.000Z</time>
      </trkpt>
      <trkpt lat="45.17708" lon="5.919">
        <ele>1663</ele>
        <time>2013-05-07T04:50:38.000Z</time>
      </trkpt>
      <trkpt lat="45.17701" lon="5.91903">
        <ele>1665</ele>
        <time>2013-05-07T04:50:48.000Z</time>
      </trkpt>
      <trkpt lat="45.17701" lon="5.91905">
        <ele>1665</ele>
        <time>2013-05-07T04:50:58.000Z</time>
      </trkpt>
      <trkpt lat="45.17706" lon="5.9191">
        <ele>1664</ele>
        <time>2013-05-07T04:51:08.000Z</time>
      </trkpt>
      <trkpt lat="45.17705" lon="5.91915">
        <ele>1664</ele>
        <time>2013-05-07T04:51:28.000Z</time>
      </trkpt>
      <trkpt lat="45.17702" lon="5.91922">
        <ele>1671</ele>
        <time>2013-05-07T04:51:38.000Z</time>
      </trkpt>
      <trkpt lat="45.17704" lon="5.91923">
        <ele>1671</ele>
        <time>2013-05-07T04:51:59.000Z</time>
      </trkpt>
      <trkpt lat="45.17704" lon="5.91935">
        <ele>1671</ele>
        <time>2013-05-07T04:52:09.000Z</time>
      </trkpt>
      <trkpt lat="45.17705" lon="5.91941">
        <ele>1671</ele>
        <time>2013-05-07T04:52:19.000Z</time>
      </trkpt>
      <trkpt lat="45.17705" lon="5.91949">
        <ele>1671</ele>
        <time>2013-05-07T04:52:29.000Z</time>
      </trkpt>
      <trkpt lat="45.17705" lon="5.91957">
        <ele>1671</ele>
        <time>2013-05-07T04:52:39.000Z</time>
      </trkpt>
      <trkpt lat="45.17701" lon="5.91969">
        <ele>1672</ele>
        <time>2013-05-07T04:52:49.000Z</time>
      </trkpt>
      <trkpt lat="45.17694" lon="5.91976">
        <ele>1674</ele>
        <time>2013-05-07T04:52:59.000Z</time>
      </trkpt>
      <trkpt lat="45.17686" lon="5.91983">
        <ele>1678</ele>
        <time>2013-05-07T04:53:09.000Z</time>
      </trkpt>
      <trkpt lat="45.1768" lon="5.91988">
        <ele>1682</ele>
        <time>2013-05-07T04:53:19.000Z</time>
      </trkpt>
      <trkpt lat="45.17677" lon="5.91998">
        <ele>1686</ele>
        <time>2013-05-07T04:53:29.000Z</time>
      </trkpt>
      <trkpt lat="45.17673" lon="5.92009">
        <ele>1684</ele>
        <time>2013-05-07T04:53:39.000Z</time>
      </trkpt>
      <trkpt lat="45.17668" lon="5.92018">
        <ele>1679</ele>
        <time>2013-05-07T04:53:49.000Z</time>
      </trkpt>
      <trkpt lat="45.17666" lon="5.9203">
        <ele>1699</ele>
        <time>2013-05-07T04:53:59.000Z</time>
      </trkpt>
      <trkpt lat="45.17669" lon="5.92043">
        <ele>1670</ele>
        <time>2013-05-07T04:54:09.000Z</time>
      </trkpt>
      <trkpt lat="45.17666" lon="5.92056">
        <ele>1694</ele>
        <time>2013-05-07T04:54:19.000Z</time>
      </trkpt>
      <trkpt lat="45.17657" lon="5.92064">
        <ele>1692</ele>
        <time>2013-05-07T04:54:29.000Z</time>
      </trkpt>
      <trkpt lat="45.17646" lon="5.92065">
        <ele>1696</ele>
        <time>2013-05-07T04:54:39.000Z</time>
      </trkpt>
      <trkpt lat="45.17638" lon="5.92071">
        <ele>1698</ele>
        <time>2013-05-07T04:54:49.000Z</time>
      </trkpt>
      <trkpt lat="45.17634" lon="5.92074">
        <ele>1700</ele>
        <time>2013-05-07T04:54:59.000Z</time>
      </trkpt>
      <trkpt lat="45.17631" lon="5.92078">
        <ele>1700</ele>
        <time>2013-05-07T04:55:09.000Z</time>
      </trkpt>
      <trkpt lat="45.17626" lon="5.92084">
        <ele>1691</ele>
        <time>2013-05-07T04:55:19.000Z</time>
      </trkpt>
      <trkpt lat="45.17618" lon="5.92096">
        <ele>1694</ele>
        <time>2013-05-07T04:55:29.000Z</time>
      </trkpt>
      <trkpt lat="45.17615" lon="5.92106">
        <ele>1693</ele>
        <time>2013-05-07T04:55:39.000Z</time>
      </trkpt>
      <trkpt lat="45.17608" lon="5.92117">
        <ele>1693</ele>
        <time>2013-05-07T04:55:49.000Z</time>
      </trkpt>
      <trkpt lat="45.17602" lon="5.92126">
        <ele>1693</ele>
        <time>2013-05-07T04:55:59.000Z</time>
      </trkpt>
      <trkpt lat="45.17597" lon="5.92135">
        <ele>1693</ele>
        <time>2013-05-07T04:56:09.000Z</time>
      </trkpt>
      <trkpt lat="45.17592" lon="5.92145">
        <ele>1693</ele>
        <time>2013-05-07T04:56:19.000Z</time>
      </trkpt>
      <trkpt lat="45.17588" lon="5.92149">
        <ele>1694</ele>
        <time>2013-05-07T04:56:29.000Z</time>
      </trkpt>
      <trkpt lat="45.17584" lon="5.9216">
        <ele>1696</ele>
        <time>2013-05-07T04:56:39.000Z</time>
      </trkpt>
      <trkpt lat="45.1758" lon="5.92162">
        <ele>1706</ele>
        <time>2013-05-07T04:56:49.000Z</time>
      </trkpt>
      <trkpt lat="45.17574" lon="5.92171">
        <ele>1704</ele>
        <time>2013-05-07T04:56:59.000Z</time>
      </trkpt>
      <trkpt lat="45.17568" lon="5.92182">
        <ele>1708</ele>
        <time>2013-05-07T04:57:09.000Z</time>
      </trkpt>
      <trkpt lat="45.17565" lon="5.92188">
        <ele>1709</ele>
        <time>2013-05-07T04:57:19.000Z</time>
      </trkpt>
      <trkpt lat="45.17562" lon="5.92192">
        <ele>1710</ele>
        <time>2013-05-07T04:57:29.000Z</time>
      </trkpt>
      <trkpt lat="45.17556" lon="5.92203">
        <ele>1711</ele>
        <time>2013-05-07T04:57:39.000Z</time>
      </trkpt>
      <trkpt lat="45.17548" lon="5.92215">
        <ele>1711</ele>
        <time>2013-05-07T04:57:49.000Z</time>
      </trkpt>
      <trkpt lat="45.17541" lon="5.92222">
        <ele>1713</ele>
        <time>2013-05-07T04:57:59.000Z</time>
      </trkpt>
      <trkpt lat="45.17539" lon="5.92229">
        <ele>1712</ele>
        <time>2013-05-07T04:58:09.000Z</time>
      </trkpt>
      <trkpt lat="45.17539" lon="5.92233">
        <ele>1712</ele>
        <time>2013-05-07T04:58:19.000Z</time>
      </trkpt>
      <trkpt lat="45.17537" lon="5.92245">
        <ele>1712</ele>
        <time>2013-05-07T04:58:29.000Z</time>
      </trkpt>
      <trkpt lat="45.17533" lon="5.92252">
        <ele>1703</ele>
        <time>2013-05-07T04:58:39.000Z</time>
      </trkpt>
      <trkpt lat="45.17531" lon="5.92263">
        <ele>1703</ele>
        <time>2013-05-07T04:58:49.000Z</time>
      </trkpt>
      <trkpt lat="45.17528" lon="5.92272">
        <ele>1703</ele>
        <time>2013-05-07T04:58:59.000Z</time>
      </trkpt>
      <trkpt lat="45.17526" lon="5.92281">
        <ele>1703</ele>
        <time>2013-05-07T04:59:09.000Z</time>
      </trkpt>
      <trkpt lat="45.17521" lon="5.92294">
        <ele>1702</ele>
        <time>2013-05-07T04:59:19.000Z</time>
      </trkpt>
      <trkpt lat="45.17519" lon="5.92305">
        <ele>1702</ele>
        <time>2013-05-07T04:59:29.000Z</time>
      </trkpt>
      <trkpt lat="45.17526" lon="5.92315">
        <ele>1701</ele>
        <time>2013-05-07T04:59:39.000Z</time>
      </trkpt>
      <trkpt lat="45.17532" lon="5.92324">
        <ele>1699</ele>
        <time>2013-05-07T04:59:49.000Z</time>
      </trkpt>
      <trkpt lat="45.17535" lon="5.92334">
        <ele>1694</ele>
        <time>2013-05-07T04:59:59.000Z</time>
      </trkpt>
      <trkpt lat="45.17541" lon="5.92345">
        <ele>1691</ele>
        <time>2013-05-07T05:00:09.000Z</time>
      </trkpt>
      <trkpt lat="45.17546" lon="5.92353">
        <ele>1690</ele>
        <time>2013-05-07T05:00:19.000Z</time>
      </trkpt>
      <trkpt lat="45.17547" lon="5.9236">
        <ele>1690</ele>
        <time>2013-05-07T05:00:29.000Z</time>
      </trkpt>
      <trkpt lat="45.17543" lon="5.9237">
        <ele>1690</ele>
        <time>2013-05-07T05:00:39.000Z</time>
      </trkpt>
      <trkpt lat="45.17536" lon="5.92375">
        <ele>1692</ele>
        <time>2013-05-07T05:00:49.000Z</time>
      </trkpt>
      <trkpt lat="45.17531" lon="5.92376">
        <ele>1692</ele>
        <time>2013-05-07T05:00:59.000Z</time>
      </trkpt>
      <trkpt lat="45.17522" lon="5.92376">
        <ele>1694</ele>
        <time>2013-05-07T05:01:09.000Z</time>
      </trkpt>
      <trkpt lat="45.17514" lon="5.9238">
        <ele>1695</ele>
        <time>2013-05-07T05:01:19.000Z</time>
      </trkpt>
      <trkpt lat="45.17506" lon="5.92382">
        <ele>1696</ele>
        <time>2013-05-07T05:01:29.000Z</time>
      </trkpt>
      <trkpt lat="45.17501" lon="5.92385">
        <ele>1696</ele>
        <time>2013-05-07T05:01:39.000Z</time>
      </trkpt>
      <trkpt lat="45.17496" lon="5.92388">
        <ele>1714</ele>
        <time>2013-05-07T05:01:49.000Z</time>
      </trkpt>
      <trkpt lat="45.17489" lon="5.92394">
        <ele>1714</ele>
        <time>2013-05-07T05:01:59.000Z</time>
      </trkpt>
      <trkpt lat="45.17492" lon="5.92392">
        <ele>1714</ele>
        <time>2013-05-07T05:03:19.000Z</time>
      </trkpt>
      <trkpt lat="45.17494" lon="5.92383">
        <ele>1715</ele>
        <time>2013-05-07T05:03:29.000Z</time>
      </trkpt>
      <trkpt lat="45.17497" lon="5.92373">
        <ele>1716</ele>
        <time>2013-05-07T05:03:39.000Z</time>
      </trkpt>
      <trkpt lat="45.17494" lon="5.92375">
        <ele>1716</ele>
        <time>2013-05-07T05:03:49.000Z</time>
      </trkpt>
      <trkpt lat="45.17494" lon="5.92389">
        <ele>1714</ele>
        <time>2013-05-07T05:03:59.000Z</time>
      </trkpt>
      <trkpt lat="45.17498" lon="5.92396">
        <ele>1712</ele>
        <time>2013-05-07T05:04:09.000Z</time>
      </trkpt>
      <trkpt lat="45.17502" lon="5.92396">
        <ele>1696</ele>
        <time>2013-05-07T05:04:19.000Z</time>
      </trkpt>
      <trkpt lat="45.17494" lon="5.92406">
        <ele>1709</ele>
        <time>2013-05-07T05:04:29.000Z</time>
      </trkpt>
      <trkpt lat="45.17488" lon="5.9241">
        <ele>1709</ele>
        <time>2013-05-07T05:04:39.000Z</time>
      </trkpt>
      <trkpt lat="45.17492" lon="5.92403">
        <ele>1710</ele>
        <time>2013-05-07T05:04:49.000Z</time>
      </trkpt>
      <trkpt lat="45.17493" lon="5.92397">
        <ele>1712</ele>
        <time>2013-05-07T05:05:19.000Z</time>
      </trkpt>
      <trkpt lat="45.17491" lon="5.92396">
        <ele>1713</ele>
        <time>2013-05-07T05:05:29.000Z</time>
      </trkpt>
      <trkpt lat="45.17492" lon="5.924">
        <ele>1711</ele>
        <time>2013-05-07T05:06:09.000Z</time>
      </trkpt>
      <trkpt lat="45.17497" lon="5.92404">
        <ele>1709</ele>
        <time>2013-05-07T05:06:19.000Z</time>
      </trkpt>
      <trkpt lat="45.175" lon="5.92413">
        <ele>1699</ele>
        <time>2013-05-07T05:06:29.000Z</time>
      </trkpt>
      <trkpt lat="45.17497" lon="5.92411">
        <ele>1706</ele>
        <time>2013-05-07T05:07:09.000Z</time>
      </trkpt>
      <trkpt lat="45.17493" lon="5.9241">
        <ele>1708</ele>
        <time>2013-05-07T05:07:19.000Z</time>
      </trkpt>
      <trkpt lat="45.1749" lon="5.92409">
        <ele>1709</ele>
        <time>2013-05-07T05:07:29.000Z</time>
      </trkpt>
      <trkpt lat="45.17481" lon="5.9241">
        <ele>1712</ele>
        <time>2013-05-07T05:07:39.000Z</time>
      </trkpt>
      <trkpt lat="45.17475" lon="5.92416">
        <ele>1714</ele>
        <time>2013-05-07T05:07:49.000Z</time>
      </trkpt>
      <trkpt lat="45.17468" lon="5.92426">
        <ele>1711</ele>
        <time>2013-05-07T05:07:59.000Z</time>
      </trkpt>
      <trkpt lat="45.17461" lon="5.92433">
        <ele>1712</ele>
        <time>2013-05-07T05:08:09.000Z</time>
      </trkpt>
      <trkpt lat="45.17455" lon="5.9244">
        <ele>1713</ele>
        <time>2013-05-07T05:08:19.000Z</time>
      </trkpt>
      <trkpt lat="45.17449" lon="5.92444">
        <ele>1714</ele>
        <time>2013-05-07T05:08:29.000Z</time>
      </trkpt>
      <trkpt lat="45.17445" lon="5.92452">
        <ele>1714</ele>
        <time>2013-05-07T05:08:39.000Z</time>
      </trkpt>
      <trkpt lat="45.17439" lon="5.92459">
        <ele>1715</ele>
        <time>2013-05-07T05:08:49.000Z</time>
      </trkpt>
      <trkpt lat="45.17432" lon="5.92465">
        <ele>1716</ele>
        <time>2013-05-07T05:08:59.000Z</time>
      </trkpt>
      <trkpt lat="45.17426" lon="5.92469">
        <ele>1716</ele>
        <time>2013-05-07T05:09:09.000Z</time>
      </trkpt>
      <trkpt lat="45.17423" lon="5.92473">
        <ele>1717</ele>
        <time>2013-05-07T05:09:19.000Z</time>
      </trkpt>
      <trkpt lat="45.17419" lon="5.9248">
        <ele>1718</ele>
        <time>2013-05-07T05:09:29.000Z</time>
      </trkpt>
      <trkpt lat="45.17416" lon="5.92487">
        <ele>1729</ele>
        <time>2013-05-07T05:09:39.000Z</time>
      </trkpt>
      <trkpt lat="45.17413" lon="5.92493">
        <ele>1727</ele>
        <time>2013-05-07T05:09:49.000Z</time>
      </trkpt>
      <trkpt lat="45.1741" lon="5.92499">
        <ele>1727</ele>
        <time>2013-05-07T05:09:59.000Z</time>
      </trkpt>
      <trkpt lat="45.17405" lon="5.92504">
        <ele>1729</ele>
        <time>2013-05-07T05:10:09.000Z</time>
      </trkpt>
      <trkpt lat="45.174" lon="5.92509">
        <ele>1732</ele>
        <time>2013-05-07T05:10:19.000Z</time>
      </trkpt>
      <trkpt lat="45.17395" lon="5.92515">
        <ele>1734</ele>
        <time>2013-05-07T05:10:29.000Z</time>
      </trkpt>
      <trkpt lat="45.1739" lon="5.92522">
        <ele>1736</ele>
        <time>2013-05-07T05:10:39.000Z</time>
      </trkpt>
      <trkpt lat="45.17385" lon="5.92527">
        <ele>1737</ele>
        <time>2013-05-07T05:10:49.000Z</time>
      </trkpt>
      <trkpt lat="45.17381" lon="5.92535">
        <ele>1738</ele>
        <time>2013-05-07T05:10:59.000Z</time>
      </trkpt>
      <trkpt lat="45.17375" lon="5.92539">
        <ele>1739</ele>
        <time>2013-05-07T05:11:09.000Z</time>
      </trkpt>
      <trkpt lat="45.17372" lon="5.92544">
        <ele>1739</ele>
        <time>2013-05-07T05:11:19.000Z</time>
      </trkpt>
      <trkpt lat="45.17368" lon="5.9255">
        <ele>1740</ele>
        <time>2013-05-07T05:11:29.000Z</time>
      </trkpt>
      <trkpt lat="45.17362" lon="5.92556">
        <ele>1741</ele>
        <time>2013-05-07T05:11:39.000Z</time>
      </trkpt>
      <trkpt lat="45.17357" lon="5.92562">
        <ele>1741</ele>
        <time>2013-05-07T05:11:49.000Z</time>
      </trkpt>
      <trkpt lat="45.17353" lon="5.92568">
        <ele>1742</ele>
        <time>2013-05-07T05:11:59.000Z</time>
      </trkpt>
      <trkpt lat="45.17349" lon="5.92575">
        <ele>1743</ele>
        <time>2013-05-07T05:12:09.000Z</time>
      </trkpt>
      <trkpt lat="45.17345" lon="5.92579">
        <ele>1744</ele>
        <time>2013-05-07T05:12:19.000Z</time>
      </trkpt>
      <trkpt lat="45.17341" lon="5.92583">
        <ele>1745</ele>
        <time>2013-05-07T05:12:29.000Z</time>
      </trkpt>
      <trkpt lat="45.17338" lon="5.92589">
        <ele>1748</ele>
        <time>2013-05-07T05:12:39.000Z</time>
      </trkpt>
      <trkpt lat="45.17334" lon="5.92591">
        <ele>1748</ele>
        <time>2013-05-07T05:12:49.000Z</time>
      </trkpt>
      <trkpt lat="45.17329" lon="5.92595">
        <ele>1756</ele>
        <time>2013-05-07T05:12:59.000Z</time>
      </trkpt>
      <trkpt lat="45.17325" lon="5.92601">
        <ele>1760</ele>
        <time>2013-05-07T05:13:09.000Z</time>
      </trkpt>
      <trkpt lat="45.1732" lon="5.92606">
        <ele>1763</ele>
        <time>2013-05-07T05:13:19.000Z</time>
      </trkpt>
      <trkpt lat="45.17316" lon="5.9261">
        <ele>1765</ele>
        <time>2013-05-07T05:13:29.000Z</time>
      </trkpt>
      <trkpt lat="45.17312" lon="5.92615">
        <ele>1766</ele>
        <time>2013-05-07T05:13:39.000Z</time>
      </trkpt>
      <trkpt lat="45.17305" lon="5.92621">
        <ele>1768</ele>
        <time>2013-05-07T05:13:49.000Z</time>
      </trkpt>
      <trkpt lat="45.17299" lon="5.92627">
        <ele>1770</ele>
        <time>2013-05-07T05:13:59.000Z</time>
      </trkpt>
      <trkpt lat="45.17294" lon="5.92633">
        <ele>1771</ele>
        <time>2013-05-07T05:14:09.000Z</time>
      </trkpt>
      <trkpt lat="45.17293" lon="5.92639">
        <ele>1772</ele>
        <time>2013-05-07T05:14:19.000Z</time>
      </trkpt>
      <trkpt lat="45.1729" lon="5.92644">
        <ele>1773</ele>
        <time>2013-05-07T05:14:29.000Z</time>
      </trkpt>
      <trkpt lat="45.17286" lon="5.9265">
        <ele>1774</ele>
        <time>2013-05-07T05:14:39.000Z</time>
      </trkpt>
      <trkpt lat="45.17281" lon="5.92653">
        <ele>1775</ele>
        <time>2013-05-07T05:14:49.000Z</time>
      </trkpt>
      <trkpt lat="45.17277" lon="5.92658">
        <ele>1776</ele>
        <time>2013-05-07T05:14:59.000Z</time>
      </trkpt>
      <trkpt lat="45.17273" lon="5.92665">
        <ele>1777</ele>
        <time>2013-05-07T05:15:09.000Z</time>
      </trkpt>
      <trkpt lat="45.17272" lon="5.92669">
        <ele>1788</ele>
        <time>2013-05-07T05:15:19.000Z</time>
      </trkpt>
      <trkpt lat="45.17268" lon="5.92675">
        <ele>1788</ele>
        <time>2013-05-07T05:15:29.000Z</time>
      </trkpt>
      <trkpt lat="45.1727" lon="5.92681">
        <ele>1789</ele>
        <time>2013-05-07T05:15:39.000Z</time>
      </trkpt>
      <trkpt lat="45.17271" lon="5.92686">
        <ele>1789</ele>
        <time>2013-05-07T05:15:49.000Z</time>
      </trkpt>
      <trkpt lat="45.17275" lon="5.92693">
        <ele>1790</ele>
        <time>2013-05-07T05:15:59.000Z</time>
      </trkpt>
      <trkpt lat="45.1728" lon="5.927">
        <ele>1791</ele>
        <time>2013-05-07T05:16:09.000Z</time>
      </trkpt>
      <trkpt lat="45.17285" lon="5.92701">
        <ele>1791</ele>
        <time>2013-05-07T05:16:19.000Z</time>
      </trkpt>
      <trkpt lat="45.1729" lon="5.92703">
        <ele>1790</ele>
        <time>2013-05-07T05:16:29.000Z</time>
      </trkpt>
      <trkpt lat="45.17296" lon="5.92704">
        <ele>1790</ele>
        <time>2013-05-07T05:16:39.000Z</time>
      </trkpt>
      <trkpt lat="45.173" lon="5.92706">
        <ele>1789</ele>
        <time>2013-05-07T05:16:49.000Z</time>
      </trkpt>
      <trkpt lat="45.17306" lon="5.92703">
        <ele>1788</ele>
        <time>2013-05-07T05:16:59.000Z</time>
      </trkpt>
      <trkpt lat="45.17309" lon="5.92708">
        <ele>1788</ele>
        <time>2013-05-07T05:17:09.000Z</time>
      </trkpt>
      <trkpt lat="45.17314" lon="5.9271">
        <ele>1788</ele>
        <time>2013-05-07T05:17:19.000Z</time>
      </trkpt>
      <trkpt lat="45.17318" lon="5.92714">
        <ele>1788</ele>
        <time>2013-05-07T05:17:29.000Z</time>
      </trkpt>
      <trkpt lat="45.17319" lon="5.92724">
        <ele>1789</ele>
        <time>2013-05-07T05:17:39.000Z</time>
      </trkpt>
      <trkpt lat="45.17322" lon="5.92731">
        <ele>1789</ele>
        <time>2013-05-07T05:17:49.000Z</time>
      </trkpt>
      <trkpt lat="45.17322" lon="5.9274">
        <ele>1789</ele>
        <time>2013-05-07T05:17:59.000Z</time>
      </trkpt>
      <trkpt lat="45.17323" lon="5.92749">
        <ele>1789</ele>
        <time>2013-05-07T05:18:09.000Z</time>
      </trkpt>
      <trkpt lat="45.17323" lon="5.92759">
        <ele>1798</ele>
        <time>2013-05-07T05:18:19.000Z</time>
      </trkpt>
      <trkpt lat="45.17322" lon="5.92766">
        <ele>1801</ele>
        <time>2013-05-07T05:18:29.000Z</time>
      </trkpt>
      <trkpt lat="45.17321" lon="5.92775">
        <ele>1804</ele>
        <time>2013-05-07T05:18:39.000Z</time>
      </trkpt>
      <trkpt lat="45.17319" lon="5.92784">
        <ele>1807</ele>
        <time>2013-05-07T05:18:49.000Z</time>
      </trkpt>
      <trkpt lat="45.17319" lon="5.92793">
        <ele>1808</ele>
        <time>2013-05-07T05:18:59.000Z</time>
      </trkpt>
      <trkpt lat="45.1732" lon="5.92803">
        <ele>1809</ele>
        <time>2013-05-07T05:19:09.000Z</time>
      </trkpt>
      <trkpt lat="45.17323" lon="5.92809">
        <ele>1810</ele>
        <time>2013-05-07T05:19:19.000Z</time>
      </trkpt>
      <trkpt lat="45.17327" lon="5.92816">
        <ele>1809</ele>
        <time>2013-05-07T05:19:29.000Z</time>
      </trkpt>
      <trkpt lat="45.17331" lon="5.92822">
        <ele>1809</ele>
        <time>2013-05-07T05:19:39.000Z</time>
      </trkpt>
      <trkpt lat="45.17336" lon="5.92826">
        <ele>1802</ele>
        <time>2013-05-07T05:19:49.000Z</time>
      </trkpt>
      <trkpt lat="45.17341" lon="5.92831">
        <ele>1802</ele>
        <time>2013-05-07T05:19:59.000Z</time>
      </trkpt>
      <trkpt lat="45.17347" lon="5.92836">
        <ele>1809</ele>
        <time>2013-05-07T05:20:09.000Z</time>
      </trkpt>
      <trkpt lat="45.17351" lon="5.92838">
        <ele>1810</ele>
        <time>2013-05-07T05:20:19.000Z</time>
      </trkpt>
      <trkpt lat="45.17356" lon="5.92843">
        <ele>1810</ele>
        <time>2013-05-07T05:20:29.000Z</time>
      </trkpt>
      <trkpt lat="45.1736" lon="5.92847">
        <ele>1811</ele>
        <time>2013-05-07T05:20:39.000Z</time>
      </trkpt>
      <trkpt lat="45.17363" lon="5.92853">
        <ele>1811</ele>
        <time>2013-05-07T05:20:49.000Z</time>
      </trkpt>
      <trkpt lat="45.17363" lon="5.92856">
        <ele>1812</ele>
        <time>2013-05-07T05:20:59.000Z</time>
      </trkpt>
      <trkpt lat="45.17364" lon="5.92863">
        <ele>1812</ele>
        <time>2013-05-07T05:21:09.000Z</time>
      </trkpt>
      <trkpt lat="45.17365" lon="5.92866">
        <ele>1813</ele>
        <time>2013-05-07T05:21:19.000Z</time>
      </trkpt>
      <trkpt lat="45.17364" lon="5.92872">
        <ele>1814</ele>
        <time>2013-05-07T05:21:29.000Z</time>
      </trkpt>
      <trkpt lat="45.17361" lon="5.92881">
        <ele>1816</ele>
        <time>2013-05-07T05:21:39.000Z</time>
      </trkpt>
      <trkpt lat="45.17363" lon="5.92887">
        <ele>1817</ele>
        <time>2013-05-07T05:21:49.000Z</time>
      </trkpt>
      <trkpt lat="45.17365" lon="5.92893">
        <ele>1817</ele>
        <time>2013-05-07T05:21:59.000Z</time>
      </trkpt>
      <trkpt lat="45.17368" lon="5.92901">
        <ele>1818</ele>
        <time>2013-05-07T05:22:09.000Z</time>
      </trkpt>
      <trkpt lat="45.17371" lon="5.92909">
        <ele>1819</ele>
        <time>2013-05-07T05:22:19.000Z</time>
      </trkpt>
      <trkpt lat="45.17374" lon="5.92917">
        <ele>1835</ele>
        <time>2013-05-07T05:22:29.000Z</time>
      </trkpt>
      <trkpt lat="45.17379" lon="5.9292">
        <ele>1835</ele>
        <time>2013-05-07T05:22:39.000Z</time>
      </trkpt>
      <trkpt lat="45.17386" lon="5.92922">
        <ele>1833</ele>
        <time>2013-05-07T05:22:49.000Z</time>
      </trkpt>
      <trkpt lat="45.17392" lon="5.92925">
        <ele>1832</ele>
        <time>2013-05-07T05:22:59.000Z</time>
      </trkpt>
      <trkpt lat="45.17396" lon="5.92931">
        <ele>1832</ele>
        <time>2013-05-07T05:23:09.000Z</time>
      </trkpt>
      <trkpt lat="45.174" lon="5.92939">
        <ele>1833</ele>
        <time>2013-05-07T05:23:19.000Z</time>
      </trkpt>
      <trkpt lat="45.17402" lon="5.92947">
        <ele>1835</ele>
        <time>2013-05-07T05:23:29.000Z</time>
      </trkpt>
      <trkpt lat="45.17405" lon="5.92951">
        <ele>1836</ele>
        <time>2013-05-07T05:23:39.000Z</time>
      </trkpt>
      <trkpt lat="45.17408" lon="5.92957">
        <ele>1837</ele>
        <time>2013-05-07T05:23:49.000Z</time>
      </trkpt>
      <trkpt lat="45.17408" lon="5.92962">
        <ele>1838</ele>
        <time>2013-05-07T05:23:59.000Z</time>
      </trkpt>
      <trkpt lat="45.17408" lon="5.92968">
        <ele>1840</ele>
        <time>2013-05-07T05:24:09.000Z</time>
      </trkpt>
      <trkpt lat="45.17413" lon="5.92975">
        <ele>1841</ele>
        <time>2013-05-07T05:24:19.000Z</time>
      </trkpt>
      <trkpt lat="45.17416" lon="5.9298">
        <ele>1842</ele>
        <time>2013-05-07T05:24:29.000Z</time>
      </trkpt>
      <trkpt lat="45.1742" lon="5.92982">
        <ele>1829</ele>
        <time>2013-05-07T05:24:39.000Z</time>
      </trkpt>
      <trkpt lat="45.17422" lon="5.92987">
        <ele>1832</ele>
        <time>2013-05-07T05:24:49.000Z</time>
      </trkpt>
      <trkpt lat="45.17425" lon="5.92991">
        <ele>1833</ele>
        <time>2013-05-07T05:24:59.000Z</time>
      </trkpt>
      <trkpt lat="45.17429" lon="5.92997">
        <ele>1833</ele>
        <time>2013-05-07T05:25:09.000Z</time>
      </trkpt>
      <trkpt lat="45.1743" lon="5.93004">
        <ele>1844</ele>
        <time>2013-05-07T05:25:19.000Z</time>
      </trkpt>
      <trkpt lat="45.17428" lon="5.93012">
        <ele>1845</ele>
        <time>2013-05-07T05:25:29.000Z</time>
      </trkpt>
      <trkpt lat="45.17427" lon="5.93023">
        <ele>1845</ele>
        <time>2013-05-07T05:25:39.000Z</time>
      </trkpt>
      <trkpt lat="45.17427" lon="5.9303">
        <ele>1846</ele>
        <time>2013-05-07T05:25:49.000Z</time>
      </trkpt>
      <trkpt lat="45.17426" lon="5.93036">
        <ele>1847</ele>
        <time>2013-05-07T05:25:59.000Z</time>
      </trkpt>
      <trkpt lat="45.17426" lon="5.93045">
        <ele>1849</ele>
        <time>2013-05-07T05:26:09.000Z</time>
      </trkpt>
      <trkpt lat="45.17427" lon="5.93056">
        <ele>1852</ele>
        <time>2013-05-07T05:26:19.000Z</time>
      </trkpt>
      <trkpt lat="45.17428" lon="5.93064">
        <ele>1855</ele>
        <time>2013-05-07T05:26:29.000Z</time>
      </trkpt>
      <trkpt lat="45.17428" lon="5.93071">
        <ele>1858</ele>
        <time>2013-05-07T05:26:39.000Z</time>
      </trkpt>
      <trkpt lat="45.1743" lon="5.93078">
        <ele>1860</ele>
        <time>2013-05-07T05:26:49.000Z</time>
      </trkpt>
      <trkpt lat="45.17431" lon="5.93084">
        <ele>1868</ele>
        <time>2013-05-07T05:26:59.000Z</time>
      </trkpt>
      <trkpt lat="45.17432" lon="5.93089">
        <ele>1868</ele>
        <time>2013-05-07T05:27:19.000Z</time>
      </trkpt>
      <trkpt lat="45.17432" lon="5.93095">
        <ele>1868</ele>
        <time>2013-05-07T05:27:29.000Z</time>
      </trkpt>
      <trkpt lat="45.17433" lon="5.93095">
        <ele>1868</ele>
        <time>2013-05-07T05:27:39.000Z</time>
      </trkpt>
      <trkpt lat="45.17432" lon="5.93101">
        <ele>1868</ele>
        <time>2013-05-07T05:27:49.000Z</time>
      </trkpt>
      <trkpt lat="45.17431" lon="5.93108">
        <ele>1868</ele>
        <time>2013-05-07T05:27:59.000Z</time>
      </trkpt>
      <trkpt lat="45.1743" lon="5.93118">
        <ele>1869</ele>
        <time>2013-05-07T05:28:09.000Z</time>
      </trkpt>
      <trkpt lat="45.17428" lon="5.93128">
        <ele>1870</ele>
        <time>2013-05-07T05:28:19.000Z</time>
      </trkpt>
      <trkpt lat="45.17426" lon="5.93133">
        <ele>1871</ele>
        <time>2013-05-07T05:28:29.000Z</time>
      </trkpt>
      <trkpt lat="45.17425" lon="5.93137">
        <ele>1872</ele>
        <time>2013-05-07T05:28:39.000Z</time>
      </trkpt>
      <trkpt lat="45.17426" lon="5.93144">
        <ele>1873</ele>
        <time>2013-05-07T05:28:49.000Z</time>
      </trkpt>
      <trkpt lat="45.17426" lon="5.93152">
        <ele>1876</ele>
        <time>2013-05-07T05:28:59.000Z</time>
      </trkpt>
      <trkpt lat="45.17419" lon="5.93153">
        <ele>1877</ele>
        <time>2013-05-07T05:29:09.000Z</time>
      </trkpt>
      <trkpt lat="45.17415" lon="5.93145">
        <ele>1888</ele>
        <time>2013-05-07T05:29:19.000Z</time>
      </trkpt>
      <trkpt lat="45.17414" lon="5.93145">
        <ele>1888</ele>
        <time>2013-05-07T05:29:29.000Z</time>
      </trkpt>
      <trkpt lat="45.17414" lon="5.93156">
        <ele>1887</ele>
        <time>2013-05-07T05:29:39.000Z</time>
      </trkpt>
      <trkpt lat="45.17413" lon="5.93165">
        <ele>1886</ele>
        <time>2013-05-07T05:29:49.000Z</time>
      </trkpt>
      <trkpt lat="45.17411" lon="5.93173">
        <ele>1891</ele>
        <time>2013-05-07T05:29:59.000Z</time>
      </trkpt>
      <trkpt lat="45.17411" lon="5.9318">
        <ele>1894</ele>
        <time>2013-05-07T05:30:09.000Z</time>
      </trkpt>
      <trkpt lat="45.1741" lon="5.93187">
        <ele>1896</ele>
        <time>2013-05-07T05:30:19.000Z</time>
      </trkpt>
      <trkpt lat="45.17409" lon="5.932">
        <ele>1899</ele>
        <time>2013-05-07T05:30:29.000Z</time>
      </trkpt>
      <trkpt lat="45.17408" lon="5.93209">
        <ele>1900</ele>
        <time>2013-05-07T05:30:39.000Z</time>
      </trkpt>
      <trkpt lat="45.17407" lon="5.93216">
        <ele>1901</ele>
        <time>2013-05-07T05:30:49.000Z</time>
      </trkpt>
      <trkpt lat="45.17405" lon="5.93225">
        <ele>1901</ele>
        <time>2013-05-07T05:30:59.000Z</time>
      </trkpt>
      <trkpt lat="45.17403" lon="5.93236">
        <ele>1901</ele>
        <time>2013-05-07T05:31:09.000Z</time>
      </trkpt>
      <trkpt lat="45.17399" lon="5.93249">
        <ele>1901</ele>
        <time>2013-05-07T05:31:19.000Z</time>
      </trkpt>
      <trkpt lat="45.17396" lon="5.93261">
        <ele>1906</ele>
        <time>2013-05-07T05:31:29.000Z</time>
      </trkpt>
      <trkpt lat="45.17393" lon="5.93274">
        <ele>1908</ele>
        <time>2013-05-07T05:31:39.000Z</time>
      </trkpt>
      <trkpt lat="45.17389" lon="5.93286">
        <ele>1910</ele>
        <time>2013-05-07T05:31:49.000Z</time>
      </trkpt>
      <trkpt lat="45.17386" lon="5.93297">
        <ele>1910</ele>
        <time>2013-05-07T05:31:59.000Z</time>
      </trkpt>
      <trkpt lat="45.17383" lon="5.93304">
        <ele>1911</ele>
        <time>2013-05-07T05:32:09.000Z</time>
      </trkpt>
      <trkpt lat="45.17379" lon="5.93311">
        <ele>1911</ele>
        <time>2013-05-07T05:32:19.000Z</time>
      </trkpt>
      <trkpt lat="45.17376" lon="5.93318">
        <ele>1912</ele>
        <time>2013-05-07T05:32:29.000Z</time>
      </trkpt>
      <trkpt lat="45.17376" lon="5.9333">
        <ele>1912</ele>
        <time>2013-05-07T05:32:39.000Z</time>
      </trkpt>
      <trkpt lat="45.17376" lon="5.93341">
        <ele>1914</ele>
        <time>2013-05-07T05:32:49.000Z</time>
      </trkpt>
      <trkpt lat="45.17375" lon="5.93354">
        <ele>1915</ele>
        <time>2013-05-07T05:32:59.000Z</time>
      </trkpt>
      <trkpt lat="45.17375" lon="5.93365">
        <ele>1915</ele>
        <time>2013-05-07T05:33:09.000Z</time>
      </trkpt>
      <trkpt lat="45.17375" lon="5.93376">
        <ele>1915</ele>
        <time>2013-05-07T05:33:19.000Z</time>
      </trkpt>
      <trkpt lat="45.17374" lon="5.93385">
        <ele>1916</ele>
        <time>2013-05-07T05:33:29.000Z</time>
      </trkpt>
      <trkpt lat="45.17373" lon="5.93397">
        <ele>1916</ele>
        <time>2013-05-07T05:33:39.000Z</time>
      </trkpt>
      <trkpt lat="45.17371" lon="5.93405">
        <ele>1916</ele>
        <time>2013-05-07T05:33:49.000Z</time>
      </trkpt>
      <trkpt lat="45.1737" lon="5.93413">
        <ele>1917</ele>
        <time>2013-05-07T05:33:59.000Z</time>
      </trkpt>
      <trkpt lat="45.17369" lon="5.93422">
        <ele>1922</ele>
        <time>2013-05-07T05:34:09.000Z</time>
      </trkpt>
      <trkpt lat="45.17367" lon="5.93432">
        <ele>1923</ele>
        <time>2013-05-07T05:34:19.000Z</time>
      </trkpt>
      <trkpt lat="45.17365" lon="5.9344">
        <ele>1923</ele>
        <time>2013-05-07T05:34:29.000Z</time>
      </trkpt>
      <trkpt lat="45.17365" lon="5.93446">
        <ele>1924</ele>
        <time>2013-05-07T05:34:39.000Z</time>
      </trkpt>
      <trkpt lat="45.17365" lon="5.93448">
        <ele>1924</ele>
        <time>2013-05-07T05:34:49.000Z</time>
      </trkpt>
      <trkpt lat="45.17367" lon="5.93452">
        <ele>1924</ele>
        <time>2013-05-07T05:34:59.000Z</time>
      </trkpt>
      <trkpt lat="45.1737" lon="5.9346">
        <ele>1924</ele>
        <time>2013-05-07T05:35:09.000Z</time>
      </trkpt>
      <trkpt lat="45.17373" lon="5.93466">
        <ele>1925</ele>
        <time>2013-05-07T05:35:19.000Z</time>
      </trkpt>
      <trkpt lat="45.17374" lon="5.93475">
        <ele>1925</ele>
        <time>2013-05-07T05:35:29.000Z</time>
      </trkpt>
      <trkpt lat="45.17377" lon="5.93485">
        <ele>1925</ele>
        <time>2013-05-07T05:35:39.000Z</time>
      </trkpt>
      <trkpt lat="45.17378" lon="5.93498">
        <ele>1925</ele>
        <time>2013-05-07T05:35:49.000Z</time>
      </trkpt>
      <trkpt lat="45.17378" lon="5.93507">
        <ele>1934</ele>
        <time>2013-05-07T05:35:59.000Z</time>
      </trkpt>
      <trkpt lat="45.17379" lon="5.93515">
        <ele>1934</ele>
        <time>2013-05-07T05:36:09.000Z</time>
      </trkpt>
      <trkpt lat="45.17379" lon="5.93523">
        <ele>1935</ele>
        <time>2013-05-07T05:36:19.000Z</time>
      </trkpt>
      <trkpt lat="45.1738" lon="5.93528">
        <ele>1935</ele>
        <time>2013-05-07T05:36:29.000Z</time>
      </trkpt>
      <trkpt lat="45.17382" lon="5.93537">
        <ele>1936</ele>
        <time>2013-05-07T05:36:39.000Z</time>
      </trkpt>
      <trkpt lat="45.17384" lon="5.93543">
        <ele>1936</ele>
        <time>2013-05-07T05:36:49.000Z</time>
      </trkpt>
      <trkpt lat="45.17385" lon="5.93554">
        <ele>1937</ele>
        <time>2013-05-07T05:36:59.000Z</time>
      </trkpt>
      <trkpt lat="45.17381" lon="5.93562">
        <ele>1938</ele>
        <time>2013-05-07T05:37:09.000Z</time>
      </trkpt>
      <trkpt lat="45.17378" lon="5.93565">
        <ele>1939</ele>
        <time>2013-05-07T05:37:19.000Z</time>
      </trkpt>
      <trkpt lat="45.17371" lon="5.93567">
        <ele>1940</ele>
        <time>2013-05-07T05:37:29.000Z</time>
      </trkpt>
      <trkpt lat="45.17363" lon="5.93562">
        <ele>1941</ele>
        <time>2013-05-07T05:37:39.000Z</time>
      </trkpt>
      <trkpt lat="45.17353" lon="5.93558">
        <ele>1942</ele>
        <time>2013-05-07T05:37:49.000Z</time>
      </trkpt>
      <trkpt lat="45.17347" lon="5.93548">
        <ele>1941</ele>
        <time>2013-05-07T05:37:59.000Z</time>
      </trkpt>
      <trkpt lat="45.17342" lon="5.93542">
        <ele>1941</ele>
        <time>2013-05-07T05:38:09.000Z</time>
      </trkpt>
      <trkpt lat="45.17333" lon="5.93537">
        <ele>1952</ele>
        <time>2013-05-07T05:38:19.000Z</time>
      </trkpt>
      <trkpt lat="45.17329" lon="5.93532">
        <ele>1951</ele>
        <time>2013-05-07T05:38:29.000Z</time>
      </trkpt>
      <trkpt lat="45.17326" lon="5.93528">
        <ele>1950</ele>
        <time>2013-05-07T05:38:39.000Z</time>
      </trkpt>
      <trkpt lat="45.17322" lon="5.93528">
        <ele>1951</ele>
        <time>2013-05-07T05:38:49.000Z</time>
      </trkpt>
      <trkpt lat="45.17317" lon="5.93526">
        <ele>1951</ele>
        <time>2013-05-07T05:38:59.000Z</time>
      </trkpt>
      <trkpt lat="45.17311" lon="5.93522">
        <ele>1951</ele>
        <time>2013-05-07T05:39:09.000Z</time>
      </trkpt>
      <trkpt lat="45.17306" lon="5.9352">
        <ele>1952</ele>
        <time>2013-05-07T05:39:19.000Z</time>
      </trkpt>
      <trkpt lat="45.17302" lon="5.93519">
        <ele>1952</ele>
        <time>2013-05-07T05:39:29.000Z</time>
      </trkpt>
      <trkpt lat="45.17297" lon="5.93516">
        <ele>1953</ele>
        <time>2013-05-07T05:39:39.000Z</time>
      </trkpt>
      <trkpt lat="45.1729" lon="5.93512">
        <ele>1954</ele>
        <time>2013-05-07T05:39:49.000Z</time>
      </trkpt>
      <trkpt lat="45.17284" lon="5.93508">
        <ele>1954</ele>
        <time>2013-05-07T05:39:59.000Z</time>
      </trkpt>
      <trkpt lat="45.17272" lon="5.93504">
        <ele>1956</ele>
        <time>2013-05-07T05:40:09.000Z</time>
      </trkpt>
      <trkpt lat="45.1727" lon="5.93501">
        <ele>1956</ele>
        <time>2013-05-07T05:40:19.000Z</time>
      </trkpt>
      <trkpt lat="45.17265" lon="5.93497">
        <ele>1951</ele>
        <time>2013-05-07T05:40:29.000Z</time>
      </trkpt>
      <trkpt lat="45.17258" lon="5.93497">
        <ele>1954</ele>
        <time>2013-05-07T05:40:39.000Z</time>
      </trkpt>
      <trkpt lat="45.17246" lon="5.93492">
        <ele>1960</ele>
        <time>2013-05-07T05:40:49.000Z</time>
      </trkpt>
      <trkpt lat="45.17237" lon="5.93485">
        <ele>1962</ele>
        <time>2013-05-07T05:40:59.000Z</time>
      </trkpt>
      <trkpt lat="45.17231" lon="5.9348">
        <ele>1963</ele>
        <time>2013-05-07T05:41:09.000Z</time>
      </trkpt>
      <trkpt lat="45.17228" lon="5.93477">
        <ele>1964</ele>
        <time>2013-05-07T05:41:19.000Z</time>
      </trkpt>
      <trkpt lat="45.17222" lon="5.93469">
        <ele>1964</ele>
        <time>2013-05-07T05:41:29.000Z</time>
      </trkpt>
      <trkpt lat="45.17222" lon="5.93461">
        <ele>1964</ele>
        <time>2013-05-07T05:41:39.000Z</time>
      </trkpt>
      <trkpt lat="45.17224" lon="5.93454">
        <ele>1964</ele>
        <time>2013-05-07T05:41:49.000Z</time>
      </trkpt>
      <trkpt lat="45.1722" lon="5.93446">
        <ele>1965</ele>
        <time>2013-05-07T05:41:59.000Z</time>
      </trkpt>
      <trkpt lat="45.17216" lon="5.93445">
        <ele>1965</ele>
        <time>2013-05-07T05:42:09.000Z</time>
      </trkpt>
      <trkpt lat="45.17211" lon="5.93446">
        <ele>1966</ele>
        <time>2013-05-07T05:42:19.000Z</time>
      </trkpt>
      <trkpt lat="45.17202" lon="5.93441">
        <ele>1967</ele>
        <time>2013-05-07T05:42:29.000Z</time>
      </trkpt>
      <trkpt lat="45.17195" lon="5.93443">
        <ele>1968</ele>
        <time>2013-05-07T05:42:39.000Z</time>
      </trkpt>
      <trkpt lat="45.1719" lon="5.93446">
        <ele>1969</ele>
        <time>2013-05-07T05:42:49.000Z</time>
      </trkpt>
      <trkpt lat="45.17191" lon="5.93452">
        <ele>1968</ele>
        <time>2013-05-07T05:43:29.000Z</time>
      </trkpt>
      <trkpt lat="45.17191" lon="5.93455">
        <ele>1968</ele>
        <time>2013-05-07T05:43:39.000Z</time>
      </trkpt>
      <trkpt lat="45.17187" lon="5.93457">
        <ele>1969</ele>
        <time>2013-05-07T05:43:59.000Z</time>
      </trkpt>
      <trkpt lat="45.17185" lon="5.9346">
        <ele>1968</ele>
        <time>2013-05-07T05:44:09.000Z</time>
      </trkpt>
      <trkpt lat="45.17188" lon="5.93461">
        <ele>1968</ele>
        <time>2013-05-07T05:44:29.000Z</time>
      </trkpt>
      <trkpt lat="45.17178" lon="5.93457">
        <ele>1969</ele>
        <time>2013-05-07T05:44:39.000Z</time>
      </trkpt>
      <trkpt lat="45.17162" lon="5.93443">
        <ele>1976</ele>
        <time>2013-05-07T05:44:49.000Z</time>
      </trkpt>
      <trkpt lat="45.17156" lon="5.93442">
        <ele>1976</ele>
        <time>2013-05-07T05:44:59.000Z</time>
      </trkpt>
      <trkpt lat="45.17144" lon="5.93443">
        <ele>1975</ele>
        <time>2013-05-07T05:45:09.000Z</time>
      </trkpt>
      <trkpt lat="45.17131" lon="5.93439">
        <ele>1975</ele>
        <time>2013-05-07T05:45:19.000Z</time>
      </trkpt>
      <trkpt lat="45.17118" lon="5.93438">
        <ele>1975</ele>
        <time>2013-05-07T05:45:29.000Z</time>
      </trkpt>
      <trkpt lat="45.17104" lon="5.93428">
        <ele>1975</ele>
        <time>2013-05-07T05:45:39.000Z</time>
      </trkpt>
      <trkpt lat="45.17084" lon="5.93417">
        <ele>1976</ele>
        <time>2013-05-07T05:45:49.000Z</time>
      </trkpt>
      <trkpt lat="45.17076" lon="5.93413">
        <ele>1981</ele>
        <time>2013-05-07T05:45:59.000Z</time>
      </trkpt>
      <trkpt lat="45.17063" lon="5.93395">
        <ele>1988</ele>
        <time>2013-05-07T05:46:09.000Z</time>
      </trkpt>
      <trkpt lat="45.17056" lon="5.93385">
        <ele>1991</ele>
        <time>2013-05-07T05:46:19.000Z</time>
      </trkpt>
      <trkpt lat="45.17056" lon="5.9339">
        <ele>1990</ele>
        <time>2013-05-07T05:46:29.000Z</time>
      </trkpt>
      <trkpt lat="45.17057" lon="5.93392">
        <ele>1990</ele>
        <time>2013-05-07T05:46:39.000Z</time>
      </trkpt>
      <trkpt lat="45.17058" lon="5.93394">
        <ele>1989</ele>
        <time>2013-05-07T05:46:59.000Z</time>
      </trkpt>
      <trkpt lat="45.1706" lon="5.93401">
        <ele>1988</ele>
        <time>2013-05-07T05:47:09.000Z</time>
      </trkpt>
      <trkpt lat="45.17063" lon="5.93411">
        <ele>1986</ele>
        <time>2013-05-07T05:47:19.000Z</time>
      </trkpt>
      <trkpt lat="45.17064" lon="5.93409">
        <ele>1985</ele>
        <time>2013-05-07T05:47:29.000Z</time>
      </trkpt>
      <trkpt lat="45.17064" lon="5.93402">
        <ele>1987</ele>
        <time>2013-05-07T05:47:39.000Z</time>
      </trkpt>
      <trkpt lat="45.1706" lon="5.93402">
        <ele>1988</ele>
        <time>2013-05-07T05:47:59.000Z</time>
      </trkpt>
      <trkpt lat="45.17057" lon="5.93401">
        <ele>1988</ele>
        <time>2013-05-07T05:48:09.000Z</time>
      </trkpt>
      <trkpt lat="45.17057" lon="5.93401">
        <ele>1988</ele>
        <time>2013-05-07T05:48:19.000Z</time>
      </trkpt>
      <trkpt lat="45.17051" lon="5.93393">
        <ele>1990</ele>
        <time>2013-05-07T05:48:29.000Z</time>
      </trkpt>
      <trkpt lat="45.1705" lon="5.9339">
        <ele>1991</ele>
        <time>2013-05-07T05:49:19.000Z</time>
      </trkpt>
      <trkpt lat="45.17046" lon="5.93397">
        <ele>1990</ele>
        <time>2013-05-07T05:49:29.000Z</time>
      </trkpt>
      <trkpt lat="45.17034" lon="5.93405">
        <ele>1990</ele>
        <time>2013-05-07T05:49:39.000Z</time>
      </trkpt>
      <trkpt lat="45.17027" lon="5.93408">
        <ele>1990</ele>
        <time>2013-05-07T05:49:49.000Z</time>
      </trkpt>
      <trkpt lat="45.17018" lon="5.93414">
        <ele>1989</ele>
        <time>2013-05-07T05:49:59.000Z</time>
      </trkpt>
      <trkpt lat="45.17009" lon="5.93421">
        <ele>1981</ele>
        <time>2013-05-07T05:50:09.000Z</time>
      </trkpt>
      <trkpt lat="45.16999" lon="5.93426">
        <ele>1986</ele>
        <time>2013-05-07T05:50:19.000Z</time>
      </trkpt>
      <trkpt lat="45.16991" lon="5.93432">
        <ele>1987</ele>
        <time>2013-05-07T05:50:29.000Z</time>
      </trkpt>
      <trkpt lat="45.1699" lon="5.93433">
        <ele>1988</ele>
        <time>2013-05-07T05:50:39.000Z</time>
      </trkpt>
      <trkpt lat="45.16983" lon="5.93438">
        <ele>1989</ele>
        <time>2013-05-07T05:50:49.000Z</time>
      </trkpt>
      <trkpt lat="45.16974" lon="5.93445">
        <ele>1990</ele>
        <time>2013-05-07T05:50:59.000Z</time>
      </trkpt>
      <trkpt lat="45.16967" lon="5.9345">
        <ele>1990</ele>
        <time>2013-05-07T05:51:09.000Z</time>
      </trkpt>
      <trkpt lat="45.1696" lon="5.93455">
        <ele>1991</ele>
        <time>2013-05-07T05:51:19.000Z</time>
      </trkpt>
      <trkpt lat="45.16953" lon="5.93461">
        <ele>1991</ele>
        <time>2013-05-07T05:51:29.000Z</time>
      </trkpt>
      <trkpt lat="45.16947" lon="5.93467">
        <ele>1991</ele>
        <time>2013-05-07T05:51:39.000Z</time>
      </trkpt>
      <trkpt lat="45.16939" lon="5.93475">
        <ele>1991</ele>
        <time>2013-05-07T05:51:49.000Z</time>
      </trkpt>
      <trkpt lat="45.16931" lon="5.93484">
        <ele>1991</ele>
        <time>2013-05-07T05:51:59.000Z</time>
      </trkpt>
      <trkpt lat="45.16926" lon="5.93481">
        <ele>1992</ele>
        <time>2013-05-07T05:52:09.000Z</time>
      </trkpt>
      <trkpt lat="45.16919" lon="5.93484">
        <ele>1992</ele>
        <time>2013-05-07T05:52:19.000Z</time>
      </trkpt>
      <trkpt lat="45.16911" lon="5.93497">
        <ele>2000</ele>
        <time>2013-05-07T05:52:29.000Z</time>
      </trkpt>
      <trkpt lat="45.16905" lon="5.93503">
        <ele>1992</ele>
        <time>2013-05-07T05:52:39.000Z</time>
      </trkpt>
      <trkpt lat="45.16898" lon="5.93509">
        <ele>1993</ele>
        <time>2013-05-07T05:52:49.000Z</time>
      </trkpt>
      <trkpt lat="45.16891" lon="5.93515">
        <ele>1993</ele>
        <time>2013-05-07T05:52:59.000Z</time>
      </trkpt>
      <trkpt lat="45.16884" lon="5.93524">
        <ele>1993</ele>
        <time>2013-05-07T05:53:09.000Z</time>
      </trkpt>
      <trkpt lat="45.16876" lon="5.93531">
        <ele>1994</ele>
        <time>2013-05-07T05:53:19.000Z</time>
      </trkpt>
      <trkpt lat="45.16868" lon="5.93538">
        <ele>1994</ele>
        <time>2013-05-07T05:53:29.000Z</time>
      </trkpt>
      <trkpt lat="45.16858" lon="5.93548">
        <ele>1993</ele>
        <time>2013-05-07T05:53:39.000Z</time>
      </trkpt>
      <trkpt lat="45.16831" lon="5.93574">
        <ele>2004</ele>
        <time>2013-05-07T05:53:49.000Z</time>
      </trkpt>
      <trkpt lat="45.16824" lon="5.93589">
        <ele>1995</ele>
        <time>2013-05-07T05:53:59.000Z</time>
      </trkpt>
      <trkpt lat="45.16817" lon="5.93601">
        <ele>2002</ele>
        <time>2013-05-07T05:54:09.000Z</time>
      </trkpt>
      <trkpt lat="45.16812" lon="5.93614">
        <ele>2006</ele>
        <time>2013-05-07T05:54:19.000Z</time>
      </trkpt>
      <trkpt lat="45.16806" lon="5.93628">
        <ele>2006</ele>
        <time>2013-05-07T05:54:29.000Z</time>
      </trkpt>
      <trkpt lat="45.168" lon="5.93643">
        <ele>2006</ele>
        <time>2013-05-07T05:54:39.000Z</time>
      </trkpt>
      <trkpt lat="45.16794" lon="5.93657">
        <ele>2007</ele>
        <time>2013-05-07T05:54:49.000Z</time>
      </trkpt>
      <trkpt lat="45.16791" lon="5.93666">
        <ele>2008</ele>
        <time>2013-05-07T05:54:59.000Z</time>
      </trkpt>
      <trkpt lat="45.16791" lon="5.93666">
        <ele>2008</ele>
        <time>2013-05-07T05:55:09.000Z</time>
      </trkpt>
      <trkpt lat="45.16787" lon="5.93682">
        <ele>1997</ele>
        <time>2013-05-07T05:55:19.000Z</time>
      </trkpt>
      <trkpt lat="45.16785" lon="5.93693">
        <ele>1998</ele>
        <time>2013-05-07T05:55:29.000Z</time>
      </trkpt>
      <trkpt lat="45.16783" lon="5.93703">
        <ele>1997</ele>
        <time>2013-05-07T05:55:39.000Z</time>
      </trkpt>
      <trkpt lat="45.16781" lon="5.93712">
        <ele>1997</ele>
        <time>2013-05-07T05:55:49.000Z</time>
      </trkpt>
      <trkpt lat="45.16779" lon="5.93726">
        <ele>1997</ele>
        <time>2013-05-07T05:55:59.000Z</time>
      </trkpt>
      <trkpt lat="45.16777" lon="5.93737">
        <ele>1997</ele>
        <time>2013-05-07T05:56:09.000Z</time>
      </trkpt>
      <trkpt lat="45.16778" lon="5.93749">
        <ele>1997</ele>
        <time>2013-05-07T05:56:19.000Z</time>
      </trkpt>
      <trkpt lat="45.16776" lon="5.93755">
        <ele>1998</ele>
        <time>2013-05-07T05:56:29.000Z</time>
      </trkpt>
      <trkpt lat="45.16774" lon="5.93765">
        <ele>1999</ele>
        <time>2013-05-07T05:56:39.000Z</time>
      </trkpt>
      <trkpt lat="45.16773" lon="5.93777">
        <ele>1999</ele>
        <time>2013-05-07T05:56:49.000Z</time>
      </trkpt>
      <trkpt lat="45.16769" lon="5.93787">
        <ele>2000</ele>
        <time>2013-05-07T05:56:59.000Z</time>
      </trkpt>
      <trkpt lat="45.16766" lon="5.93798">
        <ele>2001</ele>
        <time>2013-05-07T05:57:09.000Z</time>
      </trkpt>
      <trkpt lat="45.16763" lon="5.93806">
        <ele>2002</ele>
        <time>2013-05-07T05:57:19.000Z</time>
      </trkpt>
      <trkpt lat="45.16761" lon="5.93815">
        <ele>2003</ele>
        <time>2013-05-07T05:57:29.000Z</time>
      </trkpt>
      <trkpt lat="45.16758" lon="5.93823">
        <ele>2005</ele>
        <time>2013-05-07T05:57:39.000Z</time>
      </trkpt>
      <trkpt lat="45.16753" lon="5.93831">
        <ele>2008</ele>
        <time>2013-05-07T05:57:49.000Z</time>
      </trkpt>
      <trkpt lat="45.1675" lon="5.9384">
        <ele>2016</ele>
        <time>2013-05-07T05:57:59.000Z</time>
      </trkpt>
      <trkpt lat="45.16746" lon="5.93847">
        <ele>2021</ele>
        <time>2013-05-07T05:58:09.000Z</time>
      </trkpt>
      <trkpt lat="45.16741" lon="5.93853">
        <ele>2025</ele>
        <time>2013-05-07T05:58:19.000Z</time>
      </trkpt>
      <trkpt lat="45.16734" lon="5.93859">
        <ele>2028</ele>
        <time>2013-05-07T05:58:29.000Z</time>
      </trkpt>
      <trkpt lat="45.16728" lon="5.93864">
        <ele>2030</ele>
        <time>2013-05-07T05:58:39.000Z</time>
      </trkpt>
      <trkpt lat="45.16723" lon="5.9387">
        <ele>2032</ele>
        <time>2013-05-07T05:58:49.000Z</time>
      </trkpt>
      <trkpt lat="45.16716" lon="5.93877">
        <ele>2034</ele>
        <time>2013-05-07T05:58:59.000Z</time>
      </trkpt>
      <trkpt lat="45.16711" lon="5.93882">
        <ele>2035</ele>
        <time>2013-05-07T05:59:09.000Z</time>
      </trkpt>
      <trkpt lat="45.16705" lon="5.93882">
        <ele>2036</ele>
        <time>2013-05-07T05:59:19.000Z</time>
      </trkpt>
      <trkpt lat="45.16698" lon="5.93883">
        <ele>2037</ele>
        <time>2013-05-07T05:59:29.000Z</time>
      </trkpt>
      <trkpt lat="45.16692" lon="5.93884">
        <ele>2038</ele>
        <time>2013-05-07T05:59:39.000Z</time>
      </trkpt>
      <trkpt lat="45.16686" lon="5.93884">
        <ele>2038</ele>
        <time>2013-05-07T05:59:49.000Z</time>
      </trkpt>
      <trkpt lat="45.1668" lon="5.93881">
        <ele>2039</ele>
        <time>2013-05-07T05:59:59.000Z</time>
      </trkpt>
      <trkpt lat="45.16675" lon="5.93883">
        <ele>2040</ele>
        <time>2013-05-07T06:00:09.000Z</time>
      </trkpt>
      <trkpt lat="45.16669" lon="5.93886">
        <ele>2040</ele>
        <time>2013-05-07T06:00:19.000Z</time>
      </trkpt>
      <trkpt lat="45.16663" lon="5.93891">
        <ele>2056</ele>
        <time>2013-05-07T06:00:29.000Z</time>
      </trkpt>
      <trkpt lat="45.16657" lon="5.93894">
        <ele>2056</ele>
        <time>2013-05-07T06:00:39.000Z</time>
      </trkpt>
      <trkpt lat="45.16652" lon="5.93899">
        <ele>2056</ele>
        <time>2013-05-07T06:00:49.000Z</time>
      </trkpt>
      <trkpt lat="45.16648" lon="5.93902">
        <ele>2056</ele>
        <time>2013-05-07T06:00:59.000Z</time>
      </trkpt>
      <trkpt lat="45.16644" lon="5.93907">
        <ele>2057</ele>
        <time>2013-05-07T06:01:09.000Z</time>
      </trkpt>
      <trkpt lat="45.16645" lon="5.93912">
        <ele>2056</ele>
        <time>2013-05-07T06:01:19.000Z</time>
      </trkpt>
      <trkpt lat="45.16648" lon="5.93918">
        <ele>2052</ele>
        <time>2013-05-07T06:01:29.000Z</time>
      </trkpt>
      <trkpt lat="45.16653" lon="5.93921">
        <ele>2051</ele>
        <time>2013-05-07T06:01:39.000Z</time>
      </trkpt>
      <trkpt lat="45.16652" lon="5.93921">
        <ele>2051</ele>
        <time>2013-05-07T06:01:49.000Z</time>
      </trkpt>
      <trkpt lat="45.16645" lon="5.93927">
        <ele>2054</ele>
        <time>2013-05-07T06:01:59.000Z</time>
      </trkpt>
      <trkpt lat="45.16639" lon="5.93933">
        <ele>2056</ele>
        <time>2013-05-07T06:02:09.000Z</time>
      </trkpt>
      <trkpt lat="45.16635" lon="5.9394">
        <ele>2057</ele>
        <time>2013-05-07T06:02:19.000Z</time>
      </trkpt>
      <trkpt lat="45.16632" lon="5.93947">
        <ele>2058</ele>
        <time>2013-05-07T06:02:29.000Z</time>
      </trkpt>
      <trkpt lat="45.1663" lon="5.93956">
        <ele>2059</ele>
        <time>2013-05-07T06:02:39.000Z</time>
      </trkpt>
      <trkpt lat="45.16626" lon="5.93964">
        <ele>2060</ele>
        <time>2013-05-07T06:02:49.000Z</time>
      </trkpt>
      <trkpt lat="45.16624" lon="5.93972">
        <ele>2060</ele>
        <time>2013-05-07T06:02:59.000Z</time>
      </trkpt>
      <trkpt lat="45.16622" lon="5.93981">
        <ele>2061</ele>
        <time>2013-05-07T06:03:09.000Z</time>
      </trkpt>
      <trkpt lat="45.1662" lon="5.93988">
        <ele>2061</ele>
        <time>2013-05-07T06:03:19.000Z</time>
      </trkpt>
      <trkpt lat="45.16616" lon="5.93999">
        <ele>2062</ele>
        <time>2013-05-07T06:03:29.000Z</time>
      </trkpt>
      <trkpt lat="45.16614" lon="5.9401">
        <ele>2065</ele>
        <time>2013-05-07T06:03:39.000Z</time>
      </trkpt>
      <trkpt lat="45.16612" lon="5.94017">
        <ele>2065</ele>
        <time>2013-05-07T06:03:49.000Z</time>
      </trkpt>
      <trkpt lat="45.16608" lon="5.94028">
        <ele>2065</ele>
        <time>2013-05-07T06:03:59.000Z</time>
      </trkpt>
      <trkpt lat="45.16605" lon="5.9404">
        <ele>2065</ele>
        <time>2013-05-07T06:04:09.000Z</time>
      </trkpt>
      <trkpt lat="45.16602" lon="5.94049">
        <ele>2066</ele>
        <time>2013-05-07T06:04:19.000Z</time>
      </trkpt>
      <trkpt lat="45.16597" lon="5.94061">
        <ele>2067</ele>
        <time>2013-05-07T06:04:29.000Z</time>
      </trkpt>
      <trkpt lat="45.16593" lon="5.9407">
        <ele>2068</ele>
        <time>2013-05-07T06:04:39.000Z</time>
      </trkpt>
      <trkpt lat="45.16588" lon="5.94087">
        <ele>2071</ele>
        <time>2013-05-07T06:04:49.000Z</time>
      </trkpt>
      <trkpt lat="45.16583" lon="5.94113">
        <ele>2073</ele>
        <time>2013-05-07T06:04:59.000Z</time>
      </trkpt>
      <trkpt lat="45.16582" lon="5.94132">
        <ele>2075</ele>
        <time>2013-05-07T06:05:09.000Z</time>
      </trkpt>
      <trkpt lat="45.16578" lon="5.94145">
        <ele>2076</ele>
        <time>2013-05-07T06:05:19.000Z</time>
      </trkpt>
      <trkpt lat="45.16573" lon="5.94156">
        <ele>2077</ele>
        <time>2013-05-07T06:05:29.000Z</time>
      </trkpt>
      <trkpt lat="45.16568" lon="5.9417">
        <ele>2080</ele>
        <time>2013-05-07T06:05:39.000Z</time>
      </trkpt>
      <trkpt lat="45.1656" lon="5.94188">
        <ele>2081</ele>
        <time>2013-05-07T06:05:49.000Z</time>
      </trkpt>
      <trkpt lat="45.16553" lon="5.942">
        <ele>2082</ele>
        <time>2013-05-07T06:05:59.000Z</time>
      </trkpt>
      <trkpt lat="45.16547" lon="5.94209">
        <ele>2083</ele>
        <time>2013-05-07T06:06:09.000Z</time>
      </trkpt>
      <trkpt lat="45.16541" lon="5.94219">
        <ele>2083</ele>
        <time>2013-05-07T06:06:19.000Z</time>
      </trkpt>
      <trkpt lat="45.16536" lon="5.94229">
        <ele>2083</ele>
        <time>2013-05-07T06:06:29.000Z</time>
      </trkpt>
      <trkpt lat="45.16533" lon="5.94238">
        <ele>2084</ele>
        <time>2013-05-07T06:06:39.000Z</time>
      </trkpt>
      <trkpt lat="45.16528" lon="5.9425">
        <ele>2084</ele>
        <time>2013-05-07T06:06:49.000Z</time>
      </trkpt>
      <trkpt lat="45.16521" lon="5.94259">
        <ele>2093</ele>
        <time>2013-05-07T06:06:59.000Z</time>
      </trkpt>
      <trkpt lat="45.16516" lon="5.94266">
        <ele>2093</ele>
        <time>2013-05-07T06:07:09.000Z</time>
      </trkpt>
      <trkpt lat="45.16508" lon="5.94273">
        <ele>2093</ele>
        <time>2013-05-07T06:07:19.000Z</time>
      </trkpt>
      <trkpt lat="45.16501" lon="5.94278">
        <ele>2094</ele>
        <time>2013-05-07T06:07:29.000Z</time>
      </trkpt>
      <trkpt lat="45.16494" lon="5.94286">
        <ele>2101</ele>
        <time>2013-05-07T06:07:39.000Z</time>
      </trkpt>
      <trkpt lat="45.1649" lon="5.94294">
        <ele>2103</ele>
        <time>2013-05-07T06:07:49.000Z</time>
      </trkpt>
      <trkpt lat="45.1649" lon="5.94297">
        <ele>2103</ele>
        <time>2013-05-07T06:07:59.000Z</time>
      </trkpt>
      <trkpt lat="45.16486" lon="5.94305">
        <ele>2104</ele>
        <time>2013-05-07T06:08:09.000Z</time>
      </trkpt>
      <trkpt lat="45.16479" lon="5.94313">
        <ele>2105</ele>
        <time>2013-05-07T06:08:19.000Z</time>
      </trkpt>
      <trkpt lat="45.16473" lon="5.9432">
        <ele>2106</ele>
        <time>2013-05-07T06:08:29.000Z</time>
      </trkpt>
      <trkpt lat="45.16468" lon="5.94325">
        <ele>2107</ele>
        <time>2013-05-07T06:08:39.000Z</time>
      </trkpt>
      <trkpt lat="45.16464" lon="5.94331">
        <ele>2108</ele>
        <time>2013-05-07T06:08:49.000Z</time>
      </trkpt>
      <trkpt lat="45.16463" lon="5.94336">
        <ele>2118</ele>
        <time>2013-05-07T06:08:59.000Z</time>
      </trkpt>
      <trkpt lat="45.16462" lon="5.94342">
        <ele>2118</ele>
        <time>2013-05-07T06:09:09.000Z</time>
      </trkpt>
      <trkpt lat="45.16461" lon="5.94351">
        <ele>2119</ele>
        <time>2013-05-07T06:09:19.000Z</time>
      </trkpt>
      <trkpt lat="45.1646" lon="5.94354">
        <ele>2119</ele>
        <time>2013-05-07T06:09:29.000Z</time>
      </trkpt>
      <trkpt lat="45.16461" lon="5.94359">
        <ele>2120</ele>
        <time>2013-05-07T06:09:39.000Z</time>
      </trkpt>
      <trkpt lat="45.1646" lon="5.94366">
        <ele>2121</ele>
        <time>2013-05-07T06:09:49.000Z</time>
      </trkpt>
      <trkpt lat="45.16458" lon="5.94372">
        <ele>2122</ele>
        <time>2013-05-07T06:09:59.000Z</time>
      </trkpt>
      <trkpt lat="45.16455" lon="5.94378">
        <ele>2123</ele>
        <time>2013-05-07T06:10:09.000Z</time>
      </trkpt>
      <trkpt lat="45.16454" lon="5.94385">
        <ele>2124</ele>
        <time>2013-05-07T06:10:19.000Z</time>
      </trkpt>
      <trkpt lat="45.16451" lon="5.94392">
        <ele>2124</ele>
        <time>2013-05-07T06:10:29.000Z</time>
      </trkpt>
      <trkpt lat="45.16451" lon="5.94399">
        <ele>2125</ele>
        <time>2013-05-07T06:10:39.000Z</time>
      </trkpt>
      <trkpt lat="45.16449" lon="5.94406">
        <ele>2126</ele>
        <time>2013-05-07T06:10:49.000Z</time>
      </trkpt>
      <trkpt lat="45.16448" lon="5.94412">
        <ele>2126</ele>
        <time>2013-05-07T06:10:59.000Z</time>
      </trkpt>
      <trkpt lat="45.16445" lon="5.94417">
        <ele>2142</ele>
        <time>2013-05-07T06:11:09.000Z</time>
      </trkpt>
      <trkpt lat="45.16442" lon="5.94422">
        <ele>2142</ele>
        <time>2013-05-07T06:11:19.000Z</time>
      </trkpt>
      <trkpt lat="45.16441" lon="5.94429">
        <ele>2143</ele>
        <time>2013-05-07T06:11:29.000Z</time>
      </trkpt>
      <trkpt lat="45.1644" lon="5.94434">
        <ele>2143</ele>
        <time>2013-05-07T06:11:39.000Z</time>
      </trkpt>
      <trkpt lat="45.1644" lon="5.94438">
        <ele>2144</ele>
        <time>2013-05-07T06:11:49.000Z</time>
      </trkpt>
      <trkpt lat="45.1644" lon="5.94444">
        <ele>2145</ele>
        <time>2013-05-07T06:11:59.000Z</time>
      </trkpt>
      <trkpt lat="45.1644" lon="5.9445">
        <ele>2147</ele>
        <time>2013-05-07T06:12:09.000Z</time>
      </trkpt>
      <trkpt lat="45.16437" lon="5.9445">
        <ele>2146</ele>
        <time>2013-05-07T06:12:59.000Z</time>
      </trkpt>
      <trkpt lat="45.16433" lon="5.94445">
        <ele>2145</ele>
        <time>2013-05-07T06:13:09.000Z</time>
      </trkpt>
      <trkpt lat="45.1643" lon="5.9444">
        <ele>2143</ele>
        <time>2013-05-07T06:13:19.000Z</time>
      </trkpt>
      <trkpt lat="45.16425" lon="5.94433">
        <ele>2140</ele>
        <time>2013-05-07T06:13:29.000Z</time>
      </trkpt>
      <trkpt lat="45.16424" lon="5.94429">
        <ele>2139</ele>
        <time>2013-05-07T06:13:39.000Z</time>
      </trkpt>
      <trkpt lat="45.1642" lon="5.94422">
        <ele>2135</ele>
        <time>2013-05-07T06:13:49.000Z</time>
      </trkpt>
      <trkpt lat="45.16418" lon="5.94418">
        <ele>2132</ele>
        <time>2013-05-07T06:13:59.000Z</time>
      </trkpt>
      <trkpt lat="45.16416" lon="5.94415">
        <ele>2132</ele>
        <time>2013-05-07T06:14:09.000Z</time>
      </trkpt>
      <trkpt lat="45.16413" lon="5.94408">
        <ele>2135</ele>
        <time>2013-05-07T06:14:19.000Z</time>
      </trkpt>
      <trkpt lat="45.16408" lon="5.94404">
        <ele>2136</ele>
        <time>2013-05-07T06:14:29.000Z</time>
      </trkpt>
      <trkpt lat="45.16405" lon="5.94401">
        <ele>2137</ele>
        <time>2013-05-07T06:14:39.000Z</time>
      </trkpt>
      <trkpt lat="45.164" lon="5.94403">
        <ele>2138</ele>
        <time>2013-05-07T06:14:49.000Z</time>
      </trkpt>
      <trkpt lat="45.16398" lon="5.94408">
        <ele>2139</ele>
        <time>2013-05-07T06:14:59.000Z</time>
      </trkpt>
      <trkpt lat="45.16398" lon="5.94418">
        <ele>2144</ele>
        <time>2013-05-07T06:15:09.000Z</time>
      </trkpt>
      <trkpt lat="45.16396" lon="5.94426">
        <ele>2146</ele>
        <time>2013-05-07T06:15:19.000Z</time>
      </trkpt>
      <trkpt lat="45.16396" lon="5.94433">
        <ele>2147</ele>
        <time>2013-05-07T06:15:29.000Z</time>
      </trkpt>
      <trkpt lat="45.16393" lon="5.94441">
        <ele>2149</ele>
        <time>2013-05-07T06:15:39.000Z</time>
      </trkpt>
      <trkpt lat="45.16393" lon="5.94448">
        <ele>2151</ele>
        <time>2013-05-07T06:15:49.000Z</time>
      </trkpt>
      <trkpt lat="45.16393" lon="5.94455">
        <ele>2152</ele>
        <time>2013-05-07T06:15:59.000Z</time>
      </trkpt>
      <trkpt lat="45.16391" lon="5.94463">
        <ele>2153</ele>
        <time>2013-05-07T06:16:09.000Z</time>
      </trkpt>
      <trkpt lat="45.1639" lon="5.94471">
        <ele>2154</ele>
        <time>2013-05-07T06:16:19.000Z</time>
      </trkpt>
      <trkpt lat="45.16389" lon="5.94478">
        <ele>2155</ele>
        <time>2013-05-07T06:16:29.000Z</time>
      </trkpt>
      <trkpt lat="45.16388" lon="5.94483">
        <ele>2156</ele>
        <time>2013-05-07T06:16:39.000Z</time>
      </trkpt>
      <trkpt lat="45.16385" lon="5.94486">
        <ele>2156</ele>
        <time>2013-05-07T06:16:49.000Z</time>
      </trkpt>
      <trkpt lat="45.16382" lon="5.94487">
        <ele>2156</ele>
        <time>2013-05-07T06:16:59.000Z</time>
      </trkpt>
      <trkpt lat="45.16378" lon="5.94487">
        <ele>2156</ele>
        <time>2013-05-07T06:17:09.000Z</time>
      </trkpt>
      <trkpt lat="45.16373" lon="5.94489">
        <ele>2157</ele>
        <time>2013-05-07T06:17:19.000Z</time>
      </trkpt>
      <trkpt lat="45.16371" lon="5.94492">
        <ele>2157</ele>
        <time>2013-05-07T06:17:29.000Z</time>
      </trkpt>
      <trkpt lat="45.1637" lon="5.94497">
        <ele>2157</ele>
        <time>2013-05-07T06:17:39.000Z</time>
      </trkpt>
      <trkpt lat="45.16369" lon="5.94504">
        <ele>2166</ele>
        <time>2013-05-07T06:17:49.000Z</time>
      </trkpt>
      <trkpt lat="45.16368" lon="5.94513">
        <ele>2166</ele>
        <time>2013-05-07T06:17:59.000Z</time>
      </trkpt>
      <trkpt lat="45.16368" lon="5.94519">
        <ele>2166</ele>
        <time>2013-05-07T06:18:09.000Z</time>
      </trkpt>
      <trkpt lat="45.16368" lon="5.94525">
        <ele>2167</ele>
        <time>2013-05-07T06:18:19.000Z</time>
      </trkpt>
      <trkpt lat="45.16368" lon="5.94534">
        <ele>2167</ele>
        <time>2013-05-07T06:18:29.000Z</time>
      </trkpt>
      <trkpt lat="45.16366" lon="5.94542">
        <ele>2167</ele>
        <time>2013-05-07T06:18:39.000Z</time>
      </trkpt>
      <trkpt lat="45.16366" lon="5.94549">
        <ele>2168</ele>
        <time>2013-05-07T06:18:49.000Z</time>
      </trkpt>
      <trkpt lat="45.16363" lon="5.94553">
        <ele>2168</ele>
        <time>2013-05-07T06:18:59.000Z</time>
      </trkpt>
      <trkpt lat="45.16367" lon="5.94555">
        <ele>2168</ele>
        <time>2013-05-07T06:19:09.000Z</time>
      </trkpt>
      <trkpt lat="45.16365" lon="5.94559">
        <ele>2168</ele>
        <time>2013-05-07T06:19:49.000Z</time>
      </trkpt>
      <trkpt lat="45.16368" lon="5.94568">
        <ele>2169</ele>
        <time>2013-05-07T06:19:59.000Z</time>
      </trkpt>
      <trkpt lat="45.16376" lon="5.94577">
        <ele>2170</ele>
        <time>2013-05-07T06:20:09.000Z</time>
      </trkpt>
      <trkpt lat="45.16383" lon="5.94587">
        <ele>2177</ele>
        <time>2013-05-07T06:20:19.000Z</time>
      </trkpt>
      <trkpt lat="45.16389" lon="5.94588">
        <ele>2178</ele>
        <time>2013-05-07T06:20:29.000Z</time>
      </trkpt>
      <trkpt lat="45.16397" lon="5.9459">
        <ele>2179</ele>
        <time>2013-05-07T06:20:39.000Z</time>
      </trkpt>
      <trkpt lat="45.16403" lon="5.9459">
        <ele>2179</ele>
        <time>2013-05-07T06:20:49.000Z</time>
      </trkpt>
      <trkpt lat="45.1641" lon="5.94591">
        <ele>2180</ele>
        <time>2013-05-07T06:20:59.000Z</time>
      </trkpt>
      <trkpt lat="45.16415" lon="5.94593">
        <ele>2180</ele>
        <time>2013-05-07T06:21:09.000Z</time>
      </trkpt>
      <trkpt lat="45.16419" lon="5.94594">
        <ele>2185</ele>
        <time>2013-05-07T06:21:29.000Z</time>
      </trkpt>
      <trkpt lat="45.16423" lon="5.94596">
        <ele>2186</ele>
        <time>2013-05-07T06:21:39.000Z</time>
      </trkpt>
      <trkpt lat="45.16426" lon="5.94598">
        <ele>2187</ele>
        <time>2013-05-07T06:21:49.000Z</time>
      </trkpt>
      <trkpt lat="45.16433" lon="5.94601">
        <ele>2189</ele>
        <time>2013-05-07T06:21:59.000Z</time>
      </trkpt>
      <trkpt lat="45.16438" lon="5.94605">
        <ele>2190</ele>
        <time>2013-05-07T06:22:09.000Z</time>
      </trkpt>
      <trkpt lat="45.16444" lon="5.94606">
        <ele>2191</ele>
        <time>2013-05-07T06:22:19.000Z</time>
      </trkpt>
      <trkpt lat="45.16446" lon="5.94609">
        <ele>2191</ele>
        <time>2013-05-07T06:22:29.000Z</time>
      </trkpt>
      <trkpt lat="45.16448" lon="5.94615">
        <ele>2192</ele>
        <time>2013-05-07T06:22:39.000Z</time>
      </trkpt>
      <trkpt lat="45.16449" lon="5.94619">
        <ele>2192</ele>
        <time>2013-05-07T06:22:49.000Z</time>
      </trkpt>
      <trkpt lat="45.16448" lon="5.94629">
        <ele>2192</ele>
        <time>2013-05-07T06:22:59.000Z</time>
      </trkpt>
      <trkpt lat="45.16451" lon="5.94632">
        <ele>2193</ele>
        <time>2013-05-07T06:23:09.000Z</time>
      </trkpt>
      <trkpt lat="45.16456" lon="5.94634">
        <ele>2193</ele>
        <time>2013-05-07T06:23:19.000Z</time>
      </trkpt>
      <trkpt lat="45.16462" lon="5.94639">
        <ele>2194</ele>
        <time>2013-05-07T06:23:29.000Z</time>
      </trkpt>
      <trkpt lat="45.16468" lon="5.94642">
        <ele>2195</ele>
        <time>2013-05-07T06:23:39.000Z</time>
      </trkpt>
      <trkpt lat="45.16475" lon="5.94645">
        <ele>2196</ele>
        <time>2013-05-07T06:23:49.000Z</time>
      </trkpt>
      <trkpt lat="45.16481" lon="5.9465">
        <ele>2198</ele>
        <time>2013-05-07T06:23:59.000Z</time>
      </trkpt>
      <trkpt lat="45.16488" lon="5.94656">
        <ele>2199</ele>
        <time>2013-05-07T06:24:09.000Z</time>
      </trkpt>
      <trkpt lat="45.16494" lon="5.94661">
        <ele>2202</ele>
        <time>2013-05-07T06:24:19.000Z</time>
      </trkpt>
      <trkpt lat="45.16499" lon="5.94669">
        <ele>2204</ele>
        <time>2013-05-07T06:24:29.000Z</time>
      </trkpt>
      <trkpt lat="45.16504" lon="5.9468">
        <ele>2211</ele>
        <time>2013-05-07T06:24:39.000Z</time>
      </trkpt>
      <trkpt lat="45.16507" lon="5.94691">
        <ele>2214</ele>
        <time>2013-05-07T06:24:49.000Z</time>
      </trkpt>
      <trkpt lat="45.16509" lon="5.94692">
        <ele>2215</ele>
        <time>2013-05-07T06:26:09.000Z</time>
      </trkpt>
      <trkpt lat="45.16512" lon="5.94694">
        <ele>2215</ele>
        <time>2013-05-07T06:26:19.000Z</time>
      </trkpt>
      <trkpt lat="45.16509" lon="5.94689">
        <ele>2214</ele>
        <time>2013-05-07T06:26:49.000Z</time>
      </trkpt>
      <trkpt lat="45.16508" lon="5.94688">
        <ele>2214</ele>
        <time>2013-05-07T06:26:59.000Z</time>
      </trkpt>
      <trkpt lat="45.16504" lon="5.9469">
        <ele>2214</ele>
        <time>2013-05-07T06:27:09.000Z</time>
      </trkpt>
      <trkpt lat="45.165" lon="5.94687">
        <ele>2202</ele>
        <time>2013-05-07T06:27:19.000Z</time>
      </trkpt>
      <trkpt lat="45.16503" lon="5.94686">
        <ele>2213</ele>
        <time>2013-05-07T06:27:29.000Z</time>
      </trkpt>
      <trkpt lat="45.16505" lon="5.9469">
        <ele>2214</ele>
        <time>2013-05-07T06:27:39.000Z</time>
      </trkpt>
      <trkpt lat="45.1651" lon="5.9469">
        <ele>2214</ele>
        <time>2013-05-07T06:27:49.000Z</time>
      </trkpt>
      <trkpt lat="45.1651" lon="5.94696">
        <ele>2215</ele>
        <time>2013-05-07T06:28:19.000Z</time>
      </trkpt>
      <trkpt lat="45.16512" lon="5.94698">
        <ele>2216</ele>
        <time>2013-05-07T06:28:29.000Z</time>
      </trkpt>
      <trkpt lat="45.16511" lon="5.94693">
        <ele>2215</ele>
        <time>2013-05-07T06:28:39.000Z</time>
      </trkpt>
      <trkpt lat="45.16509" lon="5.9469">
        <ele>2214</ele>
        <time>2013-05-07T06:28:49.000Z</time>
      </trkpt>
      <trkpt lat="45.1651" lon="5.94695">
        <ele>2215</ele>
        <time>2013-05-07T06:30:09.000Z</time>
      </trkpt>
      <trkpt lat="45.16521" lon="5.94703">
        <ele>2217</ele>
        <time>2013-05-07T06:30:19.000Z</time>
      </trkpt>
      <trkpt lat="45.16529" lon="5.94712">
        <ele>2218</ele>
        <time>2013-05-07T06:30:29.000Z</time>
      </trkpt>
      <trkpt lat="45.16536" lon="5.94719">
        <ele>2220</ele>
        <time>2013-05-07T06:30:39.000Z</time>
      </trkpt>
      <trkpt lat="45.1654" lon="5.94725">
        <ele>2220</ele>
        <time>2013-05-07T06:30:49.000Z</time>
      </trkpt>
      <trkpt lat="45.16546" lon="5.94729">
        <ele>2221</ele>
        <time>2013-05-07T06:30:59.000Z</time>
      </trkpt>
      <trkpt lat="45.1655" lon="5.94736">
        <ele>2223</ele>
        <time>2013-05-07T06:31:09.000Z</time>
      </trkpt>
      <trkpt lat="45.16555" lon="5.94742">
        <ele>2224</ele>
        <time>2013-05-07T06:31:19.000Z</time>
      </trkpt>
      <trkpt lat="45.16559" lon="5.94747">
        <ele>2225</ele>
        <time>2013-05-07T06:31:29.000Z</time>
      </trkpt>
      <trkpt lat="45.16564" lon="5.94753">
        <ele>2230</ele>
        <time>2013-05-07T06:31:39.000Z</time>
      </trkpt>
      <trkpt lat="45.16569" lon="5.94758">
        <ele>2231</ele>
        <time>2013-05-07T06:31:49.000Z</time>
      </trkpt>
      <trkpt lat="45.16574" lon="5.94764">
        <ele>2231</ele>
        <time>2013-05-07T06:31:59.000Z</time>
      </trkpt>
      <trkpt lat="45.16579" lon="5.94769">
        <ele>2232</ele>
        <time>2013-05-07T06:32:09.000Z</time>
      </trkpt>
      <trkpt lat="45.16584" lon="5.94775">
        <ele>2249</ele>
        <time>2013-05-07T06:32:19.000Z</time>
      </trkpt>
      <trkpt lat="45.16585" lon="5.94777">
        <ele>2250</ele>
        <time>2013-05-07T06:32:29.000Z</time>
      </trkpt>
      <trkpt lat="45.16587" lon="5.94784">
        <ele>2251</ele>
        <time>2013-05-07T06:32:39.000Z</time>
      </trkpt>
      <trkpt lat="45.1659" lon="5.94792">
        <ele>2253</ele>
        <time>2013-05-07T06:32:49.000Z</time>
      </trkpt>
      <trkpt lat="45.16591" lon="5.94797">
        <ele>2254</ele>
        <time>2013-05-07T06:32:59.000Z</time>
      </trkpt>
      <trkpt lat="45.16592" lon="5.94801">
        <ele>2254</ele>
        <time>2013-05-07T06:33:09.000Z</time>
      </trkpt>
      <trkpt lat="45.16591" lon="5.94805">
        <ele>2254</ele>
        <time>2013-05-07T06:33:39.000Z</time>
      </trkpt>
      <trkpt lat="45.16589" lon="5.94813">
        <ele>2253</ele>
        <time>2013-05-07T06:33:49.000Z</time>
      </trkpt>
      <trkpt lat="45.16589" lon="5.94816">
        <ele>2253</ele>
        <time>2013-05-07T06:33:59.000Z</time>
      </trkpt>
      <trkpt lat="45.16589" lon="5.94821">
        <ele>2252</ele>
        <time>2013-05-07T06:34:09.000Z</time>
      </trkpt>
      <trkpt lat="45.16588" lon="5.94826">
        <ele>2250</ele>
        <time>2013-05-07T06:34:19.000Z</time>
      </trkpt>
      <trkpt lat="45.16585" lon="5.94832">
        <ele>2247</ele>
        <time>2013-05-07T06:34:29.000Z</time>
      </trkpt>
      <trkpt lat="45.16584" lon="5.94837">
        <ele>2250</ele>
        <time>2013-05-07T06:34:59.000Z</time>
      </trkpt>
      <trkpt lat="45.1659" lon="5.94837">
        <ele>2254</ele>
        <time>2013-05-07T06:35:09.000Z</time>
      </trkpt>
      <trkpt lat="45.16593" lon="5.94839">
        <ele>2257</ele>
        <time>2013-05-07T06:35:29.000Z</time>
      </trkpt>
      <trkpt lat="45.1659" lon="5.94844">
        <ele>2258</ele>
        <time>2013-05-07T06:35:39.000Z</time>
      </trkpt>
      <trkpt lat="45.16589" lon="5.94849">
        <ele>2260</ele>
        <time>2013-05-07T06:36:09.000Z</time>
      </trkpt>
      <trkpt lat="45.16594" lon="5.94848">
        <ele>2261</ele>
        <time>2013-05-07T06:36:19.000Z</time>
      </trkpt>
      <trkpt lat="45.16599" lon="5.94848">
        <ele>2263</ele>
        <time>2013-05-07T06:36:49.000Z</time>
      </trkpt>
      <trkpt lat="45.16596" lon="5.94855">
        <ele>2265</ele>
        <time>2013-05-07T06:36:59.000Z</time>
      </trkpt>
      <trkpt lat="45.16596" lon="5.94862">
        <ele>2267</ele>
        <time>2013-05-07T06:37:09.000Z</time>
      </trkpt>
      <trkpt lat="45.16594" lon="5.94868">
        <ele>2268</ele>
        <time>2013-05-07T06:37:19.000Z</time>
      </trkpt>
      <trkpt lat="45.16598" lon="5.9487">
        <ele>2269</ele>
        <time>2013-05-07T06:37:29.000Z</time>
      </trkpt>
      <trkpt lat="45.16598" lon="5.94873">
        <ele>2269</ele>
        <time>2013-05-07T06:37:39.000Z</time>
      </trkpt>
      <trkpt lat="45.16595" lon="5.94877">
        <ele>2270</ele>
        <time>2013-05-07T06:37:49.000Z</time>
      </trkpt>
      <trkpt lat="45.16592" lon="5.94882">
        <ele>2270</ele>
        <time>2013-05-07T06:37:59.000Z</time>
      </trkpt>
      <trkpt lat="45.1659" lon="5.94888">
        <ele>2270</ele>
        <time>2013-05-07T06:38:09.000Z</time>
      </trkpt>
      <trkpt lat="45.16588" lon="5.94891">
        <ele>2269</ele>
        <time>2013-05-07T06:38:29.000Z</time>
      </trkpt>
      <trkpt lat="45.16589" lon="5.94895">
        <ele>2269</ele>
        <time>2013-05-07T06:38:39.000Z</time>
      </trkpt>
      <trkpt lat="45.16589" lon="5.94895">
        <ele>2269</ele>
        <time>2013-05-07T06:39:29.000Z</time>
      </trkpt>
      <trkpt lat="45.1659" lon="5.94904">
        <ele>2269</ele>
        <time>2013-05-07T06:39:39.000Z</time>
      </trkpt>
      <trkpt lat="45.16593" lon="5.94916">
        <ele>2268</ele>
        <time>2013-05-07T06:39:49.000Z</time>
      </trkpt>
      <trkpt lat="45.16595" lon="5.94929">
        <ele>2272</ele>
        <time>2013-05-07T06:39:59.000Z</time>
      </trkpt>
      <trkpt lat="45.16601" lon="5.94944">
        <ele>2276</ele>
        <time>2013-05-07T06:40:09.000Z</time>
      </trkpt>
      <trkpt lat="45.16606" lon="5.94958">
        <ele>2277</ele>
        <time>2013-05-07T06:40:19.000Z</time>
      </trkpt>
      <trkpt lat="45.16613" lon="5.94987">
        <ele>2277</ele>
        <time>2013-05-07T06:40:29.000Z</time>
      </trkpt>
      <trkpt lat="45.16617" lon="5.95003">
        <ele>2275</ele>
        <time>2013-05-07T06:40:39.000Z</time>
      </trkpt>
      <trkpt lat="45.1662" lon="5.95019">
        <ele>2275</ele>
        <time>2013-05-07T06:40:49.000Z</time>
      </trkpt>
      <trkpt lat="45.16622" lon="5.95032">
        <ele>2276</ele>
        <time>2013-05-07T06:40:59.000Z</time>
      </trkpt>
      <trkpt lat="45.16624" lon="5.95044">
        <ele>2276</ele>
        <time>2013-05-07T06:41:09.000Z</time>
      </trkpt>
      <trkpt lat="45.16628" lon="5.95054">
        <ele>2276</ele>
        <time>2013-05-07T06:41:19.000Z</time>
      </trkpt>
      <trkpt lat="45.16629" lon="5.95065">
        <ele>2276</ele>
        <time>2013-05-07T06:41:29.000Z</time>
      </trkpt>
      <trkpt lat="45.16632" lon="5.95077">
        <ele>2276</ele>
        <time>2013-05-07T06:41:39.000Z</time>
      </trkpt>
      <trkpt lat="45.16636" lon="5.95088">
        <ele>2277</ele>
        <time>2013-05-07T06:41:49.000Z</time>
      </trkpt>
      <trkpt lat="45.16639" lon="5.95096">
        <ele>2277</ele>
        <time>2013-05-07T06:41:59.000Z</time>
      </trkpt>
      <trkpt lat="45.16643" lon="5.95108">
        <ele>2278</ele>
        <time>2013-05-07T06:42:09.000Z</time>
      </trkpt>
      <trkpt lat="45.16645" lon="5.95119">
        <ele>2278</ele>
        <time>2013-05-07T06:42:19.000Z</time>
      </trkpt>
      <trkpt lat="45.16647" lon="5.95131">
        <ele>2279</ele>
        <time>2013-05-07T06:42:29.000Z</time>
      </trkpt>
      <trkpt lat="45.16649" lon="5.95143">
        <ele>2281</ele>
        <time>2013-05-07T06:42:39.000Z</time>
      </trkpt>
      <trkpt lat="45.16651" lon="5.95156">
        <ele>2282</ele>
        <time>2013-05-07T06:42:49.000Z</time>
      </trkpt>
      <trkpt lat="45.16651" lon="5.95169">
        <ele>2290</ele>
        <time>2013-05-07T06:42:59.000Z</time>
      </trkpt>
      <trkpt lat="45.16654" lon="5.95181">
        <ele>2291</ele>
        <time>2013-05-07T06:43:09.000Z</time>
      </trkpt>
      <trkpt lat="45.16654" lon="5.95191">
        <ele>2292</ele>
        <time>2013-05-07T06:43:19.000Z</time>
      </trkpt>
      <trkpt lat="45.16654" lon="5.95197">
        <ele>2292</ele>
        <time>2013-05-07T06:43:29.000Z</time>
      </trkpt>
      <trkpt lat="45.16652" lon="5.95198">
        <ele>2292</ele>
        <time>2013-05-07T06:43:39.000Z</time>
      </trkpt>
      <trkpt lat="45.16654" lon="5.95197">
        <ele>2292</ele>
        <time>2013-05-07T06:43:59.000Z</time>
      </trkpt>
      <trkpt lat="45.16658" lon="5.95198">
        <ele>2293</ele>
        <time>2013-05-07T06:44:09.000Z</time>
      </trkpt>
      <trkpt lat="45.16659" lon="5.95207">
        <ele>2294</ele>
        <time>2013-05-07T06:44:19.000Z</time>
      </trkpt>
      <trkpt lat="45.16656" lon="5.95202">
        <ele>2293</ele>
        <time>2013-05-07T06:44:29.000Z</time>
      </trkpt>
      <trkpt lat="45.16655" lon="5.95194">
        <ele>2292</ele>
        <time>2013-05-07T06:44:39.000Z</time>
      </trkpt>
      <trkpt lat="45.16652" lon="5.95191">
        <ele>2292</ele>
        <time>2013-05-07T06:44:49.000Z</time>
      </trkpt>
      <trkpt lat="45.16647" lon="5.9519">
        <ele>2291</ele>
        <time>2013-05-07T06:44:59.000Z</time>
      </trkpt>
      <trkpt lat="45.16649" lon="5.95192">
        <ele>2292</ele>
        <time>2013-05-07T06:45:09.000Z</time>
      </trkpt>
      <trkpt lat="45.16655" lon="5.95197">
        <ele>2292</ele>
        <time>2013-05-07T06:45:19.000Z</time>
      </trkpt>
      <trkpt lat="45.16651" lon="5.95198">
        <ele>2292</ele>
        <time>2013-05-07T06:47:39.000Z</time>
      </trkpt>
      <trkpt lat="45.16648" lon="5.95194">
        <ele>2292</ele>
        <time>2013-05-07T06:47:49.000Z</time>
      </trkpt>
      <trkpt lat="45.1665" lon="5.9519">
        <ele>2291</ele>
        <time>2013-05-07T06:48:09.000Z</time>
      </trkpt>
      <trkpt lat="45.16647" lon="5.95186">
        <ele>2291</ele>
        <time>2013-05-07T06:48:19.000Z</time>
      </trkpt>
      <trkpt lat="45.16647" lon="5.95188">
        <ele>2291</ele>
        <time>2013-05-07T06:48:59.000Z</time>
      </trkpt>
      <trkpt lat="45.16655" lon="5.95194">
        <ele>2292</ele>
        <time>2013-05-07T06:49:09.000Z</time>
      </trkpt>
      <trkpt lat="45.1666" lon="5.95205">
        <ele>2294</ele>
        <time>2013-05-07T06:49:19.000Z</time>
      </trkpt>
      <trkpt lat="45.1666" lon="5.95205">
        <ele>2294</ele>
        <time>2013-05-07T06:49:29.000Z</time>
      </trkpt>
      <trkpt lat="45.16657" lon="5.952">
        <ele>2293</ele>
        <time>2013-05-07T06:49:39.000Z</time>
      </trkpt>
      <trkpt lat="45.16654" lon="5.95204">
        <ele>2293</ele>
        <time>2013-05-07T06:49:59.000Z</time>
      </trkpt>
      <trkpt lat="45.16653" lon="5.95204">
        <ele>2293</ele>
        <time>2013-05-07T06:50:09.000Z</time>
      </trkpt>
      <trkpt lat="45.16653" lon="5.95207">
        <ele>2294</ele>
        <time>2013-05-07T06:50:29.000Z</time>
      </trkpt>
      <trkpt lat="45.16652" lon="5.95198">
        <ele>2292</ele>
        <time>2013-05-07T06:50:39.000Z</time>
      </trkpt>
      <trkpt lat="45.16654" lon="5.95202">
        <ele>2293</ele>
        <time>2013-05-07T06:51:19.000Z</time>
      </trkpt>
      <trkpt lat="45.16653" lon="5.95216">
        <ele>2295</ele>
        <time>2013-05-07T06:51:29.000Z</time>
      </trkpt>
      <trkpt lat="45.16652" lon="5.95222">
        <ele>2296</ele>
        <time>2013-05-07T06:51:39.000Z</time>
      </trkpt>
      <trkpt lat="45.16652" lon="5.95231">
        <ele>2298</ele>
        <time>2013-05-07T06:51:49.000Z</time>
      </trkpt>
      <trkpt lat="45.1665" lon="5.9524">
        <ele>2300</ele>
        <time>2013-05-07T06:51:59.000Z</time>
      </trkpt>
      <trkpt lat="45.16653" lon="5.95244">
        <ele>2301</ele>
        <time>2013-05-07T06:52:09.000Z</time>
      </trkpt>
      <trkpt lat="45.16656" lon="5.95248">
        <ele>2302</ele>
        <time>2013-05-07T06:52:19.000Z</time>
      </trkpt>
      <trkpt lat="45.16653" lon="5.95252">
        <ele>2312</ele>
        <time>2013-05-07T06:52:29.000Z</time>
      </trkpt>
      <trkpt lat="45.16651" lon="5.95257">
        <ele>2313</ele>
        <time>2013-05-07T06:52:39.000Z</time>
      </trkpt>
      <trkpt lat="45.1665" lon="5.9526">
        <ele>2314</ele>
        <time>2013-05-07T06:52:49.000Z</time>
      </trkpt>
      <trkpt lat="45.16649" lon="5.95265">
        <ele>2315</ele>
        <time>2013-05-07T06:52:59.000Z</time>
      </trkpt>
      <trkpt lat="45.16651" lon="5.95271">
        <ele>2316</ele>
        <time>2013-05-07T06:53:09.000Z</time>
      </trkpt>
      <trkpt lat="45.16651" lon="5.95276">
        <ele>2317</ele>
        <time>2013-05-07T06:53:19.000Z</time>
      </trkpt>
      <trkpt lat="45.16651" lon="5.95279">
        <ele>2318</ele>
        <time>2013-05-07T06:53:29.000Z</time>
      </trkpt>
      <trkpt lat="45.16647" lon="5.95282">
        <ele>2318</ele>
        <time>2013-05-07T06:53:39.000Z</time>
      </trkpt>
      <trkpt lat="45.16639" lon="5.95284">
        <ele>2319</ele>
        <time>2013-05-07T06:53:49.000Z</time>
      </trkpt>
      <trkpt lat="45.16633" lon="5.9529">
        <ele>2320</ele>
        <time>2013-05-07T06:53:59.000Z</time>
      </trkpt>
      <trkpt lat="45.16626" lon="5.95294">
        <ele>2320</ele>
        <time>2013-05-07T06:54:09.000Z</time>
      </trkpt>
      <trkpt lat="45.16619" lon="5.953">
        <ele>2321</ele>
        <time>2013-05-07T06:54:19.000Z</time>
      </trkpt>
      <trkpt lat="45.16614" lon="5.95304">
        <ele>2322</ele>
        <time>2013-05-07T06:54:29.000Z</time>
      </trkpt>
      <trkpt lat="45.1661" lon="5.95305">
        <ele>2322</ele>
        <time>2013-05-07T06:54:39.000Z</time>
      </trkpt>
      <trkpt lat="45.16603" lon="5.95303">
        <ele>2321</ele>
        <time>2013-05-07T06:54:49.000Z</time>
      </trkpt>
      <trkpt lat="45.16597" lon="5.95303">
        <ele>2321</ele>
        <time>2013-05-07T06:54:59.000Z</time>
      </trkpt>
      <trkpt lat="45.16593" lon="5.95304">
        <ele>2322</ele>
        <time>2013-05-07T06:55:09.000Z</time>
      </trkpt>
      <trkpt lat="45.16588" lon="5.95307">
        <ele>2322</ele>
        <time>2013-05-07T06:55:19.000Z</time>
      </trkpt>
      <trkpt lat="45.16582" lon="5.95311">
        <ele>2331</ele>
        <time>2013-05-07T06:55:29.000Z</time>
      </trkpt>
      <trkpt lat="45.16576" lon="5.9531">
        <ele>2332</ele>
        <time>2013-05-07T06:55:39.000Z</time>
      </trkpt>
      <trkpt lat="45.16571" lon="5.95308">
        <ele>2332</ele>
        <time>2013-05-07T06:55:49.000Z</time>
      </trkpt>
      <trkpt lat="45.16566" lon="5.95309">
        <ele>2333</ele>
        <time>2013-05-07T06:55:59.000Z</time>
      </trkpt>
      <trkpt lat="45.16562" lon="5.95308">
        <ele>2333</ele>
        <time>2013-05-07T06:56:09.000Z</time>
      </trkpt>
      <trkpt lat="45.16558" lon="5.95308">
        <ele>2334</ele>
        <time>2013-05-07T06:56:19.000Z</time>
      </trkpt>
      <trkpt lat="45.16553" lon="5.95306">
        <ele>2335</ele>
        <time>2013-05-07T06:56:29.000Z</time>
      </trkpt>
      <trkpt lat="45.16548" lon="5.95308">
        <ele>2336</ele>
        <time>2013-05-07T06:56:39.000Z</time>
      </trkpt>
      <trkpt lat="45.16545" lon="5.95312">
        <ele>2337</ele>
        <time>2013-05-07T06:56:49.000Z</time>
      </trkpt>
      <trkpt lat="45.16546" lon="5.95318">
        <ele>2337</ele>
        <time>2013-05-07T06:56:59.000Z</time>
      </trkpt>
      <trkpt lat="45.16545" lon="5.95325">
        <ele>2338</ele>
        <time>2013-05-07T06:57:09.000Z</time>
      </trkpt>
      <trkpt lat="45.16542" lon="5.95329">
        <ele>2339</ele>
        <time>2013-05-07T06:57:29.000Z</time>
      </trkpt>
      <trkpt lat="45.16543" lon="5.95336">
        <ele>2357</ele>
        <time>2013-05-07T06:57:39.000Z</time>
      </trkpt>
      <trkpt lat="45.16541" lon="5.95342">
        <ele>2358</ele>
        <time>2013-05-07T06:57:49.000Z</time>
      </trkpt>
      <trkpt lat="45.16544" lon="5.95345">
        <ele>2358</ele>
        <time>2013-05-07T06:57:59.000Z</time>
      </trkpt>
      <trkpt lat="45.16545" lon="5.9535">
        <ele>2358</ele>
        <time>2013-05-07T06:58:09.000Z</time>
      </trkpt>
      <trkpt lat="45.16549" lon="5.95351">
        <ele>2357</ele>
        <time>2013-05-07T06:58:19.000Z</time>
      </trkpt>
      <trkpt lat="45.16545" lon="5.95356">
        <ele>2359</ele>
        <time>2013-05-07T06:58:29.000Z</time>
      </trkpt>
      <trkpt lat="45.16541" lon="5.95354">
        <ele>2359</ele>
        <time>2013-05-07T06:58:39.000Z</time>
      </trkpt>
      <trkpt lat="45.16536" lon="5.95352">
        <ele>2360</ele>
        <time>2013-05-07T06:58:49.000Z</time>
      </trkpt>
      <trkpt lat="45.16531" lon="5.95351">
        <ele>2361</ele>
        <time>2013-05-07T06:58:59.000Z</time>
      </trkpt>
      <trkpt lat="45.16524" lon="5.95353">
        <ele>2362</ele>
        <time>2013-05-07T06:59:09.000Z</time>
      </trkpt>
      <trkpt lat="45.16517" lon="5.95358">
        <ele>2362</ele>
        <time>2013-05-07T06:59:19.000Z</time>
      </trkpt>
      <trkpt lat="45.16514" lon="5.95366">
        <ele>2363</ele>
        <time>2013-05-07T06:59:29.000Z</time>
      </trkpt>
      <trkpt lat="45.16509" lon="5.95377">
        <ele>2365</ele>
        <time>2013-05-07T06:59:39.000Z</time>
      </trkpt>
      <trkpt lat="45.16504" lon="5.95384">
        <ele>2366</ele>
        <time>2013-05-07T06:59:49.000Z</time>
      </trkpt>
      <trkpt lat="45.16502" lon="5.95395">
        <ele>2367</ele>
        <time>2013-05-07T06:59:59.000Z</time>
      </trkpt>
      <trkpt lat="45.16502" lon="5.95402">
        <ele>2368</ele>
        <time>2013-05-07T07:00:09.000Z</time>
      </trkpt>
      <trkpt lat="45.16504" lon="5.95398">
        <ele>2367</ele>
        <time>2013-05-07T07:01:39.000Z</time>
      </trkpt>
      <trkpt lat="45.16504" lon="5.9539">
        <ele>2366</ele>
        <time>2013-05-07T07:01:49.000Z</time>
      </trkpt>
      <trkpt lat="45.16504" lon="5.95384">
        <ele>2366</ele>
        <time>2013-05-07T07:01:59.000Z</time>
      </trkpt>
      <trkpt lat="45.16503" lon="5.95381">
        <ele>2365</ele>
        <time>2013-05-07T07:02:09.000Z</time>
      </trkpt>
      <trkpt lat="45.16506" lon="5.95383">
        <ele>2365</ele>
        <time>2013-05-07T07:02:19.000Z</time>
      </trkpt>
      <trkpt lat="45.16505" lon="5.9539">
        <ele>2366</ele>
        <time>2013-05-07T07:02:29.000Z</time>
      </trkpt>
      <trkpt lat="45.16501" lon="5.95388">
        <ele>2366</ele>
        <time>2013-05-07T07:02:39.000Z</time>
      </trkpt>
      <trkpt lat="45.16499" lon="5.95395">
        <ele>2370</ele>
        <time>2013-05-07T07:02:49.000Z</time>
      </trkpt>
      <trkpt lat="45.16501" lon="5.95401">
        <ele>2368</ele>
        <time>2013-05-07T07:03:19.000Z</time>
      </trkpt>
      <trkpt lat="45.165" lon="5.95402">
        <ele>2370</ele>
        <time>2013-05-07T07:03:29.000Z</time>
      </trkpt>
      <trkpt lat="45.16504" lon="5.95398">
        <ele>2367</ele>
        <time>2013-05-07T07:03:39.000Z</time>
      </trkpt>
      <trkpt lat="45.16505" lon="5.95394">
        <ele>2367</ele>
        <time>2013-05-07T07:04:39.000Z</time>
      </trkpt>
      <trkpt lat="45.16506" lon="5.95393">
        <ele>2367</ele>
        <time>2013-05-07T07:04:49.000Z</time>
      </trkpt>
      <trkpt lat="45.16504" lon="5.95395">
        <ele>2367</ele>
        <time>2013-05-07T07:04:59.000Z</time>
      </trkpt>
      <trkpt lat="45.165" lon="5.95394">
        <ele>2367</ele>
        <time>2013-05-07T07:05:09.000Z</time>
      </trkpt>
      <trkpt lat="45.16503" lon="5.95395">
        <ele>2367</ele>
        <time>2013-05-07T07:05:49.000Z</time>
      </trkpt>
      <trkpt lat="45.16506" lon="5.95394">
        <ele>2367</ele>
        <time>2013-05-07T07:05:59.000Z</time>
      </trkpt>
      <trkpt lat="45.16502" lon="5.954">
        <ele>2368</ele>
        <time>2013-05-07T07:06:09.000Z</time>
      </trkpt>
      <trkpt lat="45.16503" lon="5.954">
        <ele>2368</ele>
        <time>2013-05-07T07:07:59.000Z</time>
      </trkpt>
      <trkpt lat="45.16503" lon="5.95409">
        <ele>2369</ele>
        <time>2013-05-07T07:08:09.000Z</time>
      </trkpt>
      <trkpt lat="45.16499" lon="5.95431">
        <ele>2372</ele>
        <time>2013-05-07T07:08:19.000Z</time>
      </trkpt>
      <trkpt lat="45.16497" lon="5.95446">
        <ele>2373</ele>
        <time>2013-05-07T07:08:29.000Z</time>
      </trkpt>
      <trkpt lat="45.16494" lon="5.95463">
        <ele>2374</ele>
        <time>2013-05-07T07:08:39.000Z</time>
      </trkpt>
      <trkpt lat="45.16492" lon="5.95476">
        <ele>2376</ele>
        <time>2013-05-07T07:08:49.000Z</time>
      </trkpt>
      <trkpt lat="45.16498" lon="5.95496">
        <ele>2380</ele>
        <time>2013-05-07T07:08:59.000Z</time>
      </trkpt>
      <trkpt lat="45.165" lon="5.95509">
        <ele>2386</ele>
        <time>2013-05-07T07:09:09.000Z</time>
      </trkpt>
      <trkpt lat="45.16503" lon="5.95521">
        <ele>2391</ele>
        <time>2013-05-07T07:09:19.000Z</time>
      </trkpt>
      <trkpt lat="45.16508" lon="5.95536">
        <ele>2394</ele>
        <time>2013-05-07T07:09:29.000Z</time>
      </trkpt>
      <trkpt lat="45.1651" lon="5.95546">
        <ele>2395</ele>
        <time>2013-05-07T07:09:39.000Z</time>
      </trkpt>
      <trkpt lat="45.16508" lon="5.95554">
        <ele>2395</ele>
        <time>2013-05-07T07:09:49.000Z</time>
      </trkpt>
      <trkpt lat="45.16508" lon="5.95565">
        <ele>2394</ele>
        <time>2013-05-07T07:09:59.000Z</time>
      </trkpt>
      <trkpt lat="45.16504" lon="5.95577">
        <ele>2392</ele>
        <time>2013-05-07T07:10:09.000Z</time>
      </trkpt>
      <trkpt lat="45.16505" lon="5.95589">
        <ele>2394</ele>
        <time>2013-05-07T07:10:19.000Z</time>
      </trkpt>
      <trkpt lat="45.16506" lon="5.95603">
        <ele>2399</ele>
        <time>2013-05-07T07:10:29.000Z</time>
      </trkpt>
      <trkpt lat="45.16509" lon="5.95614">
        <ele>2402</ele>
        <time>2013-05-07T07:10:39.000Z</time>
      </trkpt>
      <trkpt lat="45.16511" lon="5.95627">
        <ele>2403</ele>
        <time>2013-05-07T07:10:49.000Z</time>
      </trkpt>
      <trkpt lat="45.16514" lon="5.95632">
        <ele>2403</ele>
        <time>2013-05-07T07:10:59.000Z</time>
      </trkpt>
      <trkpt lat="45.16517" lon="5.95639">
        <ele>2404</ele>
        <time>2013-05-07T07:11:09.000Z</time>
      </trkpt>
      <trkpt lat="45.16517" lon="5.9565">
        <ele>2402</ele>
        <time>2013-05-07T07:11:19.000Z</time>
      </trkpt>
      <trkpt lat="45.16518" lon="5.95661">
        <ele>2402</ele>
        <time>2013-05-07T07:11:29.000Z</time>
      </trkpt>
      <trkpt lat="45.16518" lon="5.95674">
        <ele>2408</ele>
        <time>2013-05-07T07:11:39.000Z</time>
      </trkpt>
      <trkpt lat="45.16518" lon="5.95685">
        <ele>2411</ele>
        <time>2013-05-07T07:11:49.000Z</time>
      </trkpt>
      <trkpt lat="45.16516" lon="5.95694">
        <ele>2412</ele>
        <time>2013-05-07T07:11:59.000Z</time>
      </trkpt>
      <trkpt lat="45.16517" lon="5.95704">
        <ele>2415</ele>
        <time>2013-05-07T07:12:09.000Z</time>
      </trkpt>
      <trkpt lat="45.16519" lon="5.95717">
        <ele>2416</ele>
        <time>2013-05-07T07:12:19.000Z</time>
      </trkpt>
      <trkpt lat="45.16518" lon="5.95729">
        <ele>2417</ele>
        <time>2013-05-07T07:12:29.000Z</time>
      </trkpt>
      <trkpt lat="45.16517" lon="5.95743">
        <ele>2415</ele>
        <time>2013-05-07T07:12:39.000Z</time>
      </trkpt>
      <trkpt lat="45.16518" lon="5.95754">
        <ele>2422</ele>
        <time>2013-05-07T07:12:49.000Z</time>
      </trkpt>
      <trkpt lat="45.16516" lon="5.95763">
        <ele>2423</ele>
        <time>2013-05-07T07:12:59.000Z</time>
      </trkpt>
      <trkpt lat="45.16513" lon="5.95776">
        <ele>2426</ele>
        <time>2013-05-07T07:13:09.000Z</time>
      </trkpt>
      <trkpt lat="45.16515" lon="5.95787">
        <ele>2428</ele>
        <time>2013-05-07T07:13:19.000Z</time>
      </trkpt>
      <trkpt lat="45.16513" lon="5.95799">
        <ele>2428</ele>
        <time>2013-05-07T07:13:29.000Z</time>
      </trkpt>
      <trkpt lat="45.16513" lon="5.95811">
        <ele>2426</ele>
        <time>2013-05-07T07:13:39.000Z</time>
      </trkpt>
      <trkpt lat="45.16512" lon="5.95824">
        <ele>2422</ele>
        <time>2013-05-07T07:13:49.000Z</time>
      </trkpt>
      <trkpt lat="45.16512" lon="5.95838">
        <ele>2422</ele>
        <time>2013-05-07T07:13:59.000Z</time>
      </trkpt>
      <trkpt lat="45.16512" lon="5.95853">
        <ele>2428</ele>
        <time>2013-05-07T07:14:09.000Z</time>
      </trkpt>
      <trkpt lat="45.1651" lon="5.95868">
        <ele>2431</ele>
        <time>2013-05-07T07:14:19.000Z</time>
      </trkpt>
      <trkpt lat="45.16512" lon="5.95881">
        <ele>2432</ele>
        <time>2013-05-07T07:14:29.000Z</time>
      </trkpt>
      <trkpt lat="45.16513" lon="5.95895">
        <ele>2431</ele>
        <time>2013-05-07T07:14:39.000Z</time>
      </trkpt>
      <trkpt lat="45.16513" lon="5.95906">
        <ele>2429</ele>
        <time>2013-05-07T07:14:49.000Z</time>
      </trkpt>
      <trkpt lat="45.16515" lon="5.95913">
        <ele>2429</ele>
        <time>2013-05-07T07:14:59.000Z</time>
      </trkpt>
      <trkpt lat="45.16515" lon="5.95913">
        <ele>2429</ele>
        <time>2013-05-07T07:15:09.000Z</time>
      </trkpt>
      <trkpt lat="45.16519" lon="5.95925">
        <ele>2430</ele>
        <time>2013-05-07T07:15:19.000Z</time>
      </trkpt>
      <trkpt lat="45.16521" lon="5.95934">
        <ele>2432</ele>
        <time>2013-05-07T07:15:29.000Z</time>
      </trkpt>
      <trkpt lat="45.16522" lon="5.95943">
        <ele>2433</ele>
        <time>2013-05-07T07:15:39.000Z</time>
      </trkpt>
      <trkpt lat="45.16527" lon="5.95952">
        <ele>2434</ele>
        <time>2013-05-07T07:15:49.000Z</time>
      </trkpt>
      <trkpt lat="45.1653" lon="5.95962">
        <ele>2435</ele>
        <time>2013-05-07T07:15:59.000Z</time>
      </trkpt>
      <trkpt lat="45.16534" lon="5.95973">
        <ele>2435</ele>
        <time>2013-05-07T07:16:09.000Z</time>
      </trkpt>
      <trkpt lat="45.16539" lon="5.95984">
        <ele>2436</ele>
        <time>2013-05-07T07:16:19.000Z</time>
      </trkpt>
      <trkpt lat="45.16543" lon="5.95992">
        <ele>2436</ele>
        <time>2013-05-07T07:16:29.000Z</time>
      </trkpt>
      <trkpt lat="45.16547" lon="5.96">
        <ele>2437</ele>
        <time>2013-05-07T07:16:39.000Z</time>
      </trkpt>
      <trkpt lat="45.16548" lon="5.96009">
        <ele>2438</ele>
        <time>2013-05-07T07:16:49.000Z</time>
      </trkpt>
      <trkpt lat="45.16551" lon="5.96018">
        <ele>2438</ele>
        <time>2013-05-07T07:16:59.000Z</time>
      </trkpt>
      <trkpt lat="45.16554" lon="5.96027">
        <ele>2438</ele>
        <time>2013-05-07T07:17:09.000Z</time>
      </trkpt>
      <trkpt lat="45.1656" lon="5.96037">
        <ele>2438</ele>
        <time>2013-05-07T07:17:19.000Z</time>
      </trkpt>
      <trkpt lat="45.16562" lon="5.96049">
        <ele>2438</ele>
        <time>2013-05-07T07:17:29.000Z</time>
      </trkpt>
      <trkpt lat="45.16564" lon="5.96062">
        <ele>2438</ele>
        <time>2013-05-07T07:17:39.000Z</time>
      </trkpt>
      <trkpt lat="45.16566" lon="5.96076">
        <ele>2438</ele>
        <time>2013-05-07T07:17:49.000Z</time>
      </trkpt>
      <trkpt lat="45.16567" lon="5.96091">
        <ele>2437</ele>
        <time>2013-05-07T07:17:59.000Z</time>
      </trkpt>
      <trkpt lat="45.16565" lon="5.96105">
        <ele>2436</ele>
        <time>2013-05-07T07:18:09.000Z</time>
      </trkpt>
      <trkpt lat="45.16568" lon="5.9612">
        <ele>2435</ele>
        <time>2013-05-07T07:18:19.000Z</time>
      </trkpt>
      <trkpt lat="45.16575" lon="5.96129">
        <ele>2435</ele>
        <time>2013-05-07T07:18:29.000Z</time>
      </trkpt>
      <trkpt lat="45.16575" lon="5.96132">
        <ele>2435</ele>
        <time>2013-05-07T07:19:39.000Z</time>
      </trkpt>
      <trkpt lat="45.16584" lon="5.96156">
        <ele>2439</ele>
        <time>2013-05-07T07:19:49.000Z</time>
      </trkpt>
      <trkpt lat="45.16574" lon="5.96235">
        <ele>2421</ele>
        <time>2013-05-07T07:19:59.000Z</time>
      </trkpt>
      <trkpt lat="45.16572" lon="5.96286">
        <ele>2414</ele>
        <time>2013-05-07T07:20:09.000Z</time>
      </trkpt>
      <trkpt lat="45.16575" lon="5.96302">
        <ele>2414</ele>
        <time>2013-05-07T07:20:19.000Z</time>
      </trkpt>
      <trkpt lat="45.16578" lon="5.96321">
        <ele>2414</ele>
        <time>2013-05-07T07:20:29.000Z</time>
      </trkpt>
      <trkpt lat="45.16576" lon="5.96351">
        <ele>2410</ele>
        <time>2013-05-07T07:20:39.000Z</time>
      </trkpt>
      <trkpt lat="45.16578" lon="5.96397">
        <ele>2407</ele>
        <time>2013-05-07T07:20:49.000Z</time>
      </trkpt>
      <trkpt lat="45.16581" lon="5.96412">
        <ele>2407</ele>
        <time>2013-05-07T07:20:59.000Z</time>
      </trkpt>
      <trkpt lat="45.16584" lon="5.96425">
        <ele>2409</ele>
        <time>2013-05-07T07:21:09.000Z</time>
      </trkpt>
      <trkpt lat="45.16585" lon="5.96437">
        <ele>2410</ele>
        <time>2013-05-07T07:21:19.000Z</time>
      </trkpt>
      <trkpt lat="45.16586" lon="5.96444">
        <ele>2411</ele>
        <time>2013-05-07T07:21:29.000Z</time>
      </trkpt>
      <trkpt lat="45.16587" lon="5.9646">
        <ele>2412</ele>
        <time>2013-05-07T07:21:39.000Z</time>
      </trkpt>
      <trkpt lat="45.16591" lon="5.96474">
        <ele>2413</ele>
        <time>2013-05-07T07:21:49.000Z</time>
      </trkpt>
      <trkpt lat="45.16591" lon="5.96478">
        <ele>2413</ele>
        <time>2013-05-07T07:21:59.000Z</time>
      </trkpt>
      <trkpt lat="45.1659" lon="5.965">
        <ele>2414</ele>
        <time>2013-05-07T07:22:09.000Z</time>
      </trkpt>
      <trkpt lat="45.1659" lon="5.96515">
        <ele>2414</ele>
        <time>2013-05-07T07:22:19.000Z</time>
      </trkpt>
      <trkpt lat="45.16592" lon="5.96532">
        <ele>2415</ele>
        <time>2013-05-07T07:22:29.000Z</time>
      </trkpt>
      <trkpt lat="45.16592" lon="5.96551">
        <ele>2415</ele>
        <time>2013-05-07T07:22:39.000Z</time>
      </trkpt>
      <trkpt lat="45.16595" lon="5.96566">
        <ele>2416</ele>
        <time>2013-05-07T07:22:49.000Z</time>
      </trkpt>
      <trkpt lat="45.16595" lon="5.96581">
        <ele>2416</ele>
        <time>2013-05-07T07:22:59.000Z</time>
      </trkpt>
      <trkpt lat="45.16594" lon="5.96598">
        <ele>2418</ele>
        <time>2013-05-07T07:23:09.000Z</time>
      </trkpt>
      <trkpt lat="45.16598" lon="5.96614">
        <ele>2419</ele>
        <time>2013-05-07T07:23:19.000Z</time>
      </trkpt>
      <trkpt lat="45.166" lon="5.96627">
        <ele>2420</ele>
        <time>2013-05-07T07:23:29.000Z</time>
      </trkpt>
      <trkpt lat="45.16601" lon="5.96638">
        <ele>2420</ele>
        <time>2013-05-07T07:23:39.000Z</time>
      </trkpt>
      <trkpt lat="45.16604" lon="5.96653">
        <ele>2421</ele>
        <time>2013-05-07T07:23:49.000Z</time>
      </trkpt>
      <trkpt lat="45.16606" lon="5.96665">
        <ele>2421</ele>
        <time>2013-05-07T07:23:59.000Z</time>
      </trkpt>
      <trkpt lat="45.16609" lon="5.9668">
        <ele>2427</ele>
        <time>2013-05-07T07:24:09.000Z</time>
      </trkpt>
      <trkpt lat="45.16612" lon="5.96693">
        <ele>2428</ele>
        <time>2013-05-07T07:24:19.000Z</time>
      </trkpt>
      <trkpt lat="45.16612" lon="5.96708">
        <ele>2429</ele>
        <time>2013-05-07T07:24:29.000Z</time>
      </trkpt>
      <trkpt lat="45.16612" lon="5.9672">
        <ele>2430</ele>
        <time>2013-05-07T07:24:39.000Z</time>
      </trkpt>
      <trkpt lat="45.16613" lon="5.96731">
        <ele>2431</ele>
        <time>2013-05-07T07:24:49.000Z</time>
      </trkpt>
      <trkpt lat="45.16614" lon="5.96747">
        <ele>2432</ele>
        <time>2013-05-07T07:24:59.000Z</time>
      </trkpt>
      <trkpt lat="45.16613" lon="5.96761">
        <ele>2439</ele>
        <time>2013-05-07T07:25:09.000Z</time>
      </trkpt>
      <trkpt lat="45.16612" lon="5.96772">
        <ele>2439</ele>
        <time>2013-05-07T07:25:19.000Z</time>
      </trkpt>
      <trkpt lat="45.16612" lon="5.96784">
        <ele>2440</ele>
        <time>2013-05-07T07:25:29.000Z</time>
      </trkpt>
      <trkpt lat="45.16613" lon="5.96795">
        <ele>2440</ele>
        <time>2013-05-07T07:25:39.000Z</time>
      </trkpt>
      <trkpt lat="45.16612" lon="5.96808">
        <ele>2441</ele>
        <time>2013-05-07T07:25:49.000Z</time>
      </trkpt>
      <trkpt lat="45.16612" lon="5.96819">
        <ele>2441</ele>
        <time>2013-05-07T07:25:59.000Z</time>
      </trkpt>
      <trkpt lat="45.16608" lon="5.9683">
        <ele>2442</ele>
        <time>2013-05-07T07:26:09.000Z</time>
      </trkpt>
      <trkpt lat="45.16606" lon="5.96843">
        <ele>2447</ele>
        <time>2013-05-07T07:26:19.000Z</time>
      </trkpt>
      <trkpt lat="45.16606" lon="5.96855">
        <ele>2447</ele>
        <time>2013-05-07T07:26:29.000Z</time>
      </trkpt>
      <trkpt lat="45.16605" lon="5.9687">
        <ele>2448</ele>
        <time>2013-05-07T07:26:39.000Z</time>
      </trkpt>
      <trkpt lat="45.16605" lon="5.96879">
        <ele>2449</ele>
        <time>2013-05-07T07:26:49.000Z</time>
      </trkpt>
      <trkpt lat="45.16604" lon="5.9689">
        <ele>2450</ele>
        <time>2013-05-07T07:26:59.000Z</time>
      </trkpt>
      <trkpt lat="45.16603" lon="5.96902">
        <ele>2451</ele>
        <time>2013-05-07T07:27:09.000Z</time>
      </trkpt>
      <trkpt lat="45.16604" lon="5.96913">
        <ele>2451</ele>
        <time>2013-05-07T07:27:19.000Z</time>
      </trkpt>
      <trkpt lat="45.16605" lon="5.96924">
        <ele>2456</ele>
        <time>2013-05-07T07:27:29.000Z</time>
      </trkpt>
      <trkpt lat="45.16606" lon="5.96932">
        <ele>2456</ele>
        <time>2013-05-07T07:27:39.000Z</time>
      </trkpt>
      <trkpt lat="45.16607" lon="5.96941">
        <ele>2457</ele>
        <time>2013-05-07T07:27:49.000Z</time>
      </trkpt>
      <trkpt lat="45.16611" lon="5.9695">
        <ele>2457</ele>
        <time>2013-05-07T07:27:59.000Z</time>
      </trkpt>
      <trkpt lat="45.16611" lon="5.9696">
        <ele>2458</ele>
        <time>2013-05-07T07:28:09.000Z</time>
      </trkpt>
      <trkpt lat="45.16612" lon="5.96971">
        <ele>2459</ele>
        <time>2013-05-07T07:28:19.000Z</time>
      </trkpt>
      <trkpt lat="45.16612" lon="5.96982">
        <ele>2459</ele>
        <time>2013-05-07T07:28:29.000Z</time>
      </trkpt>
      <trkpt lat="45.16611" lon="5.96994">
        <ele>2460</ele>
        <time>2013-05-07T07:28:39.000Z</time>
      </trkpt>
      <trkpt lat="45.1661" lon="5.97007">
        <ele>2466</ele>
        <time>2013-05-07T07:28:49.000Z</time>
      </trkpt>
      <trkpt lat="45.1661" lon="5.9702">
        <ele>2467</ele>
        <time>2013-05-07T07:28:59.000Z</time>
      </trkpt>
      <trkpt lat="45.16611" lon="5.9703">
        <ele>2468</ele>
        <time>2013-05-07T07:29:09.000Z</time>
      </trkpt>
      <trkpt lat="45.16611" lon="5.97044">
        <ele>2469</ele>
        <time>2013-05-07T07:29:19.000Z</time>
      </trkpt>
      <trkpt lat="45.16609" lon="5.97061">
        <ele>2470</ele>
        <time>2013-05-07T07:29:29.000Z</time>
      </trkpt>
      <trkpt lat="45.16607" lon="5.97072">
        <ele>2471</ele>
        <time>2013-05-07T07:29:39.000Z</time>
      </trkpt>
      <trkpt lat="45.16605" lon="5.97079">
        <ele>2471</ele>
        <time>2013-05-07T07:29:49.000Z</time>
      </trkpt>
      <trkpt lat="45.16604" lon="5.97084">
        <ele>2477</ele>
        <time>2013-05-07T07:30:09.000Z</time>
      </trkpt>
      <trkpt lat="45.16603" lon="5.97092">
        <ele>2477</ele>
        <time>2013-05-07T07:30:19.000Z</time>
      </trkpt>
      <trkpt lat="45.16603" lon="5.971">
        <ele>2478</ele>
        <time>2013-05-07T07:30:29.000Z</time>
      </trkpt>
      <trkpt lat="45.16604" lon="5.97104">
        <ele>2478</ele>
        <time>2013-05-07T07:30:39.000Z</time>
      </trkpt>
      <trkpt lat="45.16602" lon="5.97112">
        <ele>2479</ele>
        <time>2013-05-07T07:30:49.000Z</time>
      </trkpt>
      <trkpt lat="45.16601" lon="5.97119">
        <ele>2480</ele>
        <time>2013-05-07T07:30:59.000Z</time>
      </trkpt>
      <trkpt lat="45.166" lon="5.97126">
        <ele>2480</ele>
        <time>2013-05-07T07:31:09.000Z</time>
      </trkpt>
      <trkpt lat="45.16598" lon="5.97133">
        <ele>2481</ele>
        <time>2013-05-07T07:31:19.000Z</time>
      </trkpt>
      <trkpt lat="45.16598" lon="5.9714">
        <ele>2482</ele>
        <time>2013-05-07T07:31:29.000Z</time>
      </trkpt>
      <trkpt lat="45.16598" lon="5.97146">
        <ele>2483</ele>
        <time>2013-05-07T07:31:49.000Z</time>
      </trkpt>
      <trkpt lat="45.16597" lon="5.97148">
        <ele>2483</ele>
        <time>2013-05-07T07:31:59.000Z</time>
      </trkpt>
      <trkpt lat="45.166" lon="5.97143">
        <ele>2482</ele>
        <time>2013-05-07T07:32:09.000Z</time>
      </trkpt>
      <trkpt lat="45.16601" lon="5.97141">
        <ele>2482</ele>
        <time>2013-05-07T07:32:19.000Z</time>
      </trkpt>
      <trkpt lat="45.16593" lon="5.9715">
        <ele>2484</ele>
        <time>2013-05-07T07:32:29.000Z</time>
      </trkpt>
      <trkpt lat="45.16594" lon="5.97144">
        <ele>2483</ele>
        <time>2013-05-07T07:32:59.000Z</time>
      </trkpt>
      <trkpt lat="45.16594" lon="5.97144">
        <ele>2483</ele>
        <time>2013-05-07T07:33:09.000Z</time>
      </trkpt>
      <trkpt lat="45.16598" lon="5.97142">
        <ele>2482</ele>
        <time>2013-05-07T07:33:19.000Z</time>
      </trkpt>
      <trkpt lat="45.166" lon="5.97144">
        <ele>2482</ele>
        <time>2013-05-07T07:33:29.000Z</time>
      </trkpt>
      <trkpt lat="45.16599" lon="5.97141">
        <ele>2482</ele>
        <time>2013-05-07T07:34:39.000Z</time>
      </trkpt>
      <trkpt lat="45.16605" lon="5.97137">
        <ele>2481</ele>
        <time>2013-05-07T07:34:49.000Z</time>
      </trkpt>
      <trkpt lat="45.16602" lon="5.97137">
        <ele>2482</ele>
        <time>2013-05-07T07:35:09.000Z</time>
      </trkpt>
      <trkpt lat="45.16601" lon="5.97143">
        <ele>2482</ele>
        <time>2013-05-07T07:35:19.000Z</time>
      </trkpt>
      <trkpt lat="45.16599" lon="5.9714">
        <ele>2482</ele>
        <time>2013-05-07T07:35:59.000Z</time>
      </trkpt>
      <trkpt lat="45.16598" lon="5.97149">
        <ele>2483</ele>
        <time>2013-05-07T07:36:09.000Z</time>
      </trkpt>
      <trkpt lat="45.16598" lon="5.97157">
        <ele>2484</ele>
        <time>2013-05-07T07:36:19.000Z</time>
      </trkpt>
      <trkpt lat="45.16595" lon="5.97167">
        <ele>2490</ele>
        <time>2013-05-07T07:36:29.000Z</time>
      </trkpt>
      <trkpt lat="45.16594" lon="5.97177">
        <ele>2491</ele>
        <time>2013-05-07T07:36:39.000Z</time>
      </trkpt>
      <trkpt lat="45.16594" lon="5.97182">
        <ele>2491</ele>
        <time>2013-05-07T07:36:49.000Z</time>
      </trkpt>
      <trkpt lat="45.16594" lon="5.97187">
        <ele>2492</ele>
        <time>2013-05-07T07:36:59.000Z</time>
      </trkpt>
      <trkpt lat="45.16591" lon="5.97196">
        <ele>2493</ele>
        <time>2013-05-07T07:37:09.000Z</time>
      </trkpt>
      <trkpt lat="45.16591" lon="5.97201">
        <ele>2493</ele>
        <time>2013-05-07T07:37:19.000Z</time>
      </trkpt>
      <trkpt lat="45.1659" lon="5.97211">
        <ele>2495</ele>
        <time>2013-05-07T07:37:29.000Z</time>
      </trkpt>
      <trkpt lat="45.16587" lon="5.97218">
        <ele>2496</ele>
        <time>2013-05-07T07:37:39.000Z</time>
      </trkpt>
      <trkpt lat="45.16585" lon="5.97224">
        <ele>2498</ele>
        <time>2013-05-07T07:37:49.000Z</time>
      </trkpt>
      <trkpt lat="45.16585" lon="5.97233">
        <ele>2500</ele>
        <time>2013-05-07T07:37:59.000Z</time>
      </trkpt>
      <trkpt lat="45.16585" lon="5.97239">
        <ele>2502</ele>
        <time>2013-05-07T07:38:09.000Z</time>
      </trkpt>
      <trkpt lat="45.16585" lon="5.9724">
        <ele>2503</ele>
        <time>2013-05-07T07:38:19.000Z</time>
      </trkpt>
      <trkpt lat="45.16584" lon="5.97246">
        <ele>2505</ele>
        <time>2013-05-07T07:38:29.000Z</time>
      </trkpt>
      <trkpt lat="45.16581" lon="5.9725">
        <ele>2509</ele>
        <time>2013-05-07T07:38:39.000Z</time>
      </trkpt>
      <trkpt lat="45.16579" lon="5.97259">
        <ele>2514</ele>
        <time>2013-05-07T07:38:49.000Z</time>
      </trkpt>
      <trkpt lat="45.16579" lon="5.97264">
        <ele>2516</ele>
        <time>2013-05-07T07:38:59.000Z</time>
      </trkpt>
      <trkpt lat="45.16575" lon="5.97269">
        <ele>2518</ele>
        <time>2013-05-07T07:39:09.000Z</time>
      </trkpt>
      <trkpt lat="45.16573" lon="5.97276">
        <ele>2521</ele>
        <time>2013-05-07T07:39:19.000Z</time>
      </trkpt>
      <trkpt lat="45.1657" lon="5.97274">
        <ele>2521</ele>
        <time>2013-05-07T07:39:39.000Z</time>
      </trkpt>
      <trkpt lat="45.16567" lon="5.97274">
        <ele>2522</ele>
        <time>2013-05-07T07:39:49.000Z</time>
      </trkpt>
      <trkpt lat="45.16563" lon="5.97275">
        <ele>2523</ele>
        <time>2013-05-07T07:39:59.000Z</time>
      </trkpt>
      <trkpt lat="45.16558" lon="5.97277">
        <ele>2524</ele>
        <time>2013-05-07T07:40:09.000Z</time>
      </trkpt>
      <trkpt lat="45.16552" lon="5.97278">
        <ele>2525</ele>
        <time>2013-05-07T07:40:19.000Z</time>
      </trkpt>
      <trkpt lat="45.16548" lon="5.97279">
        <ele>2526</ele>
        <time>2013-05-07T07:40:29.000Z</time>
      </trkpt>
      <trkpt lat="45.16541" lon="5.97281">
        <ele>2528</ele>
        <time>2013-05-07T07:40:39.000Z</time>
      </trkpt>
      <trkpt lat="45.16537" lon="5.97282">
        <ele>2529</ele>
        <time>2013-05-07T07:40:49.000Z</time>
      </trkpt>
      <trkpt lat="45.16535" lon="5.97283">
        <ele>2529</ele>
        <time>2013-05-07T07:40:59.000Z</time>
      </trkpt>
      <trkpt lat="45.16531" lon="5.97283">
        <ele>2530</ele>
        <time>2013-05-07T07:41:09.000Z</time>
      </trkpt>
      <trkpt lat="45.16525" lon="5.97281">
        <ele>2531</ele>
        <time>2013-05-07T07:41:19.000Z</time>
      </trkpt>
      <trkpt lat="45.16522" lon="5.97275">
        <ele>2533</ele>
        <time>2013-05-07T07:41:29.000Z</time>
      </trkpt>
      <trkpt lat="45.1652" lon="5.97269">
        <ele>2534</ele>
        <time>2013-05-07T07:41:39.000Z</time>
      </trkpt>
      <trkpt lat="45.16518" lon="5.97261">
        <ele>2537</ele>
        <time>2013-05-07T07:41:49.000Z</time>
      </trkpt>
      <trkpt lat="45.16513" lon="5.97262">
        <ele>2538</ele>
        <time>2013-05-07T07:42:09.000Z</time>
      </trkpt>
      <trkpt lat="45.16514" lon="5.97269">
        <ele>2536</ele>
        <time>2013-05-07T07:42:19.000Z</time>
      </trkpt>
      <trkpt lat="45.16518" lon="5.97262">
        <ele>2537</ele>
        <time>2013-05-07T07:42:29.000Z</time>
      </trkpt>
      <trkpt lat="45.16517" lon="5.9725">
        <ele>2534</ele>
        <time>2013-05-07T07:42:39.000Z</time>
      </trkpt>
      <trkpt lat="45.16516" lon="5.97243">
        <ele>2534</ele>
        <time>2013-05-07T07:42:49.000Z</time>
      </trkpt>
      <trkpt lat="45.16514" lon="5.97239">
        <ele>2534</ele>
        <time>2013-05-07T07:42:59.000Z</time>
      </trkpt>
      <trkpt lat="45.1651" lon="5.97232">
        <ele>2533</ele>
        <time>2013-05-07T07:43:09.000Z</time>
      </trkpt>
      <trkpt lat="45.16509" lon="5.97237">
        <ele>2535</ele>
        <time>2013-05-07T07:43:49.000Z</time>
      </trkpt>
      <trkpt lat="45.16507" lon="5.97243">
        <ele>2539</ele>
        <time>2013-05-07T07:43:59.000Z</time>
      </trkpt>
      <trkpt lat="45.16505" lon="5.97251">
        <ele>2545</ele>
        <time>2013-05-07T07:44:09.000Z</time>
      </trkpt>
      <trkpt lat="45.16504" lon="5.97257">
        <ele>2543</ele>
        <time>2013-05-07T07:44:19.000Z</time>
      </trkpt>
      <trkpt lat="45.16503" lon="5.97258">
        <ele>2543</ele>
        <time>2013-05-07T07:44:39.000Z</time>
      </trkpt>
      <trkpt lat="45.16501" lon="5.97249">
        <ele>2547</ele>
        <time>2013-05-07T07:44:49.000Z</time>
      </trkpt>
      <trkpt lat="45.16498" lon="5.97243">
        <ele>2547</ele>
        <time>2013-05-07T07:44:59.000Z</time>
      </trkpt>
      <trkpt lat="45.16496" lon="5.97238">
        <ele>2546</ele>
        <time>2013-05-07T07:45:09.000Z</time>
      </trkpt>
      <trkpt lat="45.16496" lon="5.97232">
        <ele>2545</ele>
        <time>2013-05-07T07:45:19.000Z</time>
      </trkpt>
      <trkpt lat="45.16492" lon="5.97225">
        <ele>2544</ele>
        <time>2013-05-07T07:45:29.000Z</time>
      </trkpt>
      <trkpt lat="45.1649" lon="5.97219">
        <ele>2543</ele>
        <time>2013-05-07T07:45:39.000Z</time>
      </trkpt>
      <trkpt lat="45.16488" lon="5.97213">
        <ele>2543</ele>
        <time>2013-05-07T07:45:49.000Z</time>
      </trkpt>
      <trkpt lat="45.16484" lon="5.97205">
        <ele>2542</ele>
        <time>2013-05-07T07:45:59.000Z</time>
      </trkpt>
      <trkpt lat="45.16481" lon="5.97199">
        <ele>2541</ele>
        <time>2013-05-07T07:46:09.000Z</time>
      </trkpt>
      <trkpt lat="45.16478" lon="5.972">
        <ele>2541</ele>
        <time>2013-05-07T07:46:19.000Z</time>
      </trkpt>
      <trkpt lat="45.16477" lon="5.97204">
        <ele>2542</ele>
        <time>2013-05-07T07:46:29.000Z</time>
      </trkpt>
      <trkpt lat="45.16476" lon="5.97207">
        <ele>2542</ele>
        <time>2013-05-07T07:46:39.000Z</time>
      </trkpt>
      <trkpt lat="45.16473" lon="5.97214">
        <ele>2543</ele>
        <time>2013-05-07T07:46:49.000Z</time>
      </trkpt>
      <trkpt lat="45.16469" lon="5.9722">
        <ele>2543</ele>
        <time>2013-05-07T07:46:59.000Z</time>
      </trkpt>
      <trkpt lat="45.16464" lon="5.97225">
        <ele>2543</ele>
        <time>2013-05-07T07:47:09.000Z</time>
      </trkpt>
      <trkpt lat="45.16459" lon="5.97228">
        <ele>2543</ele>
        <time>2013-05-07T07:47:19.000Z</time>
      </trkpt>
      <trkpt lat="45.16453" lon="5.97232">
        <ele>2543</ele>
        <time>2013-05-07T07:47:29.000Z</time>
      </trkpt>
      <trkpt lat="45.16447" lon="5.97235">
        <ele>2543</ele>
        <time>2013-05-07T07:47:39.000Z</time>
      </trkpt>
      <trkpt lat="45.1644" lon="5.97243">
        <ele>2543</ele>
        <time>2013-05-07T07:47:49.000Z</time>
      </trkpt>
      <trkpt lat="45.16436" lon="5.97248">
        <ele>2543</ele>
        <time>2013-05-07T07:47:59.000Z</time>
      </trkpt>
      <trkpt lat="45.1643" lon="5.97254">
        <ele>2548</ele>
        <time>2013-05-07T07:48:09.000Z</time>
      </trkpt>
      <trkpt lat="45.16424" lon="5.97261">
        <ele>2548</ele>
        <time>2013-05-07T07:48:19.000Z</time>
      </trkpt>
      <trkpt lat="45.1642" lon="5.97267">
        <ele>2548</ele>
        <time>2013-05-07T07:48:29.000Z</time>
      </trkpt>
      <trkpt lat="45.1642" lon="5.97267">
        <ele>2548</ele>
        <time>2013-05-07T07:48:39.000Z</time>
      </trkpt>
      <trkpt lat="45.16415" lon="5.97271">
        <ele>2584.4</ele>
        <time>2013-05-07T07:48:49.000Z</time>
      </trkpt>
      <trkpt lat="45.1641" lon="5.97275">
        <ele>2585.8</ele>
        <time>2013-05-07T07:48:59.000Z</time>
      </trkpt>
      <trkpt lat="45.16406" lon="5.97282">
        <ele>2587.4</ele>
        <time>2013-05-07T07:49:09.000Z</time>
      </trkpt>
      <trkpt lat="45.16405" lon="5.97285">
        <ele>2588.1</ele>
        <time>2013-05-07T07:49:19.000Z</time>
      </trkpt>
      <trkpt lat="45.16401" lon="5.97288">
        <ele>2589.7</ele>
        <time>2013-05-07T07:49:29.000Z</time>
      </trkpt>
      <trkpt lat="45.16397" lon="5.97296">
        <ele>2591.2</ele>
        <time>2013-05-07T07:49:39.000Z</time>
      </trkpt>
      <trkpt lat="45.16394" lon="5.97305">
        <ele>2592.3</ele>
        <time>2013-05-07T07:49:49.000Z</time>
      </trkpt>
      <trkpt lat="45.1639" lon="5.97309">
        <ele>2594</ele>
        <time>2013-05-07T07:49:59.000Z</time>
      </trkpt>
      <trkpt lat="45.16387" lon="5.97313">
        <ele>2595.6</ele>
        <time>2013-05-07T07:50:09.000Z</time>
      </trkpt>
      <trkpt lat="45.16385" lon="5.97321">
        <ele>2597.6</ele>
        <time>2013-05-07T07:50:19.000Z</time>
      </trkpt>
      <trkpt lat="45.16383" lon="5.97328">
        <ele>2599.2</ele>
        <time>2013-05-07T07:50:29.000Z</time>
      </trkpt>
      <trkpt lat="45.1638" lon="5.97328">
        <ele>2600.3</ele>
        <time>2013-05-07T07:50:49.000Z</time>
      </trkpt>
      <trkpt lat="45.16378" lon="5.97332">
        <ele>2601.2</ele>
        <time>2013-05-07T07:50:59.000Z</time>
      </trkpt>
      <trkpt lat="45.16375" lon="5.97335">
        <ele>2602.6</ele>
        <time>2013-05-07T07:51:09.000Z</time>
      </trkpt>
      <trkpt lat="45.16372" lon="5.97339">
        <ele>2603.4</ele>
        <time>2013-05-07T07:51:19.000Z</time>
      </trkpt>
      <trkpt lat="45.16368" lon="5.97344">
        <ele>2604.8</ele>
        <time>2013-05-07T07:51:29.000Z</time>
      </trkpt>
      <trkpt lat="45.16364" lon="5.97348">
        <ele>2606.3</ele>
        <time>2013-05-07T07:51:39.000Z</time>
      </trkpt>
      <trkpt lat="45.16362" lon="5.97356">
        <ele>2607</ele>
        <time>2013-05-07T07:51:49.000Z</time>
      </trkpt>
      <trkpt lat="45.16361" lon="5.97362">
        <ele>2607.4</ele>
        <time>2013-05-07T07:51:59.000Z</time>
      </trkpt>
      <trkpt lat="45.16358" lon="5.9737">
        <ele>2609.8</ele>
        <time>2013-05-07T07:52:09.000Z</time>
      </trkpt>
      <trkpt lat="45.16354" lon="5.97374">
        <ele>2612.5</ele>
        <time>2013-05-07T07:52:19.000Z</time>
      </trkpt>
      <trkpt lat="45.1635" lon="5.97379">
        <ele>2615</ele>
        <time>2013-05-07T07:52:29.000Z</time>
      </trkpt>
      <trkpt lat="45.16348" lon="5.97386">
        <ele>2617</ele>
        <time>2013-05-07T07:52:39.000Z</time>
      </trkpt>
      <trkpt lat="45.16346" lon="5.97392">
        <ele>2619.3</ele>
        <time>2013-05-07T07:52:49.000Z</time>
      </trkpt>
      <trkpt lat="45.16345" lon="5.97392">
        <ele>2620.2</ele>
        <time>2013-05-07T07:53:09.000Z</time>
      </trkpt>
      <trkpt lat="45.1634" lon="5.97391">
        <ele>2622.7</ele>
        <time>2013-05-07T07:53:19.000Z</time>
      </trkpt>
      <trkpt lat="45.16336" lon="5.97391">
        <ele>2625</ele>
        <time>2013-05-07T07:53:29.000Z</time>
      </trkpt>
      <trkpt lat="45.16333" lon="5.97396">
        <ele>2627.7</ele>
        <time>2013-05-07T07:53:39.000Z</time>
      </trkpt>
      <trkpt lat="45.16332" lon="5.97402">
        <ele>2629.3</ele>
        <time>2013-05-07T07:53:49.000Z</time>
      </trkpt>
      <trkpt lat="45.1633" lon="5.97409">
        <ele>2631.6</ele>
        <time>2013-05-07T07:53:59.000Z</time>
      </trkpt>
      <trkpt lat="45.16324" lon="5.97416">
        <ele>2635.8</ele>
        <time>2013-05-07T07:54:09.000Z</time>
      </trkpt>
      <trkpt lat="45.16327" lon="5.9742">
        <ele>2635</ele>
        <time>2013-05-07T07:54:19.000Z</time>
      </trkpt>
      <trkpt lat="45.16329" lon="5.97428">
        <ele>2635.7</ele>
        <time>2013-05-07T07:54:29.000Z</time>
      </trkpt>
      <trkpt lat="45.16329" lon="5.97435">
        <ele>2637.2</ele>
        <time>2013-05-07T07:54:39.000Z</time>
      </trkpt>
      <trkpt lat="45.16328" lon="5.97434">
        <ele>2637.4</ele>
        <time>2013-05-07T07:54:59.000Z</time>
      </trkpt>
      <trkpt lat="45.16322" lon="5.97433">
        <ele>2640</ele>
        <time>2013-05-07T07:55:09.000Z</time>
      </trkpt>
      <trkpt lat="45.16317" lon="5.97432">
        <ele>2642.7</ele>
        <time>2013-05-07T07:55:19.000Z</time>
      </trkpt>
      <trkpt lat="45.16312" lon="5.9743">
        <ele>2644.7</ele>
        <time>2013-05-07T07:55:29.000Z</time>
      </trkpt>
      <trkpt lat="45.16308" lon="5.97427">
        <ele>2646.3</ele>
        <time>2013-05-07T07:55:39.000Z</time>
      </trkpt>
      <trkpt lat="45.16304" lon="5.97424">
        <ele>2647.5</ele>
        <time>2013-05-07T07:55:49.000Z</time>
      </trkpt>
      <trkpt lat="45.16301" lon="5.97419">
        <ele>2648.2</ele>
        <time>2013-05-07T07:55:59.000Z</time>
      </trkpt>
      <trkpt lat="45.163" lon="5.97424">
        <ele>2649.6</ele>
        <time>2013-05-07T07:56:29.000Z</time>
      </trkpt>
      <trkpt lat="45.16297" lon="5.9743">
        <ele>2651.3</ele>
        <time>2013-05-07T07:56:39.000Z</time>
      </trkpt>
      <trkpt lat="45.16293" lon="5.9743">
        <ele>2652.6</ele>
        <time>2013-05-07T07:56:59.000Z</time>
      </trkpt>
      <trkpt lat="45.1629" lon="5.97424">
        <ele>2653.5</ele>
        <time>2013-05-07T07:57:09.000Z</time>
      </trkpt>
      <trkpt lat="45.1629" lon="5.97424">
        <ele>2653.7</ele>
        <time>2013-05-07T07:57:19.000Z</time>
      </trkpt>
      <trkpt lat="45.16288" lon="5.97431">
        <ele>2654.5</ele>
        <time>2013-05-07T07:57:29.000Z</time>
      </trkpt>
      <trkpt lat="45.16289" lon="5.97437">
        <ele>2654.5</ele>
        <time>2013-05-07T07:57:39.000Z</time>
      </trkpt>
      <trkpt lat="45.16288" lon="5.97445">
        <ele>2655.1</ele>
        <time>2013-05-07T07:57:49.000Z</time>
      </trkpt>
      <trkpt lat="45.16288" lon="5.97453">
        <ele>2655.9</ele>
        <time>2013-05-07T07:57:59.000Z</time>
      </trkpt>
      <trkpt lat="45.16284" lon="5.97462">
        <ele>2656.6</ele>
        <time>2013-05-07T07:58:09.000Z</time>
      </trkpt>
      <trkpt lat="45.1628" lon="5.97468">
        <ele>2656.5</ele>
        <time>2013-05-07T07:58:19.000Z</time>
      </trkpt>
      <trkpt lat="45.16276" lon="5.97471">
        <ele>2655.7</ele>
        <time>2013-05-07T07:58:29.000Z</time>
      </trkpt>
      <trkpt lat="45.16271" lon="5.97473">
        <ele>2654.5</ele>
        <time>2013-05-07T07:58:39.000Z</time>
      </trkpt>
      <trkpt lat="45.16268" lon="5.97474">
        <ele>2653.7</ele>
        <time>2013-05-07T07:58:59.000Z</time>
      </trkpt>
      <trkpt lat="45.16266" lon="5.97476">
        <ele>2653.1</ele>
        <time>2013-05-07T07:59:09.000Z</time>
      </trkpt>
      <trkpt lat="45.16272" lon="5.97475">
        <ele>2654.3</ele>
        <time>2013-05-07T07:59:19.000Z</time>
      </trkpt>
      <trkpt lat="45.1627" lon="5.97475">
        <ele>2654.1</ele>
        <time>2013-05-07T07:59:29.000Z</time>
      </trkpt>
      <trkpt lat="45.16267" lon="5.97474">
        <ele>2653.4</ele>
        <time>2013-05-07T07:59:39.000Z</time>
      </trkpt>
      <trkpt lat="45.16271" lon="5.97471">
        <ele>2654.6</ele>
        <time>2013-05-07T08:03:29.000Z</time>
      </trkpt>
      <trkpt lat="45.16272" lon="5.97471">
        <ele>2654.9</ele>
        <time>2013-05-07T08:03:39.000Z</time>
      </trkpt>
      <trkpt lat="45.1627" lon="5.97472">
        <ele>2654.4</ele>
        <time>2013-05-07T08:05:09.000Z</time>
      </trkpt>
      <trkpt lat="45.16267" lon="5.97475">
        <ele>2653.2</ele>
        <time>2013-05-07T08:05:19.000Z</time>
      </trkpt>
      <trkpt lat="45.1627" lon="5.97476">
        <ele>2653.8</ele>
        <time>2013-05-07T08:06:09.000Z</time>
      </trkpt>
      <trkpt lat="45.16284" lon="5.97496">
        <ele>2656.5</ele>
        <time>2013-05-07T08:06:19.000Z</time>
      </trkpt>
      <trkpt lat="45.1629" lon="5.97508">
        <ele>2658.7</ele>
        <time>2013-05-07T08:06:29.000Z</time>
      </trkpt>
      <trkpt lat="45.16296" lon="5.97519">
        <ele>2660.5</ele>
        <time>2013-05-07T08:06:39.000Z</time>
      </trkpt>
      <trkpt lat="45.16302" lon="5.97531">
        <ele>2663.3</ele>
        <time>2013-05-07T08:06:49.000Z</time>
      </trkpt>
      <trkpt lat="45.16308" lon="5.97539">
        <ele>2665</ele>
        <time>2013-05-07T08:06:59.000Z</time>
      </trkpt>
      <trkpt lat="45.16311" lon="5.97549">
        <ele>2665.8</ele>
        <time>2013-05-07T08:07:09.000Z</time>
      </trkpt>
      <trkpt lat="45.16313" lon="5.9756">
        <ele>2666.8</ele>
        <time>2013-05-07T08:07:19.000Z</time>
      </trkpt>
      <trkpt lat="45.16314" lon="5.97572">
        <ele>2667.3</ele>
        <time>2013-05-07T08:07:29.000Z</time>
      </trkpt>
      <trkpt lat="45.16313" lon="5.97582">
        <ele>2667.3</ele>
        <time>2013-05-07T08:07:39.000Z</time>
      </trkpt>
      <trkpt lat="45.16312" lon="5.97591">
        <ele>2667</ele>
        <time>2013-05-07T08:07:49.000Z</time>
      </trkpt>
      <trkpt lat="45.16307" lon="5.9761">
        <ele>2666.3</ele>
        <time>2013-05-07T08:07:59.000Z</time>
      </trkpt>
      <trkpt lat="45.16304" lon="5.97622">
        <ele>2667.8</ele>
        <time>2013-05-07T08:08:09.000Z</time>
      </trkpt>
      <trkpt lat="45.16303" lon="5.97624">
        <ele>2668</ele>
        <time>2013-05-07T08:08:19.000Z</time>
      </trkpt>
      <trkpt lat="45.16303" lon="5.9763">
        <ele>2669.2</ele>
        <time>2013-05-07T08:08:29.000Z</time>
      </trkpt>
      <trkpt lat="45.163" lon="5.97641">
        <ele>2670.9</ele>
        <time>2013-05-07T08:08:39.000Z</time>
      </trkpt>
      <trkpt lat="45.16298" lon="5.9765">
        <ele>2672.6</ele>
        <time>2013-05-07T08:08:49.000Z</time>
      </trkpt>
      <trkpt lat="45.16295" lon="5.97659">
        <ele>2674.2</ele>
        <time>2013-05-07T08:08:59.000Z</time>
      </trkpt>
      <trkpt lat="45.16291" lon="5.97666">
        <ele>2675.3</ele>
        <time>2013-05-07T08:09:09.000Z</time>
      </trkpt>
      <trkpt lat="45.16288" lon="5.97674">
        <ele>2677.4</ele>
        <time>2013-05-07T08:09:19.000Z</time>
      </trkpt>
      <trkpt lat="45.16286" lon="5.97677">
        <ele>2678.1</ele>
        <time>2013-05-07T08:09:29.000Z</time>
      </trkpt>
      <trkpt lat="45.16284" lon="5.9768">
        <ele>2678.8</ele>
        <time>2013-05-07T08:09:39.000Z</time>
      </trkpt>
      <trkpt lat="45.1628" lon="5.97686">
        <ele>2680.3</ele>
        <time>2013-05-07T08:09:49.000Z</time>
      </trkpt>
      <trkpt lat="45.16276" lon="5.97694">
        <ele>2682.5</ele>
        <time>2013-05-07T08:09:59.000Z</time>
      </trkpt>
      <trkpt lat="45.16272" lon="5.97702">
        <ele>2684.2</ele>
        <time>2013-05-07T08:10:09.000Z</time>
      </trkpt>
      <trkpt lat="45.16269" lon="5.97711">
        <ele>2686</ele>
        <time>2013-05-07T08:10:19.000Z</time>
      </trkpt>
      <trkpt lat="45.16267" lon="5.9772">
        <ele>2687.8</ele>
        <time>2013-05-07T08:10:29.000Z</time>
      </trkpt>
      <trkpt lat="45.16264" lon="5.97728">
        <ele>2688.9</ele>
        <time>2013-05-07T08:10:39.000Z</time>
      </trkpt>
      <trkpt lat="45.16265" lon="5.97737">
        <ele>2690.6</ele>
        <time>2013-05-07T08:10:49.000Z</time>
      </trkpt>
      <trkpt lat="45.1627" lon="5.97747">
        <ele>2693.1</ele>
        <time>2013-05-07T08:10:59.000Z</time>
      </trkpt>
      <trkpt lat="45.16275" lon="5.97751">
        <ele>2694.3</ele>
        <time>2013-05-07T08:11:09.000Z</time>
      </trkpt>
      <trkpt lat="45.1628" lon="5.97753">
        <ele>2695</ele>
        <time>2013-05-07T08:11:19.000Z</time>
      </trkpt>
      <trkpt lat="45.16285" lon="5.97757">
        <ele>2695.6</ele>
        <time>2013-05-07T08:11:29.000Z</time>
      </trkpt>
      <trkpt lat="45.16292" lon="5.97761">
        <ele>2696.7</ele>
        <time>2013-05-07T08:11:39.000Z</time>
      </trkpt>
      <trkpt lat="45.16298" lon="5.97765">
        <ele>2698</ele>
        <time>2013-05-07T08:11:49.000Z</time>
      </trkpt>
      <trkpt lat="45.16306" lon="5.9777">
        <ele>2699.8</ele>
        <time>2013-05-07T08:11:59.000Z</time>
      </trkpt>
      <trkpt lat="45.16312" lon="5.97775">
        <ele>2701.3</ele>
        <time>2013-05-07T08:12:09.000Z</time>
      </trkpt>
      <trkpt lat="45.16318" lon="5.9778">
        <ele>2702.8</ele>
        <time>2013-05-07T08:12:19.000Z</time>
      </trkpt>
      <trkpt lat="45.16323" lon="5.97787">
        <ele>2704.8</ele>
        <time>2013-05-07T08:12:29.000Z</time>
      </trkpt>
      <trkpt lat="45.16328" lon="5.97793">
        <ele>2706.9</ele>
        <time>2013-05-07T08:12:39.000Z</time>
      </trkpt>
      <trkpt lat="45.16332" lon="5.97799">
        <ele>2708.6</ele>
        <time>2013-05-07T08:12:49.000Z</time>
      </trkpt>
      <trkpt lat="45.16333" lon="5.97799">
        <ele>2709</ele>
        <time>2013-05-07T08:13:19.000Z</time>
      </trkpt>
      <trkpt lat="45.16337" lon="5.97807">
        <ele>2711</ele>
        <time>2013-05-07T08:13:29.000Z</time>
      </trkpt>
      <trkpt lat="45.16339" lon="5.97814">
        <ele>2712.9</ele>
        <time>2013-05-07T08:13:39.000Z</time>
      </trkpt>
      <trkpt lat="45.16338" lon="5.9782">
        <ele>2714</ele>
        <time>2013-05-07T08:13:49.000Z</time>
      </trkpt>
      <trkpt lat="45.16338" lon="5.97826">
        <ele>2715.4</ele>
        <time>2013-05-07T08:13:59.000Z</time>
      </trkpt>
      <trkpt lat="45.16339" lon="5.97835">
        <ele>2717.2</ele>
        <time>2013-05-07T08:14:09.000Z</time>
      </trkpt>
      <trkpt lat="45.1634" lon="5.97843">
        <ele>2718.7</ele>
        <time>2013-05-07T08:14:19.000Z</time>
      </trkpt>
      <trkpt lat="45.16343" lon="5.97852">
        <ele>2720.3</ele>
        <time>2013-05-07T08:14:29.000Z</time>
      </trkpt>
      <trkpt lat="45.16344" lon="5.97862">
        <ele>2721.8</ele>
        <time>2013-05-07T08:14:39.000Z</time>
      </trkpt>
      <trkpt lat="45.16344" lon="5.97869">
        <ele>2723.6</ele>
        <time>2013-05-07T08:14:49.000Z</time>
      </trkpt>
      <trkpt lat="45.16342" lon="5.97876">
        <ele>2725.2</ele>
        <time>2013-05-07T08:14:59.000Z</time>
      </trkpt>
      <trkpt lat="45.16341" lon="5.97883">
        <ele>2726.6</ele>
        <time>2013-05-07T08:15:09.000Z</time>
      </trkpt>
      <trkpt lat="45.1634" lon="5.97891">
        <ele>2728.4</ele>
        <time>2013-05-07T08:15:19.000Z</time>
      </trkpt>
      <trkpt lat="45.16341" lon="5.97901">
        <ele>2730.2</ele>
        <time>2013-05-07T08:15:29.000Z</time>
      </trkpt>
      <trkpt lat="45.16342" lon="5.9791">
        <ele>2731.7</ele>
        <time>2013-05-07T08:15:39.000Z</time>
      </trkpt>
      <trkpt lat="45.16345" lon="5.97919">
        <ele>2733.4</ele>
        <time>2013-05-07T08:15:49.000Z</time>
      </trkpt>
      <trkpt lat="45.16347" lon="5.97923">
        <ele>2733.8</ele>
        <time>2013-05-07T08:16:09.000Z</time>
      </trkpt>
      <trkpt lat="45.1635" lon="5.97935">
        <ele>2734.8</ele>
        <time>2013-05-07T08:16:19.000Z</time>
      </trkpt>
      <trkpt lat="45.16354" lon="5.97944">
        <ele>2735.5</ele>
        <time>2013-05-07T08:16:29.000Z</time>
      </trkpt>
      <trkpt lat="45.16358" lon="5.97952">
        <ele>2736.5</ele>
        <time>2013-05-07T08:16:39.000Z</time>
      </trkpt>
      <trkpt lat="45.16362" lon="5.97964">
        <ele>2738.1</ele>
        <time>2013-05-07T08:16:49.000Z</time>
      </trkpt>
      <trkpt lat="45.16366" lon="5.97973">
        <ele>2739.2</ele>
        <time>2013-05-07T08:16:59.000Z</time>
      </trkpt>
      <trkpt lat="45.1637" lon="5.97982">
        <ele>2739.3</ele>
        <time>2013-05-07T08:17:09.000Z</time>
      </trkpt>
      <trkpt lat="45.16374" lon="5.97993">
        <ele>2739.8</ele>
        <time>2013-05-07T08:17:19.000Z</time>
      </trkpt>
      <trkpt lat="45.16379" lon="5.98007">
        <ele>2740.2</ele>
        <time>2013-05-07T08:17:29.000Z</time>
      </trkpt>
      <trkpt lat="45.16388" lon="5.98023">
        <ele>2741.7</ele>
        <time>2013-05-07T08:17:39.000Z</time>
      </trkpt>
      <trkpt lat="45.16392" lon="5.98034">
        <ele>2743</ele>
        <time>2013-05-07T08:17:49.000Z</time>
      </trkpt>
      <trkpt lat="45.16394" lon="5.98042">
        <ele>2744</ele>
        <time>2013-05-07T08:17:59.000Z</time>
      </trkpt>
      <trkpt lat="45.16395" lon="5.98053">
        <ele>2745.1</ele>
        <time>2013-05-07T08:18:09.000Z</time>
      </trkpt>
      <trkpt lat="45.16396" lon="5.98061">
        <ele>2745.7</ele>
        <time>2013-05-07T08:18:19.000Z</time>
      </trkpt>
      <trkpt lat="45.16396" lon="5.98067">
        <ele>2746.1</ele>
        <time>2013-05-07T08:18:29.000Z</time>
      </trkpt>
      <trkpt lat="45.16398" lon="5.98078">
        <ele>2747.1</ele>
        <time>2013-05-07T08:18:39.000Z</time>
      </trkpt>
      <trkpt lat="45.164" lon="5.98089">
        <ele>2748.3</ele>
        <time>2013-05-07T08:18:49.000Z</time>
      </trkpt>
      <trkpt lat="45.16402" lon="5.98101">
        <ele>2749.9</ele>
        <time>2013-05-07T08:18:59.000Z</time>
      </trkpt>
      <trkpt lat="45.16404" lon="5.98111">
        <ele>2751.6</ele>
        <time>2013-05-07T08:19:09.000Z</time>
      </trkpt>
      <trkpt lat="45.16406" lon="5.9812">
        <ele>2753.2</ele>
        <time>2013-05-07T08:19:19.000Z</time>
      </trkpt>
      <trkpt lat="45.16408" lon="5.98131">
        <ele>2754.7</ele>
        <time>2013-05-07T08:19:29.000Z</time>
      </trkpt>
      <trkpt lat="45.1641" lon="5.98141">
        <ele>2755.8</ele>
        <time>2013-05-07T08:19:39.000Z</time>
      </trkpt>
      <trkpt lat="45.16413" lon="5.98152">
        <ele>2755.6</ele>
        <time>2013-05-07T08:19:49.000Z</time>
      </trkpt>
      <trkpt lat="45.16416" lon="5.98162">
        <ele>2754.7</ele>
        <time>2013-05-07T08:19:59.000Z</time>
      </trkpt>
      <trkpt lat="45.16416" lon="5.98177">
        <ele>2755.6</ele>
        <time>2013-05-07T08:20:09.000Z</time>
      </trkpt>
      <trkpt lat="45.16416" lon="5.9818">
        <ele>2756.1</ele>
        <time>2013-05-07T08:20:29.000Z</time>
      </trkpt>
      <trkpt lat="45.16419" lon="5.9819">
        <ele>2757.1</ele>
        <time>2013-05-07T08:20:39.000Z</time>
      </trkpt>
      <trkpt lat="45.16423" lon="5.98198">
        <ele>2758.7</ele>
        <time>2013-05-07T08:20:49.000Z</time>
      </trkpt>
      <trkpt lat="45.16427" lon="5.98205">
        <ele>2760.8</ele>
        <time>2013-05-07T08:20:59.000Z</time>
      </trkpt>
      <trkpt lat="45.16431" lon="5.98213">
        <ele>2762.8</ele>
        <time>2013-05-07T08:21:09.000Z</time>
      </trkpt>
      <trkpt lat="45.16435" lon="5.98219">
        <ele>2764.3</ele>
        <time>2013-05-07T08:21:19.000Z</time>
      </trkpt>
      <trkpt lat="45.16439" lon="5.98226">
        <ele>2765.8</ele>
        <time>2013-05-07T08:21:29.000Z</time>
      </trkpt>
      <trkpt lat="45.1644" lon="5.98224">
        <ele>2764.8</ele>
        <time>2013-05-07T08:22:29.000Z</time>
      </trkpt>
      <trkpt lat="45.16443" lon="5.98229">
        <ele>2766</ele>
        <time>2013-05-07T08:22:39.000Z</time>
      </trkpt>
      <trkpt lat="45.16448" lon="5.98236">
        <ele>2767.8</ele>
        <time>2013-05-07T08:22:49.000Z</time>
      </trkpt>
      <trkpt lat="45.16452" lon="5.98244">
        <ele>2769.9</ele>
        <time>2013-05-07T08:22:59.000Z</time>
      </trkpt>
      <trkpt lat="45.16456" lon="5.98248">
        <ele>2770.4</ele>
        <time>2013-05-07T08:23:09.000Z</time>
      </trkpt>
      <trkpt lat="45.16459" lon="5.9825">
        <ele>2770.4</ele>
        <time>2013-05-07T08:23:19.000Z</time>
      </trkpt>
      <trkpt lat="45.16461" lon="5.98252">
        <ele>2770.4</ele>
        <time>2013-05-07T08:23:29.000Z</time>
      </trkpt>
      <trkpt lat="45.16463" lon="5.9825">
        <ele>2769.4</ele>
        <time>2013-05-07T08:23:59.000Z</time>
      </trkpt>
      <trkpt lat="45.16466" lon="5.98255">
        <ele>2770.3</ele>
        <time>2013-05-07T08:24:09.000Z</time>
      </trkpt>
      <trkpt lat="45.1647" lon="5.98259">
        <ele>2771.2</ele>
        <time>2013-05-07T08:24:19.000Z</time>
      </trkpt>
      <trkpt lat="45.16474" lon="5.98264">
        <ele>2772.2</ele>
        <time>2013-05-07T08:24:29.000Z</time>
      </trkpt>
      <trkpt lat="45.16471" lon="5.98263">
        <ele>2772.6</ele>
        <time>2013-05-07T08:25:39.000Z</time>
      </trkpt>
      <trkpt lat="45.16469" lon="5.98266">
        <ele>2774</ele>
        <time>2013-05-07T08:25:49.000Z</time>
      </trkpt>
      <trkpt lat="45.16466" lon="5.98265">
        <ele>2774.3</ele>
        <time>2013-05-07T08:27:09.000Z</time>
      </trkpt>
      <trkpt lat="45.16461" lon="5.98261">
        <ele>2774</ele>
        <time>2013-05-07T08:27:19.000Z</time>
      </trkpt>
      <trkpt lat="45.16457" lon="5.98261">
        <ele>2775.1</ele>
        <time>2013-05-07T08:27:29.000Z</time>
      </trkpt>
      <trkpt lat="45.16459" lon="5.98268">
        <ele>2777.1</ele>
        <time>2013-05-07T08:27:39.000Z</time>
      </trkpt>
      <trkpt lat="45.16468" lon="5.98262">
        <ele>2772.8</ele>
        <time>2013-05-07T08:27:49.000Z</time>
      </trkpt>
      <trkpt lat="45.16473" lon="5.98271">
        <ele>2775.2</ele>
        <time>2013-05-07T08:27:59.000Z</time>
      </trkpt>
      <trkpt lat="45.16477" lon="5.98277">
        <ele>2776.9</ele>
        <time>2013-05-07T08:28:09.000Z</time>
      </trkpt>
      <trkpt lat="45.16481" lon="5.98282">
        <ele>2777.9</ele>
        <time>2013-05-07T08:28:19.000Z</time>
      </trkpt>
      <trkpt lat="45.16484" lon="5.98287">
        <ele>2778.8</ele>
        <time>2013-05-07T08:28:29.000Z</time>
      </trkpt>
      <trkpt lat="45.16488" lon="5.98292">
        <ele>2779.5</ele>
        <time>2013-05-07T08:28:39.000Z</time>
      </trkpt>
      <trkpt lat="45.16491" lon="5.98297">
        <ele>2780.6</ele>
        <time>2013-05-07T08:28:49.000Z</time>
      </trkpt>
      <trkpt lat="45.16492" lon="5.98304">
        <ele>2782.3</ele>
        <time>2013-05-07T08:28:59.000Z</time>
      </trkpt>
      <trkpt lat="45.1649" lon="5.98309">
        <ele>2783.9</ele>
        <time>2013-05-07T08:29:09.000Z</time>
      </trkpt>
      <trkpt lat="45.1649" lon="5.98316">
        <ele>2785.8</ele>
        <time>2013-05-07T08:29:19.000Z</time>
      </trkpt>
      <trkpt lat="45.16489" lon="5.98322">
        <ele>2787.6</ele>
        <time>2013-05-07T08:29:29.000Z</time>
      </trkpt>
      <trkpt lat="45.16489" lon="5.98329">
        <ele>2789.2</ele>
        <time>2013-05-07T08:29:39.000Z</time>
      </trkpt>
      <trkpt lat="45.1649" lon="5.98337">
        <ele>2791.1</ele>
        <time>2013-05-07T08:29:49.000Z</time>
      </trkpt>
      <trkpt lat="45.16491" lon="5.98344">
        <ele>2793</ele>
        <time>2013-05-07T08:29:59.000Z</time>
      </trkpt>
      <trkpt lat="45.16491" lon="5.9835">
        <ele>2795.1</ele>
        <time>2013-05-07T08:30:09.000Z</time>
      </trkpt>
      <trkpt lat="45.16491" lon="5.9835">
        <ele>2795</ele>
        <time>2013-05-07T08:30:29.000Z</time>
      </trkpt>
      <trkpt lat="45.16486" lon="5.98353">
        <ele>2796.7</ele>
        <time>2013-05-07T08:30:39.000Z</time>
      </trkpt>
      <trkpt lat="45.16478" lon="5.98356">
        <ele>2798.8</ele>
        <time>2013-05-07T08:30:49.000Z</time>
      </trkpt>
      <trkpt lat="45.16473" lon="5.98358">
        <ele>2800.1</ele>
        <time>2013-05-07T08:30:59.000Z</time>
      </trkpt>
      <trkpt lat="45.16469" lon="5.98363">
        <ele>2802</ele>
        <time>2013-05-07T08:31:09.000Z</time>
      </trkpt>
      <trkpt lat="45.1647" lon="5.98371">
        <ele>2803.5</ele>
        <time>2013-05-07T08:31:19.000Z</time>
      </trkpt>
      <trkpt lat="45.16471" lon="5.9838">
        <ele>2805.3</ele>
        <time>2013-05-07T08:31:29.000Z</time>
      </trkpt>
      <trkpt lat="45.16471" lon="5.98387">
        <ele>2806.8</ele>
        <time>2013-05-07T08:31:39.000Z</time>
      </trkpt>
      <trkpt lat="45.1647" lon="5.98391">
        <ele>2807.5</ele>
        <time>2013-05-07T08:32:29.000Z</time>
      </trkpt>
      <trkpt lat="45.16465" lon="5.98398">
        <ele>2809</ele>
        <time>2013-05-07T08:32:39.000Z</time>
      </trkpt>
      <trkpt lat="45.16462" lon="5.98404">
        <ele>2810.2</ele>
        <time>2013-05-07T08:32:49.000Z</time>
      </trkpt>
      <trkpt lat="45.16457" lon="5.98413">
        <ele>2811.9</ele>
        <time>2013-05-07T08:32:59.000Z</time>
      </trkpt>
      <trkpt lat="45.16454" lon="5.9842">
        <ele>2820</ele>
        <time>2013-05-07T08:33:09.000Z</time>
      </trkpt>
      <trkpt lat="45.16451" lon="5.98424">
        <ele>2820</ele>
        <time>2013-05-07T08:33:19.000Z</time>
      </trkpt>
      <trkpt lat="45.16445" lon="5.98433">
        <ele>2820</ele>
        <time>2013-05-07T08:33:29.000Z</time>
      </trkpt>
      <trkpt lat="45.16441" lon="5.98439">
        <ele>2820</ele>
        <time>2013-05-07T08:33:39.000Z</time>
      </trkpt>
      <trkpt lat="45.16436" lon="5.98446">
        <ele>2820</ele>
        <time>2013-05-07T08:33:49.000Z</time>
      </trkpt>
      <trkpt lat="45.16431" lon="5.98453">
        <ele>2820</ele>
        <time>2013-05-07T08:33:59.000Z</time>
      </trkpt>
      <trkpt lat="45.16427" lon="5.98461">
        <ele>2820</ele>
        <time>2013-05-07T08:34:09.000Z</time>
      </trkpt>
      <trkpt lat="45.16423" lon="5.98468">
        <ele>2820</ele>
        <time>2013-05-07T08:34:19.000Z</time>
      </trkpt>
      <trkpt lat="45.16418" lon="5.98474">
        <ele>2820</ele>
        <time>2013-05-07T08:34:29.000Z</time>
      </trkpt>
      <trkpt lat="45.16413" lon="5.9848">
        <ele>2820</ele>
        <time>2013-05-07T08:34:39.000Z</time>
      </trkpt>
      <trkpt lat="45.16409" lon="5.98484">
        <ele>2820</ele>
        <time>2013-05-07T08:34:49.000Z</time>
      </trkpt>
      <trkpt lat="45.16404" lon="5.9849">
        <ele>2820</ele>
        <time>2013-05-07T08:34:59.000Z</time>
      </trkpt>
      <trkpt lat="45.16401" lon="5.98497">
        <ele>2820</ele>
        <time>2013-05-07T08:35:09.000Z</time>
      </trkpt>
      <trkpt lat="45.16397" lon="5.98505">
        <ele>2820</ele>
        <time>2013-05-07T08:35:19.000Z</time>
      </trkpt>
      <trkpt lat="45.16394" lon="5.98513">
        <ele>2819</ele>
        <time>2013-05-07T08:35:29.000Z</time>
      </trkpt>
      <trkpt lat="45.16394" lon="5.98523">
        <ele>2819</ele>
        <time>2013-05-07T08:35:39.000Z</time>
      </trkpt>
      <trkpt lat="45.16391" lon="5.98529">
        <ele>2819</ele>
        <time>2013-05-07T08:35:49.000Z</time>
      </trkpt>
      <trkpt lat="45.16388" lon="5.98537">
        <ele>2819</ele>
        <time>2013-05-07T08:35:59.000Z</time>
      </trkpt>
      <trkpt lat="45.16384" lon="5.98545">
        <ele>2819</ele>
        <time>2013-05-07T08:36:09.000Z</time>
      </trkpt>
      <trkpt lat="45.16382" lon="5.98552">
        <ele>2819</ele>
        <time>2013-05-07T08:36:19.000Z</time>
      </trkpt>
      <trkpt lat="45.16381" lon="5.98553">
        <ele>2819</ele>
        <time>2013-05-07T08:36:29.000Z</time>
      </trkpt>
      <trkpt lat="45.16378" lon="5.98562">
        <ele>2819</ele>
        <time>2013-05-07T08:36:39.000Z</time>
      </trkpt>
      <trkpt lat="45.16373" lon="5.98573">
        <ele>2819</ele>
        <time>2013-05-07T08:36:49.000Z</time>
      </trkpt>
      <trkpt lat="45.16368" lon="5.98584">
        <ele>2818</ele>
        <time>2013-05-07T08:36:59.000Z</time>
      </trkpt>
      <trkpt lat="45.16364" lon="5.9859">
        <ele>2818</ele>
        <time>2013-05-07T08:37:09.000Z</time>
      </trkpt>
      <trkpt lat="45.16361" lon="5.98596">
        <ele>2818</ele>
        <time>2013-05-07T08:37:19.000Z</time>
      </trkpt>
      <trkpt lat="45.16356" lon="5.98596">
        <ele>2818</ele>
        <time>2013-05-07T08:37:29.000Z</time>
      </trkpt>
      <trkpt lat="45.16356" lon="5.98603">
        <ele>2818</ele>
        <time>2013-05-07T08:37:39.000Z</time>
      </trkpt>
      <trkpt lat="45.16359" lon="5.98611">
        <ele>2818</ele>
        <time>2013-05-07T08:37:49.000Z</time>
      </trkpt>
      <trkpt lat="45.16359" lon="5.98611">
        <ele>2818</ele>
        <time>2013-05-07T08:40:49.000Z</time>
      </trkpt>
      <trkpt lat="45.16351" lon="5.98613">
        <ele>2818</ele>
        <time>2013-05-07T08:40:59.000Z</time>
      </trkpt>
      <trkpt lat="45.16355" lon="5.98612">
        <ele>2818</ele>
        <time>2013-05-07T08:41:19.000Z</time>
      </trkpt>
      <trkpt lat="45.16357" lon="5.9861">
        <ele>2818</ele>
        <time>2013-05-07T08:41:29.000Z</time>
      </trkpt>
      <trkpt lat="45.16361" lon="5.9861">
        <ele>2818</ele>
        <time>2013-05-07T08:44:29.000Z</time>
      </trkpt>
      <trkpt lat="45.16362" lon="5.98609">
        <ele>2818</ele>
        <time>2013-05-07T08:44:39.000Z</time>
      </trkpt>
      <trkpt lat="45.16358" lon="5.98612">
        <ele>2818</ele>
        <time>2013-05-07T08:45:59.000Z</time>
      </trkpt>
      <trkpt lat="45.16357" lon="5.98612">
        <ele>2818</ele>
        <time>2013-05-07T08:46:09.000Z</time>
      </trkpt>
      <trkpt lat="45.1636" lon="5.98607">
        <ele>2818</ele>
        <time>2013-05-07T08:47:49.000Z</time>
      </trkpt>
      <trkpt lat="45.1636" lon="5.98607">
        <ele>2818</ele>
        <time>2013-05-07T08:47:59.000Z</time>
      </trkpt>
      <trkpt lat="45.16357" lon="5.98603">
        <ele>2818</ele>
        <time>2013-05-07T08:49:59.000Z</time>
      </trkpt>
      <trkpt lat="45.16355" lon="5.98594">
        <ele>2818</ele>
        <time>2013-05-07T08:50:09.000Z</time>
      </trkpt>
      <trkpt lat="45.16355" lon="5.98595">
        <ele>2818</ele>
        <time>2013-05-07T08:50:39.000Z</time>
      </trkpt>
      <trkpt lat="45.16363" lon="5.98591">
        <ele>2818</ele>
        <time>2013-05-07T08:50:49.000Z</time>
      </trkpt>
      <trkpt lat="45.16371" lon="5.9856">
        <ele>2819</ele>
        <time>2013-05-07T08:50:59.000Z</time>
      </trkpt>
      <trkpt lat="45.16393" lon="5.98531">
        <ele>2819</ele>
        <time>2013-05-07T08:51:09.000Z</time>
      </trkpt>
      <trkpt lat="45.16413" lon="5.98463">
        <ele>2820</ele>
        <time>2013-05-07T08:51:19.000Z</time>
      </trkpt>
      <trkpt lat="45.16451" lon="5.98449">
        <ele>2820</ele>
        <time>2013-05-07T08:51:29.000Z</time>
      </trkpt>
      <trkpt lat="45.16478" lon="5.98416">
        <ele>2807.4</ele>
        <time>2013-05-07T08:51:39.000Z</time>
      </trkpt>
      <trkpt lat="45.16497" lon="5.98419">
        <ele>2820</ele>
        <time>2013-05-07T08:51:49.000Z</time>
      </trkpt>
      <trkpt lat="45.16522" lon="5.98391">
        <ele>2792.9</ele>
        <time>2013-05-07T08:51:59.000Z</time>
      </trkpt>
      <trkpt lat="45.16548" lon="5.9841">
        <ele>2786.5</ele>
        <time>2013-05-07T08:52:09.000Z</time>
      </trkpt>
      <trkpt lat="45.16595" lon="5.98415">
        <ele>2785.2</ele>
        <time>2013-05-07T08:52:19.000Z</time>
      </trkpt>
      <trkpt lat="45.16595" lon="5.98415">
        <ele>2785.2</ele>
        <time>2013-05-07T08:52:29.000Z</time>
      </trkpt>
      <trkpt lat="45.16598" lon="5.98394">
        <ele>2782.6</ele>
        <time>2013-05-07T08:52:39.000Z</time>
      </trkpt>
      <trkpt lat="45.1658" lon="5.98322">
        <ele>2774.4</ele>
        <time>2013-05-07T08:52:49.000Z</time>
      </trkpt>
      <trkpt lat="45.16571" lon="5.98264">
        <ele>2770.7</ele>
        <time>2013-05-07T08:52:59.000Z</time>
      </trkpt>
      <trkpt lat="45.16551" lon="5.982">
        <ele>2761.4</ele>
        <time>2013-05-07T08:53:09.000Z</time>
      </trkpt>
      <trkpt lat="45.16545" lon="5.98159">
        <ele>2758.7</ele>
        <time>2013-05-07T08:53:19.000Z</time>
      </trkpt>
      <trkpt lat="45.16545" lon="5.98159">
        <ele>2758.7</ele>
        <time>2013-05-07T08:53:49.000Z</time>
      </trkpt>
      <trkpt lat="45.16534" lon="5.98127">
        <ele>2750.9</ele>
        <time>2013-05-07T08:53:59.000Z</time>
      </trkpt>
      <trkpt lat="45.16532" lon="5.98064">
        <ele>2735.9</ele>
        <time>2013-05-07T08:54:09.000Z</time>
      </trkpt>
      <trkpt lat="45.16545" lon="5.97966">
        <ele>2721.8</ele>
        <time>2013-05-07T08:54:19.000Z</time>
      </trkpt>
      <trkpt lat="45.16551" lon="5.97908">
        <ele>2721.1</ele>
        <time>2013-05-07T08:54:29.000Z</time>
      </trkpt>
      <trkpt lat="45.16553" lon="5.97834">
        <ele>2712</ele>
        <time>2013-05-07T08:54:39.000Z</time>
      </trkpt>
      <trkpt lat="45.16549" lon="5.97741">
        <ele>2702.4</ele>
        <time>2013-05-07T08:54:49.000Z</time>
      </trkpt>
      <trkpt lat="45.16548" lon="5.97673">
        <ele>2683.4</ele>
        <time>2013-05-07T08:54:59.000Z</time>
      </trkpt>
      <trkpt lat="45.16532" lon="5.97619">
        <ele>2663.6</ele>
        <time>2013-05-07T08:55:09.000Z</time>
      </trkpt>
      <trkpt lat="45.16529" lon="5.97561">
        <ele>2647.3</ele>
        <time>2013-05-07T08:55:19.000Z</time>
      </trkpt>
      <trkpt lat="45.16522" lon="5.97528">
        <ele>2640.1</ele>
        <time>2013-05-07T08:55:29.000Z</time>
      </trkpt>
      <trkpt lat="45.16488" lon="5.97492">
        <ele>2623.7</ele>
        <time>2013-05-07T08:55:39.000Z</time>
      </trkpt>
      <trkpt lat="45.16481" lon="5.97479">
        <ele>2620</ele>
        <time>2013-05-07T08:55:49.000Z</time>
      </trkpt>
      <trkpt lat="45.16481" lon="5.97479">
        <ele>2620</ele>
        <time>2013-05-07T08:56:49.000Z</time>
      </trkpt>
      <trkpt lat="45.16479" lon="5.97473">
        <ele>2618.4</ele>
        <time>2013-05-07T08:56:59.000Z</time>
      </trkpt>
      <trkpt lat="45.16474" lon="5.9745">
        <ele>2615.3</ele>
        <time>2013-05-07T08:57:09.000Z</time>
      </trkpt>
      <trkpt lat="45.16466" lon="5.97399">
        <ele>2604</ele>
        <time>2013-05-07T08:57:19.000Z</time>
      </trkpt>
      <trkpt lat="45.16454" lon="5.97356">
        <ele>2592.8</ele>
        <time>2013-05-07T08:57:29.000Z</time>
      </trkpt>
      <trkpt lat="45.16454" lon="5.97351">
        <ele>2591.6</ele>
        <time>2013-05-07T08:58:39.000Z</time>
      </trkpt>
      <trkpt lat="45.16436" lon="5.97309">
        <ele>2548</ele>
        <time>2013-05-07T08:58:49.000Z</time>
      </trkpt>
      <trkpt lat="45.16432" lon="5.97263">
        <ele>2548</ele>
        <time>2013-05-07T08:58:59.000Z</time>
      </trkpt>
      <trkpt lat="45.16446" lon="5.97225">
        <ele>2543</ele>
        <time>2013-05-07T08:59:09.000Z</time>
      </trkpt>
      <trkpt lat="45.16446" lon="5.97225">
        <ele>2543</ele>
        <time>2013-05-07T08:59:19.000Z</time>
      </trkpt>
      <trkpt lat="45.16455" lon="5.97222">
        <ele>2543</ele>
        <time>2013-05-07T08:59:29.000Z</time>
      </trkpt>
      <trkpt lat="45.16474" lon="5.97245">
        <ele>2545</ele>
        <time>2013-05-07T08:59:39.000Z</time>
      </trkpt>
      <trkpt lat="45.16479" lon="5.9725">
        <ele>2546</ele>
        <time>2013-05-07T08:59:49.000Z</time>
      </trkpt>
      <trkpt lat="45.16479" lon="5.9725">
        <ele>2546</ele>
        <time>2013-05-07T08:59:59.000Z</time>
      </trkpt>
      <trkpt lat="45.16484" lon="5.97253">
        <ele>2548</ele>
        <time>2013-05-07T09:00:09.000Z</time>
      </trkpt>
      <trkpt lat="45.165" lon="5.97252">
        <ele>2548</ele>
        <time>2013-05-07T09:00:19.000Z</time>
      </trkpt>
      <trkpt lat="45.1652" lon="5.97274">
        <ele>2534</ele>
        <time>2013-05-07T09:00:29.000Z</time>
      </trkpt>
      <trkpt lat="45.16553" lon="5.97281">
        <ele>2525</ele>
        <time>2013-05-07T09:00:39.000Z</time>
      </trkpt>
      <trkpt lat="45.16585" lon="5.97307">
        <ele>2515</ele>
        <time>2013-05-07T09:00:49.000Z</time>
      </trkpt>
      <trkpt lat="45.16621" lon="5.97337">
        <ele>2522</ele>
        <time>2013-05-07T09:00:59.000Z</time>
      </trkpt>
      <trkpt lat="45.16684" lon="5.97366">
        <ele>2521</ele>
        <time>2013-05-07T09:01:09.000Z</time>
      </trkpt>
      <trkpt lat="45.16728" lon="5.97356">
        <ele>2522</ele>
        <time>2013-05-07T09:01:19.000Z</time>
      </trkpt>
      <trkpt lat="45.16706" lon="5.97312">
        <ele>2510</ele>
        <time>2013-05-07T09:01:29.000Z</time>
      </trkpt>
      <trkpt lat="45.16672" lon="5.97236">
        <ele>2496</ele>
        <time>2013-05-07T09:01:39.000Z</time>
      </trkpt>
      <trkpt lat="45.16682" lon="5.97144">
        <ele>2492</ele>
        <time>2013-05-07T09:01:49.000Z</time>
      </trkpt>
      <trkpt lat="45.16656" lon="5.97068">
        <ele>2472</ele>
        <time>2013-05-07T09:01:59.000Z</time>
      </trkpt>
      <trkpt lat="45.16656" lon="5.97068">
        <ele>2472</ele>
        <time>2013-05-07T09:02:19.000Z</time>
      </trkpt>
      <trkpt lat="45.16651" lon="5.97069">
        <ele>2471</ele>
        <time>2013-05-07T09:02:29.000Z</time>
      </trkpt>
      <trkpt lat="45.16649" lon="5.97066">
        <ele>2471</ele>
        <time>2013-05-07T09:02:39.000Z</time>
      </trkpt>
      <trkpt lat="45.16619" lon="5.97012">
        <ele>2467</ele>
        <time>2013-05-07T09:02:49.000Z</time>
      </trkpt>
      <trkpt lat="45.16601" lon="5.96948">
        <ele>2457</ele>
        <time>2013-05-07T09:02:59.000Z</time>
      </trkpt>
      <trkpt lat="45.166" lon="5.9687">
        <ele>2448</ele>
        <time>2013-05-07T09:03:09.000Z</time>
      </trkpt>
      <trkpt lat="45.16589" lon="5.96802">
        <ele>2441</ele>
        <time>2013-05-07T09:03:19.000Z</time>
      </trkpt>
      <trkpt lat="45.16592" lon="5.96741">
        <ele>2433</ele>
        <time>2013-05-07T09:03:29.000Z</time>
      </trkpt>
      <trkpt lat="45.16586" lon="5.96662">
        <ele>2422</ele>
        <time>2013-05-07T09:03:39.000Z</time>
      </trkpt>
      <trkpt lat="45.16574" lon="5.96581">
        <ele>2415</ele>
        <time>2013-05-07T09:03:49.000Z</time>
      </trkpt>
      <trkpt lat="45.16564" lon="5.96535">
        <ele>2411</ele>
        <time>2013-05-07T09:03:59.000Z</time>
      </trkpt>
      <trkpt lat="45.16548" lon="5.96494">
        <ele>2407</ele>
        <time>2013-05-07T09:04:09.000Z</time>
      </trkpt>
      <trkpt lat="45.16523" lon="5.96385">
        <ele>2404</ele>
        <time>2013-05-07T09:04:19.000Z</time>
      </trkpt>
      <trkpt lat="45.16515" lon="5.96359">
        <ele>2405</ele>
        <time>2013-05-07T09:04:29.000Z</time>
      </trkpt>
      <trkpt lat="45.16514" lon="5.96349">
        <ele>2406</ele>
        <time>2013-05-07T09:04:39.000Z</time>
      </trkpt>
      <trkpt lat="45.16505" lon="5.96337">
        <ele>2405</ele>
        <time>2013-05-07T09:04:49.000Z</time>
      </trkpt>
      <trkpt lat="45.16502" lon="5.9633">
        <ele>2406</ele>
        <time>2013-05-07T09:04:59.000Z</time>
      </trkpt>
      <trkpt lat="45.16502" lon="5.9633">
        <ele>2406</ele>
        <time>2013-05-07T09:05:09.000Z</time>
      </trkpt>
      <trkpt lat="45.16496" lon="5.96315">
        <ele>2403</ele>
        <time>2013-05-07T09:05:19.000Z</time>
      </trkpt>
      <trkpt lat="45.16495" lon="5.96305">
        <ele>2403</ele>
        <time>2013-05-07T09:05:29.000Z</time>
      </trkpt>
      <trkpt lat="45.16492" lon="5.96299">
        <ele>2403</ele>
        <time>2013-05-07T09:05:39.000Z</time>
      </trkpt>
      <trkpt lat="45.16485" lon="5.96276">
        <ele>2404</ele>
        <time>2013-05-07T09:05:49.000Z</time>
      </trkpt>
      <trkpt lat="45.1648" lon="5.96253">
        <ele>2405</ele>
        <time>2013-05-07T09:05:59.000Z</time>
      </trkpt>
      <trkpt lat="45.16472" lon="5.96247">
        <ele>2409</ele>
        <time>2013-05-07T09:06:09.000Z</time>
      </trkpt>
      <trkpt lat="45.16468" lon="5.96241">
        <ele>2408</ele>
        <time>2013-05-07T09:06:19.000Z</time>
      </trkpt>
      <trkpt lat="45.16465" lon="5.96235">
        <ele>2408</ele>
        <time>2013-05-07T09:06:29.000Z</time>
      </trkpt>
      <trkpt lat="45.16465" lon="5.96235">
        <ele>2408</ele>
        <time>2013-05-07T09:06:39.000Z</time>
      </trkpt>
      <trkpt lat="45.1646" lon="5.96227">
        <ele>2408</ele>
        <time>2013-05-07T09:06:49.000Z</time>
      </trkpt>
      <trkpt lat="45.16455" lon="5.9622">
        <ele>2408</ele>
        <time>2013-05-07T09:06:59.000Z</time>
      </trkpt>
      <trkpt lat="45.16451" lon="5.96214">
        <ele>2407</ele>
        <time>2013-05-07T09:07:09.000Z</time>
      </trkpt>
      <trkpt lat="45.16445" lon="5.96201">
        <ele>2407</ele>
        <time>2013-05-07T09:07:19.000Z</time>
      </trkpt>
      <trkpt lat="45.16436" lon="5.96175">
        <ele>2406</ele>
        <time>2013-05-07T09:07:29.000Z</time>
      </trkpt>
      <trkpt lat="45.16424" lon="5.96145">
        <ele>2412</ele>
        <time>2013-05-07T09:07:39.000Z</time>
      </trkpt>
      <trkpt lat="45.16409" lon="5.96113">
        <ele>2403</ele>
        <time>2013-05-07T09:07:49.000Z</time>
      </trkpt>
      <trkpt lat="45.16392" lon="5.96068">
        <ele>2409</ele>
        <time>2013-05-07T09:07:59.000Z</time>
      </trkpt>
      <trkpt lat="45.16378" lon="5.96019">
        <ele>2408</ele>
        <time>2013-05-07T09:08:09.000Z</time>
      </trkpt>
      <trkpt lat="45.16364" lon="5.95958">
        <ele>2407</ele>
        <time>2013-05-07T09:08:19.000Z</time>
      </trkpt>
      <trkpt lat="45.16355" lon="5.95903">
        <ele>2400</ele>
        <time>2013-05-07T09:08:29.000Z</time>
      </trkpt>
      <trkpt lat="45.16353" lon="5.95832">
        <ele>2388</ele>
        <time>2013-05-07T09:08:39.000Z</time>
      </trkpt>
      <trkpt lat="45.16376" lon="5.95804">
        <ele>2387</ele>
        <time>2013-05-07T09:08:49.000Z</time>
      </trkpt>
      <trkpt lat="45.16403" lon="5.95784">
        <ele>2386</ele>
        <time>2013-05-07T09:08:59.000Z</time>
      </trkpt>
      <trkpt lat="45.16426" lon="5.95758">
        <ele>2389</ele>
        <time>2013-05-07T09:09:09.000Z</time>
      </trkpt>
      <trkpt lat="45.16451" lon="5.9565">
        <ele>2380</ele>
        <time>2013-05-07T09:09:19.000Z</time>
      </trkpt>
      <trkpt lat="45.16452" lon="5.95594">
        <ele>2380</ele>
        <time>2013-05-07T09:09:29.000Z</time>
      </trkpt>
      <trkpt lat="45.16454" lon="5.95557">
        <ele>2378</ele>
        <time>2013-05-07T09:09:39.000Z</time>
      </trkpt>
      <trkpt lat="45.16454" lon="5.95526">
        <ele>2376</ele>
        <time>2013-05-07T09:09:49.000Z</time>
      </trkpt>
      <trkpt lat="45.1646" lon="5.95489">
        <ele>2373</ele>
        <time>2013-05-07T09:09:59.000Z</time>
      </trkpt>
      <trkpt lat="45.16477" lon="5.95456">
        <ele>2373</ele>
        <time>2013-05-07T09:10:09.000Z</time>
      </trkpt>
      <trkpt lat="45.16492" lon="5.9543">
        <ele>2372</ele>
        <time>2013-05-07T09:10:19.000Z</time>
      </trkpt>
      <trkpt lat="45.165" lon="5.95417">
        <ele>2371</ele>
        <time>2013-05-07T09:10:29.000Z</time>
      </trkpt>
      <trkpt lat="45.16504" lon="5.95411">
        <ele>2370</ele>
        <time>2013-05-07T09:10:39.000Z</time>
      </trkpt>
      <trkpt lat="45.16504" lon="5.95411">
        <ele>2370</ele>
        <time>2013-05-07T09:14:19.000Z</time>
      </trkpt>
      <trkpt lat="45.16495" lon="5.95416">
        <ele>2371</ele>
        <time>2013-05-07T09:14:29.000Z</time>
      </trkpt>
      <trkpt lat="45.16498" lon="5.95414">
        <ele>2371</ele>
        <time>2013-05-07T09:15:19.000Z</time>
      </trkpt>
      <trkpt lat="45.16499" lon="5.95413">
        <ele>2371</ele>
        <time>2013-05-07T09:15:29.000Z</time>
      </trkpt>
      <trkpt lat="45.16503" lon="5.95411">
        <ele>2370</ele>
        <time>2013-05-07T09:19:39.000Z</time>
      </trkpt>
      <trkpt lat="45.16505" lon="5.95415">
        <ele>2370</ele>
        <time>2013-05-07T09:19:49.000Z</time>
      </trkpt>
      <trkpt lat="45.16503" lon="5.9541">
        <ele>2369</ele>
        <time>2013-05-07T09:20:19.000Z</time>
      </trkpt>
      <trkpt lat="45.16503" lon="5.95409">
        <ele>2369</ele>
        <time>2013-05-07T09:20:29.000Z</time>
      </trkpt>
      <trkpt lat="45.16506" lon="5.95407">
        <ele>2369</ele>
        <time>2013-05-07T09:20:39.000Z</time>
      </trkpt>
      <trkpt lat="45.16509" lon="5.95406">
        <ele>2368</ele>
        <time>2013-05-07T09:20:49.000Z</time>
      </trkpt>
      <trkpt lat="45.1651" lon="5.95404">
        <ele>2368</ele>
        <time>2013-05-07T09:21:09.000Z</time>
      </trkpt>
      <trkpt lat="45.16505" lon="5.9541">
        <ele>2369</ele>
        <time>2013-05-07T09:21:19.000Z</time>
      </trkpt>
      <trkpt lat="45.16503" lon="5.95411">
        <ele>2370</ele>
        <time>2013-05-07T09:23:29.000Z</time>
      </trkpt>
      <trkpt lat="45.1651" lon="5.95413">
        <ele>2369</ele>
        <time>2013-05-07T09:23:39.000Z</time>
      </trkpt>
      <trkpt lat="45.16517" lon="5.95416">
        <ele>2368</ele>
        <time>2013-05-07T09:23:49.000Z</time>
      </trkpt>
      <trkpt lat="45.16523" lon="5.95419">
        <ele>2380</ele>
        <time>2013-05-07T09:23:59.000Z</time>
      </trkpt>
      <trkpt lat="45.16528" lon="5.95422">
        <ele>2381</ele>
        <time>2013-05-07T09:24:09.000Z</time>
      </trkpt>
      <trkpt lat="45.16531" lon="5.95423">
        <ele>2382</ele>
        <time>2013-05-07T09:24:19.000Z</time>
      </trkpt>
      <trkpt lat="45.16532" lon="5.95422">
        <ele>2382</ele>
        <time>2013-05-07T09:24:29.000Z</time>
      </trkpt>
      <trkpt lat="45.16534" lon="5.95427">
        <ele>2383</ele>
        <time>2013-05-07T09:25:19.000Z</time>
      </trkpt>
      <trkpt lat="45.16531" lon="5.95428">
        <ele>2382</ele>
        <time>2013-05-07T09:25:29.000Z</time>
      </trkpt>
      <trkpt lat="45.16531" lon="5.95431">
        <ele>2382</ele>
        <time>2013-05-07T09:25:39.000Z</time>
      </trkpt>
      <trkpt lat="45.16532" lon="5.95435">
        <ele>2383</ele>
        <time>2013-05-07T09:25:49.000Z</time>
      </trkpt>
      <trkpt lat="45.16529" lon="5.95438">
        <ele>2383</ele>
        <time>2013-05-07T09:25:59.000Z</time>
      </trkpt>
      <trkpt lat="45.16525" lon="5.95435">
        <ele>2382</ele>
        <time>2013-05-07T09:26:09.000Z</time>
      </trkpt>
      <trkpt lat="45.16529" lon="5.95433">
        <ele>2382</ele>
        <time>2013-05-07T09:26:29.000Z</time>
      </trkpt>
      <trkpt lat="45.1653" lon="5.95427">
        <ele>2382</ele>
        <time>2013-05-07T09:26:39.000Z</time>
      </trkpt>
      <trkpt lat="45.16536" lon="5.95429">
        <ele>2383</ele>
        <time>2013-05-07T09:26:49.000Z</time>
      </trkpt>
      <trkpt lat="45.16543" lon="5.9543">
        <ele>2384</ele>
        <time>2013-05-07T09:26:59.000Z</time>
      </trkpt>
      <trkpt lat="45.16549" lon="5.9543">
        <ele>2385</ele>
        <time>2013-05-07T09:27:09.000Z</time>
      </trkpt>
      <trkpt lat="45.16554" lon="5.95431">
        <ele>2385</ele>
        <time>2013-05-07T09:27:19.000Z</time>
      </trkpt>
      <trkpt lat="45.16559" lon="5.95433">
        <ele>2386</ele>
        <time>2013-05-07T09:27:29.000Z</time>
      </trkpt>
      <trkpt lat="45.16566" lon="5.95437">
        <ele>2387</ele>
        <time>2013-05-07T09:27:39.000Z</time>
      </trkpt>
      <trkpt lat="45.16567" lon="5.95444">
        <ele>2387</ele>
        <time>2013-05-07T09:27:49.000Z</time>
      </trkpt>
      <trkpt lat="45.16566" lon="5.95451">
        <ele>2388</ele>
        <time>2013-05-07T09:27:59.000Z</time>
      </trkpt>
      <trkpt lat="45.16564" lon="5.9546">
        <ele>2389</ele>
        <time>2013-05-07T09:28:09.000Z</time>
      </trkpt>
      <trkpt lat="45.16564" lon="5.95463">
        <ele>2389</ele>
        <time>2013-05-07T09:28:19.000Z</time>
      </trkpt>
      <trkpt lat="45.16569" lon="5.95463">
        <ele>2390</ele>
        <time>2013-05-07T09:28:29.000Z</time>
      </trkpt>
      <trkpt lat="45.16573" lon="5.95459">
        <ele>2390</ele>
        <time>2013-05-07T09:28:39.000Z</time>
      </trkpt>
      <trkpt lat="45.16576" lon="5.95458">
        <ele>2390</ele>
        <time>2013-05-07T09:28:49.000Z</time>
      </trkpt>
      <trkpt lat="45.1658" lon="5.95467">
        <ele>2392</ele>
        <time>2013-05-07T09:28:59.000Z</time>
      </trkpt>
      <trkpt lat="45.16581" lon="5.95475">
        <ele>2394</ele>
        <time>2013-05-07T09:29:09.000Z</time>
      </trkpt>
      <trkpt lat="45.16577" lon="5.95481">
        <ele>2396</ele>
        <time>2013-05-07T09:29:19.000Z</time>
      </trkpt>
      <trkpt lat="45.16574" lon="5.95487">
        <ele>2397</ele>
        <time>2013-05-07T09:29:29.000Z</time>
      </trkpt>
      <trkpt lat="45.16573" lon="5.95494">
        <ele>2399</ele>
        <time>2013-05-07T09:29:39.000Z</time>
      </trkpt>
      <trkpt lat="45.16574" lon="5.95502">
        <ele>2404</ele>
        <time>2013-05-07T09:29:49.000Z</time>
      </trkpt>
      <trkpt lat="45.16576" lon="5.95509">
        <ele>2404</ele>
        <time>2013-05-07T09:29:59.000Z</time>
      </trkpt>
      <trkpt lat="45.16577" lon="5.95515">
        <ele>2404</ele>
        <time>2013-05-07T09:30:09.000Z</time>
      </trkpt>
      <trkpt lat="45.16579" lon="5.95521">
        <ele>2404</ele>
        <time>2013-05-07T09:30:19.000Z</time>
      </trkpt>
      <trkpt lat="45.16581" lon="5.95525">
        <ele>2404</ele>
        <time>2013-05-07T09:30:29.000Z</time>
      </trkpt>
      <trkpt lat="45.16583" lon="5.95534">
        <ele>2404</ele>
        <time>2013-05-07T09:30:39.000Z</time>
      </trkpt>
      <trkpt lat="45.16583" lon="5.95541">
        <ele>2405</ele>
        <time>2013-05-07T09:30:49.000Z</time>
      </trkpt>
      <trkpt lat="45.16582" lon="5.95548">
        <ele>2406</ele>
        <time>2013-05-07T09:30:59.000Z</time>
      </trkpt>
      <trkpt lat="45.16579" lon="5.9555">
        <ele>2406</ele>
        <time>2013-05-07T09:31:39.000Z</time>
      </trkpt>
      <trkpt lat="45.16577" lon="5.9555">
        <ele>2406</ele>
        <time>2013-05-07T09:31:49.000Z</time>
      </trkpt>
      <trkpt lat="45.1658" lon="5.95551">
        <ele>2406</ele>
        <time>2013-05-07T09:31:59.000Z</time>
      </trkpt>
      <trkpt lat="45.16582" lon="5.9555">
        <ele>2406</ele>
        <time>2013-05-07T09:32:09.000Z</time>
      </trkpt>
      <trkpt lat="45.16578" lon="5.95547">
        <ele>2405</ele>
        <time>2013-05-07T09:32:39.000Z</time>
      </trkpt>
      <trkpt lat="45.16576" lon="5.95548">
        <ele>2405</ele>
        <time>2013-05-07T09:32:49.000Z</time>
      </trkpt>
      <trkpt lat="45.16578" lon="5.95548">
        <ele>2406</ele>
        <time>2013-05-07T09:32:59.000Z</time>
      </trkpt>
      <trkpt lat="45.16585" lon="5.95544">
        <ele>2427</ele>
        <time>2013-05-07T09:33:09.000Z</time>
      </trkpt>
      <trkpt lat="45.1659" lon="5.95539">
        <ele>2427</ele>
        <time>2013-05-07T09:33:19.000Z</time>
      </trkpt>
      <trkpt lat="45.16596" lon="5.95536">
        <ele>2427</ele>
        <time>2013-05-07T09:33:29.000Z</time>
      </trkpt>
      <trkpt lat="45.16602" lon="5.95531">
        <ele>2427</ele>
        <time>2013-05-07T09:33:39.000Z</time>
      </trkpt>
      <trkpt lat="45.16607" lon="5.95529">
        <ele>2428</ele>
        <time>2013-05-07T09:33:49.000Z</time>
      </trkpt>
      <trkpt lat="45.16611" lon="5.95526">
        <ele>2428</ele>
        <time>2013-05-07T09:33:59.000Z</time>
      </trkpt>
      <trkpt lat="45.16615" lon="5.95524">
        <ele>2429</ele>
        <time>2013-05-07T09:34:09.000Z</time>
      </trkpt>
      <trkpt lat="45.16621" lon="5.9552">
        <ele>2430</ele>
        <time>2013-05-07T09:34:19.000Z</time>
      </trkpt>
      <trkpt lat="45.16626" lon="5.95513">
        <ele>2431</ele>
        <time>2013-05-07T09:34:29.000Z</time>
      </trkpt>
      <trkpt lat="45.16629" lon="5.95509">
        <ele>2432</ele>
        <time>2013-05-07T09:34:39.000Z</time>
      </trkpt>
      <trkpt lat="45.16634" lon="5.95509">
        <ele>2433</ele>
        <time>2013-05-07T09:34:49.000Z</time>
      </trkpt>
      <trkpt lat="45.1664" lon="5.95509">
        <ele>2434</ele>
        <time>2013-05-07T09:34:59.000Z</time>
      </trkpt>
      <trkpt lat="45.16639" lon="5.95514">
        <ele>2434</ele>
        <time>2013-05-07T09:35:09.000Z</time>
      </trkpt>
      <trkpt lat="45.16637" lon="5.9552">
        <ele>2434</ele>
        <time>2013-05-07T09:35:19.000Z</time>
      </trkpt>
      <trkpt lat="45.16637" lon="5.95528">
        <ele>2435</ele>
        <time>2013-05-07T09:35:29.000Z</time>
      </trkpt>
      <trkpt lat="45.16636" lon="5.95534">
        <ele>2435</ele>
        <time>2013-05-07T09:35:39.000Z</time>
      </trkpt>
      <trkpt lat="45.16638" lon="5.95541">
        <ele>2437</ele>
        <time>2013-05-07T09:35:49.000Z</time>
      </trkpt>
      <trkpt lat="45.16637" lon="5.95548">
        <ele>2438</ele>
        <time>2013-05-07T09:35:59.000Z</time>
      </trkpt>
      <trkpt lat="45.16635" lon="5.95555">
        <ele>2439</ele>
        <time>2013-05-07T09:36:09.000Z</time>
      </trkpt>
      <trkpt lat="45.16631" lon="5.9556">
        <ele>2438</ele>
        <time>2013-05-07T09:36:19.000Z</time>
      </trkpt>
      <trkpt lat="45.16627" lon="5.95567">
        <ele>2438</ele>
        <time>2013-05-07T09:36:29.000Z</time>
      </trkpt>
      <trkpt lat="45.16631" lon="5.95567">
        <ele>2439</ele>
        <time>2013-05-07T09:36:49.000Z</time>
      </trkpt>
      <trkpt lat="45.16633" lon="5.95572">
        <ele>2440</ele>
        <time>2013-05-07T09:36:59.000Z</time>
      </trkpt>
      <trkpt lat="45.16637" lon="5.9557">
        <ele>2442</ele>
        <time>2013-05-07T09:37:09.000Z</time>
      </trkpt>
      <trkpt lat="45.16645" lon="5.95568">
        <ele>2445</ele>
        <time>2013-05-07T09:37:19.000Z</time>
      </trkpt>
      <trkpt lat="45.16652" lon="5.95568">
        <ele>2448</ele>
        <time>2013-05-07T09:37:29.000Z</time>
      </trkpt>
      <trkpt lat="45.16658" lon="5.95569">
        <ele>2451</ele>
        <time>2013-05-07T09:37:39.000Z</time>
      </trkpt>
      <trkpt lat="45.16663" lon="5.95568">
        <ele>2452</ele>
        <time>2013-05-07T09:37:49.000Z</time>
      </trkpt>
      <trkpt lat="45.16665" lon="5.95569">
        <ele>2453</ele>
        <time>2013-05-07T09:37:59.000Z</time>
      </trkpt>
      <trkpt lat="45.16671" lon="5.9557">
        <ele>2468</ele>
        <time>2013-05-07T09:38:09.000Z</time>
      </trkpt>
      <trkpt lat="45.16676" lon="5.95571">
        <ele>2469</ele>
        <time>2013-05-07T09:38:19.000Z</time>
      </trkpt>
      <trkpt lat="45.16682" lon="5.95571">
        <ele>2469</ele>
        <time>2013-05-07T09:38:29.000Z</time>
      </trkpt>
      <trkpt lat="45.16687" lon="5.95571">
        <ele>2470</ele>
        <time>2013-05-07T09:38:39.000Z</time>
      </trkpt>
      <trkpt lat="45.16693" lon="5.9557">
        <ele>2471</ele>
        <time>2013-05-07T09:38:49.000Z</time>
      </trkpt>
      <trkpt lat="45.16698" lon="5.95569">
        <ele>2472</ele>
        <time>2013-05-07T09:38:59.000Z</time>
      </trkpt>
      <trkpt lat="45.16701" lon="5.95561">
        <ele>2471</ele>
        <time>2013-05-07T09:39:09.000Z</time>
      </trkpt>
      <trkpt lat="45.16701" lon="5.95551">
        <ele>2470</ele>
        <time>2013-05-07T09:39:19.000Z</time>
      </trkpt>
      <trkpt lat="45.16705" lon="5.95547">
        <ele>2470</ele>
        <time>2013-05-07T09:39:29.000Z</time>
      </trkpt>
      <trkpt lat="45.16709" lon="5.95549">
        <ele>2471</ele>
        <time>2013-05-07T09:39:49.000Z</time>
      </trkpt>
      <trkpt lat="45.1671" lon="5.95552">
        <ele>2472</ele>
        <time>2013-05-07T09:39:59.000Z</time>
      </trkpt>
      <trkpt lat="45.16717" lon="5.95554">
        <ele>2474</ele>
        <time>2013-05-07T09:40:09.000Z</time>
      </trkpt>
      <trkpt lat="45.16719" lon="5.9556">
        <ele>2475</ele>
        <time>2013-05-07T09:40:19.000Z</time>
      </trkpt>
      <trkpt lat="45.16723" lon="5.95564">
        <ele>2477</ele>
        <time>2013-05-07T09:40:29.000Z</time>
      </trkpt>
      <trkpt lat="45.16728" lon="5.95563">
        <ele>2478</ele>
        <time>2013-05-07T09:40:39.000Z</time>
      </trkpt>
      <trkpt lat="45.16732" lon="5.95562">
        <ele>2479</ele>
        <time>2013-05-07T09:40:49.000Z</time>
      </trkpt>
      <trkpt lat="45.16735" lon="5.95564">
        <ele>2481</ele>
        <time>2013-05-07T09:40:59.000Z</time>
      </trkpt>
      <trkpt lat="45.16732" lon="5.95566">
        <ele>2481</ele>
        <time>2013-05-07T09:41:09.000Z</time>
      </trkpt>
      <trkpt lat="45.16735" lon="5.95572">
        <ele>2484</ele>
        <time>2013-05-07T09:41:19.000Z</time>
      </trkpt>
      <trkpt lat="45.16739" lon="5.95578">
        <ele>2488</ele>
        <time>2013-05-07T09:41:29.000Z</time>
      </trkpt>
      <trkpt lat="45.16744" lon="5.95581">
        <ele>2492</ele>
        <time>2013-05-07T09:41:39.000Z</time>
      </trkpt>
      <trkpt lat="45.16745" lon="5.95582">
        <ele>2494</ele>
        <time>2013-05-07T09:41:49.000Z</time>
      </trkpt>
      <trkpt lat="45.16748" lon="5.95585">
        <ele>2499</ele>
        <time>2013-05-07T09:41:59.000Z</time>
      </trkpt>
      <trkpt lat="45.16748" lon="5.95591">
        <ele>2500</ele>
        <time>2013-05-07T09:42:19.000Z</time>
      </trkpt>
      <trkpt lat="45.16748" lon="5.95596">
        <ele>2501</ele>
        <time>2013-05-07T09:42:29.000Z</time>
      </trkpt>
      <trkpt lat="45.1675" lon="5.95603">
        <ele>2503</ele>
        <time>2013-05-07T09:42:39.000Z</time>
      </trkpt>
      <trkpt lat="45.16751" lon="5.95612">
        <ele>2520</ele>
        <time>2013-05-07T09:42:49.000Z</time>
      </trkpt>
      <trkpt lat="45.16751" lon="5.9562">
        <ele>2523</ele>
        <time>2013-05-07T09:42:59.000Z</time>
      </trkpt>
      <trkpt lat="45.1675" lon="5.95628">
        <ele>2510</ele>
        <time>2013-05-07T09:43:09.000Z</time>
      </trkpt>
      <trkpt lat="45.16749" lon="5.95635">
        <ele>2513</ele>
        <time>2013-05-07T09:43:19.000Z</time>
      </trkpt>
      <trkpt lat="45.16746" lon="5.9564">
        <ele>2515</ele>
        <time>2013-05-07T09:43:29.000Z</time>
      </trkpt>
      <trkpt lat="45.16747" lon="5.95639">
        <ele>2514</ele>
        <time>2013-05-07T09:43:49.000Z</time>
      </trkpt>
      <trkpt lat="45.16752" lon="5.95641">
        <ele>2530</ele>
        <time>2013-05-07T09:43:59.000Z</time>
      </trkpt>
      <trkpt lat="45.16757" lon="5.95639">
        <ele>2529</ele>
        <time>2013-05-07T09:44:09.000Z</time>
      </trkpt>
      <trkpt lat="45.16761" lon="5.95632">
        <ele>2528</ele>
        <time>2013-05-07T09:44:19.000Z</time>
      </trkpt>
      <trkpt lat="45.16763" lon="5.95628">
        <ele>2527</ele>
        <time>2013-05-07T09:44:29.000Z</time>
      </trkpt>
      <trkpt lat="45.16765" lon="5.95623">
        <ele>2526</ele>
        <time>2013-05-07T09:44:39.000Z</time>
      </trkpt>
      <trkpt lat="45.16769" lon="5.95619">
        <ele>2525</ele>
        <time>2013-05-07T09:44:49.000Z</time>
      </trkpt>
      <trkpt lat="45.16773" lon="5.95614">
        <ele>2525</ele>
        <time>2013-05-07T09:44:59.000Z</time>
      </trkpt>
      <trkpt lat="45.16775" lon="5.95609">
        <ele>2524</ele>
        <time>2013-05-07T09:45:09.000Z</time>
      </trkpt>
      <trkpt lat="45.16778" lon="5.95606">
        <ele>2524</ele>
        <time>2013-05-07T09:45:19.000Z</time>
      </trkpt>
      <trkpt lat="45.16778" lon="5.95606">
        <ele>2524</ele>
        <time>2013-05-07T09:45:39.000Z</time>
      </trkpt>
      <trkpt lat="45.16777" lon="5.95613">
        <ele>2526</ele>
        <time>2013-05-07T09:45:49.000Z</time>
      </trkpt>
      <trkpt lat="45.16778" lon="5.95618">
        <ele>2526</ele>
        <time>2013-05-07T09:45:59.000Z</time>
      </trkpt>
      <trkpt lat="45.16777" lon="5.95625">
        <ele>2528</ele>
        <time>2013-05-07T09:46:09.000Z</time>
      </trkpt>
      <trkpt lat="45.16779" lon="5.95632">
        <ele>2529</ele>
        <time>2013-05-07T09:46:19.000Z</time>
      </trkpt>
      <trkpt lat="45.1678" lon="5.95638">
        <ele>2530</ele>
        <time>2013-05-07T09:46:29.000Z</time>
      </trkpt>
      <trkpt lat="45.1678" lon="5.95642">
        <ele>2530</ele>
        <time>2013-05-07T09:46:39.000Z</time>
      </trkpt>
      <trkpt lat="45.16779" lon="5.95647">
        <ele>2531</ele>
        <time>2013-05-07T09:46:49.000Z</time>
      </trkpt>
      <trkpt lat="45.16779" lon="5.95652">
        <ele>2532</ele>
        <time>2013-05-07T09:46:59.000Z</time>
      </trkpt>
      <trkpt lat="45.16778" lon="5.95654">
        <ele>2532</ele>
        <time>2013-05-07T09:47:09.000Z</time>
      </trkpt>
      <trkpt lat="45.1678" lon="5.95655">
        <ele>2532</ele>
        <time>2013-05-07T09:47:29.000Z</time>
      </trkpt>
      <trkpt lat="45.16784" lon="5.95651">
        <ele>2531</ele>
        <time>2013-05-07T09:47:39.000Z</time>
      </trkpt>
      <trkpt lat="45.16789" lon="5.95647">
        <ele>2531</ele>
        <time>2013-05-07T09:47:49.000Z</time>
      </trkpt>
      <trkpt lat="45.16792" lon="5.95641">
        <ele>2531</ele>
        <time>2013-05-07T09:47:59.000Z</time>
      </trkpt>
      <trkpt lat="45.16792" lon="5.95645">
        <ele>2531</ele>
        <time>2013-05-07T09:48:19.000Z</time>
      </trkpt>
      <trkpt lat="45.16791" lon="5.95651">
        <ele>2532</ele>
        <time>2013-05-07T09:48:29.000Z</time>
      </trkpt>
      <trkpt lat="45.1679" lon="5.95654">
        <ele>2532</ele>
        <time>2013-05-07T09:48:39.000Z</time>
      </trkpt>
      <trkpt lat="45.16787" lon="5.95661">
        <ele>2532</ele>
        <time>2013-05-07T09:48:49.000Z</time>
      </trkpt>
      <trkpt lat="45.16789" lon="5.95659">
        <ele>2532</ele>
        <time>2013-05-07T09:48:59.000Z</time>
      </trkpt>
      <trkpt lat="45.16792" lon="5.95658">
        <ele>2532</ele>
        <time>2013-05-07T09:49:09.000Z</time>
      </trkpt>
      <trkpt lat="45.16797" lon="5.95656">
        <ele>2532</ele>
        <time>2013-05-07T09:49:19.000Z</time>
      </trkpt>
      <trkpt lat="45.16802" lon="5.95651">
        <ele>2532</ele>
        <time>2013-05-07T09:49:29.000Z</time>
      </trkpt>
      <trkpt lat="45.16805" lon="5.95649">
        <ele>2533</ele>
        <time>2013-05-07T09:49:59.000Z</time>
      </trkpt>
      <trkpt lat="45.16807" lon="5.95652">
        <ele>2533</ele>
        <time>2013-05-07T09:50:09.000Z</time>
      </trkpt>
      <trkpt lat="45.16807" lon="5.95658">
        <ele>2533</ele>
        <time>2013-05-07T09:50:19.000Z</time>
      </trkpt>
      <trkpt lat="45.16806" lon="5.9566">
        <ele>2533</ele>
        <time>2013-05-07T09:50:29.000Z</time>
      </trkpt>
      <trkpt lat="45.16811" lon="5.9566">
        <ele>2533</ele>
        <time>2013-05-07T09:50:39.000Z</time>
      </trkpt>
      <trkpt lat="45.16816" lon="5.95657">
        <ele>2533</ele>
        <time>2013-05-07T09:50:49.000Z</time>
      </trkpt>
      <trkpt lat="45.16819" lon="5.95649">
        <ele>2534</ele>
        <time>2013-05-07T09:50:59.000Z</time>
      </trkpt>
      <trkpt lat="45.16821" lon="5.95645">
        <ele>2534</ele>
        <time>2013-05-07T09:51:09.000Z</time>
      </trkpt>
      <trkpt lat="45.1682" lon="5.95641">
        <ele>2534</ele>
        <time>2013-05-07T09:51:19.000Z</time>
      </trkpt>
      <trkpt lat="45.16822" lon="5.95638">
        <ele>2535</ele>
        <time>2013-05-07T09:51:49.000Z</time>
      </trkpt>
      <trkpt lat="45.16824" lon="5.95633">
        <ele>2535</ele>
        <time>2013-05-07T09:51:59.000Z</time>
      </trkpt>
      <trkpt lat="45.16828" lon="5.95629">
        <ele>2536</ele>
        <time>2013-05-07T09:52:09.000Z</time>
      </trkpt>
      <trkpt lat="45.16835" lon="5.95633">
        <ele>2555</ele>
        <time>2013-05-07T09:52:19.000Z</time>
      </trkpt>
      <trkpt lat="45.16839" lon="5.95635">
        <ele>2555</ele>
        <time>2013-05-07T09:52:29.000Z</time>
      </trkpt>
      <trkpt lat="45.16843" lon="5.95639">
        <ele>2555</ele>
        <time>2013-05-07T09:52:39.000Z</time>
      </trkpt>
      <trkpt lat="45.16845" lon="5.95643">
        <ele>2555</ele>
        <time>2013-05-07T09:52:49.000Z</time>
      </trkpt>
      <trkpt lat="45.16849" lon="5.95647">
        <ele>2555</ele>
        <time>2013-05-07T09:52:59.000Z</time>
      </trkpt>
      <trkpt lat="45.1685" lon="5.95652">
        <ele>2555</ele>
        <time>2013-05-07T09:53:09.000Z</time>
      </trkpt>
      <trkpt lat="45.16854" lon="5.95657">
        <ele>2555</ele>
        <time>2013-05-07T09:53:19.000Z</time>
      </trkpt>
      <trkpt lat="45.16852" lon="5.95661">
        <ele>2555</ele>
        <time>2013-05-07T09:53:59.000Z</time>
      </trkpt>
      <trkpt lat="45.16853" lon="5.9567">
        <ele>2583.3</ele>
        <time>2013-05-07T09:54:09.000Z</time>
      </trkpt>
      <trkpt lat="45.16853" lon="5.95677">
        <ele>2585.2</ele>
        <time>2013-05-07T09:54:19.000Z</time>
      </trkpt>
      <trkpt lat="45.16851" lon="5.95685">
        <ele>2586.4</ele>
        <time>2013-05-07T09:54:29.000Z</time>
      </trkpt>
      <trkpt lat="45.16849" lon="5.95691">
        <ele>2587</ele>
        <time>2013-05-07T09:54:39.000Z</time>
      </trkpt>
      <trkpt lat="45.1685" lon="5.9569">
        <ele>2587.5</ele>
        <time>2013-05-07T09:54:49.000Z</time>
      </trkpt>
      <trkpt lat="45.16855" lon="5.9569">
        <ele>2589.2</ele>
        <time>2013-05-07T09:54:59.000Z</time>
      </trkpt>
      <trkpt lat="45.16858" lon="5.95687">
        <ele>2589.7</ele>
        <time>2013-05-07T09:55:09.000Z</time>
      </trkpt>
      <trkpt lat="45.16863" lon="5.95685">
        <ele>2591.5</ele>
        <time>2013-05-07T09:55:19.000Z</time>
      </trkpt>
      <trkpt lat="45.16867" lon="5.95681">
        <ele>2591.6</ele>
        <time>2013-05-07T09:55:29.000Z</time>
      </trkpt>
      <trkpt lat="45.1687" lon="5.95679">
        <ele>2592.2</ele>
        <time>2013-05-07T09:55:39.000Z</time>
      </trkpt>
      <trkpt lat="45.16873" lon="5.95676">
        <ele>2592.5</ele>
        <time>2013-05-07T09:56:09.000Z</time>
      </trkpt>
      <trkpt lat="45.16876" lon="5.95671">
        <ele>2592.4</ele>
        <time>2013-05-07T09:56:19.000Z</time>
      </trkpt>
      <trkpt lat="45.16881" lon="5.95668">
        <ele>2593.3</ele>
        <time>2013-05-07T09:56:29.000Z</time>
      </trkpt>
      <trkpt lat="45.16887" lon="5.95664">
        <ele>2555</ele>
        <time>2013-05-07T09:56:39.000Z</time>
      </trkpt>
      <trkpt lat="45.16891" lon="5.95663">
        <ele>2555</ele>
        <time>2013-05-07T09:56:49.000Z</time>
      </trkpt>
      <trkpt lat="45.16897" lon="5.95663">
        <ele>2555</ele>
        <time>2013-05-07T09:56:59.000Z</time>
      </trkpt>
      <trkpt lat="45.16902" lon="5.95664">
        <ele>2555</ele>
        <time>2013-05-07T09:57:09.000Z</time>
      </trkpt>
      <trkpt lat="45.16907" lon="5.95665">
        <ele>2555</ele>
        <time>2013-05-07T09:57:19.000Z</time>
      </trkpt>
      <trkpt lat="45.16911" lon="5.95664">
        <ele>2555</ele>
        <time>2013-05-07T09:57:29.000Z</time>
      </trkpt>
      <trkpt lat="45.16918" lon="5.95667">
        <ele>2605.3</ele>
        <time>2013-05-07T09:57:39.000Z</time>
      </trkpt>
      <trkpt lat="45.16924" lon="5.95671">
        <ele>2607.5</ele>
        <time>2013-05-07T09:57:49.000Z</time>
      </trkpt>
      <trkpt lat="45.16926" lon="5.95675">
        <ele>2608.6</ele>
        <time>2013-05-07T09:58:19.000Z</time>
      </trkpt>
      <trkpt lat="45.16931" lon="5.95675">
        <ele>2609.9</ele>
        <time>2013-05-07T09:58:29.000Z</time>
      </trkpt>
      <trkpt lat="45.16938" lon="5.95678">
        <ele>2612</ele>
        <time>2013-05-07T09:58:39.000Z</time>
      </trkpt>
      <trkpt lat="45.16945" lon="5.95681">
        <ele>2614.2</ele>
        <time>2013-05-07T09:58:49.000Z</time>
      </trkpt>
      <trkpt lat="45.1695" lon="5.95682">
        <ele>2615.8</ele>
        <time>2013-05-07T09:58:59.000Z</time>
      </trkpt>
      <trkpt lat="45.16954" lon="5.95677">
        <ele>2616.4</ele>
        <time>2013-05-07T09:59:09.000Z</time>
      </trkpt>
      <trkpt lat="45.16957" lon="5.95682">
        <ele>2617.8</ele>
        <time>2013-05-07T09:59:19.000Z</time>
      </trkpt>
      <trkpt lat="45.16959" lon="5.95687">
        <ele>2619.2</ele>
        <time>2013-05-07T09:59:29.000Z</time>
      </trkpt>
      <trkpt lat="45.16962" lon="5.95689">
        <ele>2620.1</ele>
        <time>2013-05-07T10:00:39.000Z</time>
      </trkpt>
      <trkpt lat="45.16963" lon="5.95693">
        <ele>2621.1</ele>
        <time>2013-05-07T10:00:49.000Z</time>
      </trkpt>
      <trkpt lat="45.16964" lon="5.95702">
        <ele>2623.7</ele>
        <time>2013-05-07T10:00:59.000Z</time>
      </trkpt>
      <trkpt lat="45.16966" lon="5.9571">
        <ele>2626.4</ele>
        <time>2013-05-07T10:01:09.000Z</time>
      </trkpt>
      <trkpt lat="45.16965" lon="5.95718">
        <ele>2628.5</ele>
        <time>2013-05-07T10:01:19.000Z</time>
      </trkpt>
      <trkpt lat="45.16963" lon="5.95725">
        <ele>2630.8</ele>
        <time>2013-05-07T10:01:29.000Z</time>
      </trkpt>
      <trkpt lat="45.1696" lon="5.95729">
        <ele>2631.9</ele>
        <time>2013-05-07T10:01:39.000Z</time>
      </trkpt>
      <trkpt lat="45.16956" lon="5.95735">
        <ele>2633.8</ele>
        <time>2013-05-07T10:01:49.000Z</time>
      </trkpt>
      <trkpt lat="45.16952" lon="5.9574">
        <ele>2635.4</ele>
        <time>2013-05-07T10:01:59.000Z</time>
      </trkpt>
      <trkpt lat="45.16948" lon="5.95745">
        <ele>2636.8</ele>
        <time>2013-05-07T10:02:09.000Z</time>
      </trkpt>
      <trkpt lat="45.16944" lon="5.95751">
        <ele>2638.2</ele>
        <time>2013-05-07T10:02:19.000Z</time>
      </trkpt>
      <trkpt lat="45.16939" lon="5.95757">
        <ele>2638.6</ele>
        <time>2013-05-07T10:02:29.000Z</time>
      </trkpt>
      <trkpt lat="45.16939" lon="5.95759">
        <ele>2639.2</ele>
        <time>2013-05-07T10:02:59.000Z</time>
      </trkpt>
      <trkpt lat="45.16935" lon="5.95766">
        <ele>2639.8</ele>
        <time>2013-05-07T10:03:09.000Z</time>
      </trkpt>
      <trkpt lat="45.16933" lon="5.95775">
        <ele>2641.6</ele>
        <time>2013-05-07T10:03:19.000Z</time>
      </trkpt>
      <trkpt lat="45.16933" lon="5.95781">
        <ele>2642.5</ele>
        <time>2013-05-07T10:03:29.000Z</time>
      </trkpt>
      <trkpt lat="45.16934" lon="5.95788">
        <ele>2643.5</ele>
        <time>2013-05-07T10:03:39.000Z</time>
      </trkpt>
      <trkpt lat="45.16936" lon="5.95796">
        <ele>2644.8</ele>
        <time>2013-05-07T10:03:49.000Z</time>
      </trkpt>
      <trkpt lat="45.16939" lon="5.95805">
        <ele>2646.3</ele>
        <time>2013-05-07T10:03:59.000Z</time>
      </trkpt>
      <trkpt lat="45.16942" lon="5.95809">
        <ele>2647.4</ele>
        <time>2013-05-07T10:04:09.000Z</time>
      </trkpt>
      <trkpt lat="45.16944" lon="5.95815">
        <ele>2648.3</ele>
        <time>2013-05-07T10:04:19.000Z</time>
      </trkpt>
      <trkpt lat="45.16949" lon="5.95818">
        <ele>2649.5</ele>
        <time>2013-05-07T10:04:29.000Z</time>
      </trkpt>
      <trkpt lat="45.16953" lon="5.95815">
        <ele>2650.3</ele>
        <time>2013-05-07T10:04:39.000Z</time>
      </trkpt>
      <trkpt lat="45.16958" lon="5.95813">
        <ele>2651.6</ele>
        <time>2013-05-07T10:04:49.000Z</time>
      </trkpt>
      <trkpt lat="45.16965" lon="5.95812">
        <ele>2653.2</ele>
        <time>2013-05-07T10:04:59.000Z</time>
      </trkpt>
      <trkpt lat="45.16971" lon="5.95812">
        <ele>2654.8</ele>
        <time>2013-05-07T10:05:09.000Z</time>
      </trkpt>
      <trkpt lat="45.16974" lon="5.95815">
        <ele>2656</ele>
        <time>2013-05-07T10:05:59.000Z</time>
      </trkpt>
      <trkpt lat="45.16979" lon="5.9581">
        <ele>2658</ele>
        <time>2013-05-07T10:06:09.000Z</time>
      </trkpt>
      <trkpt lat="45.16985" lon="5.95811">
        <ele>2660.6</ele>
        <time>2013-05-07T10:06:19.000Z</time>
      </trkpt>
      <trkpt lat="45.16991" lon="5.95811">
        <ele>2663.3</ele>
        <time>2013-05-07T10:06:29.000Z</time>
      </trkpt>
      <trkpt lat="45.16995" lon="5.95811">
        <ele>2665.2</ele>
        <time>2013-05-07T10:06:39.000Z</time>
      </trkpt>
      <trkpt lat="45.16999" lon="5.95812">
        <ele>2667</ele>
        <time>2013-05-07T10:06:49.000Z</time>
      </trkpt>
      <trkpt lat="45.17002" lon="5.95819">
        <ele>2669</ele>
        <time>2013-05-07T10:06:59.000Z</time>
      </trkpt>
      <trkpt lat="45.16999" lon="5.95822">
        <ele>2667.7</ele>
        <time>2013-05-07T10:07:09.000Z</time>
      </trkpt>
      <trkpt lat="45.17" lon="5.95826">
        <ele>2668.6</ele>
        <time>2013-05-07T10:07:19.000Z</time>
      </trkpt>
      <trkpt lat="45.17004" lon="5.95833">
        <ele>2672.2</ele>
        <time>2013-05-07T10:07:29.000Z</time>
      </trkpt>
      <trkpt lat="45.17006" lon="5.95841">
        <ele>2674.4</ele>
        <time>2013-05-07T10:07:39.000Z</time>
      </trkpt>
      <trkpt lat="45.17006" lon="5.95848">
        <ele>2676.1</ele>
        <time>2013-05-07T10:07:49.000Z</time>
      </trkpt>
      <trkpt lat="45.17005" lon="5.95853">
        <ele>2676.6</ele>
        <time>2013-05-07T10:07:59.000Z</time>
      </trkpt>
      <trkpt lat="45.17006" lon="5.95858">
        <ele>2678.3</ele>
        <time>2013-05-07T10:08:09.000Z</time>
      </trkpt>
      <trkpt lat="45.17006" lon="5.95861">
        <ele>2678.8</ele>
        <time>2013-05-07T10:08:19.000Z</time>
      </trkpt>
      <trkpt lat="45.17008" lon="5.95868">
        <ele>2681.4</ele>
        <time>2013-05-07T10:08:29.000Z</time>
      </trkpt>
      <trkpt lat="45.17009" lon="5.95876">
        <ele>2683.7</ele>
        <time>2013-05-07T10:08:39.000Z</time>
      </trkpt>
      <trkpt lat="45.17011" lon="5.95883">
        <ele>2686.1</ele>
        <time>2013-05-07T10:08:49.000Z</time>
      </trkpt>
      <trkpt lat="45.17014" lon="5.95888">
        <ele>2688.7</ele>
        <time>2013-05-07T10:08:59.000Z</time>
      </trkpt>
      <trkpt lat="45.17017" lon="5.9589">
        <ele>2690.9</ele>
        <time>2013-05-07T10:09:09.000Z</time>
      </trkpt>
      <trkpt lat="45.17021" lon="5.95887">
        <ele>2692.2</ele>
        <time>2013-05-07T10:09:19.000Z</time>
      </trkpt>
      <trkpt lat="45.17023" lon="5.95884">
        <ele>2693</ele>
        <time>2013-05-07T10:10:29.000Z</time>
      </trkpt>
      <trkpt lat="45.17026" lon="5.95885">
        <ele>2694.7</ele>
        <time>2013-05-07T10:10:39.000Z</time>
      </trkpt>
      <trkpt lat="45.1703" lon="5.95893">
        <ele>2698.2</ele>
        <time>2013-05-07T10:10:49.000Z</time>
      </trkpt>
      <trkpt lat="45.17035" lon="5.9589">
        <ele>2699.5</ele>
        <time>2013-05-07T10:10:59.000Z</time>
      </trkpt>
      <trkpt lat="45.17038" lon="5.95886">
        <ele>2700.4</ele>
        <time>2013-05-07T10:11:09.000Z</time>
      </trkpt>
      <trkpt lat="45.17042" lon="5.9589">
        <ele>2703.1</ele>
        <time>2013-05-07T10:11:19.000Z</time>
      </trkpt>
      <trkpt lat="45.17041" lon="5.95899">
        <ele>2705.1</ele>
        <time>2013-05-07T10:11:29.000Z</time>
      </trkpt>
      <trkpt lat="45.17041" lon="5.95906">
        <ele>2706.8</ele>
        <time>2013-05-07T10:11:39.000Z</time>
      </trkpt>
      <trkpt lat="45.17041" lon="5.95906">
        <ele>2706.9</ele>
        <time>2013-05-07T10:11:49.000Z</time>
      </trkpt>
      <trkpt lat="45.17039" lon="5.95913">
        <ele>2707.5</ele>
        <time>2013-05-07T10:11:59.000Z</time>
      </trkpt>
      <trkpt lat="45.17035" lon="5.95918">
        <ele>2706.8</ele>
        <time>2013-05-07T10:12:09.000Z</time>
      </trkpt>
      <trkpt lat="45.17032" lon="5.95923">
        <ele>2706.7</ele>
        <time>2013-05-07T10:12:19.000Z</time>
      </trkpt>
      <trkpt lat="45.17028" lon="5.95929">
        <ele>2706.9</ele>
        <time>2013-05-07T10:12:29.000Z</time>
      </trkpt>
      <trkpt lat="45.17025" lon="5.95931">
        <ele>2705.8</ele>
        <time>2013-05-07T10:13:09.000Z</time>
      </trkpt>
      <trkpt lat="45.17027" lon="5.95937">
        <ele>2708.1</ele>
        <time>2013-05-07T10:13:19.000Z</time>
      </trkpt>
      <trkpt lat="45.17027" lon="5.95947">
        <ele>2710.9</ele>
        <time>2013-05-07T10:13:29.000Z</time>
      </trkpt>
      <trkpt lat="45.17024" lon="5.95953">
        <ele>2711.4</ele>
        <time>2013-05-07T10:13:39.000Z</time>
      </trkpt>
      <trkpt lat="45.17022" lon="5.95961">
        <ele>2712.2</ele>
        <time>2013-05-07T10:13:49.000Z</time>
      </trkpt>
      <trkpt lat="45.17019" lon="5.95968">
        <ele>2712.7</ele>
        <time>2013-05-07T10:13:59.000Z</time>
      </trkpt>
      <trkpt lat="45.17016" lon="5.95975">
        <ele>2712.8</ele>
        <time>2013-05-07T10:14:09.000Z</time>
      </trkpt>
      <trkpt lat="45.17014" lon="5.95982">
        <ele>2712.6</ele>
        <time>2013-05-07T10:14:19.000Z</time>
      </trkpt>
      <trkpt lat="45.17015" lon="5.95985">
        <ele>2713.3</ele>
        <time>2013-05-07T10:19:19.000Z</time>
      </trkpt>
      <trkpt lat="45.17019" lon="5.95984">
        <ele>2715.1</ele>
        <time>2013-05-07T10:19:29.000Z</time>
      </trkpt>
      <trkpt lat="45.17026" lon="5.95985">
        <ele>2718.2</ele>
        <time>2013-05-07T10:19:39.000Z</time>
      </trkpt>
      <trkpt lat="45.17032" lon="5.95983">
        <ele>2720.4</ele>
        <time>2013-05-07T10:19:49.000Z</time>
      </trkpt>
      <trkpt lat="45.17036" lon="5.95981">
        <ele>2722.2</ele>
        <time>2013-05-07T10:19:59.000Z</time>
      </trkpt>
      <trkpt lat="45.17041" lon="5.95977">
        <ele>2724.6</ele>
        <time>2013-05-07T10:20:09.000Z</time>
      </trkpt>
      <trkpt lat="45.17048" lon="5.95974">
        <ele>2727.3</ele>
        <time>2013-05-07T10:20:19.000Z</time>
      </trkpt>
      <trkpt lat="45.1705" lon="5.95968">
        <ele>2727.3</ele>
        <time>2013-05-07T10:20:29.000Z</time>
      </trkpt>
      <trkpt lat="45.17054" lon="5.95968">
        <ele>2729.4</ele>
        <time>2013-05-07T10:20:39.000Z</time>
      </trkpt>
      <trkpt lat="45.17057" lon="5.95972">
        <ele>2731.7</ele>
        <time>2013-05-07T10:20:49.000Z</time>
      </trkpt>
      <trkpt lat="45.17061" lon="5.95977">
        <ele>2733.5</ele>
        <time>2013-05-07T10:20:59.000Z</time>
      </trkpt>
      <trkpt lat="45.17065" lon="5.95983">
        <ele>2735.1</ele>
        <time>2013-05-07T10:21:09.000Z</time>
      </trkpt>
      <trkpt lat="45.17069" lon="5.95988">
        <ele>2736.7</ele>
        <time>2013-05-07T10:21:19.000Z</time>
      </trkpt>
      <trkpt lat="45.17073" lon="5.95991">
        <ele>2738.3</ele>
        <time>2013-05-07T10:21:29.000Z</time>
      </trkpt>
      <trkpt lat="45.17078" lon="5.95995">
        <ele>2740.1</ele>
        <time>2013-05-07T10:21:39.000Z</time>
      </trkpt>
      <trkpt lat="45.17084" lon="5.95999">
        <ele>2742.3</ele>
        <time>2013-05-07T10:21:49.000Z</time>
      </trkpt>
      <trkpt lat="45.17089" lon="5.96">
        <ele>2743.9</ele>
        <time>2013-05-07T10:21:59.000Z</time>
      </trkpt>
      <trkpt lat="45.17093" lon="5.95998">
        <ele>2745.3</ele>
        <time>2013-05-07T10:22:09.000Z</time>
      </trkpt>
      <trkpt lat="45.17095" lon="5.95992">
        <ele>2746.7</ele>
        <time>2013-05-07T10:22:19.000Z</time>
      </trkpt>
      <trkpt lat="45.17097" lon="5.95987">
        <ele>2748.2</ele>
        <time>2013-05-07T10:22:29.000Z</time>
      </trkpt>
      <trkpt lat="45.17097" lon="5.95982">
        <ele>2749.2</ele>
        <time>2013-05-07T10:22:39.000Z</time>
      </trkpt>
      <trkpt lat="45.17099" lon="5.95974">
        <ele>2751</ele>
        <time>2013-05-07T10:22:49.000Z</time>
      </trkpt>
      <trkpt lat="45.171" lon="5.95967">
        <ele>2751.3</ele>
        <time>2013-05-07T10:22:59.000Z</time>
      </trkpt>
      <trkpt lat="45.17102" lon="5.95961">
        <ele>2751.5</ele>
        <time>2013-05-07T10:23:09.000Z</time>
      </trkpt>
      <trkpt lat="45.17102" lon="5.95959">
        <ele>2751.6</ele>
        <time>2013-05-07T10:23:19.000Z</time>
      </trkpt>
      <trkpt lat="45.17103" lon="5.95957">
        <ele>2751.8</ele>
        <time>2013-05-07T10:23:29.000Z</time>
      </trkpt>
      <trkpt lat="45.17107" lon="5.95959">
        <ele>2753.8</ele>
        <time>2013-05-07T10:23:39.000Z</time>
      </trkpt>
      <trkpt lat="45.17111" lon="5.95966">
        <ele>2756.6</ele>
        <time>2013-05-07T10:23:49.000Z</time>
      </trkpt>
      <trkpt lat="45.17113" lon="5.95969">
        <ele>2757.5</ele>
        <time>2013-05-07T10:23:59.000Z</time>
      </trkpt>
      <trkpt lat="45.17116" lon="5.95966">
        <ele>2758.4</ele>
        <time>2013-05-07T10:24:09.000Z</time>
      </trkpt>
      <trkpt lat="45.1712" lon="5.95961">
        <ele>2759.7</ele>
        <time>2013-05-07T10:24:19.000Z</time>
      </trkpt>
      <trkpt lat="45.17125" lon="5.9596">
        <ele>2761.6</ele>
        <time>2013-05-07T10:24:29.000Z</time>
      </trkpt>
      <trkpt lat="45.17126" lon="5.95962">
        <ele>2762.2</ele>
        <time>2013-05-07T10:24:39.000Z</time>
      </trkpt>
      <trkpt lat="45.17128" lon="5.95968">
        <ele>2763</ele>
        <time>2013-05-07T10:24:49.000Z</time>
      </trkpt>
      <trkpt lat="45.17133" lon="5.95969">
        <ele>2764.8</ele>
        <time>2013-05-07T10:24:59.000Z</time>
      </trkpt>
      <trkpt lat="45.17137" lon="5.9597">
        <ele>2766.3</ele>
        <time>2013-05-07T10:25:09.000Z</time>
      </trkpt>
      <trkpt lat="45.17141" lon="5.95967">
        <ele>2766.7</ele>
        <time>2013-05-07T10:25:19.000Z</time>
      </trkpt>
      <trkpt lat="45.17142" lon="5.95961">
        <ele>2766.7</ele>
        <time>2013-05-07T10:25:29.000Z</time>
      </trkpt>
      <trkpt lat="45.17146" lon="5.95962">
        <ele>2766.2</ele>
        <time>2013-05-07T10:26:19.000Z</time>
      </trkpt>
      <trkpt lat="45.17148" lon="5.95962">
        <ele>2766</ele>
        <time>2013-05-07T10:26:29.000Z</time>
      </trkpt>
      <trkpt lat="45.17153" lon="5.95963">
        <ele>2765.3</ele>
        <time>2013-05-07T10:26:39.000Z</time>
      </trkpt>
      <trkpt lat="45.17157" lon="5.95965">
        <ele>2764.6</ele>
        <time>2013-05-07T10:26:49.000Z</time>
      </trkpt>
      <trkpt lat="45.17156" lon="5.95964">
        <ele>2764.9</ele>
        <time>2013-05-07T10:27:19.000Z</time>
      </trkpt>
      <trkpt lat="45.17155" lon="5.95956">
        <ele>2765.8</ele>
        <time>2013-05-07T10:27:29.000Z</time>
      </trkpt>
      <trkpt lat="45.17158" lon="5.95953">
        <ele>2766</ele>
        <time>2013-05-07T10:27:59.000Z</time>
      </trkpt>
      <trkpt lat="45.17158" lon="5.95952">
        <ele>2766.1</ele>
        <time>2013-05-07T10:28:09.000Z</time>
      </trkpt>
      <trkpt lat="45.17154" lon="5.9595">
        <ele>2766.4</ele>
        <time>2013-05-07T10:31:09.000Z</time>
      </trkpt>
      <trkpt lat="45.17153" lon="5.95951">
        <ele>2766.4</ele>
        <time>2013-05-07T10:31:19.000Z</time>
      </trkpt>
      <trkpt lat="45.17157" lon="5.9595">
        <ele>2766.3</ele>
        <time>2013-05-07T10:39:29.000Z</time>
      </trkpt>
      <trkpt lat="45.17157" lon="5.95947">
        <ele>2766.7</ele>
        <time>2013-05-07T10:39:39.000Z</time>
      </trkpt>
      <trkpt lat="45.17157" lon="5.9595">
        <ele>2766.3</ele>
        <time>2013-05-07T10:40:09.000Z</time>
      </trkpt>
      <trkpt lat="45.17158" lon="5.95955">
        <ele>2765.7</ele>
        <time>2013-05-07T10:40:19.000Z</time>
      </trkpt>
      <trkpt lat="45.17155" lon="5.95954">
        <ele>2766</ele>
        <time>2013-05-07T10:43:09.000Z</time>
      </trkpt>
      <trkpt lat="45.17148" lon="5.95965">
        <ele>2765.8</ele>
        <time>2013-05-07T10:43:19.000Z</time>
      </trkpt>
      <trkpt lat="45.17128" lon="5.95974">
        <ele>2762.5</ele>
        <time>2013-05-07T10:43:29.000Z</time>
      </trkpt>
      <trkpt lat="45.17098" lon="5.95971">
        <ele>2750.7</ele>
        <time>2013-05-07T10:43:39.000Z</time>
      </trkpt>
      <trkpt lat="45.17059" lon="5.95978">
        <ele>2732.7</ele>
        <time>2013-05-07T10:43:49.000Z</time>
      </trkpt>
      <trkpt lat="45.17029" lon="5.95983">
        <ele>2719.3</ele>
        <time>2013-05-07T10:43:59.000Z</time>
      </trkpt>
      <trkpt lat="45.17013" lon="5.95974">
        <ele>2711.2</ele>
        <time>2013-05-07T10:44:09.000Z</time>
      </trkpt>
      <trkpt lat="45.17013" lon="5.95976">
        <ele>2711.6</ele>
        <time>2013-05-07T10:44:19.000Z</time>
      </trkpt>
      <trkpt lat="45.17021" lon="5.95964">
        <ele>2712.7</ele>
        <time>2013-05-07T10:44:29.000Z</time>
      </trkpt>
      <trkpt lat="45.17037" lon="5.95932">
        <ele>2711.8</ele>
        <time>2013-05-07T10:44:39.000Z</time>
      </trkpt>
      <trkpt lat="45.17043" lon="5.95875">
        <ele>2700.7</ele>
        <time>2013-05-07T10:44:49.000Z</time>
      </trkpt>
      <trkpt lat="45.17003" lon="5.9587">
        <ele>2678.7</ele>
        <time>2013-05-07T10:44:59.000Z</time>
      </trkpt>
      <trkpt lat="45.17004" lon="5.95822">
        <ele>2671.1</ele>
        <time>2013-05-07T10:45:09.000Z</time>
      </trkpt>
      <trkpt lat="45.17007" lon="5.95813">
        <ele>2671.5</ele>
        <time>2013-05-07T10:45:19.000Z</time>
      </trkpt>
      <trkpt lat="45.17009" lon="5.95801">
        <ele>2671.6</ele>
        <time>2013-05-07T10:45:29.000Z</time>
      </trkpt>
      <trkpt lat="45.1701" lon="5.958">
        <ele>2671.7</ele>
        <time>2013-05-07T10:45:39.000Z</time>
      </trkpt>
      <trkpt lat="45.16997" lon="5.95785">
        <ele>2662.9</ele>
        <time>2013-05-07T10:45:49.000Z</time>
      </trkpt>
      <trkpt lat="45.16981" lon="5.95722">
        <ele>2633.3</ele>
        <time>2013-05-07T10:45:59.000Z</time>
      </trkpt>
      <trkpt lat="45.16934" lon="5.95679">
        <ele>2611</ele>
        <time>2013-05-07T10:46:09.000Z</time>
      </trkpt>
      <trkpt lat="45.16887" lon="5.95657">
        <ele>2555</ele>
        <time>2013-05-07T10:46:19.000Z</time>
      </trkpt>
      <trkpt lat="45.16848" lon="5.95658">
        <ele>2555</ele>
        <time>2013-05-07T10:46:29.000Z</time>
      </trkpt>
      <trkpt lat="45.16809" lon="5.95644">
        <ele>2533</ele>
        <time>2013-05-07T10:46:39.000Z</time>
      </trkpt>
      <trkpt lat="45.16776" lon="5.95624">
        <ele>2527</ele>
        <time>2013-05-07T10:46:49.000Z</time>
      </trkpt>
      <trkpt lat="45.1674" lon="5.95583">
        <ele>2489</ele>
        <time>2013-05-07T10:46:59.000Z</time>
      </trkpt>
      <trkpt lat="45.16684" lon="5.95554">
        <ele>2468</ele>
        <time>2013-05-07T10:47:09.000Z</time>
      </trkpt>
      <trkpt lat="45.16681" lon="5.95551">
        <ele>2467</ele>
        <time>2013-05-07T10:48:39.000Z</time>
      </trkpt>
      <trkpt lat="45.16671" lon="5.95539">
        <ele>2464</ele>
        <time>2013-05-07T10:48:49.000Z</time>
      </trkpt>
      <trkpt lat="45.16632" lon="5.95518">
        <ele>2433</ele>
        <time>2013-05-07T10:48:59.000Z</time>
      </trkpt>
      <trkpt lat="45.16581" lon="5.95473">
        <ele>2393</ele>
        <time>2013-05-07T10:49:09.000Z</time>
      </trkpt>
      <trkpt lat="45.16505" lon="5.95395">
        <ele>2367</ele>
        <time>2013-05-07T10:49:19.000Z</time>
      </trkpt>
      <trkpt lat="45.16474" lon="5.95366">
        <ele>2369</ele>
        <time>2013-05-07T10:49:29.000Z</time>
      </trkpt>
      <trkpt lat="45.16474" lon="5.95366">
        <ele>2369</ele>
        <time>2013-05-07T10:50:39.000Z</time>
      </trkpt>
      <trkpt lat="45.16469" lon="5.95358">
        <ele>2369</ele>
        <time>2013-05-07T10:50:49.000Z</time>
      </trkpt>
      <trkpt lat="45.16466" lon="5.95348">
        <ele>2369</ele>
        <time>2013-05-07T10:50:59.000Z</time>
      </trkpt>
      <trkpt lat="45.16466" lon="5.95348">
        <ele>2369</ele>
        <time>2013-05-07T10:51:09.000Z</time>
      </trkpt>
      <trkpt lat="45.16461" lon="5.95341">
        <ele>2370</ele>
        <time>2013-05-07T10:51:19.000Z</time>
      </trkpt>
      <trkpt lat="45.16457" lon="5.95332">
        <ele>2368</ele>
        <time>2013-05-07T10:51:29.000Z</time>
      </trkpt>
      <trkpt lat="45.16457" lon="5.95332">
        <ele>2368</ele>
        <time>2013-05-07T10:51:39.000Z</time>
      </trkpt>
      <trkpt lat="45.16451" lon="5.95326">
        <ele>2369</ele>
        <time>2013-05-07T10:51:49.000Z</time>
      </trkpt>
      <trkpt lat="45.16445" lon="5.95319">
        <ele>2370</ele>
        <time>2013-05-07T10:51:59.000Z</time>
      </trkpt>
      <trkpt lat="45.16445" lon="5.95319">
        <ele>2370</ele>
        <time>2013-05-07T10:52:09.000Z</time>
      </trkpt>
      <trkpt lat="45.1644" lon="5.95312">
        <ele>2370</ele>
        <time>2013-05-07T10:52:19.000Z</time>
      </trkpt>
      <trkpt lat="45.1644" lon="5.95312">
        <ele>2370</ele>
        <time>2013-05-07T10:52:39.000Z</time>
      </trkpt>
      <trkpt lat="45.16442" lon="5.95302">
        <ele>2370</ele>
        <time>2013-05-07T10:52:49.000Z</time>
      </trkpt>
      <trkpt lat="45.16443" lon="5.95291">
        <ele>2370</ele>
        <time>2013-05-07T10:52:59.000Z</time>
      </trkpt>
      <trkpt lat="45.16444" lon="5.95281">
        <ele>2370</ele>
        <time>2013-05-07T10:53:09.000Z</time>
      </trkpt>
      <trkpt lat="45.16444" lon="5.95281">
        <ele>2370</ele>
        <time>2013-05-07T10:53:19.000Z</time>
      </trkpt>
      <trkpt lat="45.16444" lon="5.95273">
        <ele>2370</ele>
        <time>2013-05-07T10:53:29.000Z</time>
      </trkpt>
      <trkpt lat="45.16444" lon="5.95273">
        <ele>2370</ele>
        <time>2013-05-07T10:53:39.000Z</time>
      </trkpt>
      <trkpt lat="45.16437" lon="5.95274">
        <ele>2372</ele>
        <time>2013-05-07T10:53:49.000Z</time>
      </trkpt>
      <trkpt lat="45.16437" lon="5.95274">
        <ele>2372</ele>
        <time>2013-05-07T10:53:59.000Z</time>
      </trkpt>
      <trkpt lat="45.16429" lon="5.95273">
        <ele>2373</ele>
        <time>2013-05-07T10:54:09.000Z</time>
      </trkpt>
      <trkpt lat="45.16429" lon="5.95273">
        <ele>2373</ele>
        <time>2013-05-07T10:54:19.000Z</time>
      </trkpt>
      <trkpt lat="45.16422" lon="5.95269">
        <ele>2375</ele>
        <time>2013-05-07T10:54:29.000Z</time>
      </trkpt>
      <trkpt lat="45.16418" lon="5.95267">
        <ele>2376</ele>
        <time>2013-05-07T10:54:39.000Z</time>
      </trkpt>
      <trkpt lat="45.16417" lon="5.95261">
        <ele>2378</ele>
        <time>2013-05-07T10:54:49.000Z</time>
      </trkpt>
      <trkpt lat="45.16415" lon="5.95255">
        <ele>2386</ele>
        <time>2013-05-07T10:54:59.000Z</time>
      </trkpt>
      <trkpt lat="45.16411" lon="5.95254">
        <ele>2387</ele>
        <time>2013-05-07T10:55:09.000Z</time>
      </trkpt>
      <trkpt lat="45.16408" lon="5.95252">
        <ele>2387</ele>
        <time>2013-05-07T10:55:19.000Z</time>
      </trkpt>
      <trkpt lat="45.16411" lon="5.9525">
        <ele>2389</ele>
        <time>2013-05-07T10:55:29.000Z</time>
      </trkpt>
      <trkpt lat="45.16414" lon="5.95245">
        <ele>2388</ele>
        <time>2013-05-07T10:55:39.000Z</time>
      </trkpt>
      <trkpt lat="45.16415" lon="5.95237">
        <ele>2392</ele>
        <time>2013-05-07T10:55:49.000Z</time>
      </trkpt>
      <trkpt lat="45.16412" lon="5.95236">
        <ele>2393</ele>
        <time>2013-05-07T10:56:19.000Z</time>
      </trkpt>
      <trkpt lat="45.1641" lon="5.95235">
        <ele>2394</ele>
        <time>2013-05-07T10:56:29.000Z</time>
      </trkpt>
      <trkpt lat="45.16413" lon="5.95234">
        <ele>2393</ele>
        <time>2013-05-07T10:58:19.000Z</time>
      </trkpt>
      <trkpt lat="45.16418" lon="5.95232">
        <ele>2372</ele>
        <time>2013-05-07T10:58:29.000Z</time>
      </trkpt>
      <trkpt lat="45.16418" lon="5.95231">
        <ele>2372</ele>
        <time>2013-05-07T10:58:59.000Z</time>
      </trkpt>
      <trkpt lat="45.16409" lon="5.95182">
        <ele>2392</ele>
        <time>2013-05-07T10:59:09.000Z</time>
      </trkpt>
      <trkpt lat="45.16418" lon="5.95121">
        <ele>2345</ele>
        <time>2013-05-07T10:59:19.000Z</time>
      </trkpt>
      <trkpt lat="45.16402" lon="5.95065">
        <ele>2338</ele>
        <time>2013-05-07T10:59:29.000Z</time>
      </trkpt>
      <trkpt lat="45.16404" lon="5.95054">
        <ele>2335</ele>
        <time>2013-05-07T10:59:39.000Z</time>
      </trkpt>
      <trkpt lat="45.16411" lon="5.95">
        <ele>2304</ele>
        <time>2013-05-07T10:59:49.000Z</time>
      </trkpt>
      <trkpt lat="45.16383" lon="5.9492">
        <ele>2289</ele>
        <time>2013-05-07T10:59:59.000Z</time>
      </trkpt>
      <trkpt lat="45.16393" lon="5.94871">
        <ele>2260</ele>
        <time>2013-05-07T11:00:09.000Z</time>
      </trkpt>
      <trkpt lat="45.16393" lon="5.94868">
        <ele>2259</ele>
        <time>2013-05-07T11:00:19.000Z</time>
      </trkpt>
      <trkpt lat="45.16397" lon="5.94865">
        <ele>2258</ele>
        <time>2013-05-07T11:00:29.000Z</time>
      </trkpt>
      <trkpt lat="45.16432" lon="5.94826">
        <ele>2225</ele>
        <time>2013-05-07T11:00:39.000Z</time>
      </trkpt>
      <trkpt lat="45.16498" lon="5.94805">
        <ele>2219</ele>
        <time>2013-05-07T11:00:49.000Z</time>
      </trkpt>
      <trkpt lat="45.16517" lon="5.948">
        <ele>2227</ele>
        <time>2013-05-07T11:00:59.000Z</time>
      </trkpt>
      <trkpt lat="45.16517" lon="5.948">
        <ele>2227</ele>
        <time>2013-05-07T11:01:09.000Z</time>
      </trkpt>
      <trkpt lat="45.16523" lon="5.94792">
        <ele>2226</ele>
        <time>2013-05-07T11:01:19.000Z</time>
      </trkpt>
      <trkpt lat="45.16523" lon="5.94792">
        <ele>2226</ele>
        <time>2013-05-07T11:01:29.000Z</time>
      </trkpt>
      <trkpt lat="45.16525" lon="5.94782">
        <ele>2225</ele>
        <time>2013-05-07T11:01:39.000Z</time>
      </trkpt>
      <trkpt lat="45.16525" lon="5.94782">
        <ele>2225</ele>
        <time>2013-05-07T11:01:49.000Z</time>
      </trkpt>
      <trkpt lat="45.16528" lon="5.94773">
        <ele>2225</ele>
        <time>2013-05-07T11:01:59.000Z</time>
      </trkpt>
      <trkpt lat="45.16528" lon="5.94773">
        <ele>2225</ele>
        <time>2013-05-07T11:02:19.000Z</time>
      </trkpt>
      <trkpt lat="45.16528" lon="5.94762">
        <ele>2223</ele>
        <time>2013-05-07T11:02:29.000Z</time>
      </trkpt>
      <trkpt lat="45.16531" lon="5.94719">
        <ele>2219</ele>
        <time>2013-05-07T11:02:39.000Z</time>
      </trkpt>
      <trkpt lat="45.16531" lon="5.94694">
        <ele>2218</ele>
        <time>2013-05-07T11:02:49.000Z</time>
      </trkpt>
      <trkpt lat="45.16519" lon="5.94659">
        <ele>2212</ele>
        <time>2013-05-07T11:02:59.000Z</time>
      </trkpt>
      <trkpt lat="45.16516" lon="5.94601">
        <ele>2209</ele>
        <time>2013-05-07T11:03:09.000Z</time>
      </trkpt>
      <trkpt lat="45.1649" lon="5.9457">
        <ele>2188</ele>
        <time>2013-05-07T11:03:19.000Z</time>
      </trkpt>
      <trkpt lat="45.16435" lon="5.94569">
        <ele>2179</ele>
        <time>2013-05-07T11:03:29.000Z</time>
      </trkpt>
      <trkpt lat="45.16388" lon="5.94538">
        <ele>2168</ele>
        <time>2013-05-07T11:03:39.000Z</time>
      </trkpt>
      <trkpt lat="45.164" lon="5.94481">
        <ele>2156</ele>
        <time>2013-05-07T11:03:49.000Z</time>
      </trkpt>
      <trkpt lat="45.1643" lon="5.94435">
        <ele>2142</ele>
        <time>2013-05-07T11:03:59.000Z</time>
      </trkpt>
      <trkpt lat="45.16459" lon="5.94364">
        <ele>2121</ele>
        <time>2013-05-07T11:04:09.000Z</time>
      </trkpt>
      <trkpt lat="45.16499" lon="5.94295">
        <ele>2102</ele>
        <time>2013-05-07T11:04:19.000Z</time>
      </trkpt>
      <trkpt lat="45.16524" lon="5.94264">
        <ele>2094</ele>
        <time>2013-05-07T11:04:29.000Z</time>
      </trkpt>
      <trkpt lat="45.16543" lon="5.94238">
        <ele>2084</ele>
        <time>2013-05-07T11:04:39.000Z</time>
      </trkpt>
      <trkpt lat="45.16559" lon="5.94214">
        <ele>2084</ele>
        <time>2013-05-07T11:04:49.000Z</time>
      </trkpt>
      <trkpt lat="45.16572" lon="5.94178">
        <ele>2081</ele>
        <time>2013-05-07T11:04:59.000Z</time>
      </trkpt>
      <trkpt lat="45.16582" lon="5.94165">
        <ele>2079</ele>
        <time>2013-05-07T11:05:09.000Z</time>
      </trkpt>
      <trkpt lat="45.16588" lon="5.94165">
        <ele>2078</ele>
        <time>2013-05-07T11:05:19.000Z</time>
      </trkpt>
      <trkpt lat="45.16588" lon="5.94165">
        <ele>2078</ele>
        <time>2013-05-07T11:05:49.000Z</time>
      </trkpt>
      <trkpt lat="45.16604" lon="5.94167">
        <ele>2084</ele>
        <time>2013-05-07T11:05:59.000Z</time>
      </trkpt>
      <trkpt lat="45.16618" lon="5.94171">
        <ele>2085</ele>
        <time>2013-05-07T11:06:09.000Z</time>
      </trkpt>
      <trkpt lat="45.16635" lon="5.94173">
        <ele>2085</ele>
        <time>2013-05-07T11:06:19.000Z</time>
      </trkpt>
      <trkpt lat="45.16681" lon="5.94155">
        <ele>2073</ele>
        <time>2013-05-07T11:06:29.000Z</time>
      </trkpt>
      <trkpt lat="45.16708" lon="5.94111">
        <ele>2067</ele>
        <time>2013-05-07T11:06:39.000Z</time>
      </trkpt>
      <trkpt lat="45.16735" lon="5.94037">
        <ele>2053</ele>
        <time>2013-05-07T11:06:49.000Z</time>
      </trkpt>
      <trkpt lat="45.16754" lon="5.9398">
        <ele>2043</ele>
        <time>2013-05-07T11:06:59.000Z</time>
      </trkpt>
      <trkpt lat="45.1676" lon="5.93945">
        <ele>2039</ele>
        <time>2013-05-07T11:07:09.000Z</time>
      </trkpt>
      <trkpt lat="45.16765" lon="5.93922">
        <ele>2035</ele>
        <time>2013-05-07T11:07:19.000Z</time>
      </trkpt>
      <trkpt lat="45.16778" lon="5.93915">
        <ele>2023</ele>
        <time>2013-05-07T11:07:29.000Z</time>
      </trkpt>
      <trkpt lat="45.16778" lon="5.93915">
        <ele>2023</ele>
        <time>2013-05-07T11:07:49.000Z</time>
      </trkpt>
      <trkpt lat="45.16818" lon="5.939">
        <ele>2023</ele>
        <time>2013-05-07T11:07:59.000Z</time>
      </trkpt>
      <trkpt lat="45.1688" lon="5.9388">
        <ele>2030</ele>
        <time>2013-05-07T11:08:09.000Z</time>
      </trkpt>
      <trkpt lat="45.16894" lon="5.93855">
        <ele>2027</ele>
        <time>2013-05-07T11:08:19.000Z</time>
      </trkpt>
      <trkpt lat="45.16916" lon="5.93828">
        <ele>2017</ele>
        <time>2013-05-07T11:08:29.000Z</time>
      </trkpt>
      <trkpt lat="45.16936" lon="5.938">
        <ele>2016</ele>
        <time>2013-05-07T11:08:39.000Z</time>
      </trkpt>
      <trkpt lat="45.16958" lon="5.93776">
        <ele>2012</ele>
        <time>2013-05-07T11:08:49.000Z</time>
      </trkpt>
      <trkpt lat="45.16982" lon="5.93757">
        <ele>2009</ele>
        <time>2013-05-07T11:08:59.000Z</time>
      </trkpt>
      <trkpt lat="45.16995" lon="5.93744">
        <ele>1996</ele>
        <time>2013-05-07T11:09:09.000Z</time>
      </trkpt>
      <trkpt lat="45.17021" lon="5.93737">
        <ele>1994</ele>
        <time>2013-05-07T11:09:19.000Z</time>
      </trkpt>
      <trkpt lat="45.1708" lon="5.93722">
        <ele>1995</ele>
        <time>2013-05-07T11:09:29.000Z</time>
      </trkpt>
      <trkpt lat="45.1708" lon="5.93722">
        <ele>1995</ele>
        <time>2013-05-07T11:09:49.000Z</time>
      </trkpt>
      <trkpt lat="45.17087" lon="5.93716">
        <ele>2000</ele>
        <time>2013-05-07T11:09:59.000Z</time>
      </trkpt>
      <trkpt lat="45.17088" lon="5.93718">
        <ele>2000</ele>
        <time>2013-05-07T11:10:29.000Z</time>
      </trkpt>
      <trkpt lat="45.17089" lon="5.9371">
        <ele>1998</ele>
        <time>2013-05-07T11:10:39.000Z</time>
      </trkpt>
      <trkpt lat="45.17089" lon="5.9371">
        <ele>1998</ele>
        <time>2013-05-07T11:10:49.000Z</time>
      </trkpt>
      <trkpt lat="45.17102" lon="5.93697">
        <ele>1995</ele>
        <time>2013-05-07T11:10:59.000Z</time>
      </trkpt>
      <trkpt lat="45.17109" lon="5.93692">
        <ele>1994</ele>
        <time>2013-05-07T11:11:09.000Z</time>
      </trkpt>
      <trkpt lat="45.17118" lon="5.93688">
        <ele>1995</ele>
        <time>2013-05-07T11:11:19.000Z</time>
      </trkpt>
      <trkpt lat="45.17118" lon="5.93688">
        <ele>1995</ele>
        <time>2013-05-07T11:11:29.000Z</time>
      </trkpt>
      <trkpt lat="45.17123" lon="5.93686">
        <ele>1995</ele>
        <time>2013-05-07T11:11:38.999Z</time>
      </trkpt>
      <trkpt lat="45.17123" lon="5.93686">
        <ele>1995</ele>
        <time>2013-05-07T11:12:59.000Z</time>
      </trkpt>
      <trkpt lat="45.17123" lon="5.93676">
        <ele>1994</ele>
        <time>2013-05-07T11:13:09.000Z</time>
      </trkpt>
      <trkpt lat="45.17123" lon="5.93676">
        <ele>1994</ele>
        <time>2013-05-07T11:14:19.000Z</time>
      </trkpt>
      <trkpt lat="45.17119" lon="5.93681">
        <ele>1994</ele>
        <time>2013-05-07T11:14:29.000Z</time>
      </trkpt>
      <trkpt lat="45.17116" lon="5.9368">
        <ele>1993</ele>
        <time>2013-05-07T11:14:39.000Z</time>
      </trkpt>
      <trkpt lat="45.17115" lon="5.93678">
        <ele>1993</ele>
        <time>2013-05-07T11:14:49.000Z</time>
      </trkpt>
      <trkpt lat="45.17116" lon="5.93684">
        <ele>1994</ele>
        <time>2013-05-07T11:15:09.000Z</time>
      </trkpt>
      <trkpt lat="45.1712" lon="5.93674">
        <ele>1993</ele>
        <time>2013-05-07T11:15:19.000Z</time>
      </trkpt>
      <trkpt lat="45.17124" lon="5.93674">
        <ele>1994</ele>
        <time>2013-05-07T11:15:39.000Z</time>
      </trkpt>
      <trkpt lat="45.17124" lon="5.93678">
        <ele>1994</ele>
        <time>2013-05-07T11:15:49.000Z</time>
      </trkpt>
      <trkpt lat="45.17122" lon="5.93672">
        <ele>1993</ele>
        <time>2013-05-07T11:16:39.000Z</time>
      </trkpt>
      <trkpt lat="45.17121" lon="5.9367">
        <ele>1993</ele>
        <time>2013-05-07T11:16:49.000Z</time>
      </trkpt>
      <trkpt lat="45.17121" lon="5.93673">
        <ele>1993</ele>
        <time>2013-05-07T11:17:19.000Z</time>
      </trkpt>
      <trkpt lat="45.17096" lon="5.93676">
        <ele>1986</ele>
        <time>2013-05-07T12:19:04.125Z</time>
      </trkpt>
      <trkpt lat="45.17096" lon="5.93676">
        <ele>1986</ele>
        <time>2013-05-07T12:19:05.125Z</time>
      </trkpt>
      <trkpt lat="45.17101" lon="5.93664">
        <ele>1977</ele>
        <time>2013-05-07T12:19:06.125Z</time>
      </trkpt>
      <trkpt lat="45.17101" lon="5.93664">
        <ele>1977</ele>
        <time>2013-05-07T12:19:08.125Z</time>
      </trkpt>
      <trkpt lat="45.1711" lon="5.9367">
        <ele>1990</ele>
        <time>2013-05-07T12:19:09.125Z</time>
      </trkpt>
      <trkpt lat="45.1711" lon="5.9367">
        <ele>1990</ele>
        <time>2013-05-07T12:19:11.125Z</time>
      </trkpt>
      <trkpt lat="45.17125" lon="5.93673">
        <ele>1994</ele>
        <time>2013-05-07T12:19:12.125Z</time>
      </trkpt>
      <trkpt lat="45.17125" lon="5.93673">
        <ele>1994</ele>
        <time>2013-05-07T12:19:16.125Z</time>
      </trkpt>
      <trkpt lat="45.17134" lon="5.93667">
        <ele>1995</ele>
        <time>2013-05-07T12:19:17.125Z</time>
      </trkpt>
      <trkpt lat="45.17136" lon="5.93672">
        <ele>1995</ele>
        <time>2013-05-07T12:19:35.000Z</time>
      </trkpt>
      <trkpt lat="45.17135" lon="5.93673">
        <ele>1995</ele>
        <time>2013-05-07T12:19:36.000Z</time>
      </trkpt>
      <trkpt lat="45.17134" lon="5.93679">
        <ele>1996</ele>
        <time>2013-05-07T12:19:39.000Z</time>
      </trkpt>
      <trkpt lat="45.17133" lon="5.9368">
        <ele>1996</ele>
        <time>2013-05-07T12:19:40.000Z</time>
      </trkpt>
      <trkpt lat="45.17131" lon="5.93683">
        <ele>1996</ele>
        <time>2013-05-07T12:19:42.000Z</time>
      </trkpt>
      <trkpt lat="45.1713" lon="5.93685">
        <ele>1996</ele>
        <time>2013-05-07T12:19:43.000Z</time>
      </trkpt>
      <trkpt lat="45.17126" lon="5.93685">
        <ele>1995</ele>
        <time>2013-05-07T12:19:52.000Z</time>
      </trkpt>
      <trkpt lat="45.17125" lon="5.93684">
        <ele>1995</ele>
        <time>2013-05-07T12:19:53.000Z</time>
      </trkpt>
      <trkpt lat="45.1713" lon="5.93685">
        <ele>1996</ele>
        <time>2013-05-07T12:20:18.000Z</time>
      </trkpt>
      <trkpt lat="45.1713" lon="5.93685">
        <ele>1996</ele>
        <time>2013-05-07T12:20:19.000Z</time>
      </trkpt>
      <trkpt lat="45.17125" lon="5.93684">
        <ele>1995</ele>
        <time>2013-05-07T12:20:48.000Z</time>
      </trkpt>
      <trkpt lat="45.17125" lon="5.93684">
        <ele>1995</ele>
        <time>2013-05-07T12:20:49.000Z</time>
      </trkpt>
      <trkpt lat="45.17128" lon="5.9368">
        <ele>1995</ele>
        <time>2013-05-07T12:21:14.000Z</time>
      </trkpt>
      <trkpt lat="45.17128" lon="5.93679">
        <ele>1995</ele>
        <time>2013-05-07T12:21:15.000Z</time>
      </trkpt>
      <trkpt lat="45.17131" lon="5.93682">
        <ele>1996</ele>
        <time>2013-05-07T12:21:21.000Z</time>
      </trkpt>
      <trkpt lat="45.17132" lon="5.93683">
        <ele>1996</ele>
        <time>2013-05-07T12:21:22.000Z</time>
      </trkpt>
      <trkpt lat="45.17136" lon="5.93682">
        <ele>1996</ele>
        <time>2013-05-07T12:21:31.000Z</time>
      </trkpt>
      <trkpt lat="45.17137" lon="5.93682">
        <ele>1996</ele>
        <time>2013-05-07T12:21:32.000Z</time>
      </trkpt>
      <trkpt lat="45.1714" lon="5.93686">
        <ele>1997</ele>
        <time>2013-05-07T12:21:42.000Z</time>
      </trkpt>
      <trkpt lat="45.1714" lon="5.93686">
        <ele>1997</ele>
        <time>2013-05-07T12:21:43.000Z</time>
      </trkpt>
      <trkpt lat="45.17143" lon="5.93691">
        <ele>1998</ele>
        <time>2013-05-07T12:21:50.000Z</time>
      </trkpt>
      <trkpt lat="45.17143" lon="5.93692">
        <ele>1998</ele>
        <time>2013-05-07T12:21:51.000Z</time>
      </trkpt>
      <trkpt lat="45.17144" lon="5.93698">
        <ele>1999</ele>
        <time>2013-05-07T12:22:07.000Z</time>
      </trkpt>
      <trkpt lat="45.17144" lon="5.93698">
        <ele>1999</ele>
        <time>2013-05-07T12:22:08.000Z</time>
      </trkpt>
      <trkpt lat="45.17146" lon="5.93704">
        <ele>2000</ele>
        <time>2013-05-07T12:22:20.000Z</time>
      </trkpt>
      <trkpt lat="45.17146" lon="5.93704">
        <ele>2000</ele>
        <time>2013-05-07T12:22:21.000Z</time>
      </trkpt>
      <trkpt lat="45.17142" lon="5.93707">
        <ele>2000</ele>
        <time>2013-05-07T12:22:25.000Z</time>
      </trkpt>
      <trkpt lat="45.17141" lon="5.93708">
        <ele>2000</ele>
        <time>2013-05-07T12:22:26.000Z</time>
      </trkpt>
      <trkpt lat="45.17137" lon="5.9371">
        <ele>2001</ele>
        <time>2013-05-07T12:22:31.000Z</time>
      </trkpt>
      <trkpt lat="45.17137" lon="5.93711">
        <ele>2001</ele>
        <time>2013-05-07T12:22:32.000Z</time>
      </trkpt>
      <trkpt lat="45.17134" lon="5.93716">
        <ele>2002</ele>
        <time>2013-05-07T12:22:40.000Z</time>
      </trkpt>
      <trkpt lat="45.17134" lon="5.93716">
        <ele>2002</ele>
        <time>2013-05-07T12:22:41.000Z</time>
      </trkpt>
      <trkpt lat="45.17131" lon="5.93721">
        <ele>2002</ele>
        <time>2013-05-07T12:22:48.000Z</time>
      </trkpt>
      <trkpt lat="45.17131" lon="5.93722">
        <ele>2002</ele>
        <time>2013-05-07T12:22:49.000Z</time>
      </trkpt>
      <trkpt lat="45.1713" lon="5.93727">
        <ele>2003</ele>
        <time>2013-05-07T12:22:57.000Z</time>
      </trkpt>
      <trkpt lat="45.1713" lon="5.93728">
        <ele>2003</ele>
        <time>2013-05-07T12:22:58.000Z</time>
      </trkpt>
      <trkpt lat="45.17128" lon="5.93733">
        <ele>2004</ele>
        <time>2013-05-07T12:23:03.000Z</time>
      </trkpt>
      <trkpt lat="45.17127" lon="5.93734">
        <ele>2004</ele>
        <time>2013-05-07T12:23:04.000Z</time>
      </trkpt>
      <trkpt lat="45.17125" lon="5.93739">
        <ele>2005</ele>
        <time>2013-05-07T12:23:10.000Z</time>
      </trkpt>
      <trkpt lat="45.17125" lon="5.9374">
        <ele>2005</ele>
        <time>2013-05-07T12:23:11.000Z</time>
      </trkpt>
      <trkpt lat="45.17122" lon="5.93744">
        <ele>2005</ele>
        <time>2013-05-07T12:23:17.000Z</time>
      </trkpt>
      <trkpt lat="45.17121" lon="5.93745">
        <ele>2005</ele>
        <time>2013-05-07T12:23:18.000Z</time>
      </trkpt>
      <trkpt lat="45.17119" lon="5.93749">
        <ele>2005</ele>
        <time>2013-05-07T12:23:24.000Z</time>
      </trkpt>
      <trkpt lat="45.17118" lon="5.93749">
        <ele>2005</ele>
        <time>2013-05-07T12:23:25.000Z</time>
      </trkpt>
      <trkpt lat="45.17115" lon="5.93752">
        <ele>2039</ele>
        <time>2013-05-07T12:24:06.000Z</time>
      </trkpt>
      <trkpt lat="45.17114" lon="5.93752">
        <ele>2039</ele>
        <time>2013-05-07T12:24:07.000Z</time>
      </trkpt>
      <trkpt lat="45.17118" lon="5.93756">
        <ele>2040</ele>
        <time>2013-05-07T12:24:39.000Z</time>
      </trkpt>
      <trkpt lat="45.17119" lon="5.93756">
        <ele>2041</ele>
        <time>2013-05-07T12:24:40.000Z</time>
      </trkpt>
      <trkpt lat="45.17122" lon="5.93761">
        <ele>2042</ele>
        <time>2013-05-07T12:24:49.000Z</time>
      </trkpt>
      <trkpt lat="45.17122" lon="5.93761">
        <ele>2042</ele>
        <time>2013-05-07T12:24:50.000Z</time>
      </trkpt>
      <trkpt lat="45.17126" lon="5.93763">
        <ele>2043</ele>
        <time>2013-05-07T12:24:58.000Z</time>
      </trkpt>
      <trkpt lat="45.17127" lon="5.93763">
        <ele>2043</ele>
        <time>2013-05-07T12:24:59.000Z</time>
      </trkpt>
      <trkpt lat="45.1713" lon="5.93766">
        <ele>2044</ele>
        <time>2013-05-07T12:25:13.000Z</time>
      </trkpt>
      <trkpt lat="45.17131" lon="5.93766">
        <ele>2044</ele>
        <time>2013-05-07T12:25:14.000Z</time>
      </trkpt>
      <trkpt lat="45.17135" lon="5.93767">
        <ele>2044</ele>
        <time>2013-05-07T12:25:25.000Z</time>
      </trkpt>
      <trkpt lat="45.17135" lon="5.93767">
        <ele>2044</ele>
        <time>2013-05-07T12:25:26.000Z</time>
      </trkpt>
      <trkpt lat="45.17139" lon="5.9377">
        <ele>2045</ele>
        <time>2013-05-07T12:25:40.000Z</time>
      </trkpt>
      <trkpt lat="45.17139" lon="5.9377">
        <ele>2045</ele>
        <time>2013-05-07T12:25:41.000Z</time>
      </trkpt>
      <trkpt lat="45.17143" lon="5.93771">
        <ele>2045</ele>
        <time>2013-05-07T12:25:52.000Z</time>
      </trkpt>
      <trkpt lat="45.17144" lon="5.93771">
        <ele>2045</ele>
        <time>2013-05-07T12:25:53.000Z</time>
      </trkpt>
      <trkpt lat="45.17148" lon="5.93773">
        <ele>2045</ele>
        <time>2013-05-07T12:26:02.000Z</time>
      </trkpt>
      <trkpt lat="45.17148" lon="5.93773">
        <ele>2045</ele>
        <time>2013-05-07T12:26:03.000Z</time>
      </trkpt>
      <trkpt lat="45.17152" lon="5.93774">
        <ele>2045</ele>
        <time>2013-05-07T12:26:16.000Z</time>
      </trkpt>
      <trkpt lat="45.17153" lon="5.93774">
        <ele>2045</ele>
        <time>2013-05-07T12:26:17.000Z</time>
      </trkpt>
      <trkpt lat="45.17156" lon="5.93772">
        <ele>2042</ele>
        <time>2013-05-07T12:26:32.000Z</time>
      </trkpt>
      <trkpt lat="45.17157" lon="5.93772">
        <ele>2042</ele>
        <time>2013-05-07T12:26:33.000Z</time>
      </trkpt>
      <trkpt lat="45.17161" lon="5.93772">
        <ele>2042</ele>
        <time>2013-05-07T12:26:41.000Z</time>
      </trkpt>
      <trkpt lat="45.17162" lon="5.93772">
        <ele>2042</ele>
        <time>2013-05-07T12:26:42.000Z</time>
      </trkpt>
      <trkpt lat="45.17166" lon="5.93774">
        <ele>2043</ele>
        <time>2013-05-07T12:26:53.000Z</time>
      </trkpt>
      <trkpt lat="45.17166" lon="5.93773">
        <ele>2043</ele>
        <time>2013-05-07T12:26:54.000Z</time>
      </trkpt>
      <trkpt lat="45.1717" lon="5.93771">
        <ele>2044</ele>
        <time>2013-05-07T12:27:09.000Z</time>
      </trkpt>
      <trkpt lat="45.1717" lon="5.93771">
        <ele>2044</ele>
        <time>2013-05-07T12:27:10.000Z</time>
      </trkpt>
      <trkpt lat="45.17174" lon="5.93772">
        <ele>2046</ele>
        <time>2013-05-07T12:27:22.000Z</time>
      </trkpt>
      <trkpt lat="45.17175" lon="5.93772">
        <ele>2046</ele>
        <time>2013-05-07T12:27:23.000Z</time>
      </trkpt>
      <trkpt lat="45.17179" lon="5.93774">
        <ele>2048</ele>
        <time>2013-05-07T12:27:38.000Z</time>
      </trkpt>
      <trkpt lat="45.17179" lon="5.93774">
        <ele>2049</ele>
        <time>2013-05-07T12:27:39.000Z</time>
      </trkpt>
      <trkpt lat="45.17183" lon="5.93774">
        <ele>2050</ele>
        <time>2013-05-07T12:27:50.000Z</time>
      </trkpt>
      <trkpt lat="45.17184" lon="5.93774">
        <ele>2050</ele>
        <time>2013-05-07T12:27:51.000Z</time>
      </trkpt>
      <trkpt lat="45.17186" lon="5.9377">
        <ele>2048</ele>
        <time>2013-05-07T12:27:59.000Z</time>
      </trkpt>
      <trkpt lat="45.17187" lon="5.93769">
        <ele>2048</ele>
        <time>2013-05-07T12:28:00.000Z</time>
      </trkpt>
      <trkpt lat="45.17191" lon="5.93771">
        <ele>2050</ele>
        <time>2013-05-07T12:28:12.000Z</time>
      </trkpt>
      <trkpt lat="45.17191" lon="5.93771">
        <ele>2050</ele>
        <time>2013-05-07T12:28:13.000Z</time>
      </trkpt>
      <trkpt lat="45.17195" lon="5.9377">
        <ele>2051</ele>
        <time>2013-05-07T12:28:29.000Z</time>
      </trkpt>
      <trkpt lat="45.17196" lon="5.9377">
        <ele>2051</ele>
        <time>2013-05-07T12:28:30.000Z</time>
      </trkpt>
      <trkpt lat="45.17199" lon="5.9377">
        <ele>2052</ele>
        <time>2013-05-07T12:28:46.000Z</time>
      </trkpt>
      <trkpt lat="45.17201" lon="5.93777">
        <ele>2055</ele>
        <time>2013-05-07T12:28:56.000Z</time>
      </trkpt>
      <trkpt lat="45.17201" lon="5.93779">
        <ele>2056</ele>
        <time>2013-05-07T12:29:06.000Z</time>
      </trkpt>
      <trkpt lat="45.17198" lon="5.93782">
        <ele>2057</ele>
        <time>2013-05-07T12:29:16.000Z</time>
      </trkpt>
      <trkpt lat="45.17194" lon="5.93786">
        <ele>2058</ele>
        <time>2013-05-07T12:29:26.000Z</time>
      </trkpt>
      <trkpt lat="45.17191" lon="5.93791">
        <ele>2060</ele>
        <time>2013-05-07T12:29:36.000Z</time>
      </trkpt>
      <trkpt lat="45.1719" lon="5.93793">
        <ele>2061</ele>
        <time>2013-05-07T12:29:46.000Z</time>
      </trkpt>
      <trkpt lat="45.17186" lon="5.93797">
        <ele>2063</ele>
        <time>2013-05-07T12:29:56.000Z</time>
      </trkpt>
      <trkpt lat="45.17183" lon="5.93804">
        <ele>2067</ele>
        <time>2013-05-07T12:30:06.000Z</time>
      </trkpt>
      <trkpt lat="45.17178" lon="5.93811">
        <ele>2072</ele>
        <time>2013-05-07T12:30:16.000Z</time>
      </trkpt>
      <trkpt lat="45.17174" lon="5.93813">
        <ele>2074</ele>
        <time>2013-05-07T12:30:46.000Z</time>
      </trkpt>
      <trkpt lat="45.17171" lon="5.93818">
        <ele>2078</ele>
        <time>2013-05-07T12:30:56.000Z</time>
      </trkpt>
      <trkpt lat="45.17171" lon="5.93817">
        <ele>2077</ele>
        <time>2013-05-07T12:31:46.000Z</time>
      </trkpt>
      <trkpt lat="45.17178" lon="5.93822">
        <ele>2079</ele>
        <time>2013-05-07T12:31:56.000Z</time>
      </trkpt>
      <trkpt lat="45.17185" lon="5.93827">
        <ele>2077</ele>
        <time>2013-05-07T12:32:06.000Z</time>
      </trkpt>
      <trkpt lat="45.17191" lon="5.93825">
        <ele>2074</ele>
        <time>2013-05-07T12:32:16.000Z</time>
      </trkpt>
      <trkpt lat="45.17197" lon="5.93821">
        <ele>2071</ele>
        <time>2013-05-07T12:32:26.000Z</time>
      </trkpt>
      <trkpt lat="45.17203" lon="5.93819">
        <ele>2070</ele>
        <time>2013-05-07T12:32:36.000Z</time>
      </trkpt>
      <trkpt lat="45.17209" lon="5.93818">
        <ele>2069</ele>
        <time>2013-05-07T12:32:46.000Z</time>
      </trkpt>
      <trkpt lat="45.17218" lon="5.93815">
        <ele>2069</ele>
        <time>2013-05-07T12:32:56.000Z</time>
      </trkpt>
      <trkpt lat="45.17223" lon="5.93813">
        <ele>2068</ele>
        <time>2013-05-07T12:33:06.000Z</time>
      </trkpt>
      <trkpt lat="45.17229" lon="5.93814">
        <ele>2069</ele>
        <time>2013-05-07T12:33:16.000Z</time>
      </trkpt>
      <trkpt lat="45.17234" lon="5.93815">
        <ele>2071</ele>
        <time>2013-05-07T12:33:26.000Z</time>
      </trkpt>
      <trkpt lat="45.17239" lon="5.9382">
        <ele>2073</ele>
        <time>2013-05-07T12:33:36.000Z</time>
      </trkpt>
      <trkpt lat="45.17237" lon="5.93823">
        <ele>2074</ele>
        <time>2013-05-07T12:34:06.000Z</time>
      </trkpt>
      <trkpt lat="45.17234" lon="5.9382">
        <ele>2072</ele>
        <time>2013-05-07T12:34:16.000Z</time>
      </trkpt>
      <trkpt lat="45.17237" lon="5.9382">
        <ele>2073</ele>
        <time>2013-05-07T12:34:36.000Z</time>
      </trkpt>
      <trkpt lat="45.17238" lon="5.93821">
        <ele>2073</ele>
        <time>2013-05-07T12:34:46.000Z</time>
      </trkpt>
      <trkpt lat="45.17236" lon="5.93828">
        <ele>2075</ele>
        <time>2013-05-07T12:34:56.000Z</time>
      </trkpt>
      <trkpt lat="45.17235" lon="5.93819">
        <ele>2072</ele>
        <time>2013-05-07T12:35:06.000Z</time>
      </trkpt>
      <trkpt lat="45.17238" lon="5.93822">
        <ele>2074</ele>
        <time>2013-05-07T12:35:16.000Z</time>
      </trkpt>
      <trkpt lat="45.17244" lon="5.93827">
        <ele>2078</ele>
        <time>2013-05-07T12:35:26.000Z</time>
      </trkpt>
      <trkpt lat="45.17248" lon="5.93827">
        <ele>2079</ele>
        <time>2013-05-07T12:35:36.000Z</time>
      </trkpt>
      <trkpt lat="45.17253" lon="5.93836">
        <ele>2088</ele>
        <time>2013-05-07T12:35:46.000Z</time>
      </trkpt>
      <trkpt lat="45.1726" lon="5.93845">
        <ele>2097</ele>
        <time>2013-05-07T12:35:56.000Z</time>
      </trkpt>
      <trkpt lat="45.17267" lon="5.93853">
        <ele>2103</ele>
        <time>2013-05-07T12:36:06.000Z</time>
      </trkpt>
      <trkpt lat="45.17272" lon="5.93862">
        <ele>2107</ele>
        <time>2013-05-07T12:36:16.000Z</time>
      </trkpt>
      <trkpt lat="45.17275" lon="5.93873">
        <ele>2111</ele>
        <time>2013-05-07T12:36:26.000Z</time>
      </trkpt>
      <trkpt lat="45.17278" lon="5.93884">
        <ele>2115</ele>
        <time>2013-05-07T12:36:36.000Z</time>
      </trkpt>
      <trkpt lat="45.1728" lon="5.93894">
        <ele>2118</ele>
        <time>2013-05-07T12:36:46.000Z</time>
      </trkpt>
      <trkpt lat="45.17282" lon="5.93906">
        <ele>2120</ele>
        <time>2013-05-07T12:36:56.000Z</time>
      </trkpt>
      <trkpt lat="45.17284" lon="5.93916">
        <ele>2121</ele>
        <time>2013-05-07T12:37:06.000Z</time>
      </trkpt>
      <trkpt lat="45.17284" lon="5.93926">
        <ele>2154</ele>
        <time>2013-05-07T12:37:16.000Z</time>
      </trkpt>
      <trkpt lat="45.17285" lon="5.93935">
        <ele>2156</ele>
        <time>2013-05-07T12:37:26.000Z</time>
      </trkpt>
      <trkpt lat="45.17287" lon="5.93942">
        <ele>2157</ele>
        <time>2013-05-07T12:37:36.000Z</time>
      </trkpt>
      <trkpt lat="45.17289" lon="5.93949">
        <ele>2159</ele>
        <time>2013-05-07T12:37:46.000Z</time>
      </trkpt>
      <trkpt lat="45.17289" lon="5.93958">
        <ele>2162</ele>
        <time>2013-05-07T12:37:56.000Z</time>
      </trkpt>
      <trkpt lat="45.17289" lon="5.93969">
        <ele>2167</ele>
        <time>2013-05-07T12:38:06.000Z</time>
      </trkpt>
      <trkpt lat="45.17289" lon="5.93975">
        <ele>2169</ele>
        <time>2013-05-07T12:38:16.000Z</time>
      </trkpt>
      <trkpt lat="45.17292" lon="5.93982">
        <ele>2169</ele>
        <time>2013-05-07T12:38:26.000Z</time>
      </trkpt>
      <trkpt lat="45.173" lon="5.93991">
        <ele>2162</ele>
        <time>2013-05-07T12:38:36.000Z</time>
      </trkpt>
      <trkpt lat="45.17306" lon="5.93996">
        <ele>2156</ele>
        <time>2013-05-07T12:38:46.000Z</time>
      </trkpt>
      <trkpt lat="45.17312" lon="5.94002">
        <ele>2165</ele>
        <time>2013-05-07T12:38:56.000Z</time>
      </trkpt>
      <trkpt lat="45.17316" lon="5.94004">
        <ele>2159</ele>
        <time>2013-05-07T12:39:06.000Z</time>
      </trkpt>
      <trkpt lat="45.17321" lon="5.94011">
        <ele>2156</ele>
        <time>2013-05-07T12:39:16.000Z</time>
      </trkpt>
      <trkpt lat="45.17324" lon="5.94016">
        <ele>2159</ele>
        <time>2013-05-07T12:39:26.000Z</time>
      </trkpt>
      <trkpt lat="45.17327" lon="5.9402">
        <ele>2160</ele>
        <time>2013-05-07T12:39:36.000Z</time>
      </trkpt>
      <trkpt lat="45.17332" lon="5.94029">
        <ele>2165</ele>
        <time>2013-05-07T12:39:46.000Z</time>
      </trkpt>
      <trkpt lat="45.17336" lon="5.94035">
        <ele>2136</ele>
        <time>2013-05-07T12:39:56.000Z</time>
      </trkpt>
      <trkpt lat="45.1734" lon="5.94039">
        <ele>2137</ele>
        <time>2013-05-07T12:40:06.000Z</time>
      </trkpt>
      <trkpt lat="45.17344" lon="5.94046">
        <ele>2139</ele>
        <time>2013-05-07T12:40:16.000Z</time>
      </trkpt>
      <trkpt lat="45.17346" lon="5.94054">
        <ele>2140</ele>
        <time>2013-05-07T12:40:26.000Z</time>
      </trkpt>
      <trkpt lat="45.17352" lon="5.94058">
        <ele>2141</ele>
        <time>2013-05-07T12:40:36.000Z</time>
      </trkpt>
      <trkpt lat="45.17359" lon="5.94059">
        <ele>2142</ele>
        <time>2013-05-07T12:40:46.000Z</time>
      </trkpt>
      <trkpt lat="45.17365" lon="5.94055">
        <ele>2142</ele>
        <time>2013-05-07T12:40:56.000Z</time>
      </trkpt>
      <trkpt lat="45.17369" lon="5.94061">
        <ele>2144</ele>
        <time>2013-05-07T12:41:06.000Z</time>
      </trkpt>
      <trkpt lat="45.17368" lon="5.94074">
        <ele>2144</ele>
        <time>2013-05-07T12:41:16.000Z</time>
      </trkpt>
      <trkpt lat="45.17367" lon="5.9408">
        <ele>2144</ele>
        <time>2013-05-07T12:41:26.000Z</time>
      </trkpt>
      <trkpt lat="45.17369" lon="5.94087">
        <ele>2160</ele>
        <time>2013-05-07T12:41:36.000Z</time>
      </trkpt>
      <trkpt lat="45.17369" lon="5.94097">
        <ele>2161</ele>
        <time>2013-05-07T12:41:46.000Z</time>
      </trkpt>
      <trkpt lat="45.17368" lon="5.94104">
        <ele>2161</ele>
        <time>2013-05-07T12:41:56.000Z</time>
      </trkpt>
      <trkpt lat="45.17368" lon="5.94116">
        <ele>2163</ele>
        <time>2013-05-07T12:42:06.000Z</time>
      </trkpt>
      <trkpt lat="45.17367" lon="5.94123">
        <ele>2165</ele>
        <time>2013-05-07T12:42:16.000Z</time>
      </trkpt>
      <trkpt lat="45.17367" lon="5.94135">
        <ele>2167</ele>
        <time>2013-05-07T12:42:26.000Z</time>
      </trkpt>
      <trkpt lat="45.17369" lon="5.94142">
        <ele>2168</ele>
        <time>2013-05-07T12:42:36.000Z</time>
      </trkpt>
      <trkpt lat="45.1737" lon="5.94153">
        <ele>2169</ele>
        <time>2013-05-07T12:42:46.000Z</time>
      </trkpt>
      <trkpt lat="45.17373" lon="5.94161">
        <ele>2170</ele>
        <time>2013-05-07T12:42:56.000Z</time>
      </trkpt>
      <trkpt lat="45.17376" lon="5.94165">
        <ele>2171</ele>
        <time>2013-05-07T12:43:06.000Z</time>
      </trkpt>
      <trkpt lat="45.17379" lon="5.9416">
        <ele>2171</ele>
        <time>2013-05-07T12:43:16.000Z</time>
      </trkpt>
      <trkpt lat="45.1738" lon="5.94165">
        <ele>2171</ele>
        <time>2013-05-07T12:43:36.000Z</time>
      </trkpt>
      <trkpt lat="45.17379" lon="5.94176">
        <ele>2187</ele>
        <time>2013-05-07T12:43:46.000Z</time>
      </trkpt>
      <trkpt lat="45.17378" lon="5.94187">
        <ele>2188</ele>
        <time>2013-05-07T12:43:56.000Z</time>
      </trkpt>
      <trkpt lat="45.17379" lon="5.94197">
        <ele>2189</ele>
        <time>2013-05-07T12:44:06.000Z</time>
      </trkpt>
      <trkpt lat="45.17378" lon="5.94206">
        <ele>2190</ele>
        <time>2013-05-07T12:44:16.000Z</time>
      </trkpt>
      <trkpt lat="45.17379" lon="5.94215">
        <ele>2191</ele>
        <time>2013-05-07T12:44:26.000Z</time>
      </trkpt>
      <trkpt lat="45.17379" lon="5.94221">
        <ele>2192</ele>
        <time>2013-05-07T12:44:36.000Z</time>
      </trkpt>
      <trkpt lat="45.1738" lon="5.94227">
        <ele>2192</ele>
        <time>2013-05-07T12:44:46.000Z</time>
      </trkpt>
      <trkpt lat="45.17381" lon="5.94234">
        <ele>2193</ele>
        <time>2013-05-07T12:44:56.000Z</time>
      </trkpt>
      <trkpt lat="45.17384" lon="5.94242">
        <ele>2194</ele>
        <time>2013-05-07T12:45:06.000Z</time>
      </trkpt>
      <trkpt lat="45.17387" lon="5.94245">
        <ele>2194</ele>
        <time>2013-05-07T12:45:16.000Z</time>
      </trkpt>
      <trkpt lat="45.17392" lon="5.94253">
        <ele>2203</ele>
        <time>2013-05-07T12:45:26.000Z</time>
      </trkpt>
      <trkpt lat="45.17397" lon="5.94261">
        <ele>2203</ele>
        <time>2013-05-07T12:45:36.000Z</time>
      </trkpt>
      <trkpt lat="45.17396" lon="5.94271">
        <ele>2203</ele>
        <time>2013-05-07T12:45:46.000Z</time>
      </trkpt>
      <trkpt lat="45.17396" lon="5.9428">
        <ele>2204</ele>
        <time>2013-05-07T12:45:56.000Z</time>
      </trkpt>
      <trkpt lat="45.17395" lon="5.94288">
        <ele>2205</ele>
        <time>2013-05-07T12:46:06.000Z</time>
      </trkpt>
      <trkpt lat="45.17389" lon="5.94296">
        <ele>2205</ele>
        <time>2013-05-07T12:46:16.000Z</time>
      </trkpt>
      <trkpt lat="45.17381" lon="5.94303">
        <ele>2206</ele>
        <time>2013-05-07T12:46:26.000Z</time>
      </trkpt>
      <trkpt lat="45.17378" lon="5.94304">
        <ele>2206</ele>
        <time>2013-05-07T12:46:36.000Z</time>
      </trkpt>
      <trkpt lat="45.17374" lon="5.94311">
        <ele>2207</ele>
        <time>2013-05-07T12:46:46.000Z</time>
      </trkpt>
      <trkpt lat="45.17369" lon="5.94318">
        <ele>2207</ele>
        <time>2013-05-07T12:46:56.000Z</time>
      </trkpt>
      <trkpt lat="45.17367" lon="5.94323">
        <ele>2207</ele>
        <time>2013-05-07T12:47:06.000Z</time>
      </trkpt>
      <trkpt lat="45.17369" lon="5.94331">
        <ele>2207</ele>
        <time>2013-05-07T12:47:16.000Z</time>
      </trkpt>
      <trkpt lat="45.17368" lon="5.94337">
        <ele>2212</ele>
        <time>2013-05-07T12:47:26.000Z</time>
      </trkpt>
      <trkpt lat="45.17368" lon="5.94348">
        <ele>2212</ele>
        <time>2013-05-07T12:47:36.000Z</time>
      </trkpt>
      <trkpt lat="45.17366" lon="5.94357">
        <ele>2213</ele>
        <time>2013-05-07T12:47:46.000Z</time>
      </trkpt>
      <trkpt lat="45.17364" lon="5.94366">
        <ele>2213</ele>
        <time>2013-05-07T12:47:56.000Z</time>
      </trkpt>
      <trkpt lat="45.17362" lon="5.94376">
        <ele>2213</ele>
        <time>2013-05-07T12:48:06.000Z</time>
      </trkpt>
      <trkpt lat="45.17361" lon="5.94385">
        <ele>2214</ele>
        <time>2013-05-07T12:48:16.000Z</time>
      </trkpt>
      <trkpt lat="45.1736" lon="5.94392">
        <ele>2214</ele>
        <time>2013-05-07T12:48:26.000Z</time>
      </trkpt>
      <trkpt lat="45.17358" lon="5.94399">
        <ele>2214</ele>
        <time>2013-05-07T12:48:36.000Z</time>
      </trkpt>
      <trkpt lat="45.17353" lon="5.94404">
        <ele>2214</ele>
        <time>2013-05-07T12:48:46.000Z</time>
      </trkpt>
      <trkpt lat="45.17349" lon="5.9441">
        <ele>2215</ele>
        <time>2013-05-07T12:48:56.000Z</time>
      </trkpt>
      <trkpt lat="45.17345" lon="5.94415">
        <ele>2215</ele>
        <time>2013-05-07T12:49:06.000Z</time>
      </trkpt>
      <trkpt lat="45.1734" lon="5.9442">
        <ele>2218</ele>
        <time>2013-05-07T12:49:16.000Z</time>
      </trkpt>
      <trkpt lat="45.17337" lon="5.94423">
        <ele>2218</ele>
        <time>2013-05-07T12:49:26.000Z</time>
      </trkpt>
      <trkpt lat="45.1733" lon="5.94427">
        <ele>2223</ele>
        <time>2013-05-07T12:49:36.000Z</time>
      </trkpt>
      <trkpt lat="45.17322" lon="5.94425">
        <ele>2224</ele>
        <time>2013-05-07T12:49:46.000Z</time>
      </trkpt>
      <trkpt lat="45.17314" lon="5.9443">
        <ele>2228</ele>
        <time>2013-05-07T12:49:56.000Z</time>
      </trkpt>
      <trkpt lat="45.17312" lon="5.9444">
        <ele>2230</ele>
        <time>2013-05-07T12:50:06.000Z</time>
      </trkpt>
      <trkpt lat="45.17308" lon="5.94445">
        <ele>2232</ele>
        <time>2013-05-07T12:50:16.000Z</time>
      </trkpt>
      <trkpt lat="45.17306" lon="5.94452">
        <ele>2233</ele>
        <time>2013-05-07T12:50:26.000Z</time>
      </trkpt>
      <trkpt lat="45.17303" lon="5.94458">
        <ele>2234</ele>
        <time>2013-05-07T12:50:36.000Z</time>
      </trkpt>
      <trkpt lat="45.173" lon="5.94464">
        <ele>2235</ele>
        <time>2013-05-07T12:50:46.000Z</time>
      </trkpt>
      <trkpt lat="45.17297" lon="5.94473">
        <ele>2236</ele>
        <time>2013-05-07T12:50:56.000Z</time>
      </trkpt>
      <trkpt lat="45.17297" lon="5.94481">
        <ele>2236</ele>
        <time>2013-05-07T12:51:06.000Z</time>
      </trkpt>
      <trkpt lat="45.17301" lon="5.94487">
        <ele>2236</ele>
        <time>2013-05-07T12:51:16.000Z</time>
      </trkpt>
      <trkpt lat="45.17304" lon="5.94495">
        <ele>2235</ele>
        <time>2013-05-07T12:51:26.000Z</time>
      </trkpt>
      <trkpt lat="45.17303" lon="5.94501">
        <ele>2248</ele>
        <time>2013-05-07T12:51:46.000Z</time>
      </trkpt>
      <trkpt lat="45.17298" lon="5.94493">
        <ele>2236</ele>
        <time>2013-05-07T12:51:56.000Z</time>
      </trkpt>
      <trkpt lat="45.17295" lon="5.9449">
        <ele>2237</ele>
        <time>2013-05-07T12:52:06.000Z</time>
      </trkpt>
      <trkpt lat="45.1729" lon="5.94485">
        <ele>2238</ele>
        <time>2013-05-07T12:52:16.000Z</time>
      </trkpt>
      <trkpt lat="45.17285" lon="5.94481">
        <ele>2238</ele>
        <time>2013-05-07T12:52:26.000Z</time>
      </trkpt>
      <trkpt lat="45.17282" lon="5.94474">
        <ele>2239</ele>
        <time>2013-05-07T12:52:36.000Z</time>
      </trkpt>
      <trkpt lat="45.17282" lon="5.94476">
        <ele>2239</ele>
        <time>2013-05-07T12:52:46.000Z</time>
      </trkpt>
      <trkpt lat="45.17283" lon="5.9448">
        <ele>2239</ele>
        <time>2013-05-07T12:52:56.000Z</time>
      </trkpt>
      <trkpt lat="45.17283" lon="5.94483">
        <ele>2239</ele>
        <time>2013-05-07T12:53:06.000Z</time>
      </trkpt>
      <trkpt lat="45.17286" lon="5.94486">
        <ele>2239</ele>
        <time>2013-05-07T12:53:16.000Z</time>
      </trkpt>
      <trkpt lat="45.17285" lon="5.94496">
        <ele>2239</ele>
        <time>2013-05-07T12:53:26.000Z</time>
      </trkpt>
      <trkpt lat="45.17285" lon="5.94505">
        <ele>2252</ele>
        <time>2013-05-07T12:53:36.000Z</time>
      </trkpt>
      <trkpt lat="45.17284" lon="5.94515">
        <ele>2253</ele>
        <time>2013-05-07T12:53:46.000Z</time>
      </trkpt>
      <trkpt lat="45.17285" lon="5.94524">
        <ele>2254</ele>
        <time>2013-05-07T12:53:56.000Z</time>
      </trkpt>
      <trkpt lat="45.17289" lon="5.94524">
        <ele>2253</ele>
        <time>2013-05-07T12:54:06.000Z</time>
      </trkpt>
      <trkpt lat="45.17286" lon="5.94524">
        <ele>2254</ele>
        <time>2013-05-07T12:54:26.000Z</time>
      </trkpt>
      <trkpt lat="45.17278" lon="5.94522">
        <ele>2255</ele>
        <time>2013-05-07T12:54:36.000Z</time>
      </trkpt>
      <trkpt lat="45.17273" lon="5.94527">
        <ele>2255</ele>
        <time>2013-05-07T12:54:46.000Z</time>
      </trkpt>
      <trkpt lat="45.17273" lon="5.94535">
        <ele>2257</ele>
        <time>2013-05-07T12:54:56.000Z</time>
      </trkpt>
      <trkpt lat="45.17273" lon="5.94544">
        <ele>2258</ele>
        <time>2013-05-07T12:55:06.000Z</time>
      </trkpt>
      <trkpt lat="45.17276" lon="5.94541">
        <ele>2257</ele>
        <time>2013-05-07T12:55:26.000Z</time>
      </trkpt>
      <trkpt lat="45.17278" lon="5.9454">
        <ele>2257</ele>
        <time>2013-05-07T12:55:36.000Z</time>
      </trkpt>
      <trkpt lat="45.17277" lon="5.9455">
        <ele>2259</ele>
        <time>2013-05-07T12:55:46.000Z</time>
      </trkpt>
      <trkpt lat="45.17275" lon="5.94561">
        <ele>2261</ele>
        <time>2013-05-07T12:55:56.000Z</time>
      </trkpt>
      <trkpt lat="45.17274" lon="5.9457">
        <ele>2263</ele>
        <time>2013-05-07T12:56:06.000Z</time>
      </trkpt>
      <trkpt lat="45.17276" lon="5.94567">
        <ele>2262</ele>
        <time>2013-05-07T12:56:16.000Z</time>
      </trkpt>
      <trkpt lat="45.17276" lon="5.94577">
        <ele>2263</ele>
        <time>2013-05-07T12:56:26.000Z</time>
      </trkpt>
      <trkpt lat="45.17277" lon="5.94584">
        <ele>2282</ele>
        <time>2013-05-07T12:56:36.000Z</time>
      </trkpt>
      <trkpt lat="45.17276" lon="5.94594">
        <ele>2283</ele>
        <time>2013-05-07T12:56:46.000Z</time>
      </trkpt>
      <trkpt lat="45.17275" lon="5.94603">
        <ele>2284</ele>
        <time>2013-05-07T12:56:56.000Z</time>
      </trkpt>
      <trkpt lat="45.17281" lon="5.94605">
        <ele>2285</ele>
        <time>2013-05-07T12:57:06.000Z</time>
      </trkpt>
      <trkpt lat="45.17284" lon="5.9461">
        <ele>2286</ele>
        <time>2013-05-07T12:57:16.000Z</time>
      </trkpt>
      <trkpt lat="45.17286" lon="5.9462">
        <ele>2288</ele>
        <time>2013-05-07T12:57:26.000Z</time>
      </trkpt>
      <trkpt lat="45.17289" lon="5.94626">
        <ele>2289</ele>
        <time>2013-05-07T12:57:36.000Z</time>
      </trkpt>
      <trkpt lat="45.17293" lon="5.94627">
        <ele>2290</ele>
        <time>2013-05-07T12:57:46.000Z</time>
      </trkpt>
      <trkpt lat="45.17296" lon="5.94628">
        <ele>2290</ele>
        <time>2013-05-07T12:57:56.000Z</time>
      </trkpt>
      <trkpt lat="45.17302" lon="5.94628">
        <ele>2290</ele>
        <time>2013-05-07T12:58:06.000Z</time>
      </trkpt>
      <trkpt lat="45.17303" lon="5.94626">
        <ele>2290</ele>
        <time>2013-05-07T12:58:36.000Z</time>
      </trkpt>
      <trkpt lat="45.17307" lon="5.9463">
        <ele>2291</ele>
        <time>2013-05-07T12:58:46.000Z</time>
      </trkpt>
      <trkpt lat="45.1731" lon="5.94631">
        <ele>2291</ele>
        <time>2013-05-07T12:58:56.000Z</time>
      </trkpt>
      <trkpt lat="45.17308" lon="5.94637">
        <ele>2293</ele>
        <time>2013-05-07T12:59:06.000Z</time>
      </trkpt>
      <trkpt lat="45.17312" lon="5.94639">
        <ele>2294</ele>
        <time>2013-05-07T12:59:26.000Z</time>
      </trkpt>
      <trkpt lat="45.17315" lon="5.9464">
        <ele>2295</ele>
        <time>2013-05-07T12:59:36.000Z</time>
      </trkpt>
      <trkpt lat="45.17318" lon="5.94643">
        <ele>2297</ele>
        <time>2013-05-07T12:59:46.000Z</time>
      </trkpt>
      <trkpt lat="45.17322" lon="5.94652">
        <ele>2301</ele>
        <time>2013-05-07T12:59:56.000Z</time>
      </trkpt>
      <trkpt lat="45.17324" lon="5.94654">
        <ele>2303</ele>
        <time>2013-05-07T13:00:16.000Z</time>
      </trkpt>
      <trkpt lat="45.17325" lon="5.94662">
        <ele>2307</ele>
        <time>2013-05-07T13:00:26.000Z</time>
      </trkpt>
      <trkpt lat="45.17328" lon="5.94668">
        <ele>2319</ele>
        <time>2013-05-07T13:00:36.000Z</time>
      </trkpt>
      <trkpt lat="45.17332" lon="5.9467">
        <ele>2318</ele>
        <time>2013-05-07T13:00:56.000Z</time>
      </trkpt>
      <trkpt lat="45.17333" lon="5.94673">
        <ele>2320</ele>
        <time>2013-05-07T13:01:06.000Z</time>
      </trkpt>
      <trkpt lat="45.1733" lon="5.9468">
        <ele>2323</ele>
        <time>2013-05-07T13:01:16.000Z</time>
      </trkpt>
      <trkpt lat="45.17332" lon="5.94684">
        <ele>2325</ele>
        <time>2013-05-07T13:01:26.000Z</time>
      </trkpt>
      <trkpt lat="45.17336" lon="5.94685">
        <ele>2330</ele>
        <time>2013-05-07T13:01:36.000Z</time>
      </trkpt>
      <trkpt lat="45.17338" lon="5.94686">
        <ele>2331</ele>
        <time>2013-05-07T13:01:56.000Z</time>
      </trkpt>
      <trkpt lat="45.17341" lon="5.94692">
        <ele>2334</ele>
        <time>2013-05-07T13:02:06.000Z</time>
      </trkpt>
      <trkpt lat="45.17346" lon="5.94695">
        <ele>2336</ele>
        <time>2013-05-07T13:02:16.000Z</time>
      </trkpt>
      <trkpt lat="45.17347" lon="5.94699">
        <ele>2337</ele>
        <time>2013-05-07T13:02:26.000Z</time>
      </trkpt>
      <trkpt lat="45.17349" lon="5.94704">
        <ele>2339</ele>
        <time>2013-05-07T13:02:36.000Z</time>
      </trkpt>
      <trkpt lat="45.17349" lon="5.94709">
        <ele>2340</ele>
        <time>2013-05-07T13:02:46.000Z</time>
      </trkpt>
      <trkpt lat="45.1735" lon="5.94715">
        <ele>2341</ele>
        <time>2013-05-07T13:02:56.000Z</time>
      </trkpt>
      <trkpt lat="45.17352" lon="5.94721">
        <ele>2343</ele>
        <time>2013-05-07T13:03:16.000Z</time>
      </trkpt>
      <trkpt lat="45.17353" lon="5.94726">
        <ele>2344</ele>
        <time>2013-05-07T13:03:26.000Z</time>
      </trkpt>
      <trkpt lat="45.17354" lon="5.9473">
        <ele>2344</ele>
        <time>2013-05-07T13:03:46.000Z</time>
      </trkpt>
      <trkpt lat="45.17354" lon="5.94738">
        <ele>2345</ele>
        <time>2013-05-07T13:03:56.000Z</time>
      </trkpt>
      <trkpt lat="45.17357" lon="5.94746">
        <ele>2346</ele>
        <time>2013-05-07T13:04:06.000Z</time>
      </trkpt>
      <trkpt lat="45.17357" lon="5.94753">
        <ele>2355</ele>
        <time>2013-05-07T13:04:16.000Z</time>
      </trkpt>
      <trkpt lat="45.17358" lon="5.94757">
        <ele>2355</ele>
        <time>2013-05-07T13:04:26.000Z</time>
      </trkpt>
      <trkpt lat="45.1736" lon="5.94764">
        <ele>2356</ele>
        <time>2013-05-07T13:04:36.000Z</time>
      </trkpt>
      <trkpt lat="45.17357" lon="5.94766">
        <ele>2356</ele>
        <time>2013-05-07T13:04:46.000Z</time>
      </trkpt>
      <trkpt lat="45.17355" lon="5.94767">
        <ele>2356</ele>
        <time>2013-05-07T13:04:56.000Z</time>
      </trkpt>
      <trkpt lat="45.17359" lon="5.94767">
        <ele>2356</ele>
        <time>2013-05-07T13:05:36.000Z</time>
      </trkpt>
      <trkpt lat="45.17366" lon="5.94763">
        <ele>2357</ele>
        <time>2013-05-07T13:05:46.000Z</time>
      </trkpt>
      <trkpt lat="45.17373" lon="5.9476">
        <ele>2358</ele>
        <time>2013-05-07T13:05:56.000Z</time>
      </trkpt>
      <trkpt lat="45.17376" lon="5.94757">
        <ele>2359</ele>
        <time>2013-05-07T13:06:06.000Z</time>
      </trkpt>
      <trkpt lat="45.17378" lon="5.94754">
        <ele>2359</ele>
        <time>2013-05-07T13:06:16.000Z</time>
      </trkpt>
      <trkpt lat="45.1738" lon="5.94758">
        <ele>2359</ele>
        <time>2013-05-07T13:06:46.000Z</time>
      </trkpt>
      <trkpt lat="45.17379" lon="5.94765">
        <ele>2359</ele>
        <time>2013-05-07T13:06:56.000Z</time>
      </trkpt>
      <trkpt lat="45.1738" lon="5.94769">
        <ele>2359</ele>
        <time>2013-05-07T13:07:06.000Z</time>
      </trkpt>
      <trkpt lat="45.1738" lon="5.94775">
        <ele>2359</ele>
        <time>2013-05-07T13:07:16.000Z</time>
      </trkpt>
      <trkpt lat="45.17383" lon="5.94774">
        <ele>2360</ele>
        <time>2013-05-07T13:08:06.000Z</time>
      </trkpt>
      <trkpt lat="45.17388" lon="5.94771">
        <ele>2360</ele>
        <time>2013-05-07T13:08:16.000Z</time>
      </trkpt>
      <trkpt lat="45.1739" lon="5.94768">
        <ele>2361</ele>
        <time>2013-05-07T13:08:26.000Z</time>
      </trkpt>
      <trkpt lat="45.17394" lon="5.94765">
        <ele>2361</ele>
        <time>2013-05-07T13:08:36.000Z</time>
      </trkpt>
      <trkpt lat="45.17396" lon="5.94763">
        <ele>2362</ele>
        <time>2013-05-07T13:08:46.000Z</time>
      </trkpt>
      <trkpt lat="45.174" lon="5.94757">
        <ele>2363</ele>
        <time>2013-05-07T13:08:56.000Z</time>
      </trkpt>
      <trkpt lat="45.17403" lon="5.94754">
        <ele>2364</ele>
        <time>2013-05-07T13:09:06.000Z</time>
      </trkpt>
      <trkpt lat="45.17407" lon="5.94751">
        <ele>2365</ele>
        <time>2013-05-07T13:09:16.000Z</time>
      </trkpt>
      <trkpt lat="45.17412" lon="5.94749">
        <ele>2364</ele>
        <time>2013-05-07T13:09:26.000Z</time>
      </trkpt>
      <trkpt lat="45.17415" lon="5.94751">
        <ele>2367</ele>
        <time>2013-05-07T13:09:36.000Z</time>
      </trkpt>
      <trkpt lat="45.17421" lon="5.94754">
        <ele>2363</ele>
        <time>2013-05-07T13:09:46.000Z</time>
      </trkpt>
      <trkpt lat="45.17423" lon="5.9475">
        <ele>2362</ele>
        <time>2013-05-07T13:11:06.000Z</time>
      </trkpt>
      <trkpt lat="45.17423" lon="5.94748">
        <ele>2362</ele>
        <time>2013-05-07T13:11:16.000Z</time>
      </trkpt>
      <trkpt lat="45.17426" lon="5.94743">
        <ele>2358</ele>
        <time>2013-05-07T13:11:26.000Z</time>
      </trkpt>
      <trkpt lat="45.17428" lon="5.94734">
        <ele>2354</ele>
        <time>2013-05-07T13:11:36.000Z</time>
      </trkpt>
      <trkpt lat="45.17429" lon="5.9473">
        <ele>2352</ele>
        <time>2013-05-07T13:11:46.000Z</time>
      </trkpt>
      <trkpt lat="45.17432" lon="5.94724">
        <ele>2350</ele>
        <time>2013-05-07T13:11:56.000Z</time>
      </trkpt>
      <trkpt lat="45.17435" lon="5.9472">
        <ele>2349</ele>
        <time>2013-05-07T13:12:06.000Z</time>
      </trkpt>
      <trkpt lat="45.17433" lon="5.94716">
        <ele>2348</ele>
        <time>2013-05-07T13:12:16.000Z</time>
      </trkpt>
      <trkpt lat="45.17437" lon="5.94718">
        <ele>2348</ele>
        <time>2013-05-07T13:13:06.000Z</time>
      </trkpt>
      <trkpt lat="45.17439" lon="5.94722">
        <ele>2348</ele>
        <time>2013-05-07T13:13:16.000Z</time>
      </trkpt>
      <trkpt lat="45.17436" lon="5.9472">
        <ele>2348</ele>
        <time>2013-05-07T13:13:26.000Z</time>
      </trkpt>
      <trkpt lat="45.17432" lon="5.94711">
        <ele>2347</ele>
        <time>2013-05-07T13:13:36.000Z</time>
      </trkpt>
      <trkpt lat="45.17435" lon="5.94718">
        <ele>2348</ele>
        <time>2013-05-07T13:13:46.000Z</time>
      </trkpt>
      <trkpt lat="45.17433" lon="5.94715">
        <ele>2348</ele>
        <time>2013-05-07T13:14:46.000Z</time>
      </trkpt>
      <trkpt lat="45.1743" lon="5.94716">
        <ele>2348</ele>
        <time>2013-05-07T13:14:56.000Z</time>
      </trkpt>
      <trkpt lat="45.17432" lon="5.94717">
        <ele>2348</ele>
        <time>2013-05-07T13:15:06.000Z</time>
      </trkpt>
      <trkpt lat="45.17434" lon="5.94718">
        <ele>2348</ele>
        <time>2013-05-07T13:15:16.000Z</time>
      </trkpt>
      <trkpt lat="45.17432" lon="5.94719">
        <ele>2349</ele>
        <time>2013-05-07T13:15:46.000Z</time>
      </trkpt>
      <trkpt lat="45.17429" lon="5.94719">
        <ele>2349</ele>
        <time>2013-05-07T13:15:56.000Z</time>
      </trkpt>
      <trkpt lat="45.1743" lon="5.94715">
        <ele>2348</ele>
        <time>2013-05-07T13:16:26.000Z</time>
      </trkpt>
      <trkpt lat="45.1743" lon="5.94713">
        <ele>2348</ele>
        <time>2013-05-07T13:16:36.000Z</time>
      </trkpt>
      <trkpt lat="45.1743" lon="5.94715">
        <ele>2348</ele>
        <time>2013-05-07T13:16:56.000Z</time>
      </trkpt>
      <trkpt lat="45.17432" lon="5.94719">
        <ele>2349</ele>
        <time>2013-05-07T13:17:06.000Z</time>
      </trkpt>
      <trkpt lat="45.17433" lon="5.94725">
        <ele>2350</ele>
        <time>2013-05-07T13:18:56.000Z</time>
      </trkpt>
      <trkpt lat="45.17433" lon="5.94733">
        <ele>2352</ele>
        <time>2013-05-07T13:19:06.000Z</time>
      </trkpt>
      <trkpt lat="45.17428" lon="5.94737">
        <ele>2355</ele>
        <time>2013-05-07T13:19:16.000Z</time>
      </trkpt>
      <trkpt lat="45.17423" lon="5.94751">
        <ele>2362</ele>
        <time>2013-05-07T13:19:26.000Z</time>
      </trkpt>
      <trkpt lat="45.17422" lon="5.94754">
        <ele>2362</ele>
        <time>2013-05-07T13:25:16.000Z</time>
      </trkpt>
      <trkpt lat="45.17427" lon="5.94755">
        <ele>2358</ele>
        <time>2013-05-07T13:25:26.000Z</time>
      </trkpt>
      <trkpt lat="45.17426" lon="5.94755">
        <ele>2359</ele>
        <time>2013-05-07T13:25:36.000Z</time>
      </trkpt>
      <trkpt lat="45.17422" lon="5.94753">
        <ele>2363</ele>
        <time>2013-05-07T13:25:46.000Z</time>
      </trkpt>
      <trkpt lat="45.17424" lon="5.94753">
        <ele>2361</ele>
        <time>2013-05-07T13:26:06.000Z</time>
      </trkpt>
      <trkpt lat="45.17417" lon="5.94751">
        <ele>2367</ele>
        <time>2013-05-07T13:26:16.000Z</time>
      </trkpt>
      <trkpt lat="45.17417" lon="5.94752">
        <ele>2366</ele>
        <time>2013-05-07T13:26:26.000Z</time>
      </trkpt>
      <trkpt lat="45.17419" lon="5.94758">
        <ele>2361</ele>
        <time>2013-05-07T13:26:36.000Z</time>
      </trkpt>
      <trkpt lat="45.17418" lon="5.94757">
        <ele>2362</ele>
        <time>2013-05-07T13:26:46.000Z</time>
      </trkpt>
      <trkpt lat="45.17404" lon="5.9477">
        <ele>2362</ele>
        <time>2013-05-07T13:26:56.000Z</time>
      </trkpt>
      <trkpt lat="45.17393" lon="5.9477">
        <ele>2361</ele>
        <time>2013-05-07T13:27:06.000Z</time>
      </trkpt>
      <trkpt lat="45.17364" lon="5.94747">
        <ele>2347</ele>
        <time>2013-05-07T13:27:16.000Z</time>
      </trkpt>
      <trkpt lat="45.17325" lon="5.94693">
        <ele>2328</ele>
        <time>2013-05-07T13:27:26.000Z</time>
      </trkpt>
      <trkpt lat="45.17283" lon="5.94602">
        <ele>2284</ele>
        <time>2013-05-07T13:27:36.000Z</time>
      </trkpt>
      <trkpt lat="45.17259" lon="5.94541">
        <ele>2259</ele>
        <time>2013-05-07T13:27:46.000Z</time>
      </trkpt>
      <trkpt lat="45.17245" lon="5.94499">
        <ele>2254</ele>
        <time>2013-05-07T13:27:56.000Z</time>
      </trkpt>
      <trkpt lat="45.17245" lon="5.9444">
        <ele>2251</ele>
        <time>2013-05-07T13:28:06.000Z</time>
      </trkpt>
      <trkpt lat="45.17248" lon="5.94437">
        <ele>2251</ele>
        <time>2013-05-07T13:28:46.000Z</time>
      </trkpt>
      <trkpt lat="45.17253" lon="5.94432">
        <ele>2241</ele>
        <time>2013-05-07T13:28:56.000Z</time>
      </trkpt>
      <trkpt lat="45.17253" lon="5.94432">
        <ele>2241</ele>
        <time>2013-05-07T13:29:16.000Z</time>
      </trkpt>
      <trkpt lat="45.1727" lon="5.94445">
        <ele>2238</ele>
        <time>2013-05-07T13:29:26.000Z</time>
      </trkpt>
      <trkpt lat="45.17321" lon="5.94452">
        <ele>2231</ele>
        <time>2013-05-07T13:29:36.000Z</time>
      </trkpt>
      <trkpt lat="45.1737" lon="5.94403">
        <ele>2214</ele>
        <time>2013-05-07T13:29:46.000Z</time>
      </trkpt>
      <trkpt lat="45.17387" lon="5.94332">
        <ele>2207</ele>
        <time>2013-05-07T13:29:56.000Z</time>
      </trkpt>
      <trkpt lat="45.17381" lon="5.94252">
        <ele>2203</ele>
        <time>2013-05-07T13:30:06.000Z</time>
      </trkpt>
      <trkpt lat="45.17381" lon="5.9416">
        <ele>2171</ele>
        <time>2013-05-07T13:30:16.000Z</time>
      </trkpt>
      <trkpt lat="45.17374" lon="5.94064">
        <ele>2145</ele>
        <time>2013-05-07T13:30:26.000Z</time>
      </trkpt>
      <trkpt lat="45.17343" lon="5.93999">
        <ele>2121</ele>
        <time>2013-05-07T13:30:36.000Z</time>
      </trkpt>
      <trkpt lat="45.17305" lon="5.93919">
        <ele>2141</ele>
        <time>2013-05-07T13:30:46.000Z</time>
      </trkpt>
      <trkpt lat="45.17273" lon="5.93873">
        <ele>2111</ele>
        <time>2013-05-07T13:30:56.000Z</time>
      </trkpt>
      <trkpt lat="45.17267" lon="5.93869">
        <ele>2110</ele>
        <time>2013-05-07T13:31:06.000Z</time>
      </trkpt>
      <trkpt lat="45.17264" lon="5.9386">
        <ele>2106</ele>
        <time>2013-05-07T13:31:16.000Z</time>
      </trkpt>
      <trkpt lat="45.17244" lon="5.93831">
        <ele>2079</ele>
        <time>2013-05-07T13:31:26.000Z</time>
      </trkpt>
      <trkpt lat="45.17217" lon="5.93812">
        <ele>2068</ele>
        <time>2013-05-07T13:31:36.000Z</time>
      </trkpt>
      <trkpt lat="45.17188" lon="5.93781">
        <ele>2054</ele>
        <time>2013-05-07T13:31:46.000Z</time>
      </trkpt>
      <trkpt lat="45.17161" lon="5.93718">
        <ele>2004</ele>
        <time>2013-05-07T13:31:56.000Z</time>
      </trkpt>
      <trkpt lat="45.17133" lon="5.93684">
        <ele>1996</ele>
        <time>2013-05-07T13:32:06.000Z</time>
      </trkpt>
      <trkpt lat="45.17137" lon="5.9368">
        <ele>1996</ele>
        <time>2013-05-07T13:32:16.000Z</time>
      </trkpt>
      <trkpt lat="45.17137" lon="5.9368">
        <ele>1996</ele>
        <time>2013-05-07T13:32:26.000Z</time>
      </trkpt>
      <trkpt lat="45.17139" lon="5.9367">
        <ele>1995</ele>
        <time>2013-05-07T13:32:37.000Z</time>
      </trkpt>
      <trkpt lat="45.17162" lon="5.93671">
        <ele>1994</ele>
        <time>2013-05-07T13:32:47.000Z</time>
      </trkpt>
      <trkpt lat="45.17199" lon="5.93656">
        <ele>1987</ele>
        <time>2013-05-07T13:32:57.000Z</time>
      </trkpt>
      <trkpt lat="45.17234" lon="5.93644">
        <ele>1987</ele>
        <time>2013-05-07T13:33:07.000Z</time>
      </trkpt>
      <trkpt lat="45.17261" lon="5.93636">
        <ele>1982</ele>
        <time>2013-05-07T13:33:17.000Z</time>
      </trkpt>
      <trkpt lat="45.17289" lon="5.9362">
        <ele>1977</ele>
        <time>2013-05-07T13:33:27.000Z</time>
      </trkpt>
      <trkpt lat="45.17328" lon="5.93616">
        <ele>1973</ele>
        <time>2013-05-07T13:33:36.000Z</time>
      </trkpt>
      <trkpt lat="45.1737" lon="5.93577">
        <ele>1941</ele>
        <time>2013-05-07T13:33:46.000Z</time>
      </trkpt>
      <trkpt lat="45.17358" lon="5.93506">
        <ele>1937</ele>
        <time>2013-05-07T13:33:56.000Z</time>
      </trkpt>
      <trkpt lat="45.17344" lon="5.93465">
        <ele>1927</ele>
        <time>2013-05-07T13:34:06.000Z</time>
      </trkpt>
      <trkpt lat="45.17331" lon="5.93439">
        <ele>1934</ele>
        <time>2013-05-07T13:34:16.000Z</time>
      </trkpt>
      <trkpt lat="45.17317" lon="5.93399">
        <ele>1931</ele>
        <time>2013-05-07T13:34:26.000Z</time>
      </trkpt>
      <trkpt lat="45.17317" lon="5.93355">
        <ele>1929</ele>
        <time>2013-05-07T13:34:36.000Z</time>
      </trkpt>
      <trkpt lat="45.17334" lon="5.93331">
        <ele>1916</ele>
        <time>2013-05-07T13:34:46.000Z</time>
      </trkpt>
      <trkpt lat="45.17347" lon="5.93304">
        <ele>1914</ele>
        <time>2013-05-07T13:34:56.000Z</time>
      </trkpt>
      <trkpt lat="45.17355" lon="5.93288">
        <ele>1913</ele>
        <time>2013-05-07T13:35:06.000Z</time>
      </trkpt>
      <trkpt lat="45.17367" lon="5.93242">
        <ele>1909</ele>
        <time>2013-05-07T13:35:16.000Z</time>
      </trkpt>
      <trkpt lat="45.17362" lon="5.93211">
        <ele>1907</ele>
        <time>2013-05-07T13:35:26.000Z</time>
      </trkpt>
      <trkpt lat="45.17358" lon="5.93182">
        <ele>1907</ele>
        <time>2013-05-07T13:35:36.000Z</time>
      </trkpt>
      <trkpt lat="45.17358" lon="5.93176">
        <ele>1907</ele>
        <time>2013-05-07T13:35:46.000Z</time>
      </trkpt>
      <trkpt lat="45.17358" lon="5.93165">
        <ele>1900</ele>
        <time>2013-05-07T13:35:56.000Z</time>
      </trkpt>
      <trkpt lat="45.17355" lon="5.93154">
        <ele>1899</ele>
        <time>2013-05-07T13:36:06.000Z</time>
      </trkpt>
      <trkpt lat="45.17354" lon="5.93143">
        <ele>1898</ele>
        <time>2013-05-07T13:36:16.000Z</time>
      </trkpt>
      <trkpt lat="45.17349" lon="5.93131">
        <ele>1896</ele>
        <time>2013-05-07T13:36:26.000Z</time>
      </trkpt>
      <trkpt lat="45.17349" lon="5.93131">
        <ele>1896</ele>
        <time>2013-05-07T13:36:36.000Z</time>
      </trkpt>
      <trkpt lat="45.17348" lon="5.93122">
        <ele>1895</ele>
        <time>2013-05-07T13:36:46.000Z</time>
      </trkpt>
      <trkpt lat="45.1734" lon="5.93098">
        <ele>1894</ele>
        <time>2013-05-07T13:36:56.000Z</time>
      </trkpt>
      <trkpt lat="45.17335" lon="5.93072">
        <ele>1886</ele>
        <time>2013-05-07T13:37:06.000Z</time>
      </trkpt>
      <trkpt lat="45.17321" lon="5.9303">
        <ele>1888</ele>
        <time>2013-05-07T13:37:16.000Z</time>
      </trkpt>
      <trkpt lat="45.17304" lon="5.92999">
        <ele>1866</ele>
        <time>2013-05-07T13:37:26.000Z</time>
      </trkpt>
      <trkpt lat="45.17286" lon="5.92969">
        <ele>1866</ele>
        <time>2013-05-07T13:37:36.000Z</time>
      </trkpt>
      <trkpt lat="45.17263" lon="5.92945">
        <ele>1863</ele>
        <time>2013-05-07T13:37:46.000Z</time>
      </trkpt>
      <trkpt lat="45.17253" lon="5.92904">
        <ele>1846</ele>
        <time>2013-05-07T13:37:56.000Z</time>
      </trkpt>
      <trkpt lat="45.1724" lon="5.92893">
        <ele>1861</ele>
        <time>2013-05-07T13:38:06.000Z</time>
      </trkpt>
      <trkpt lat="45.1723" lon="5.92888">
        <ele>1863</ele>
        <time>2013-05-07T13:38:16.000Z</time>
      </trkpt>
      <trkpt lat="45.17212" lon="5.92874">
        <ele>1866</ele>
        <time>2013-05-07T13:38:26.000Z</time>
      </trkpt>
      <trkpt lat="45.17194" lon="5.92847">
        <ele>1865</ele>
        <time>2013-05-07T13:38:36.000Z</time>
      </trkpt>
      <trkpt lat="45.17191" lon="5.92825">
        <ele>1851</ele>
        <time>2013-05-07T13:38:46.000Z</time>
      </trkpt>
      <trkpt lat="45.17191" lon="5.92818">
        <ele>1850</ele>
        <time>2013-05-07T13:38:56.000Z</time>
      </trkpt>
      <trkpt lat="45.17189" lon="5.92811">
        <ele>1850</ele>
        <time>2013-05-07T13:39:06.000Z</time>
      </trkpt>
      <trkpt lat="45.17185" lon="5.92805">
        <ele>1849</ele>
        <time>2013-05-07T13:39:16.000Z</time>
      </trkpt>
      <trkpt lat="45.17185" lon="5.92794">
        <ele>1847</ele>
        <time>2013-05-07T13:39:26.000Z</time>
      </trkpt>
      <trkpt lat="45.17184" lon="5.92782">
        <ele>1846</ele>
        <time>2013-05-07T13:39:36.000Z</time>
      </trkpt>
      <trkpt lat="45.17175" lon="5.92773">
        <ele>1847</ele>
        <time>2013-05-07T13:39:46.000Z</time>
      </trkpt>
      <trkpt lat="45.17152" lon="5.92736">
        <ele>1856</ele>
        <time>2013-05-07T13:39:56.000Z</time>
      </trkpt>
      <trkpt lat="45.17148" lon="5.92733">
        <ele>1857</ele>
        <time>2013-05-07T13:40:36.000Z</time>
      </trkpt>
      <trkpt lat="45.17143" lon="5.92731">
        <ele>1859</ele>
        <time>2013-05-07T13:40:46.000Z</time>
      </trkpt>
      <trkpt lat="45.17146" lon="5.92732">
        <ele>1858</ele>
        <time>2013-05-07T13:41:06.000Z</time>
      </trkpt>
      <trkpt lat="45.1715" lon="5.92737">
        <ele>1857</ele>
        <time>2013-05-07T13:41:16.000Z</time>
      </trkpt>
      <trkpt lat="45.17148" lon="5.92722">
        <ele>1858</ele>
        <time>2013-05-07T13:41:26.000Z</time>
      </trkpt>
      <trkpt lat="45.17141" lon="5.92691">
        <ele>1857</ele>
        <time>2013-05-07T13:41:36.000Z</time>
      </trkpt>
      <trkpt lat="45.17144" lon="5.92688">
        <ele>1856</ele>
        <time>2013-05-07T13:41:46.000Z</time>
      </trkpt>
      <trkpt lat="45.17192" lon="5.92687">
        <ele>1826</ele>
        <time>2013-05-07T13:41:56.000Z</time>
      </trkpt>
      <trkpt lat="45.17261" lon="5.92673">
        <ele>1788</ele>
        <time>2013-05-07T13:42:06.000Z</time>
      </trkpt>
      <trkpt lat="45.17301" lon="5.92628">
        <ele>1770</ele>
        <time>2013-05-07T13:42:16.000Z</time>
      </trkpt>
      <trkpt lat="45.17301" lon="5.92628">
        <ele>1770</ele>
        <time>2013-05-07T13:42:26.000Z</time>
      </trkpt>
      <trkpt lat="45.17305" lon="5.92608">
        <ele>1767</ele>
        <time>2013-05-07T13:42:36.000Z</time>
      </trkpt>
      <trkpt lat="45.17346" lon="5.92564">
        <ele>1742</ele>
        <time>2013-05-07T13:42:46.000Z</time>
      </trkpt>
      <trkpt lat="45.17389" lon="5.92512">
        <ele>1735</ele>
        <time>2013-05-07T13:42:56.000Z</time>
      </trkpt>
      <trkpt lat="45.17423" lon="5.9244">
        <ele>1718</ele>
        <time>2013-05-07T13:43:06.000Z</time>
      </trkpt>
      <trkpt lat="45.17469" lon="5.92427">
        <ele>1711</ele>
        <time>2013-05-07T13:43:16.000Z</time>
      </trkpt>
      <trkpt lat="45.1747" lon="5.92427">
        <ele>1710</ele>
        <time>2013-05-07T13:43:46.000Z</time>
      </trkpt>
      <trkpt lat="45.17489" lon="5.92406">
        <ele>1711</ele>
        <time>2013-05-07T13:43:56.000Z</time>
      </trkpt>
      <trkpt lat="45.17502" lon="5.9239">
        <ele>1696</ele>
        <time>2013-05-07T13:44:06.000Z</time>
      </trkpt>
      <trkpt lat="45.17502" lon="5.9239">
        <ele>1696</ele>
        <time>2013-05-07T13:44:36.000Z</time>
      </trkpt>
      <trkpt lat="45.17517" lon="5.9239">
        <ele>1694</ele>
        <time>2013-05-07T13:44:46.000Z</time>
      </trkpt>
      <trkpt lat="45.17517" lon="5.9239">
        <ele>1694</ele>
        <time>2013-05-07T13:44:56.000Z</time>
      </trkpt>
      <trkpt lat="45.17522" lon="5.92383">
        <ele>1694</ele>
        <time>2013-05-07T13:45:06.000Z</time>
      </trkpt>
      <trkpt lat="45.17531" lon="5.9238">
        <ele>1692</ele>
        <time>2013-05-07T13:45:16.000Z</time>
      </trkpt>
      <trkpt lat="45.17534" lon="5.92376">
        <ele>1692</ele>
        <time>2013-05-07T13:46:06.000Z</time>
      </trkpt>
      <trkpt lat="45.17538" lon="5.92354">
        <ele>1692</ele>
        <time>2013-05-07T13:46:16.000Z</time>
      </trkpt>
      <trkpt lat="45.17541" lon="5.92338">
        <ele>1692</ele>
        <time>2013-05-07T13:46:26.000Z</time>
      </trkpt>
      <trkpt lat="45.1754" lon="5.92335">
        <ele>1692</ele>
        <time>2013-05-07T13:46:36.000Z</time>
      </trkpt>
      <trkpt lat="45.17538" lon="5.92327">
        <ele>1697</ele>
        <time>2013-05-07T13:46:46.000Z</time>
      </trkpt>
      <trkpt lat="45.17538" lon="5.92327">
        <ele>1697</ele>
        <time>2013-05-07T13:47:06.000Z</time>
      </trkpt>
      <trkpt lat="45.17527" lon="5.92313">
        <ele>1701</ele>
        <time>2013-05-07T13:47:16.000Z</time>
      </trkpt>
      <trkpt lat="45.17529" lon="5.92294">
        <ele>1701</ele>
        <time>2013-05-07T13:47:26.000Z</time>
      </trkpt>
      <trkpt lat="45.17528" lon="5.92276">
        <ele>1703</ele>
        <time>2013-05-07T13:47:36.000Z</time>
      </trkpt>
      <trkpt lat="45.17531" lon="5.92263">
        <ele>1704</ele>
        <time>2013-05-07T13:47:46.000Z</time>
      </trkpt>
      <trkpt lat="45.1754" lon="5.92237">
        <ele>1711</ele>
        <time>2013-05-07T13:47:56.000Z</time>
      </trkpt>
      <trkpt lat="45.17543" lon="5.92227">
        <ele>1711</ele>
        <time>2013-05-07T13:48:06.000Z</time>
      </trkpt>
      <trkpt lat="45.17558" lon="5.92205">
        <ele>1710</ele>
        <time>2013-05-07T13:48:16.000Z</time>
      </trkpt>
      <trkpt lat="45.17572" lon="5.92178">
        <ele>1706</ele>
        <time>2013-05-07T13:48:26.000Z</time>
      </trkpt>
      <trkpt lat="45.17577" lon="5.92169">
        <ele>1702</ele>
        <time>2013-05-07T13:48:36.000Z</time>
      </trkpt>
      <trkpt lat="45.17579" lon="5.92167">
        <ele>1701</ele>
        <time>2013-05-07T13:49:16.000Z</time>
      </trkpt>
      <trkpt lat="45.17583" lon="5.92163">
        <ele>1703</ele>
        <time>2013-05-07T13:49:26.000Z</time>
      </trkpt>
      <trkpt lat="45.17582" lon="5.92158">
        <ele>1709</ele>
        <time>2013-05-07T13:49:56.000Z</time>
      </trkpt>
      <trkpt lat="45.17581" lon="5.92157">
        <ele>1711</ele>
        <time>2013-05-07T13:50:06.000Z</time>
      </trkpt>
      <trkpt lat="45.17582" lon="5.92154">
        <ele>1713</ele>
        <time>2013-05-07T13:50:16.000Z</time>
      </trkpt>
      <trkpt lat="45.17582" lon="5.9215">
        <ele>1716</ele>
        <time>2013-05-07T13:50:26.000Z</time>
      </trkpt>
      <trkpt lat="45.17585" lon="5.9215">
        <ele>1694</ele>
        <time>2013-05-07T13:52:56.000Z</time>
      </trkpt>
      <trkpt lat="45.17585" lon="5.92146">
        <ele>1694</ele>
        <time>2013-05-07T13:53:06.000Z</time>
      </trkpt>
      <trkpt lat="45.17583" lon="5.92144">
        <ele>1720</ele>
        <time>2013-05-07T13:53:36.000Z</time>
      </trkpt>
      <trkpt lat="45.17586" lon="5.92139">
        <ele>1694</ele>
        <time>2013-05-07T13:53:46.000Z</time>
      </trkpt>
      <trkpt lat="45.17586" lon="5.92139">
        <ele>1694</ele>
        <time>2013-05-07T13:54:26.000Z</time>
      </trkpt>
      <trkpt lat="45.17586" lon="5.92152">
        <ele>1694</ele>
        <time>2013-05-07T13:54:36.000Z</time>
      </trkpt>
      <trkpt lat="45.1759" lon="5.92149">
        <ele>1693</ele>
        <time>2013-05-07T13:55:56.000Z</time>
      </trkpt>
      <trkpt lat="45.17595" lon="5.9214">
        <ele>1692</ele>
        <time>2013-05-07T13:56:06.000Z</time>
      </trkpt>
      <trkpt lat="45.17604" lon="5.92128">
        <ele>1692</ele>
        <time>2013-05-07T13:56:16.000Z</time>
      </trkpt>
      <trkpt lat="45.17609" lon="5.92119">
        <ele>1693</ele>
        <time>2013-05-07T13:56:26.000Z</time>
      </trkpt>
      <trkpt lat="45.17613" lon="5.92104">
        <ele>1695</ele>
        <time>2013-05-07T13:56:36.000Z</time>
      </trkpt>
      <trkpt lat="45.1762" lon="5.92092">
        <ele>1693</ele>
        <time>2013-05-07T13:56:46.000Z</time>
      </trkpt>
      <trkpt lat="45.17627" lon="5.92082">
        <ele>1702</ele>
        <time>2013-05-07T13:56:56.000Z</time>
      </trkpt>
      <trkpt lat="45.17629" lon="5.92079">
        <ele>1701</ele>
        <time>2013-05-07T13:57:06.000Z</time>
      </trkpt>
      <trkpt lat="45.1763" lon="5.92077">
        <ele>1701</ele>
        <time>2013-05-07T13:57:16.000Z</time>
      </trkpt>
      <trkpt lat="45.17632" lon="5.92076">
        <ele>1700</ele>
        <time>2013-05-07T13:57:26.000Z</time>
      </trkpt>
      <trkpt lat="45.17645" lon="5.92073">
        <ele>1694</ele>
        <time>2013-05-07T13:57:36.000Z</time>
      </trkpt>
      <trkpt lat="45.17658" lon="5.92067">
        <ele>1691</ele>
        <time>2013-05-07T13:57:46.000Z</time>
      </trkpt>
      <trkpt lat="45.17662" lon="5.92055">
        <ele>1695</ele>
        <time>2013-05-07T13:57:56.000Z</time>
      </trkpt>
      <trkpt lat="45.17667" lon="5.92039">
        <ele>1671</ele>
        <time>2013-05-07T13:58:06.000Z</time>
      </trkpt>
      <trkpt lat="45.17671" lon="5.92029">
        <ele>1674</ele>
        <time>2013-05-07T13:58:16.000Z</time>
      </trkpt>
      <trkpt lat="45.17677" lon="5.92014">
        <ele>1678</ele>
        <time>2013-05-07T13:58:26.000Z</time>
      </trkpt>
      <trkpt lat="45.17682" lon="5.91999">
        <ele>1683</ele>
        <time>2013-05-07T13:58:36.000Z</time>
      </trkpt>
      <trkpt lat="45.17688" lon="5.9199">
        <ele>1679</ele>
        <time>2013-05-07T13:58:46.000Z</time>
      </trkpt>
      <trkpt lat="45.17698" lon="5.91976">
        <ele>1673</ele>
        <time>2013-05-07T13:58:56.000Z</time>
      </trkpt>
      <trkpt lat="45.17703" lon="5.91961">
        <ele>1671</ele>
        <time>2013-05-07T13:59:06.000Z</time>
      </trkpt>
      <trkpt lat="45.17708" lon="5.91944">
        <ele>1670</ele>
        <time>2013-05-07T13:59:16.000Z</time>
      </trkpt>
      <trkpt lat="45.17709" lon="5.9193">
        <ele>1670</ele>
        <time>2013-05-07T13:59:26.000Z</time>
      </trkpt>
      <trkpt lat="45.17709" lon="5.91919">
        <ele>1669</ele>
        <time>2013-05-07T13:59:36.000Z</time>
      </trkpt>
      <trkpt lat="45.17716" lon="5.91913">
        <ele>1662</ele>
        <time>2013-05-07T13:59:46.000Z</time>
      </trkpt>
      <trkpt lat="45.17719" lon="5.91905">
        <ele>1661</ele>
        <time>2013-05-07T13:59:56.000Z</time>
      </trkpt>
      <trkpt lat="45.17728" lon="5.91892">
        <ele>1659</ele>
        <time>2013-05-07T14:00:06.000Z</time>
      </trkpt>
      <trkpt lat="45.17736" lon="5.91882">
        <ele>1658</ele>
        <time>2013-05-07T14:00:16.000Z</time>
      </trkpt>
      <trkpt lat="45.17741" lon="5.91876">
        <ele>1657</ele>
        <time>2013-05-07T14:00:26.000Z</time>
      </trkpt>
      <trkpt lat="45.17748" lon="5.91866">
        <ele>1656</ele>
        <time>2013-05-07T14:00:36.000Z</time>
      </trkpt>
      <trkpt lat="45.17758" lon="5.91858">
        <ele>1637</ele>
        <time>2013-05-07T14:00:46.000Z</time>
      </trkpt>
      <trkpt lat="45.17761" lon="5.91851">
        <ele>1637</ele>
        <time>2013-05-07T14:00:56.000Z</time>
      </trkpt>
      <trkpt lat="45.1776" lon="5.91844">
        <ele>1639</ele>
        <time>2013-05-07T14:01:06.000Z</time>
      </trkpt>
      <trkpt lat="45.17757" lon="5.91837">
        <ele>1642</ele>
        <time>2013-05-07T14:01:16.000Z</time>
      </trkpt>
      <trkpt lat="45.17758" lon="5.91831">
        <ele>1639</ele>
        <time>2013-05-07T14:01:26.000Z</time>
      </trkpt>
      <trkpt lat="45.17764" lon="5.91824">
        <ele>1633</ele>
        <time>2013-05-07T14:01:36.000Z</time>
      </trkpt>
      <trkpt lat="45.17773" lon="5.91824">
        <ele>1629</ele>
        <time>2013-05-07T14:01:46.000Z</time>
      </trkpt>
      <trkpt lat="45.17781" lon="5.91826">
        <ele>1627</ele>
        <time>2013-05-07T14:01:56.000Z</time>
      </trkpt>
      <trkpt lat="45.17786" lon="5.91822">
        <ele>1625</ele>
        <time>2013-05-07T14:02:06.000Z</time>
      </trkpt>
      <trkpt lat="45.17784" lon="5.91816">
        <ele>1624</ele>
        <time>2013-05-07T14:02:16.000Z</time>
      </trkpt>
      <trkpt lat="45.17779" lon="5.91809">
        <ele>1624</ele>
        <time>2013-05-07T14:02:26.000Z</time>
      </trkpt>
      <trkpt lat="45.17776" lon="5.91804">
        <ele>1624</ele>
        <time>2013-05-07T14:02:36.000Z</time>
      </trkpt>
      <trkpt lat="45.1777" lon="5.91799">
        <ele>1624</ele>
        <time>2013-05-07T14:02:46.000Z</time>
      </trkpt>
      <trkpt lat="45.17774" lon="5.91794">
        <ele>1622</ele>
        <time>2013-05-07T14:02:56.000Z</time>
      </trkpt>
      <trkpt lat="45.17781" lon="5.91792">
        <ele>1621</ele>
        <time>2013-05-07T14:03:06.000Z</time>
      </trkpt>
      <trkpt lat="45.17784" lon="5.91793">
        <ele>1621</ele>
        <time>2013-05-07T14:03:16.000Z</time>
      </trkpt>
      <trkpt lat="45.17786" lon="5.9179">
        <ele>1620</ele>
        <time>2013-05-07T14:03:26.000Z</time>
      </trkpt>
      <trkpt lat="45.17784" lon="5.91786">
        <ele>1620</ele>
        <time>2013-05-07T14:03:36.000Z</time>
      </trkpt>
      <trkpt lat="45.17785" lon="5.9178">
        <ele>1619</ele>
        <time>2013-05-07T14:03:46.000Z</time>
      </trkpt>
      <trkpt lat="45.1779" lon="5.91776">
        <ele>1618</ele>
        <time>2013-05-07T14:03:56.000Z</time>
      </trkpt>
      <trkpt lat="45.17788" lon="5.91768">
        <ele>1617</ele>
        <time>2013-05-07T14:04:06.000Z</time>
      </trkpt>
      <trkpt lat="45.17784" lon="5.91764">
        <ele>1617</ele>
        <time>2013-05-07T14:04:16.000Z</time>
      </trkpt>
      <trkpt lat="45.17776" lon="5.91755">
        <ele>1617</ele>
        <time>2013-05-07T14:04:26.000Z</time>
      </trkpt>
      <trkpt lat="45.17765" lon="5.91749">
        <ele>1604</ele>
        <time>2013-05-07T14:04:36.000Z</time>
      </trkpt>
      <trkpt lat="45.1776" lon="5.9175">
        <ele>1607</ele>
        <time>2013-05-07T14:04:46.000Z</time>
      </trkpt>
      <trkpt lat="45.17753" lon="5.91744">
        <ele>1608</ele>
        <time>2013-05-07T14:04:56.000Z</time>
      </trkpt>
      <trkpt lat="45.17753" lon="5.91738">
        <ele>1605</ele>
        <time>2013-05-07T14:05:06.000Z</time>
      </trkpt>
      <trkpt lat="45.1776" lon="5.91733">
        <ele>1601</ele>
        <time>2013-05-07T14:05:16.000Z</time>
      </trkpt>
      <trkpt lat="45.17763" lon="5.91727">
        <ele>1598</ele>
        <time>2013-05-07T14:05:26.000Z</time>
      </trkpt>
      <trkpt lat="45.17775" lon="5.91724">
        <ele>1596</ele>
        <time>2013-05-07T14:05:36.000Z</time>
      </trkpt>
      <trkpt lat="45.17783" lon="5.91722">
        <ele>1595</ele>
        <time>2013-05-07T14:05:46.000Z</time>
      </trkpt>
      <trkpt lat="45.17789" lon="5.91719">
        <ele>1594</ele>
        <time>2013-05-07T14:05:56.000Z</time>
      </trkpt>
      <trkpt lat="45.17797" lon="5.91716">
        <ele>1593</ele>
        <time>2013-05-07T14:06:06.000Z</time>
      </trkpt>
      <trkpt lat="45.17806" lon="5.91712">
        <ele>1591</ele>
        <time>2013-05-07T14:06:16.000Z</time>
      </trkpt>
      <trkpt lat="45.1781" lon="5.91708">
        <ele>1590</ele>
        <time>2013-05-07T14:06:26.000Z</time>
      </trkpt>
      <trkpt lat="45.17818" lon="5.91709">
        <ele>1590</ele>
        <time>2013-05-07T14:06:36.000Z</time>
      </trkpt>
      <trkpt lat="45.17824" lon="5.91702">
        <ele>1588</ele>
        <time>2013-05-07T14:06:46.000Z</time>
      </trkpt>
      <trkpt lat="45.17834" lon="5.91701">
        <ele>1576</ele>
        <time>2013-05-07T14:06:56.000Z</time>
      </trkpt>
      <trkpt lat="45.17839" lon="5.91697">
        <ele>1575</ele>
        <time>2013-05-07T14:07:06.000Z</time>
      </trkpt>
      <trkpt lat="45.17837" lon="5.91693">
        <ele>1575</ele>
        <time>2013-05-07T14:07:16.000Z</time>
      </trkpt>
      <trkpt lat="45.17833" lon="5.91687">
        <ele>1583</ele>
        <time>2013-05-07T14:07:26.000Z</time>
      </trkpt>
      <trkpt lat="45.17825" lon="5.9168">
        <ele>1581</ele>
        <time>2013-05-07T14:07:36.000Z</time>
      </trkpt>
      <trkpt lat="45.17818" lon="5.91677">
        <ele>1581</ele>
        <time>2013-05-07T14:07:46.000Z</time>
      </trkpt>
      <trkpt lat="45.17813" lon="5.91678">
        <ele>1583</ele>
        <time>2013-05-07T14:07:56.000Z</time>
      </trkpt>
      <trkpt lat="45.17808" lon="5.91677">
        <ele>1584</ele>
        <time>2013-05-07T14:08:06.000Z</time>
      </trkpt>
      <trkpt lat="45.17803" lon="5.9167">
        <ele>1584</ele>
        <time>2013-05-07T14:08:16.000Z</time>
      </trkpt>
      <trkpt lat="45.17807" lon="5.91665">
        <ele>1562</ele>
        <time>2013-05-07T14:08:26.000Z</time>
      </trkpt>
      <trkpt lat="45.17813" lon="5.91657">
        <ele>1562</ele>
        <time>2013-05-07T14:08:36.000Z</time>
      </trkpt>
      <trkpt lat="45.17822" lon="5.91653">
        <ele>1562</ele>
        <time>2013-05-07T14:08:46.000Z</time>
      </trkpt>
      <trkpt lat="45.17829" lon="5.91649">
        <ele>1562</ele>
        <time>2013-05-07T14:08:56.000Z</time>
      </trkpt>
      <trkpt lat="45.17834" lon="5.91644">
        <ele>1558</ele>
        <time>2013-05-07T14:09:06.000Z</time>
      </trkpt>
      <trkpt lat="45.17842" lon="5.91638">
        <ele>1555</ele>
        <time>2013-05-07T14:09:16.000Z</time>
      </trkpt>
      <trkpt lat="45.17847" lon="5.91632">
        <ele>1553</ele>
        <time>2013-05-07T14:09:26.000Z</time>
      </trkpt>
      <trkpt lat="45.17855" lon="5.9163">
        <ele>1551</ele>
        <time>2013-05-07T14:09:36.000Z</time>
      </trkpt>
      <trkpt lat="45.17865" lon="5.91625">
        <ele>1550</ele>
        <time>2013-05-07T14:09:46.000Z</time>
      </trkpt>
      <trkpt lat="45.1787" lon="5.9162">
        <ele>1549</ele>
        <time>2013-05-07T14:09:56.000Z</time>
      </trkpt>
      <trkpt lat="45.17878" lon="5.91614">
        <ele>1548</ele>
        <time>2013-05-07T14:10:06.000Z</time>
      </trkpt>
      <trkpt lat="45.17887" lon="5.91611">
        <ele>1547</ele>
        <time>2013-05-07T14:10:16.000Z</time>
      </trkpt>
      <trkpt lat="45.17896" lon="5.91604">
        <ele>1545</ele>
        <time>2013-05-07T14:10:26.000Z</time>
      </trkpt>
      <trkpt lat="45.17905" lon="5.91599">
        <ele>1543</ele>
        <time>2013-05-07T14:10:36.000Z</time>
      </trkpt>
      <trkpt lat="45.17913" lon="5.91598">
        <ele>1541</ele>
        <time>2013-05-07T14:10:46.000Z</time>
      </trkpt>
      <trkpt lat="45.17922" lon="5.91596">
        <ele>1535</ele>
        <time>2013-05-07T14:10:56.000Z</time>
      </trkpt>
      <trkpt lat="45.17933" lon="5.91595">
        <ele>1534</ele>
        <time>2013-05-07T14:11:06.000Z</time>
      </trkpt>
      <trkpt lat="45.17942" lon="5.9159">
        <ele>1533</ele>
        <time>2013-05-07T14:11:16.000Z</time>
      </trkpt>
      <trkpt lat="45.17944" lon="5.91589">
        <ele>1533</ele>
        <time>2013-05-07T14:11:26.000Z</time>
      </trkpt>
      <trkpt lat="45.17948" lon="5.91589">
        <ele>1533</ele>
        <time>2013-05-07T14:11:36.000Z</time>
      </trkpt>
      <trkpt lat="45.17951" lon="5.91589">
        <ele>1532</ele>
        <time>2013-05-07T14:11:56.000Z</time>
      </trkpt>
      <trkpt lat="45.17956" lon="5.91587">
        <ele>1531</ele>
        <time>2013-05-07T14:12:06.000Z</time>
      </trkpt>
      <trkpt lat="45.17969" lon="5.91585">
        <ele>1529</ele>
        <time>2013-05-07T14:12:16.000Z</time>
      </trkpt>
      <trkpt lat="45.17973" lon="5.91584">
        <ele>1529</ele>
        <time>2013-05-07T14:12:26.000Z</time>
      </trkpt>
      <trkpt lat="45.1798" lon="5.91581">
        <ele>1519</ele>
        <time>2013-05-07T14:12:36.000Z</time>
      </trkpt>
      <trkpt lat="45.17987" lon="5.9158">
        <ele>1519</ele>
        <time>2013-05-07T14:12:46.000Z</time>
      </trkpt>
      <trkpt lat="45.17997" lon="5.91578">
        <ele>1520</ele>
        <time>2013-05-07T14:12:56.000Z</time>
      </trkpt>
      <trkpt lat="45.18006" lon="5.91578">
        <ele>1518</ele>
        <time>2013-05-07T14:13:06.000Z</time>
      </trkpt>
      <trkpt lat="45.18009" lon="5.91581">
        <ele>1517</ele>
        <time>2013-05-07T14:13:16.000Z</time>
      </trkpt>
      <trkpt lat="45.18016" lon="5.91583">
        <ele>1515</ele>
        <time>2013-05-07T14:13:26.000Z</time>
      </trkpt>
      <trkpt lat="45.18027" lon="5.91585">
        <ele>1514</ele>
        <time>2013-05-07T14:13:36.000Z</time>
      </trkpt>
      <trkpt lat="45.18036" lon="5.91584">
        <ele>1513</ele>
        <time>2013-05-07T14:13:46.000Z</time>
      </trkpt>
      <trkpt lat="45.18048" lon="5.9158">
        <ele>1511</ele>
        <time>2013-05-07T14:13:56.000Z</time>
      </trkpt>
      <trkpt lat="45.18052" lon="5.91572">
        <ele>1511</ele>
        <time>2013-05-07T14:14:06.000Z</time>
      </trkpt>
      <trkpt lat="45.18058" lon="5.91576">
        <ele>1511</ele>
        <time>2013-05-07T14:14:16.000Z</time>
      </trkpt>
      <trkpt lat="45.18062" lon="5.91577">
        <ele>1511</ele>
        <time>2013-05-07T14:14:26.000Z</time>
      </trkpt>
      <trkpt lat="45.1807" lon="5.91573">
        <ele>1510</ele>
        <time>2013-05-07T14:14:36.000Z</time>
      </trkpt>
      <trkpt lat="45.18081" lon="5.91569">
        <ele>1510</ele>
        <time>2013-05-07T14:14:46.000Z</time>
      </trkpt>
      <trkpt lat="45.1809" lon="5.91569">
        <ele>1508</ele>
        <time>2013-05-07T14:14:56.000Z</time>
      </trkpt>
      <trkpt lat="45.18102" lon="5.91566">
        <ele>1508</ele>
        <time>2013-05-07T14:15:06.000Z</time>
      </trkpt>
      <trkpt lat="45.1811" lon="5.91561">
        <ele>1507</ele>
        <time>2013-05-07T14:15:16.000Z</time>
      </trkpt>
      <trkpt lat="45.18122" lon="5.91555">
        <ele>1506</ele>
        <time>2013-05-07T14:15:26.000Z</time>
      </trkpt>
      <trkpt lat="45.18129" lon="5.91552">
        <ele>1506</ele>
        <time>2013-05-07T14:15:36.000Z</time>
      </trkpt>
      <trkpt lat="45.18138" lon="5.9155">
        <ele>1506</ele>
        <time>2013-05-07T14:15:46.000Z</time>
      </trkpt>
      <trkpt lat="45.18147" lon="5.91549">
        <ele>1505</ele>
        <time>2013-05-07T14:15:56.000Z</time>
      </trkpt>
      <trkpt lat="45.18158" lon="5.91544">
        <ele>1505</ele>
        <time>2013-05-07T14:16:06.000Z</time>
      </trkpt>
      <trkpt lat="45.18163" lon="5.91535">
        <ele>1505</ele>
        <time>2013-05-07T14:16:16.000Z</time>
      </trkpt>
      <trkpt lat="45.18173" lon="5.91526">
        <ele>1502</ele>
        <time>2013-05-07T14:16:26.000Z</time>
      </trkpt>
      <trkpt lat="45.18182" lon="5.91523">
        <ele>1502</ele>
        <time>2013-05-07T14:16:36.000Z</time>
      </trkpt>
      <trkpt lat="45.18192" lon="5.91519">
        <ele>1501</ele>
        <time>2013-05-07T14:16:46.000Z</time>
      </trkpt>
      <trkpt lat="45.182" lon="5.91517">
        <ele>1501</ele>
        <time>2013-05-07T14:16:56.000Z</time>
      </trkpt>
      <trkpt lat="45.18208" lon="5.91514">
        <ele>1500</ele>
        <time>2013-05-07T14:17:06.000Z</time>
      </trkpt>
      <trkpt lat="45.18208" lon="5.91521">
        <ele>1500</ele>
        <time>2013-05-07T14:17:16.000Z</time>
      </trkpt>
      <trkpt lat="45.1821" lon="5.91528">
        <ele>1500</ele>
        <time>2013-05-07T14:17:26.000Z</time>
      </trkpt>
      <trkpt lat="45.18218" lon="5.91521">
        <ele>1500</ele>
        <time>2013-05-07T14:17:36.000Z</time>
      </trkpt>
      <trkpt lat="45.18224" lon="5.91513">
        <ele>1499</ele>
        <time>2013-05-07T14:17:46.000Z</time>
      </trkpt>
      <trkpt lat="45.18231" lon="5.91508">
        <ele>1498</ele>
        <time>2013-05-07T14:17:56.000Z</time>
      </trkpt>
      <trkpt lat="45.18241" lon="5.91506">
        <ele>1497</ele>
        <time>2013-05-07T14:18:06.000Z</time>
      </trkpt>
      <trkpt lat="45.1825" lon="5.91502">
        <ele>1495</ele>
        <time>2013-05-07T14:18:16.000Z</time>
      </trkpt>
      <trkpt lat="45.18264" lon="5.91503">
        <ele>1493</ele>
        <time>2013-05-07T14:18:26.000Z</time>
      </trkpt>
      <trkpt lat="45.18276" lon="5.91503">
        <ele>1491</ele>
        <time>2013-05-07T14:18:36.000Z</time>
      </trkpt>
      <trkpt lat="45.18284" lon="5.91505">
        <ele>1490</ele>
        <time>2013-05-07T14:18:46.000Z</time>
      </trkpt>
      <trkpt lat="45.18292" lon="5.91505">
        <ele>1490</ele>
        <time>2013-05-07T14:18:56.000Z</time>
      </trkpt>
      <trkpt lat="45.18298" lon="5.91505">
        <ele>1489</ele>
        <time>2013-05-07T14:19:06.000Z</time>
      </trkpt>
      <trkpt lat="45.18301" lon="5.91504">
        <ele>1488</ele>
        <time>2013-05-07T14:19:16.000Z</time>
      </trkpt>
      <trkpt lat="45.18318" lon="5.915">
        <ele>1485</ele>
        <time>2013-05-07T14:19:26.000Z</time>
      </trkpt>
      <trkpt lat="45.18326" lon="5.91497">
        <ele>1481</ele>
        <time>2013-05-07T14:19:36.000Z</time>
      </trkpt>
      <trkpt lat="45.1833" lon="5.91489">
        <ele>1481</ele>
        <time>2013-05-07T14:19:46.000Z</time>
      </trkpt>
      <trkpt lat="45.18331" lon="5.91487">
        <ele>1480</ele>
        <time>2013-05-07T14:19:56.000Z</time>
      </trkpt>
      <trkpt lat="45.18339" lon="5.9148">
        <ele>1469</ele>
        <time>2013-05-07T14:20:06.000Z</time>
      </trkpt>
      <trkpt lat="45.18343" lon="5.91469">
        <ele>1466</ele>
        <time>2013-05-07T14:20:16.000Z</time>
      </trkpt>
      <trkpt lat="45.18348" lon="5.91458">
        <ele>1464</ele>
        <time>2013-05-07T14:20:26.000Z</time>
      </trkpt>
      <trkpt lat="45.18351" lon="5.91454">
        <ele>1463</ele>
        <time>2013-05-07T14:20:36.000Z</time>
      </trkpt>
      <trkpt lat="45.18359" lon="5.9144">
        <ele>1462</ele>
        <time>2013-05-07T14:20:46.000Z</time>
      </trkpt>
      <trkpt lat="45.18366" lon="5.91437">
        <ele>1461</ele>
        <time>2013-05-07T14:20:56.000Z</time>
      </trkpt>
      <trkpt lat="45.1837" lon="5.91435">
        <ele>1460</ele>
        <time>2013-05-07T14:21:06.000Z</time>
      </trkpt>
      <trkpt lat="45.18376" lon="5.91437">
        <ele>1459</ele>
        <time>2013-05-07T14:21:16.000Z</time>
      </trkpt>
      <trkpt lat="45.1838" lon="5.9144">
        <ele>1459</ele>
        <time>2013-05-07T14:21:26.000Z</time>
      </trkpt>
      <trkpt lat="45.1838" lon="5.9144">
        <ele>1459</ele>
        <time>2013-05-07T14:21:36.000Z</time>
      </trkpt>
      <trkpt lat="45.18383" lon="5.91442">
        <ele>1459</ele>
        <time>2013-05-07T14:21:56.000Z</time>
      </trkpt>
      <trkpt lat="45.18395" lon="5.91451">
        <ele>1457</ele>
        <time>2013-05-07T14:22:06.000Z</time>
      </trkpt>
      <trkpt lat="45.1841" lon="5.9146">
        <ele>1456</ele>
        <time>2013-05-07T14:22:16.000Z</time>
      </trkpt>
      <trkpt lat="45.18419" lon="5.91462">
        <ele>1434</ele>
        <time>2013-05-07T14:22:26.000Z</time>
      </trkpt>
      <trkpt lat="45.18424" lon="5.91462">
        <ele>1433</ele>
        <time>2013-05-07T14:22:36.000Z</time>
      </trkpt>
      <trkpt lat="45.1843" lon="5.91465">
        <ele>1432</ele>
        <time>2013-05-07T14:22:46.000Z</time>
      </trkpt>
      <trkpt lat="45.18441" lon="5.9146">
        <ele>1430</ele>
        <time>2013-05-07T14:22:56.000Z</time>
      </trkpt>
      <trkpt lat="45.18449" lon="5.91454">
        <ele>1428</ele>
        <time>2013-05-07T14:23:06.000Z</time>
      </trkpt>
      <trkpt lat="45.18456" lon="5.91448">
        <ele>1426</ele>
        <time>2013-05-07T14:23:16.000Z</time>
      </trkpt>
      <trkpt lat="45.18464" lon="5.91437">
        <ele>1425</ele>
        <time>2013-05-07T14:23:26.000Z</time>
      </trkpt>
      <trkpt lat="45.18468" lon="5.91424">
        <ele>1424</ele>
        <time>2013-05-07T14:23:36.000Z</time>
      </trkpt>
      <trkpt lat="45.18475" lon="5.91409">
        <ele>1422</ele>
        <time>2013-05-07T14:23:46.000Z</time>
      </trkpt>
      <trkpt lat="45.1848" lon="5.91401">
        <ele>1421</ele>
        <time>2013-05-07T14:23:56.000Z</time>
      </trkpt>
      <trkpt lat="45.18487" lon="5.91392">
        <ele>1420</ele>
        <time>2013-05-07T14:24:06.000Z</time>
      </trkpt>
      <trkpt lat="45.18499" lon="5.91385">
        <ele>1420</ele>
        <time>2013-05-07T14:24:16.000Z</time>
      </trkpt>
      <trkpt lat="45.18508" lon="5.91379">
        <ele>1404</ele>
        <time>2013-05-07T14:24:26.000Z</time>
      </trkpt>
      <trkpt lat="45.18517" lon="5.91372">
        <ele>1403</ele>
        <time>2013-05-07T14:24:36.000Z</time>
      </trkpt>
      <trkpt lat="45.18522" lon="5.91365">
        <ele>1402</ele>
        <time>2013-05-07T14:24:46.000Z</time>
      </trkpt>
      <trkpt lat="45.18529" lon="5.91358">
        <ele>1402</ele>
        <time>2013-05-07T14:24:56.000Z</time>
      </trkpt>
      <trkpt lat="45.18536" lon="5.91354">
        <ele>1401</ele>
        <time>2013-05-07T14:25:06.000Z</time>
      </trkpt>
      <trkpt lat="45.18546" lon="5.9135">
        <ele>1400</ele>
        <time>2013-05-07T14:25:16.000Z</time>
      </trkpt>
      <trkpt lat="45.18554" lon="5.9134">
        <ele>1399</ele>
        <time>2013-05-07T14:25:26.000Z</time>
      </trkpt>
      <trkpt lat="45.18563" lon="5.91332">
        <ele>1397</ele>
        <time>2013-05-07T14:25:36.000Z</time>
      </trkpt>
      <trkpt lat="45.1857" lon="5.91326">
        <ele>1397</ele>
        <time>2013-05-07T14:25:46.000Z</time>
      </trkpt>
      <trkpt lat="45.18581" lon="5.91316">
        <ele>1396</ele>
        <time>2013-05-07T14:25:56.000Z</time>
      </trkpt>
      <trkpt lat="45.18593" lon="5.91308">
        <ele>1389</ele>
        <time>2013-05-07T14:26:06.000Z</time>
      </trkpt>
      <trkpt lat="45.18603" lon="5.91302">
        <ele>1388</ele>
        <time>2013-05-07T14:26:16.000Z</time>
      </trkpt>
      <trkpt lat="45.18615" lon="5.91297">
        <ele>1386</ele>
        <time>2013-05-07T14:26:26.000Z</time>
      </trkpt>
      <trkpt lat="45.18628" lon="5.91297">
        <ele>1385</ele>
        <time>2013-05-07T14:26:36.000Z</time>
      </trkpt>
      <trkpt lat="45.18639" lon="5.91298">
        <ele>1384</ele>
        <time>2013-05-07T14:26:46.000Z</time>
      </trkpt>
      <trkpt lat="45.1865" lon="5.91298">
        <ele>1383</ele>
        <time>2013-05-07T14:26:56.000Z</time>
      </trkpt>
      <trkpt lat="45.18657" lon="5.91299">
        <ele>1383</ele>
        <time>2013-05-07T14:27:06.000Z</time>
      </trkpt>
      <trkpt lat="45.18667" lon="5.91296">
        <ele>1374</ele>
        <time>2013-05-07T14:27:16.000Z</time>
      </trkpt>
      <trkpt lat="45.1867" lon="5.91283">
        <ele>1374</ele>
        <time>2013-05-07T14:27:26.000Z</time>
      </trkpt>
      <trkpt lat="45.18673" lon="5.91281">
        <ele>1374</ele>
        <time>2013-05-07T14:27:56.000Z</time>
      </trkpt>
      <trkpt lat="45.18676" lon="5.91276">
        <ele>1374</ele>
        <time>2013-05-07T14:28:06.000Z</time>
      </trkpt>
      <trkpt lat="45.18675" lon="5.91273">
        <ele>1374</ele>
        <time>2013-05-07T14:28:36.000Z</time>
      </trkpt>
      <trkpt lat="45.18668" lon="5.9128">
        <ele>1374</ele>
        <time>2013-05-07T14:28:46.000Z</time>
      </trkpt>
      <trkpt lat="45.1867" lon="5.9128">
        <ele>1374</ele>
        <time>2013-05-07T14:29:06.000Z</time>
      </trkpt>
      <trkpt lat="45.18673" lon="5.91277">
        <ele>1374</ele>
        <time>2013-05-07T14:29:16.000Z</time>
      </trkpt>
      <trkpt lat="45.18673" lon="5.91279">
        <ele>1374</ele>
        <time>2013-05-07T14:29:26.000Z</time>
      </trkpt>
    </trkseg>
  </trk>
</gpx>